<?xml version="1.0" encoding="UTF-8" standalone="no" ?>
<gpx xmlns="http://www.topografix.com/GPX/1/1" xmlns:xsi="http://www.w3.org/2001/XMLSchema-instance" xsi:schemaLocation="http://www.topografix.com/GPX/1/1 http://www.topografix.com/GPX/1/1/gpx.xsd" version="1.1" creator="VisuGPX - https://www.visugpx.com">
  <metadata>
    <name>Compostelle J4 Estaing Conques</name>
    <desc><![CDATA[Dernier jour 40 KM 820D  852D- le clou est l\'arrivée sur Conques. Nous avons pris la route pour être à l\'heure pour le de mais les chemin doivent être bien mieux .]]></desc>
  </metadata>
  <trk>
    <name><![CDATA[2015-09-20-01 on GPSies.com]]></name>
    <trkseg>
      <trkpt lat="44.55337" lon="2.67238">
        <ele>326.88427</ele>
        <time>2015-09-20T05:39:13Z</time>
      </trkpt>
      <trkpt lat="44.55337" lon="2.67238">
        <ele>326.88427</ele>
        <time>2015-09-20T05:39:14Z</time>
      </trkpt>
      <trkpt lat="44.55346" lon="2.67233">
        <ele>326.91595</ele>
        <time>2015-09-20T05:39:36Z</time>
      </trkpt>
      <trkpt lat="44.55344" lon="2.67218">
        <ele>326.84368</ele>
        <time>2015-09-20T05:39:42Z</time>
      </trkpt>
      <trkpt lat="44.55347" lon="2.67205">
        <ele>326.75381</ele>
        <time>2015-09-20T05:39:45Z</time>
      </trkpt>
      <trkpt lat="44.55345" lon="2.6719">
        <ele>326.65808</ele>
        <time>2015-09-20T05:39:49Z</time>
      </trkpt>
      <trkpt lat="44.55335" lon="2.67187">
        <ele>326.60086</ele>
        <time>2015-09-20T05:39:52Z</time>
      </trkpt>
      <trkpt lat="44.55326" lon="2.67187">
        <ele>326.70556</ele>
        <time>2015-09-20T05:39:57Z</time>
      </trkpt>
      <trkpt lat="44.55316" lon="2.6719">
        <ele>327.9</ele>
        <time>2015-09-20T05:40:42Z</time>
      </trkpt>
      <trkpt lat="44.55307" lon="2.67193">
        <ele>328</ele>
        <time>2015-09-20T05:40:46Z</time>
      </trkpt>
      <trkpt lat="44.55297" lon="2.67196">
        <ele>328.1</ele>
        <time>2015-09-20T05:40:50Z</time>
      </trkpt>
      <trkpt lat="44.55287" lon="2.67198">
        <ele>328.2</ele>
        <time>2015-09-20T05:40:54Z</time>
      </trkpt>
      <trkpt lat="44.55276" lon="2.67201">
        <ele>328.3</ele>
        <time>2015-09-20T05:40:58Z</time>
      </trkpt>
      <trkpt lat="44.55266" lon="2.67204">
        <ele>328.4</ele>
        <time>2015-09-20T05:41:02Z</time>
      </trkpt>
      <trkpt lat="44.55256" lon="2.67207">
        <ele>328.7</ele>
        <time>2015-09-20T05:41:06Z</time>
      </trkpt>
      <trkpt lat="44.55246" lon="2.67208">
        <ele>328.9</ele>
        <time>2015-09-20T05:41:10Z</time>
      </trkpt>
      <trkpt lat="44.55237" lon="2.67211">
        <ele>329.1</ele>
        <time>2015-09-20T05:41:14Z</time>
      </trkpt>
      <trkpt lat="44.55226" lon="2.67213">
        <ele>329.4</ele>
        <time>2015-09-20T05:41:19Z</time>
      </trkpt>
      <trkpt lat="44.55221" lon="2.67203">
        <ele>330.6</ele>
        <time>2015-09-20T05:41:34Z</time>
      </trkpt>
      <trkpt lat="44.55213" lon="2.67195">
        <ele>331.7</ele>
        <time>2015-09-20T05:42:47Z</time>
      </trkpt>
      <trkpt lat="44.55207" lon="2.67182">
        <ele>331.7</ele>
        <time>2015-09-20T05:42:51Z</time>
      </trkpt>
      <trkpt lat="44.55202" lon="2.6717">
        <ele>331.7</ele>
        <time>2015-09-20T05:42:54Z</time>
      </trkpt>
      <trkpt lat="44.55194" lon="2.67159">
        <ele>331.7</ele>
        <time>2015-09-20T05:42:57Z</time>
      </trkpt>
      <trkpt lat="44.55183" lon="2.67151">
        <ele>331.6</ele>
        <time>2015-09-20T05:43:00Z</time>
      </trkpt>
      <trkpt lat="44.55171" lon="2.67143">
        <ele>331.4</ele>
        <time>2015-09-20T05:43:03Z</time>
      </trkpt>
      <trkpt lat="44.55162" lon="2.67138">
        <ele>331.2</ele>
        <time>2015-09-20T05:43:05Z</time>
      </trkpt>
      <trkpt lat="44.55153" lon="2.67133">
        <ele>331</ele>
        <time>2015-09-20T05:43:07Z</time>
      </trkpt>
      <trkpt lat="44.55144" lon="2.67128">
        <ele>330.8</ele>
        <time>2015-09-20T05:43:09Z</time>
      </trkpt>
      <trkpt lat="44.55133" lon="2.67126">
        <ele>330.6</ele>
        <time>2015-09-20T05:43:11Z</time>
      </trkpt>
      <trkpt lat="44.55123" lon="2.67125">
        <ele>330.3</ele>
        <time>2015-09-20T05:43:13Z</time>
      </trkpt>
      <trkpt lat="44.55112" lon="2.67127">
        <ele>330</ele>
        <time>2015-09-20T05:43:15Z</time>
      </trkpt>
      <trkpt lat="44.55101" lon="2.67131">
        <ele>329.7</ele>
        <time>2015-09-20T05:43:17Z</time>
      </trkpt>
      <trkpt lat="44.55091" lon="2.67135">
        <ele>329.3</ele>
        <time>2015-09-20T05:43:19Z</time>
      </trkpt>
      <trkpt lat="44.5508" lon="2.6714">
        <ele>329</ele>
        <time>2015-09-20T05:43:21Z</time>
      </trkpt>
      <trkpt lat="44.55069" lon="2.67143">
        <ele>328.7</ele>
        <time>2015-09-20T05:43:23Z</time>
      </trkpt>
      <trkpt lat="44.55058" lon="2.67143">
        <ele>328.4</ele>
        <time>2015-09-20T05:43:25Z</time>
      </trkpt>
      <trkpt lat="44.55049" lon="2.67141">
        <ele>328.1</ele>
        <time>2015-09-20T05:43:27Z</time>
      </trkpt>
      <trkpt lat="44.55033" lon="2.67133">
        <ele>327</ele>
        <time>2015-09-20T05:43:31Z</time>
      </trkpt>
      <trkpt lat="44.55024" lon="2.67129">
        <ele>327.2</ele>
        <time>2015-09-20T05:43:34Z</time>
      </trkpt>
      <trkpt lat="44.55012" lon="2.67123">
        <ele>326.8</ele>
        <time>2015-09-20T05:43:39Z</time>
      </trkpt>
      <trkpt lat="44.55002" lon="2.67119">
        <ele>326.6</ele>
        <time>2015-09-20T05:43:43Z</time>
      </trkpt>
      <trkpt lat="44.54992" lon="2.67118">
        <ele>326.6</ele>
        <time>2015-09-20T05:43:47Z</time>
      </trkpt>
      <trkpt lat="44.54982" lon="2.6712">
        <ele>326.9</ele>
        <time>2015-09-20T05:43:51Z</time>
      </trkpt>
      <trkpt lat="44.54971" lon="2.67126">
        <ele>327.3</ele>
        <time>2015-09-20T05:43:55Z</time>
      </trkpt>
      <trkpt lat="44.54961" lon="2.67132">
        <ele>327.9</ele>
        <time>2015-09-20T05:43:59Z</time>
      </trkpt>
      <trkpt lat="44.54951" lon="2.67139">
        <ele>328.5</ele>
        <time>2015-09-20T05:44:03Z</time>
      </trkpt>
      <trkpt lat="44.54943" lon="2.67146">
        <ele>329.2</ele>
        <time>2015-09-20T05:44:07Z</time>
      </trkpt>
      <trkpt lat="44.54933" lon="2.67152">
        <ele>329.9</ele>
        <time>2015-09-20T05:44:11Z</time>
      </trkpt>
      <trkpt lat="44.54923" lon="2.67159">
        <ele>330.7</ele>
        <time>2015-09-20T05:44:15Z</time>
      </trkpt>
      <trkpt lat="44.54914" lon="2.67165">
        <ele>331.4</ele>
        <time>2015-09-20T05:44:20Z</time>
      </trkpt>
      <trkpt lat="44.54906" lon="2.67172">
        <ele>332.3</ele>
        <time>2015-09-20T05:44:27Z</time>
      </trkpt>
      <trkpt lat="44.54896" lon="2.67177">
        <ele>333.7</ele>
        <time>2015-09-20T05:44:54Z</time>
      </trkpt>
      <trkpt lat="44.54884" lon="2.67181">
        <ele>333.8</ele>
        <time>2015-09-20T05:44:57Z</time>
      </trkpt>
      <trkpt lat="44.54872" lon="2.67184">
        <ele>333.8</ele>
        <time>2015-09-20T05:45:00Z</time>
      </trkpt>
      <trkpt lat="44.54859" lon="2.67187">
        <ele>333.8</ele>
        <time>2015-09-20T05:45:03Z</time>
      </trkpt>
      <trkpt lat="44.5485" lon="2.67189">
        <ele>333.9</ele>
        <time>2015-09-20T05:45:05Z</time>
      </trkpt>
      <trkpt lat="44.54841" lon="2.67189">
        <ele>333.9</ele>
        <time>2015-09-20T05:45:07Z</time>
      </trkpt>
      <trkpt lat="44.54831" lon="2.6719">
        <ele>333.9</ele>
        <time>2015-09-20T05:45:09Z</time>
      </trkpt>
      <trkpt lat="44.5482" lon="2.67189">
        <ele>333.8</ele>
        <time>2015-09-20T05:45:11Z</time>
      </trkpt>
      <trkpt lat="44.5481" lon="2.67187">
        <ele>333.7</ele>
        <time>2015-09-20T05:45:13Z</time>
      </trkpt>
      <trkpt lat="44.548" lon="2.67181">
        <ele>333.5</ele>
        <time>2015-09-20T05:45:15Z</time>
      </trkpt>
      <trkpt lat="44.5479" lon="2.67174">
        <ele>333.3</ele>
        <time>2015-09-20T05:45:18Z</time>
      </trkpt>
      <trkpt lat="44.54781" lon="2.67166">
        <ele>333.1</ele>
        <time>2015-09-20T05:45:22Z</time>
      </trkpt>
      <trkpt lat="44.54774" lon="2.67158">
        <ele>333.2</ele>
        <time>2015-09-20T05:45:26Z</time>
      </trkpt>
      <trkpt lat="44.54766" lon="2.67149">
        <ele>333.5</ele>
        <time>2015-09-20T05:45:31Z</time>
      </trkpt>
      <trkpt lat="44.54758" lon="2.67141">
        <ele>334.1</ele>
        <time>2015-09-20T05:45:37Z</time>
      </trkpt>
      <trkpt lat="44.54751" lon="2.67133">
        <ele>334.7</ele>
        <time>2015-09-20T05:45:43Z</time>
      </trkpt>
      <trkpt lat="44.54744" lon="2.67123">
        <ele>335.5</ele>
        <time>2015-09-20T05:45:50Z</time>
      </trkpt>
      <trkpt lat="44.54736" lon="2.67116">
        <ele>336.2</ele>
        <time>2015-09-20T05:45:56Z</time>
      </trkpt>
      <trkpt lat="44.54729" lon="2.67106">
        <ele>336.9</ele>
        <time>2015-09-20T05:46:01Z</time>
      </trkpt>
      <trkpt lat="44.54722" lon="2.67096">
        <ele>337.9</ele>
        <time>2015-09-20T05:46:07Z</time>
      </trkpt>
      <trkpt lat="44.54717" lon="2.67083">
        <ele>339</ele>
        <time>2015-09-20T05:46:14Z</time>
      </trkpt>
      <trkpt lat="44.54714" lon="2.67071">
        <ele>339.9</ele>
        <time>2015-09-20T05:46:20Z</time>
      </trkpt>
      <trkpt lat="44.54713" lon="2.67057">
        <ele>340.7</ele>
        <time>2015-09-20T05:46:26Z</time>
      </trkpt>
      <trkpt lat="44.54708" lon="2.67043">
        <ele>341.5</ele>
        <time>2015-09-20T05:46:32Z</time>
      </trkpt>
      <trkpt lat="44.54711" lon="2.67029">
        <ele>342.4</ele>
        <time>2015-09-20T05:46:41Z</time>
      </trkpt>
      <trkpt lat="44.54712" lon="2.67015">
        <ele>342.9</ele>
        <time>2015-09-20T05:46:47Z</time>
      </trkpt>
      <trkpt lat="44.54713" lon="2.67002">
        <ele>343.2</ele>
        <time>2015-09-20T05:46:51Z</time>
      </trkpt>
      <trkpt lat="44.54712" lon="2.66988">
        <ele>343.5</ele>
        <time>2015-09-20T05:46:55Z</time>
      </trkpt>
      <trkpt lat="44.54708" lon="2.66972">
        <ele>343.7</ele>
        <time>2015-09-20T05:46:59Z</time>
      </trkpt>
      <trkpt lat="44.54707" lon="2.66953">
        <ele>343.5</ele>
        <time>2015-09-20T05:47:02Z</time>
      </trkpt>
      <trkpt lat="44.54706" lon="2.66936">
        <ele>343.2</ele>
        <time>2015-09-20T05:47:04Z</time>
      </trkpt>
      <trkpt lat="44.54703" lon="2.66914">
        <ele>342.8</ele>
        <time>2015-09-20T05:47:06Z</time>
      </trkpt>
      <trkpt lat="44.54697" lon="2.66889">
        <ele>342.1</ele>
        <time>2015-09-20T05:47:08Z</time>
      </trkpt>
      <trkpt lat="44.54693" lon="2.66875">
        <ele>341.6</ele>
        <time>2015-09-20T05:47:09Z</time>
      </trkpt>
      <trkpt lat="44.54689" lon="2.66861">
        <ele>341.1</ele>
        <time>2015-09-20T05:47:10Z</time>
      </trkpt>
      <trkpt lat="44.54685" lon="2.66847">
        <ele>340.5</ele>
        <time>2015-09-20T05:47:11Z</time>
      </trkpt>
      <trkpt lat="44.54681" lon="2.66832">
        <ele>339.9</ele>
        <time>2015-09-20T05:47:12Z</time>
      </trkpt>
      <trkpt lat="44.54679" lon="2.66815">
        <ele>339.2</ele>
        <time>2015-09-20T05:47:13Z</time>
      </trkpt>
      <trkpt lat="44.54675" lon="2.66782">
        <ele>337</ele>
        <time>2015-09-20T05:47:15Z</time>
      </trkpt>
      <trkpt lat="44.54676" lon="2.66738">
        <ele>335.5</ele>
        <time>2015-09-20T05:47:18Z</time>
      </trkpt>
      <trkpt lat="44.54706" lon="2.66674">
        <ele>332</ele>
        <time>2015-09-20T05:47:24Z</time>
      </trkpt>
      <trkpt lat="44.54725" lon="2.66631">
        <ele>330.3</ele>
        <time>2015-09-20T05:47:29Z</time>
      </trkpt>
      <trkpt lat="44.54732" lon="2.66618">
        <ele>329.8</ele>
        <time>2015-09-20T05:47:31Z</time>
      </trkpt>
      <trkpt lat="44.54745" lon="2.66608">
        <ele>328</ele>
        <time>2015-09-20T05:47:34Z</time>
      </trkpt>
      <trkpt lat="44.54764" lon="2.66603">
        <ele>328.7</ele>
        <time>2015-09-20T05:47:37Z</time>
      </trkpt>
      <trkpt lat="44.54777" lon="2.66602">
        <ele>328</ele>
        <time>2015-09-20T05:47:39Z</time>
      </trkpt>
      <trkpt lat="44.54794" lon="2.66604">
        <ele>328</ele>
        <time>2015-09-20T05:47:42Z</time>
      </trkpt>
      <trkpt lat="44.54813" lon="2.66602">
        <ele>327</ele>
        <time>2015-09-20T05:47:44Z</time>
      </trkpt>
      <trkpt lat="44.54839" lon="2.66602">
        <ele>327.5</ele>
        <time>2015-09-20T05:47:47Z</time>
      </trkpt>
      <trkpt lat="44.54854" lon="2.66603">
        <ele>327.3</ele>
        <time>2015-09-20T05:47:49Z</time>
      </trkpt>
      <trkpt lat="44.54864" lon="2.66606">
        <ele>327.1</ele>
        <time>2015-09-20T05:47:51Z</time>
      </trkpt>
      <trkpt lat="44.54878" lon="2.66608">
        <ele>326.8</ele>
        <time>2015-09-20T05:47:53Z</time>
      </trkpt>
      <trkpt lat="44.54889" lon="2.66613">
        <ele>326.6</ele>
        <time>2015-09-20T05:47:55Z</time>
      </trkpt>
      <trkpt lat="44.54902" lon="2.66615">
        <ele>326.4</ele>
        <time>2015-09-20T05:47:57Z</time>
      </trkpt>
      <trkpt lat="44.54916" lon="2.66613">
        <ele>326.1</ele>
        <time>2015-09-20T05:47:59Z</time>
      </trkpt>
      <trkpt lat="44.54927" lon="2.6661">
        <ele>325.9</ele>
        <time>2015-09-20T05:48:01Z</time>
      </trkpt>
      <trkpt lat="44.54939" lon="2.66606">
        <ele>325.7</ele>
        <time>2015-09-20T05:48:03Z</time>
      </trkpt>
      <trkpt lat="44.54951" lon="2.66605">
        <ele>325.5</ele>
        <time>2015-09-20T05:48:05Z</time>
      </trkpt>
      <trkpt lat="44.54961" lon="2.666">
        <ele>325.3</ele>
        <time>2015-09-20T05:48:07Z</time>
      </trkpt>
      <trkpt lat="44.5497" lon="2.66596">
        <ele>325.2</ele>
        <time>2015-09-20T05:48:09Z</time>
      </trkpt>
      <trkpt lat="44.5498" lon="2.66591">
        <ele>325</ele>
        <time>2015-09-20T05:48:11Z</time>
      </trkpt>
      <trkpt lat="44.5499" lon="2.66582">
        <ele>324.8</ele>
        <time>2015-09-20T05:48:13Z</time>
      </trkpt>
      <trkpt lat="44.55001" lon="2.6657">
        <ele>324.6</ele>
        <time>2015-09-20T05:48:16Z</time>
      </trkpt>
      <trkpt lat="44.55008" lon="2.66562">
        <ele>324.5</ele>
        <time>2015-09-20T05:48:18Z</time>
      </trkpt>
      <trkpt lat="44.55016" lon="2.66554">
        <ele>324.4</ele>
        <time>2015-09-20T05:48:20Z</time>
      </trkpt>
      <trkpt lat="44.55026" lon="2.66547">
        <ele>324.2</ele>
        <time>2015-09-20T05:48:23Z</time>
      </trkpt>
      <trkpt lat="44.55053" lon="2.66533">
        <ele>323</ele>
        <time>2015-09-20T05:48:29Z</time>
      </trkpt>
      <trkpt lat="44.55068" lon="2.66526">
        <ele>323.8</ele>
        <time>2015-09-20T05:48:32Z</time>
      </trkpt>
      <trkpt lat="44.5508" lon="2.66523">
        <ele>323.7</ele>
        <time>2015-09-20T05:48:35Z</time>
      </trkpt>
      <trkpt lat="44.5509" lon="2.66518">
        <ele>323.7</ele>
        <time>2015-09-20T05:48:37Z</time>
      </trkpt>
      <trkpt lat="44.551" lon="2.66515">
        <ele>323.6</ele>
        <time>2015-09-20T05:48:39Z</time>
      </trkpt>
      <trkpt lat="44.55109" lon="2.66512">
        <ele>323.6</ele>
        <time>2015-09-20T05:48:41Z</time>
      </trkpt>
      <trkpt lat="44.5512" lon="2.66509">
        <ele>323.5</ele>
        <time>2015-09-20T05:48:44Z</time>
      </trkpt>
      <trkpt lat="44.5513" lon="2.66506">
        <ele>323.5</ele>
        <time>2015-09-20T05:48:47Z</time>
      </trkpt>
      <trkpt lat="44.55141" lon="2.66501">
        <ele>323.5</ele>
        <time>2015-09-20T05:48:49Z</time>
      </trkpt>
      <trkpt lat="44.55151" lon="2.66494">
        <ele>323.4</ele>
        <time>2015-09-20T05:48:52Z</time>
      </trkpt>
      <trkpt lat="44.55158" lon="2.66486">
        <ele>323.4</ele>
        <time>2015-09-20T05:48:54Z</time>
      </trkpt>
      <trkpt lat="44.55166" lon="2.66479">
        <ele>323.4</ele>
        <time>2015-09-20T05:48:56Z</time>
      </trkpt>
      <trkpt lat="44.55175" lon="2.66469">
        <ele>323.4</ele>
        <time>2015-09-20T05:48:58Z</time>
      </trkpt>
      <trkpt lat="44.55183" lon="2.66461">
        <ele>323.4</ele>
        <time>2015-09-20T05:49:00Z</time>
      </trkpt>
      <trkpt lat="44.55193" lon="2.66451">
        <ele>323.3</ele>
        <time>2015-09-20T05:49:03Z</time>
      </trkpt>
      <trkpt lat="44.55204" lon="2.66441">
        <ele>323.2</ele>
        <time>2015-09-20T05:49:06Z</time>
      </trkpt>
      <trkpt lat="44.55214" lon="2.66432">
        <ele>323.1</ele>
        <time>2015-09-20T05:49:09Z</time>
      </trkpt>
      <trkpt lat="44.55226" lon="2.66423">
        <ele>323.1</ele>
        <time>2015-09-20T05:49:11Z</time>
      </trkpt>
      <trkpt lat="44.55235" lon="2.66417">
        <ele>323.1</ele>
        <time>2015-09-20T05:49:13Z</time>
      </trkpt>
      <trkpt lat="44.55243" lon="2.6641">
        <ele>323</ele>
        <time>2015-09-20T05:49:15Z</time>
      </trkpt>
      <trkpt lat="44.55254" lon="2.66401">
        <ele>323</ele>
        <time>2015-09-20T05:49:18Z</time>
      </trkpt>
      <trkpt lat="44.55264" lon="2.66394">
        <ele>323</ele>
        <time>2015-09-20T05:49:20Z</time>
      </trkpt>
      <trkpt lat="44.55275" lon="2.66385">
        <ele>322.9</ele>
        <time>2015-09-20T05:49:23Z</time>
      </trkpt>
      <trkpt lat="44.55283" lon="2.66378">
        <ele>322.9</ele>
        <time>2015-09-20T05:49:25Z</time>
      </trkpt>
      <trkpt lat="44.55297" lon="2.66369">
        <ele>322.9</ele>
        <time>2015-09-20T05:49:28Z</time>
      </trkpt>
      <trkpt lat="44.55305" lon="2.66362">
        <ele>322.9</ele>
        <time>2015-09-20T05:49:30Z</time>
      </trkpt>
      <trkpt lat="44.55315" lon="2.66354">
        <ele>322.9</ele>
        <time>2015-09-20T05:49:32Z</time>
      </trkpt>
      <trkpt lat="44.55324" lon="2.66347">
        <ele>322.8</ele>
        <time>2015-09-20T05:49:34Z</time>
      </trkpt>
      <trkpt lat="44.55333" lon="2.66342">
        <ele>322.8</ele>
        <time>2015-09-20T05:49:36Z</time>
      </trkpt>
      <trkpt lat="44.5534" lon="2.66334">
        <ele>322.8</ele>
        <time>2015-09-20T05:49:38Z</time>
      </trkpt>
      <trkpt lat="44.55348" lon="2.66327">
        <ele>322.9</ele>
        <time>2015-09-20T05:49:40Z</time>
      </trkpt>
      <trkpt lat="44.55359" lon="2.66316">
        <ele>323</ele>
        <time>2015-09-20T05:49:43Z</time>
      </trkpt>
      <trkpt lat="44.55369" lon="2.66307">
        <ele>323.2</ele>
        <time>2015-09-20T05:49:46Z</time>
      </trkpt>
      <trkpt lat="44.5538" lon="2.66299">
        <ele>323.4</ele>
        <time>2015-09-20T05:49:49Z</time>
      </trkpt>
      <trkpt lat="44.55388" lon="2.6629">
        <ele>323.5</ele>
        <time>2015-09-20T05:49:52Z</time>
      </trkpt>
      <trkpt lat="44.554" lon="2.6628">
        <ele>323.7</ele>
        <time>2015-09-20T05:49:55Z</time>
      </trkpt>
      <trkpt lat="44.5541" lon="2.66274">
        <ele>323.9</ele>
        <time>2015-09-20T05:49:57Z</time>
      </trkpt>
      <trkpt lat="44.55419" lon="2.66268">
        <ele>324</ele>
        <time>2015-09-20T05:49:59Z</time>
      </trkpt>
      <trkpt lat="44.55431" lon="2.66264">
        <ele>324.2</ele>
        <time>2015-09-20T05:50:02Z</time>
      </trkpt>
      <trkpt lat="44.55441" lon="2.66262">
        <ele>324.5</ele>
        <time>2015-09-20T05:50:05Z</time>
      </trkpt>
      <trkpt lat="44.55451" lon="2.6626">
        <ele>324.9</ele>
        <time>2015-09-20T05:50:08Z</time>
      </trkpt>
      <trkpt lat="44.55461" lon="2.66256">
        <ele>325.4</ele>
        <time>2015-09-20T05:50:11Z</time>
      </trkpt>
      <trkpt lat="44.55471" lon="2.66252">
        <ele>325.8</ele>
        <time>2015-09-20T05:50:14Z</time>
      </trkpt>
      <trkpt lat="44.5548" lon="2.66247">
        <ele>326.3</ele>
        <time>2015-09-20T05:50:17Z</time>
      </trkpt>
      <trkpt lat="44.55488" lon="2.6624">
        <ele>326.9</ele>
        <time>2015-09-20T05:50:21Z</time>
      </trkpt>
      <trkpt lat="44.55497" lon="2.66232">
        <ele>327.6</ele>
        <time>2015-09-20T05:50:25Z</time>
      </trkpt>
      <trkpt lat="44.55506" lon="2.66222">
        <ele>328.2</ele>
        <time>2015-09-20T05:50:29Z</time>
      </trkpt>
      <trkpt lat="44.55515" lon="2.66213">
        <ele>328.8</ele>
        <time>2015-09-20T05:50:33Z</time>
      </trkpt>
      <trkpt lat="44.55524" lon="2.66205">
        <ele>329.3</ele>
        <time>2015-09-20T05:50:37Z</time>
      </trkpt>
      <trkpt lat="44.55534" lon="2.66196">
        <ele>329</ele>
        <time>2015-09-20T05:50:42Z</time>
      </trkpt>
      <trkpt lat="44.55542" lon="2.66188">
        <ele>330.4</ele>
        <time>2015-09-20T05:50:48Z</time>
      </trkpt>
      <trkpt lat="44.55551" lon="2.66181">
        <ele>330.7</ele>
        <time>2015-09-20T05:50:52Z</time>
      </trkpt>
      <trkpt lat="44.55561" lon="2.66176">
        <ele>330.9</ele>
        <time>2015-09-20T05:50:55Z</time>
      </trkpt>
      <trkpt lat="44.55569" lon="2.66172">
        <ele>330.9</ele>
        <time>2015-09-20T05:50:58Z</time>
      </trkpt>
      <trkpt lat="44.55578" lon="2.66168">
        <ele>330.8</ele>
        <time>2015-09-20T05:51:00Z</time>
      </trkpt>
      <trkpt lat="44.55587" lon="2.66164">
        <ele>330.6</ele>
        <time>2015-09-20T05:51:02Z</time>
      </trkpt>
      <trkpt lat="44.556" lon="2.66161">
        <ele>330.2</ele>
        <time>2015-09-20T05:51:04Z</time>
      </trkpt>
      <trkpt lat="44.55611" lon="2.66158">
        <ele>329.8</ele>
        <time>2015-09-20T05:51:06Z</time>
      </trkpt>
      <trkpt lat="44.55623" lon="2.66155">
        <ele>329.3</ele>
        <time>2015-09-20T05:51:08Z</time>
      </trkpt>
      <trkpt lat="44.55642" lon="2.66149">
        <ele>328.9</ele>
        <time>2015-09-20T05:51:10Z</time>
      </trkpt>
      <trkpt lat="44.55654" lon="2.66145">
        <ele>328.5</ele>
        <time>2015-09-20T05:51:12Z</time>
      </trkpt>
      <trkpt lat="44.55668" lon="2.6614">
        <ele>328</ele>
        <time>2015-09-20T05:51:14Z</time>
      </trkpt>
      <trkpt lat="44.55678" lon="2.66138">
        <ele>327.8</ele>
        <time>2015-09-20T05:51:15Z</time>
      </trkpt>
      <trkpt lat="44.55691" lon="2.66133">
        <ele>327.4</ele>
        <time>2015-09-20T05:51:17Z</time>
      </trkpt>
      <trkpt lat="44.55705" lon="2.66129">
        <ele>327</ele>
        <time>2015-09-20T05:51:19Z</time>
      </trkpt>
      <trkpt lat="44.5572" lon="2.66123">
        <ele>326.6</ele>
        <time>2015-09-20T05:51:21Z</time>
      </trkpt>
      <trkpt lat="44.55732" lon="2.66118">
        <ele>326.3</ele>
        <time>2015-09-20T05:51:23Z</time>
      </trkpt>
      <trkpt lat="44.55744" lon="2.66114">
        <ele>325.9</ele>
        <time>2015-09-20T05:51:25Z</time>
      </trkpt>
      <trkpt lat="44.55752" lon="2.66109">
        <ele>325.7</ele>
        <time>2015-09-20T05:51:27Z</time>
      </trkpt>
      <trkpt lat="44.55763" lon="2.66105">
        <ele>325.4</ele>
        <time>2015-09-20T05:51:29Z</time>
      </trkpt>
      <trkpt lat="44.55772" lon="2.66102">
        <ele>325.2</ele>
        <time>2015-09-20T05:51:31Z</time>
      </trkpt>
      <trkpt lat="44.55781" lon="2.66098">
        <ele>325</ele>
        <time>2015-09-20T05:51:33Z</time>
      </trkpt>
      <trkpt lat="44.55791" lon="2.66093">
        <ele>324.8</ele>
        <time>2015-09-20T05:51:35Z</time>
      </trkpt>
      <trkpt lat="44.55803" lon="2.66089">
        <ele>324.6</ele>
        <time>2015-09-20T05:51:37Z</time>
      </trkpt>
      <trkpt lat="44.55812" lon="2.66085">
        <ele>324.4</ele>
        <time>2015-09-20T05:51:39Z</time>
      </trkpt>
      <trkpt lat="44.55821" lon="2.66082">
        <ele>324.2</ele>
        <time>2015-09-20T05:51:41Z</time>
      </trkpt>
      <trkpt lat="44.55831" lon="2.66078">
        <ele>324.1</ele>
        <time>2015-09-20T05:51:43Z</time>
      </trkpt>
      <trkpt lat="44.55843" lon="2.66074">
        <ele>323.9</ele>
        <time>2015-09-20T05:51:45Z</time>
      </trkpt>
      <trkpt lat="44.55852" lon="2.66072">
        <ele>323.8</ele>
        <time>2015-09-20T05:51:47Z</time>
      </trkpt>
      <trkpt lat="44.55863" lon="2.66068">
        <ele>323.7</ele>
        <time>2015-09-20T05:51:49Z</time>
      </trkpt>
      <trkpt lat="44.55872" lon="2.66065">
        <ele>323.6</ele>
        <time>2015-09-20T05:51:51Z</time>
      </trkpt>
      <trkpt lat="44.55882" lon="2.66062">
        <ele>323.6</ele>
        <time>2015-09-20T05:51:53Z</time>
      </trkpt>
      <trkpt lat="44.55892" lon="2.66058">
        <ele>323.5</ele>
        <time>2015-09-20T05:51:55Z</time>
      </trkpt>
      <trkpt lat="44.55903" lon="2.66052">
        <ele>323.4</ele>
        <time>2015-09-20T05:52:01Z</time>
      </trkpt>
      <trkpt lat="44.5591" lon="2.66044">
        <ele>323.2</ele>
        <time>2015-09-20T05:52:26Z</time>
      </trkpt>
      <trkpt lat="44.5592" lon="2.66038">
        <ele>323.2</ele>
        <time>2015-09-20T05:52:33Z</time>
      </trkpt>
      <trkpt lat="44.5593" lon="2.66035">
        <ele>323.3</ele>
        <time>2015-09-20T05:52:37Z</time>
      </trkpt>
      <trkpt lat="44.55939" lon="2.6603">
        <ele>323.4</ele>
        <time>2015-09-20T05:52:40Z</time>
      </trkpt>
      <trkpt lat="44.5595" lon="2.66028">
        <ele>323.5</ele>
        <time>2015-09-20T05:52:43Z</time>
      </trkpt>
      <trkpt lat="44.55961" lon="2.66023">
        <ele>323.7</ele>
        <time>2015-09-20T05:52:47Z</time>
      </trkpt>
      <trkpt lat="44.55971" lon="2.66019">
        <ele>323.9</ele>
        <time>2015-09-20T05:52:50Z</time>
      </trkpt>
      <trkpt lat="44.5598" lon="2.66016">
        <ele>324.2</ele>
        <time>2015-09-20T05:52:53Z</time>
      </trkpt>
      <trkpt lat="44.55991" lon="2.66012">
        <ele>324.5</ele>
        <time>2015-09-20T05:52:56Z</time>
      </trkpt>
      <trkpt lat="44.56004" lon="2.66007">
        <ele>325</ele>
        <time>2015-09-20T05:52:59Z</time>
      </trkpt>
      <trkpt lat="44.56014" lon="2.66001">
        <ele>325.4</ele>
        <time>2015-09-20T05:53:02Z</time>
      </trkpt>
      <trkpt lat="44.56024" lon="2.65996">
        <ele>326</ele>
        <time>2015-09-20T05:53:06Z</time>
      </trkpt>
      <trkpt lat="44.56033" lon="2.65991">
        <ele>326.6</ele>
        <time>2015-09-20T05:53:11Z</time>
      </trkpt>
      <trkpt lat="44.56042" lon="2.65986">
        <ele>327.4</ele>
        <time>2015-09-20T05:53:17Z</time>
      </trkpt>
      <trkpt lat="44.56051" lon="2.65982">
        <ele>328.2</ele>
        <time>2015-09-20T05:53:28Z</time>
      </trkpt>
      <trkpt lat="44.5606" lon="2.65977">
        <ele>329.3</ele>
        <time>2015-09-20T05:54:04Z</time>
      </trkpt>
      <trkpt lat="44.5607" lon="2.65971">
        <ele>329.3</ele>
        <time>2015-09-20T05:54:07Z</time>
      </trkpt>
      <trkpt lat="44.5608" lon="2.65964">
        <ele>329.4</ele>
        <time>2015-09-20T05:54:10Z</time>
      </trkpt>
      <trkpt lat="44.56091" lon="2.65958">
        <ele>329.4</ele>
        <time>2015-09-20T05:54:13Z</time>
      </trkpt>
      <trkpt lat="44.56102" lon="2.65952">
        <ele>329.5</ele>
        <time>2015-09-20T05:54:16Z</time>
      </trkpt>
      <trkpt lat="44.56111" lon="2.65945">
        <ele>329.6</ele>
        <time>2015-09-20T05:54:19Z</time>
      </trkpt>
      <trkpt lat="44.5612" lon="2.6594">
        <ele>329.7</ele>
        <time>2015-09-20T05:54:23Z</time>
      </trkpt>
      <trkpt lat="44.56129" lon="2.65935">
        <ele>329.7</ele>
        <time>2015-09-20T05:54:26Z</time>
      </trkpt>
      <trkpt lat="44.5614" lon="2.65929">
        <ele>329.8</ele>
        <time>2015-09-20T05:54:29Z</time>
      </trkpt>
      <trkpt lat="44.56152" lon="2.65925">
        <ele>329.8</ele>
        <time>2015-09-20T05:54:32Z</time>
      </trkpt>
      <trkpt lat="44.56163" lon="2.65921">
        <ele>329.9</ele>
        <time>2015-09-20T05:54:35Z</time>
      </trkpt>
      <trkpt lat="44.56176" lon="2.65918">
        <ele>329.9</ele>
        <time>2015-09-20T05:54:38Z</time>
      </trkpt>
      <trkpt lat="44.56185" lon="2.65916">
        <ele>329.9</ele>
        <time>2015-09-20T05:54:40Z</time>
      </trkpt>
      <trkpt lat="44.56194" lon="2.65915">
        <ele>329.9</ele>
        <time>2015-09-20T05:54:42Z</time>
      </trkpt>
      <trkpt lat="44.56207" lon="2.65914">
        <ele>330</ele>
        <time>2015-09-20T05:54:45Z</time>
      </trkpt>
      <trkpt lat="44.56219" lon="2.65913">
        <ele>330</ele>
        <time>2015-09-20T05:54:48Z</time>
      </trkpt>
      <trkpt lat="44.56231" lon="2.65913">
        <ele>330</ele>
        <time>2015-09-20T05:54:51Z</time>
      </trkpt>
      <trkpt lat="44.56244" lon="2.65912">
        <ele>330</ele>
        <time>2015-09-20T05:54:54Z</time>
      </trkpt>
      <trkpt lat="44.56256" lon="2.65911">
        <ele>330</ele>
        <time>2015-09-20T05:54:57Z</time>
      </trkpt>
      <trkpt lat="44.56268" lon="2.65909">
        <ele>330</ele>
        <time>2015-09-20T05:55:00Z</time>
      </trkpt>
      <trkpt lat="44.56279" lon="2.65907">
        <ele>330</ele>
        <time>2015-09-20T05:55:03Z</time>
      </trkpt>
      <trkpt lat="44.56291" lon="2.65905">
        <ele>330</ele>
        <time>2015-09-20T05:55:06Z</time>
      </trkpt>
      <trkpt lat="44.56303" lon="2.65902">
        <ele>330</ele>
        <time>2015-09-20T05:55:09Z</time>
      </trkpt>
      <trkpt lat="44.56312" lon="2.659">
        <ele>330.1</ele>
        <time>2015-09-20T05:55:12Z</time>
      </trkpt>
      <trkpt lat="44.56321" lon="2.65897">
        <ele>330.1</ele>
        <time>2015-09-20T05:55:15Z</time>
      </trkpt>
      <trkpt lat="44.56331" lon="2.65895">
        <ele>330.3</ele>
        <time>2015-09-20T05:55:19Z</time>
      </trkpt>
      <trkpt lat="44.56341" lon="2.65893">
        <ele>330.5</ele>
        <time>2015-09-20T05:55:24Z</time>
      </trkpt>
      <trkpt lat="44.56351" lon="2.65893">
        <ele>331</ele>
        <time>2015-09-20T05:55:32Z</time>
      </trkpt>
      <trkpt lat="44.5636" lon="2.65891">
        <ele>331.4</ele>
        <time>2015-09-20T05:55:38Z</time>
      </trkpt>
      <trkpt lat="44.5637" lon="2.65889">
        <ele>332.2</ele>
        <time>2015-09-20T05:55:45Z</time>
      </trkpt>
      <trkpt lat="44.5638" lon="2.65887">
        <ele>333</ele>
        <time>2015-09-20T05:55:52Z</time>
      </trkpt>
      <trkpt lat="44.5639" lon="2.65887">
        <ele>333.7</ele>
        <time>2015-09-20T05:55:58Z</time>
      </trkpt>
      <trkpt lat="44.564" lon="2.65886">
        <ele>334.7</ele>
        <time>2015-09-20T05:56:04Z</time>
      </trkpt>
      <trkpt lat="44.56409" lon="2.65884">
        <ele>335.7</ele>
        <time>2015-09-20T05:56:10Z</time>
      </trkpt>
      <trkpt lat="44.56417" lon="2.65877">
        <ele>336.9</ele>
        <time>2015-09-20T05:56:17Z</time>
      </trkpt>
      <trkpt lat="44.56416" lon="2.65864">
        <ele>340</ele>
        <time>2015-09-20T05:57:11Z</time>
      </trkpt>
      <trkpt lat="44.56413" lon="2.65852">
        <ele>340.2</ele>
        <time>2015-09-20T05:57:59Z</time>
      </trkpt>
      <trkpt lat="44.56407" lon="2.65842">
        <ele>340.2</ele>
        <time>2015-09-20T05:58:04Z</time>
      </trkpt>
      <trkpt lat="44.56402" lon="2.65831">
        <ele>340.3</ele>
        <time>2015-09-20T05:58:11Z</time>
      </trkpt>
      <trkpt lat="44.56396" lon="2.65823">
        <ele>340.6</ele>
        <time>2015-09-20T05:58:24Z</time>
      </trkpt>
      <trkpt lat="44.56403" lon="2.65833">
        <ele>340.9</ele>
        <time>2015-09-20T05:58:36Z</time>
      </trkpt>
      <trkpt lat="44.56409" lon="2.65846">
        <ele>340.9</ele>
        <time>2015-09-20T05:58:40Z</time>
      </trkpt>
      <trkpt lat="44.56414" lon="2.65858">
        <ele>340.9</ele>
        <time>2015-09-20T05:58:43Z</time>
      </trkpt>
      <trkpt lat="44.5642" lon="2.65871">
        <ele>341</ele>
        <time>2015-09-20T05:58:46Z</time>
      </trkpt>
      <trkpt lat="44.56427" lon="2.65881">
        <ele>341</ele>
        <time>2015-09-20T05:58:50Z</time>
      </trkpt>
      <trkpt lat="44.56436" lon="2.6589">
        <ele>341</ele>
        <time>2015-09-20T05:58:56Z</time>
      </trkpt>
      <trkpt lat="44.56444" lon="2.659">
        <ele>341.5</ele>
        <time>2015-09-20T05:59:01Z</time>
      </trkpt>
      <trkpt lat="44.56453" lon="2.65907">
        <ele>342.3</ele>
        <time>2015-09-20T05:59:06Z</time>
      </trkpt>
      <trkpt lat="44.56461" lon="2.65915">
        <ele>343.6</ele>
        <time>2015-09-20T05:59:12Z</time>
      </trkpt>
      <trkpt lat="44.56469" lon="2.65924">
        <ele>344.8</ele>
        <time>2015-09-20T05:59:18Z</time>
      </trkpt>
      <trkpt lat="44.56476" lon="2.65933">
        <ele>345.8</ele>
        <time>2015-09-20T05:59:23Z</time>
      </trkpt>
      <trkpt lat="44.56469" lon="2.65923">
        <ele>348.4</ele>
        <time>2015-09-20T05:59:39Z</time>
      </trkpt>
      <trkpt lat="44.56461" lon="2.65913">
        <ele>348.5</ele>
        <time>2015-09-20T05:59:41Z</time>
      </trkpt>
      <trkpt lat="44.5645" lon="2.65902">
        <ele>348.4</ele>
        <time>2015-09-20T05:59:43Z</time>
      </trkpt>
      <trkpt lat="44.56436" lon="2.6589">
        <ele>348</ele>
        <time>2015-09-20T05:59:45Z</time>
      </trkpt>
      <trkpt lat="44.56429" lon="2.65881">
        <ele>347.6</ele>
        <time>2015-09-20T05:59:46Z</time>
      </trkpt>
      <trkpt lat="44.56422" lon="2.65871">
        <ele>347.2</ele>
        <time>2015-09-20T05:59:47Z</time>
      </trkpt>
      <trkpt lat="44.56417" lon="2.6586">
        <ele>346.9</ele>
        <time>2015-09-20T05:59:48Z</time>
      </trkpt>
      <trkpt lat="44.56406" lon="2.6584">
        <ele>346.1</ele>
        <time>2015-09-20T05:59:50Z</time>
      </trkpt>
      <trkpt lat="44.56398" lon="2.65823">
        <ele>345.5</ele>
        <time>2015-09-20T05:59:52Z</time>
      </trkpt>
      <trkpt lat="44.56393" lon="2.65807">
        <ele>345</ele>
        <time>2015-09-20T05:59:54Z</time>
      </trkpt>
      <trkpt lat="44.5639" lon="2.65791">
        <ele>344.4</ele>
        <time>2015-09-20T05:59:57Z</time>
      </trkpt>
      <trkpt lat="44.56388" lon="2.65776">
        <ele>344</ele>
        <time>2015-09-20T06:00:00Z</time>
      </trkpt>
      <trkpt lat="44.56385" lon="2.65761">
        <ele>343.7</ele>
        <time>2015-09-20T06:00:03Z</time>
      </trkpt>
      <trkpt lat="44.56382" lon="2.65747">
        <ele>343.6</ele>
        <time>2015-09-20T06:00:06Z</time>
      </trkpt>
      <trkpt lat="44.5638" lon="2.65732">
        <ele>343.5</ele>
        <time>2015-09-20T06:00:09Z</time>
      </trkpt>
      <trkpt lat="44.56378" lon="2.65718">
        <ele>343.5</ele>
        <time>2015-09-20T06:00:12Z</time>
      </trkpt>
      <trkpt lat="44.56374" lon="2.65704">
        <ele>343.5</ele>
        <time>2015-09-20T06:00:15Z</time>
      </trkpt>
      <trkpt lat="44.56369" lon="2.6569">
        <ele>343.7</ele>
        <time>2015-09-20T06:00:18Z</time>
      </trkpt>
      <trkpt lat="44.56366" lon="2.65674">
        <ele>343.8</ele>
        <time>2015-09-20T06:00:21Z</time>
      </trkpt>
      <trkpt lat="44.56365" lon="2.65661">
        <ele>344</ele>
        <time>2015-09-20T06:00:24Z</time>
      </trkpt>
      <trkpt lat="44.56366" lon="2.65645">
        <ele>344.2</ele>
        <time>2015-09-20T06:00:27Z</time>
      </trkpt>
      <trkpt lat="44.56368" lon="2.65632">
        <ele>344.4</ele>
        <time>2015-09-20T06:00:29Z</time>
      </trkpt>
      <trkpt lat="44.56368" lon="2.65616">
        <ele>344.7</ele>
        <time>2015-09-20T06:00:32Z</time>
      </trkpt>
      <trkpt lat="44.56368" lon="2.65596">
        <ele>345.1</ele>
        <time>2015-09-20T06:00:35Z</time>
      </trkpt>
      <trkpt lat="44.56365" lon="2.65578">
        <ele>345.4</ele>
        <time>2015-09-20T06:00:38Z</time>
      </trkpt>
      <trkpt lat="44.56363" lon="2.65563">
        <ele>345.6</ele>
        <time>2015-09-20T06:00:40Z</time>
      </trkpt>
      <trkpt lat="44.56363" lon="2.65545">
        <ele>345.8</ele>
        <time>2015-09-20T06:00:43Z</time>
      </trkpt>
      <trkpt lat="44.56366" lon="2.65531">
        <ele>346</ele>
        <time>2015-09-20T06:00:46Z</time>
      </trkpt>
      <trkpt lat="44.56371" lon="2.65516">
        <ele>346.2</ele>
        <time>2015-09-20T06:00:49Z</time>
      </trkpt>
      <trkpt lat="44.56378" lon="2.65505">
        <ele>346.3</ele>
        <time>2015-09-20T06:00:52Z</time>
      </trkpt>
      <trkpt lat="44.56387" lon="2.65495">
        <ele>346.4</ele>
        <time>2015-09-20T06:00:55Z</time>
      </trkpt>
      <trkpt lat="44.56395" lon="2.65486">
        <ele>346.5</ele>
        <time>2015-09-20T06:00:58Z</time>
      </trkpt>
      <trkpt lat="44.56403" lon="2.65473">
        <ele>346.6</ele>
        <time>2015-09-20T06:01:01Z</time>
      </trkpt>
      <trkpt lat="44.56411" lon="2.65456">
        <ele>346.5</ele>
        <time>2015-09-20T06:01:04Z</time>
      </trkpt>
      <trkpt lat="44.56414" lon="2.65443">
        <ele>346.4</ele>
        <time>2015-09-20T06:01:06Z</time>
      </trkpt>
      <trkpt lat="44.56417" lon="2.65428">
        <ele>346.1</ele>
        <time>2015-09-20T06:01:08Z</time>
      </trkpt>
      <trkpt lat="44.5642" lon="2.65409">
        <ele>345.5</ele>
        <time>2015-09-20T06:01:11Z</time>
      </trkpt>
      <trkpt lat="44.56425" lon="2.65398">
        <ele>345</ele>
        <time>2015-09-20T06:01:13Z</time>
      </trkpt>
      <trkpt lat="44.5643" lon="2.65386">
        <ele>344.3</ele>
        <time>2015-09-20T06:01:16Z</time>
      </trkpt>
      <trkpt lat="44.56428" lon="2.65372">
        <ele>343.3</ele>
        <time>2015-09-20T06:01:21Z</time>
      </trkpt>
      <trkpt lat="44.5642" lon="2.6536">
        <ele>342.7</ele>
        <time>2015-09-20T06:01:24Z</time>
      </trkpt>
      <trkpt lat="44.56412" lon="2.6535">
        <ele>342.2</ele>
        <time>2015-09-20T06:01:26Z</time>
      </trkpt>
      <trkpt lat="44.56402" lon="2.65341">
        <ele>341.7</ele>
        <time>2015-09-20T06:01:28Z</time>
      </trkpt>
      <trkpt lat="44.56393" lon="2.65335">
        <ele>341.1</ele>
        <time>2015-09-20T06:01:30Z</time>
      </trkpt>
      <trkpt lat="44.56381" lon="2.65327">
        <ele>340.4</ele>
        <time>2015-09-20T06:01:32Z</time>
      </trkpt>
      <trkpt lat="44.56366" lon="2.65321">
        <ele>339.7</ele>
        <time>2015-09-20T06:01:34Z</time>
      </trkpt>
      <trkpt lat="44.56356" lon="2.65306">
        <ele>338.8</ele>
        <time>2015-09-20T06:01:36Z</time>
      </trkpt>
      <trkpt lat="44.56355" lon="2.6529">
        <ele>337.9</ele>
        <time>2015-09-20T06:01:38Z</time>
      </trkpt>
      <trkpt lat="44.56357" lon="2.65274">
        <ele>337</ele>
        <time>2015-09-20T06:01:40Z</time>
      </trkpt>
      <trkpt lat="44.56355" lon="2.65254">
        <ele>336.1</ele>
        <time>2015-09-20T06:01:42Z</time>
      </trkpt>
      <trkpt lat="44.56352" lon="2.65235">
        <ele>335.1</ele>
        <time>2015-09-20T06:01:44Z</time>
      </trkpt>
      <trkpt lat="44.5635" lon="2.65211">
        <ele>334</ele>
        <time>2015-09-20T06:01:46Z</time>
      </trkpt>
      <trkpt lat="44.56351" lon="2.65185">
        <ele>333</ele>
        <time>2015-09-20T06:01:48Z</time>
      </trkpt>
      <trkpt lat="44.56351" lon="2.65167">
        <ele>331.9</ele>
        <time>2015-09-20T06:01:50Z</time>
      </trkpt>
      <trkpt lat="44.56356" lon="2.65144">
        <ele>330.9</ele>
        <time>2015-09-20T06:01:52Z</time>
      </trkpt>
      <trkpt lat="44.56355" lon="2.65128">
        <ele>330</ele>
        <time>2015-09-20T06:01:54Z</time>
      </trkpt>
      <trkpt lat="44.56358" lon="2.65116">
        <ele>329.6</ele>
        <time>2015-09-20T06:01:55Z</time>
      </trkpt>
      <trkpt lat="44.56357" lon="2.65097">
        <ele>328.9</ele>
        <time>2015-09-20T06:01:57Z</time>
      </trkpt>
      <trkpt lat="44.56357" lon="2.65073">
        <ele>328.2</ele>
        <time>2015-09-20T06:01:59Z</time>
      </trkpt>
      <trkpt lat="44.56354" lon="2.65055">
        <ele>327.6</ele>
        <time>2015-09-20T06:02:01Z</time>
      </trkpt>
      <trkpt lat="44.56352" lon="2.65039">
        <ele>327.1</ele>
        <time>2015-09-20T06:02:03Z</time>
      </trkpt>
      <trkpt lat="44.56349" lon="2.65021">
        <ele>326.6</ele>
        <time>2015-09-20T06:02:05Z</time>
      </trkpt>
      <trkpt lat="44.56347" lon="2.65001">
        <ele>326.2</ele>
        <time>2015-09-20T06:02:07Z</time>
      </trkpt>
      <trkpt lat="44.56347" lon="2.64986">
        <ele>325.9</ele>
        <time>2015-09-20T06:02:09Z</time>
      </trkpt>
      <trkpt lat="44.56349" lon="2.64973">
        <ele>325.6</ele>
        <time>2015-09-20T06:02:11Z</time>
      </trkpt>
      <trkpt lat="44.56354" lon="2.6496">
        <ele>325.2</ele>
        <time>2015-09-20T06:02:14Z</time>
      </trkpt>
      <trkpt lat="44.56364" lon="2.64962">
        <ele>323.5</ele>
        <time>2015-09-20T06:02:31Z</time>
      </trkpt>
      <trkpt lat="44.5637" lon="2.64973">
        <ele>323.6</ele>
        <time>2015-09-20T06:02:42Z</time>
      </trkpt>
      <trkpt lat="44.56378" lon="2.64982">
        <ele>324.2</ele>
        <time>2015-09-20T06:02:50Z</time>
      </trkpt>
      <trkpt lat="44.56382" lon="2.64994">
        <ele>325.2</ele>
        <time>2015-09-20T06:02:58Z</time>
      </trkpt>
      <trkpt lat="44.56387" lon="2.65004">
        <ele>326</ele>
        <time>2015-09-20T06:03:04Z</time>
      </trkpt>
      <trkpt lat="44.56393" lon="2.65015">
        <ele>326.8</ele>
        <time>2015-09-20T06:03:10Z</time>
      </trkpt>
      <trkpt lat="44.56398" lon="2.65027">
        <ele>327.7</ele>
        <time>2015-09-20T06:03:16Z</time>
      </trkpt>
      <trkpt lat="44.56401" lon="2.6504">
        <ele>328.6</ele>
        <time>2015-09-20T06:03:22Z</time>
      </trkpt>
      <trkpt lat="44.56403" lon="2.65053">
        <ele>329.6</ele>
        <time>2015-09-20T06:03:30Z</time>
      </trkpt>
      <trkpt lat="44.56404" lon="2.65067">
        <ele>330.3</ele>
        <time>2015-09-20T06:03:36Z</time>
      </trkpt>
      <trkpt lat="44.56406" lon="2.6508">
        <ele>330.9</ele>
        <time>2015-09-20T06:03:42Z</time>
      </trkpt>
      <trkpt lat="44.56406" lon="2.65092">
        <ele>331.5</ele>
        <time>2015-09-20T06:03:48Z</time>
      </trkpt>
      <trkpt lat="44.56407" lon="2.65106">
        <ele>332.3</ele>
        <time>2015-09-20T06:03:55Z</time>
      </trkpt>
      <trkpt lat="44.56406" lon="2.6512">
        <ele>333</ele>
        <time>2015-09-20T06:04:02Z</time>
      </trkpt>
      <trkpt lat="44.56407" lon="2.65133">
        <ele>333.3</ele>
        <time>2015-09-20T06:04:06Z</time>
      </trkpt>
      <trkpt lat="44.5641" lon="2.65146">
        <ele>333.6</ele>
        <time>2015-09-20T06:04:12Z</time>
      </trkpt>
      <trkpt lat="44.56417" lon="2.65156">
        <ele>334</ele>
        <time>2015-09-20T06:04:19Z</time>
      </trkpt>
      <trkpt lat="44.56424" lon="2.65166">
        <ele>334.2</ele>
        <time>2015-09-20T06:04:26Z</time>
      </trkpt>
      <trkpt lat="44.5643" lon="2.65174">
        <ele>334.5</ele>
        <time>2015-09-20T06:04:35Z</time>
      </trkpt>
      <trkpt lat="44.56436" lon="2.65185">
        <ele>335</ele>
        <time>2015-09-20T06:04:42Z</time>
      </trkpt>
      <trkpt lat="44.5644" lon="2.65197">
        <ele>335.8</ele>
        <time>2015-09-20T06:04:50Z</time>
      </trkpt>
      <trkpt lat="44.56444" lon="2.6521">
        <ele>336.4</ele>
        <time>2015-09-20T06:04:57Z</time>
      </trkpt>
      <trkpt lat="44.56448" lon="2.65222">
        <ele>337.2</ele>
        <time>2015-09-20T06:05:05Z</time>
      </trkpt>
      <trkpt lat="44.56452" lon="2.65209">
        <ele>337.7</ele>
        <time>2015-09-20T06:05:14Z</time>
      </trkpt>
      <trkpt lat="44.56451" lon="2.65196">
        <ele>338.2</ele>
        <time>2015-09-20T06:05:22Z</time>
      </trkpt>
      <trkpt lat="44.56448" lon="2.65184">
        <ele>339</ele>
        <time>2015-09-20T06:05:29Z</time>
      </trkpt>
      <trkpt lat="44.56446" lon="2.65171">
        <ele>340</ele>
        <time>2015-09-20T06:05:36Z</time>
      </trkpt>
      <trkpt lat="44.56444" lon="2.65157">
        <ele>341</ele>
        <time>2015-09-20T06:05:43Z</time>
      </trkpt>
      <trkpt lat="44.56441" lon="2.65143">
        <ele>342.2</ele>
        <time>2015-09-20T06:05:50Z</time>
      </trkpt>
      <trkpt lat="44.56436" lon="2.65132">
        <ele>343.3</ele>
        <time>2015-09-20T06:05:57Z</time>
      </trkpt>
      <trkpt lat="44.56436" lon="2.65118">
        <ele>344.5</ele>
        <time>2015-09-20T06:06:05Z</time>
      </trkpt>
      <trkpt lat="44.56436" lon="2.65104">
        <ele>345.5</ele>
        <time>2015-09-20T06:06:12Z</time>
      </trkpt>
      <trkpt lat="44.56436" lon="2.65092">
        <ele>346.4</ele>
        <time>2015-09-20T06:06:18Z</time>
      </trkpt>
      <trkpt lat="44.56437" lon="2.65077">
        <ele>347.4</ele>
        <time>2015-09-20T06:06:25Z</time>
      </trkpt>
      <trkpt lat="44.56436" lon="2.65065">
        <ele>348.2</ele>
        <time>2015-09-20T06:06:31Z</time>
      </trkpt>
      <trkpt lat="44.56436" lon="2.65051">
        <ele>349.1</ele>
        <time>2015-09-20T06:06:38Z</time>
      </trkpt>
      <trkpt lat="44.56436" lon="2.65038">
        <ele>350.2</ele>
        <time>2015-09-20T06:06:45Z</time>
      </trkpt>
      <trkpt lat="44.56435" lon="2.65024">
        <ele>351.3</ele>
        <time>2015-09-20T06:06:54Z</time>
      </trkpt>
      <trkpt lat="44.56432" lon="2.65011">
        <ele>352.3</ele>
        <time>2015-09-20T06:07:01Z</time>
      </trkpt>
      <trkpt lat="44.56428" lon="2.64998">
        <ele>353.3</ele>
        <time>2015-09-20T06:07:09Z</time>
      </trkpt>
      <trkpt lat="44.56423" lon="2.64987">
        <ele>354.2</ele>
        <time>2015-09-20T06:07:16Z</time>
      </trkpt>
      <trkpt lat="44.56418" lon="2.64976">
        <ele>355.5</ele>
        <time>2015-09-20T06:07:24Z</time>
      </trkpt>
      <trkpt lat="44.56412" lon="2.64964">
        <ele>356.6</ele>
        <time>2015-09-20T06:07:31Z</time>
      </trkpt>
      <trkpt lat="44.56412" lon="2.64951">
        <ele>357.9</ele>
        <time>2015-09-20T06:07:40Z</time>
      </trkpt>
      <trkpt lat="44.56411" lon="2.64938">
        <ele>359.4</ele>
        <time>2015-09-20T06:07:52Z</time>
      </trkpt>
      <trkpt lat="44.56408" lon="2.64925">
        <ele>360.6</ele>
        <time>2015-09-20T06:08:03Z</time>
      </trkpt>
      <trkpt lat="44.56402" lon="2.64914">
        <ele>361.6</ele>
        <time>2015-09-20T06:08:12Z</time>
      </trkpt>
      <trkpt lat="44.56403" lon="2.64902">
        <ele>362.7</ele>
        <time>2015-09-20T06:08:22Z</time>
      </trkpt>
      <trkpt lat="44.564" lon="2.64889">
        <ele>363.9</ele>
        <time>2015-09-20T06:08:31Z</time>
      </trkpt>
      <trkpt lat="44.56398" lon="2.64876">
        <ele>365.5</ele>
        <time>2015-09-20T06:08:42Z</time>
      </trkpt>
      <trkpt lat="44.56398" lon="2.64862">
        <ele>366.7</ele>
        <time>2015-09-20T06:08:52Z</time>
      </trkpt>
      <trkpt lat="44.564" lon="2.64848">
        <ele>368</ele>
        <time>2015-09-20T06:09:03Z</time>
      </trkpt>
      <trkpt lat="44.56401" lon="2.64834">
        <ele>369.2</ele>
        <time>2015-09-20T06:09:12Z</time>
      </trkpt>
      <trkpt lat="44.56405" lon="2.64823">
        <ele>370.1</ele>
        <time>2015-09-20T06:09:19Z</time>
      </trkpt>
      <trkpt lat="44.56405" lon="2.6481">
        <ele>371.5</ele>
        <time>2015-09-20T06:09:29Z</time>
      </trkpt>
      <trkpt lat="44.56403" lon="2.64797">
        <ele>372.8</ele>
        <time>2015-09-20T06:09:40Z</time>
      </trkpt>
      <trkpt lat="44.56404" lon="2.64784">
        <ele>373.8</ele>
        <time>2015-09-20T06:09:49Z</time>
      </trkpt>
      <trkpt lat="44.56401" lon="2.64771">
        <ele>375.2</ele>
        <time>2015-09-20T06:10:00Z</time>
      </trkpt>
      <trkpt lat="44.56401" lon="2.64758">
        <ele>376.6</ele>
        <time>2015-09-20T06:10:09Z</time>
      </trkpt>
      <trkpt lat="44.56397" lon="2.64745">
        <ele>378.2</ele>
        <time>2015-09-20T06:10:19Z</time>
      </trkpt>
      <trkpt lat="44.56395" lon="2.64732">
        <ele>379.7</ele>
        <time>2015-09-20T06:10:29Z</time>
      </trkpt>
      <trkpt lat="44.56394" lon="2.64719">
        <ele>381.1</ele>
        <time>2015-09-20T06:10:38Z</time>
      </trkpt>
      <trkpt lat="44.5639" lon="2.64707">
        <ele>382.6</ele>
        <time>2015-09-20T06:10:49Z</time>
      </trkpt>
      <trkpt lat="44.56392" lon="2.64694">
        <ele>383.7</ele>
        <time>2015-09-20T06:10:58Z</time>
      </trkpt>
      <trkpt lat="44.56392" lon="2.6468">
        <ele>385</ele>
        <time>2015-09-20T06:11:07Z</time>
      </trkpt>
      <trkpt lat="44.56393" lon="2.64667">
        <ele>385.9</ele>
        <time>2015-09-20T06:11:15Z</time>
      </trkpt>
      <trkpt lat="44.56396" lon="2.64654">
        <ele>386.8</ele>
        <time>2015-09-20T06:11:23Z</time>
      </trkpt>
      <trkpt lat="44.56396" lon="2.64641">
        <ele>387.6</ele>
        <time>2015-09-20T06:11:31Z</time>
      </trkpt>
      <trkpt lat="44.56396" lon="2.64628">
        <ele>388.6</ele>
        <time>2015-09-20T06:11:40Z</time>
      </trkpt>
      <trkpt lat="44.56393" lon="2.64616">
        <ele>389.8</ele>
        <time>2015-09-20T06:11:49Z</time>
      </trkpt>
      <trkpt lat="44.56397" lon="2.64604">
        <ele>392.1</ele>
        <time>2015-09-20T06:12:19Z</time>
      </trkpt>
      <trkpt lat="44.56389" lon="2.64596">
        <ele>392.8</ele>
        <time>2015-09-20T06:12:59Z</time>
      </trkpt>
      <trkpt lat="44.56385" lon="2.64585">
        <ele>393.2</ele>
        <time>2015-09-20T06:13:08Z</time>
      </trkpt>
      <trkpt lat="44.56382" lon="2.64573">
        <ele>393.9</ele>
        <time>2015-09-20T06:13:15Z</time>
      </trkpt>
      <trkpt lat="44.56377" lon="2.64561">
        <ele>394.8</ele>
        <time>2015-09-20T06:13:23Z</time>
      </trkpt>
      <trkpt lat="44.56373" lon="2.64549">
        <ele>396.2</ele>
        <time>2015-09-20T06:13:32Z</time>
      </trkpt>
      <trkpt lat="44.5637" lon="2.64537">
        <ele>397.7</ele>
        <time>2015-09-20T06:13:42Z</time>
      </trkpt>
      <trkpt lat="44.56366" lon="2.64525">
        <ele>400.2</ele>
        <time>2015-09-20T06:14:11Z</time>
      </trkpt>
      <trkpt lat="44.56364" lon="2.64513">
        <ele>400.5</ele>
        <time>2015-09-20T06:14:20Z</time>
      </trkpt>
      <trkpt lat="44.56371" lon="2.64521">
        <ele>401.7</ele>
        <time>2015-09-20T06:14:37Z</time>
      </trkpt>
      <trkpt lat="44.5638" lon="2.64524">
        <ele>403</ele>
        <time>2015-09-20T06:15:18Z</time>
      </trkpt>
      <trkpt lat="44.56387" lon="2.64534">
        <ele>403.8</ele>
        <time>2015-09-20T06:15:28Z</time>
      </trkpt>
      <trkpt lat="44.56393" lon="2.64544">
        <ele>404.9</ele>
        <time>2015-09-20T06:15:38Z</time>
      </trkpt>
      <trkpt lat="44.56401" lon="2.64553">
        <ele>405.8</ele>
        <time>2015-09-20T06:15:48Z</time>
      </trkpt>
      <trkpt lat="44.56406" lon="2.64563">
        <ele>406.8</ele>
        <time>2015-09-20T06:15:57Z</time>
      </trkpt>
      <trkpt lat="44.56414" lon="2.64572">
        <ele>408</ele>
        <time>2015-09-20T06:16:06Z</time>
      </trkpt>
      <trkpt lat="44.56421" lon="2.6458">
        <ele>409.1</ele>
        <time>2015-09-20T06:16:15Z</time>
      </trkpt>
      <trkpt lat="44.56427" lon="2.64591">
        <ele>410.6</ele>
        <time>2015-09-20T06:16:26Z</time>
      </trkpt>
      <trkpt lat="44.56431" lon="2.64603">
        <ele>411.8</ele>
        <time>2015-09-20T06:16:34Z</time>
      </trkpt>
      <trkpt lat="44.56435" lon="2.64615">
        <ele>413.2</ele>
        <time>2015-09-20T06:16:43Z</time>
      </trkpt>
      <trkpt lat="44.56437" lon="2.64629">
        <ele>414.4</ele>
        <time>2015-09-20T06:16:51Z</time>
      </trkpt>
      <trkpt lat="44.56439" lon="2.64643">
        <ele>415.4</ele>
        <time>2015-09-20T06:16:59Z</time>
      </trkpt>
      <trkpt lat="44.56441" lon="2.64655">
        <ele>416.5</ele>
        <time>2015-09-20T06:17:06Z</time>
      </trkpt>
      <trkpt lat="44.56445" lon="2.64667">
        <ele>417.4</ele>
        <time>2015-09-20T06:17:14Z</time>
      </trkpt>
      <trkpt lat="44.56448" lon="2.6468">
        <ele>418.4</ele>
        <time>2015-09-20T06:17:23Z</time>
      </trkpt>
      <trkpt lat="44.56451" lon="2.64692">
        <ele>419.3</ele>
        <time>2015-09-20T06:17:31Z</time>
      </trkpt>
      <trkpt lat="44.5645" lon="2.64705">
        <ele>420.1</ele>
        <time>2015-09-20T06:17:37Z</time>
      </trkpt>
      <trkpt lat="44.56454" lon="2.64717">
        <ele>421.2</ele>
        <time>2015-09-20T06:17:45Z</time>
      </trkpt>
      <trkpt lat="44.56456" lon="2.6473">
        <ele>422.2</ele>
        <time>2015-09-20T06:17:54Z</time>
      </trkpt>
      <trkpt lat="44.56457" lon="2.64743">
        <ele>423.3</ele>
        <time>2015-09-20T06:18:03Z</time>
      </trkpt>
      <trkpt lat="44.5646" lon="2.64755">
        <ele>424.3</ele>
        <time>2015-09-20T06:18:12Z</time>
      </trkpt>
      <trkpt lat="44.56462" lon="2.64768">
        <ele>425.5</ele>
        <time>2015-09-20T06:18:21Z</time>
      </trkpt>
      <trkpt lat="44.56466" lon="2.64779">
        <ele>426.7</ele>
        <time>2015-09-20T06:18:29Z</time>
      </trkpt>
      <trkpt lat="44.56471" lon="2.6479">
        <ele>428.2</ele>
        <time>2015-09-20T06:18:38Z</time>
      </trkpt>
      <trkpt lat="44.56475" lon="2.64803">
        <ele>429.6</ele>
        <time>2015-09-20T06:18:47Z</time>
      </trkpt>
      <trkpt lat="44.56478" lon="2.64815">
        <ele>430.9</ele>
        <time>2015-09-20T06:18:55Z</time>
      </trkpt>
      <trkpt lat="44.56482" lon="2.64827">
        <ele>432.5</ele>
        <time>2015-09-20T06:19:04Z</time>
      </trkpt>
      <trkpt lat="44.56484" lon="2.6484">
        <ele>433.7</ele>
        <time>2015-09-20T06:19:12Z</time>
      </trkpt>
      <trkpt lat="44.56488" lon="2.64852">
        <ele>434.9</ele>
        <time>2015-09-20T06:19:22Z</time>
      </trkpt>
      <trkpt lat="44.56491" lon="2.64864">
        <ele>435.9</ele>
        <time>2015-09-20T06:19:30Z</time>
      </trkpt>
      <trkpt lat="44.56496" lon="2.64876">
        <ele>436.9</ele>
        <time>2015-09-20T06:19:37Z</time>
      </trkpt>
      <trkpt lat="44.56496" lon="2.6489">
        <ele>437.7</ele>
        <time>2015-09-20T06:19:43Z</time>
      </trkpt>
      <trkpt lat="44.565" lon="2.64903">
        <ele>438.3</ele>
        <time>2015-09-20T06:19:50Z</time>
      </trkpt>
      <trkpt lat="44.56506" lon="2.64913">
        <ele>438.9</ele>
        <time>2015-09-20T06:19:58Z</time>
      </trkpt>
      <trkpt lat="44.56514" lon="2.64919">
        <ele>439.8</ele>
        <time>2015-09-20T06:20:09Z</time>
      </trkpt>
      <trkpt lat="44.5651" lon="2.64907">
        <ele>441.7</ele>
        <time>2015-09-20T06:22:33Z</time>
      </trkpt>
      <trkpt lat="44.56508" lon="2.64893">
        <ele>442.4</ele>
        <time>2015-09-20T06:22:41Z</time>
      </trkpt>
      <trkpt lat="44.56503" lon="2.64881">
        <ele>443.2</ele>
        <time>2015-09-20T06:22:49Z</time>
      </trkpt>
      <trkpt lat="44.565" lon="2.64868">
        <ele>444.2</ele>
        <time>2015-09-20T06:23:04Z</time>
      </trkpt>
      <trkpt lat="44.565" lon="2.64853">
        <ele>444.4</ele>
        <time>2015-09-20T06:23:09Z</time>
      </trkpt>
      <trkpt lat="44.56498" lon="2.64839">
        <ele>444.5</ele>
        <time>2015-09-20T06:23:13Z</time>
      </trkpt>
      <trkpt lat="44.56496" lon="2.64821">
        <ele>444.6</ele>
        <time>2015-09-20T06:23:17Z</time>
      </trkpt>
      <trkpt lat="44.56493" lon="2.64807">
        <ele>444.7</ele>
        <time>2015-09-20T06:23:20Z</time>
      </trkpt>
      <trkpt lat="44.5649" lon="2.64791">
        <ele>444.7</ele>
        <time>2015-09-20T06:23:23Z</time>
      </trkpt>
      <trkpt lat="44.5649" lon="2.64776">
        <ele>444.7</ele>
        <time>2015-09-20T06:23:26Z</time>
      </trkpt>
      <trkpt lat="44.5649" lon="2.6476">
        <ele>444.8</ele>
        <time>2015-09-20T06:23:30Z</time>
      </trkpt>
      <trkpt lat="44.56491" lon="2.64746">
        <ele>444.8</ele>
        <time>2015-09-20T06:23:33Z</time>
      </trkpt>
      <trkpt lat="44.5649" lon="2.64732">
        <ele>444.8</ele>
        <time>2015-09-20T06:23:37Z</time>
      </trkpt>
      <trkpt lat="44.56488" lon="2.64719">
        <ele>444.7</ele>
        <time>2015-09-20T06:23:40Z</time>
      </trkpt>
      <trkpt lat="44.56487" lon="2.64702">
        <ele>444.7</ele>
        <time>2015-09-20T06:23:43Z</time>
      </trkpt>
      <trkpt lat="44.56487" lon="2.64686">
        <ele>444.6</ele>
        <time>2015-09-20T06:23:47Z</time>
      </trkpt>
      <trkpt lat="44.56486" lon="2.6467">
        <ele>444.6</ele>
        <time>2015-09-20T06:23:51Z</time>
      </trkpt>
      <trkpt lat="44.56485" lon="2.64657">
        <ele>444.6</ele>
        <time>2015-09-20T06:23:54Z</time>
      </trkpt>
      <trkpt lat="44.56485" lon="2.64641">
        <ele>444.9</ele>
        <time>2015-09-20T06:23:57Z</time>
      </trkpt>
      <trkpt lat="44.56486" lon="2.64628">
        <ele>445.4</ele>
        <time>2015-09-20T06:24:01Z</time>
      </trkpt>
      <trkpt lat="44.56486" lon="2.64612">
        <ele>445.9</ele>
        <time>2015-09-20T06:24:05Z</time>
      </trkpt>
      <trkpt lat="44.56486" lon="2.64596">
        <ele>446.2</ele>
        <time>2015-09-20T06:24:08Z</time>
      </trkpt>
      <trkpt lat="44.56487" lon="2.64579">
        <ele>446.6</ele>
        <time>2015-09-20T06:24:11Z</time>
      </trkpt>
      <trkpt lat="44.56488" lon="2.64562">
        <ele>446.9</ele>
        <time>2015-09-20T06:24:15Z</time>
      </trkpt>
      <trkpt lat="44.56487" lon="2.64546">
        <ele>447.1</ele>
        <time>2015-09-20T06:24:18Z</time>
      </trkpt>
      <trkpt lat="44.56486" lon="2.64532">
        <ele>447.3</ele>
        <time>2015-09-20T06:24:20Z</time>
      </trkpt>
      <trkpt lat="44.56483" lon="2.64515">
        <ele>447.4</ele>
        <time>2015-09-20T06:24:23Z</time>
      </trkpt>
      <trkpt lat="44.56477" lon="2.645">
        <ele>447.5</ele>
        <time>2015-09-20T06:24:26Z</time>
      </trkpt>
      <trkpt lat="44.56474" lon="2.64488">
        <ele>447.4</ele>
        <time>2015-09-20T06:24:29Z</time>
      </trkpt>
      <trkpt lat="44.56474" lon="2.64474">
        <ele>447.3</ele>
        <time>2015-09-20T06:24:31Z</time>
      </trkpt>
      <trkpt lat="44.56468" lon="2.6446">
        <ele>447.2</ele>
        <time>2015-09-20T06:24:34Z</time>
      </trkpt>
      <trkpt lat="44.56467" lon="2.64447">
        <ele>446.9</ele>
        <time>2015-09-20T06:24:37Z</time>
      </trkpt>
      <trkpt lat="44.56468" lon="2.64434">
        <ele>446.1</ele>
        <time>2015-09-20T06:24:49Z</time>
      </trkpt>
      <trkpt lat="44.56478" lon="2.6443">
        <ele>445.9</ele>
        <time>2015-09-20T06:25:36Z</time>
      </trkpt>
      <trkpt lat="44.56485" lon="2.64438">
        <ele>447.4</ele>
        <time>2015-09-20T06:25:49Z</time>
      </trkpt>
      <trkpt lat="44.56487" lon="2.64451">
        <ele>450</ele>
        <time>2015-09-20T06:26:31Z</time>
      </trkpt>
      <trkpt lat="44.56493" lon="2.64461">
        <ele>451</ele>
        <time>2015-09-20T06:26:43Z</time>
      </trkpt>
      <trkpt lat="44.56497" lon="2.6445">
        <ele>456</ele>
        <time>2015-09-20T06:27:19Z</time>
      </trkpt>
      <trkpt lat="44.56495" lon="2.64436">
        <ele>457.7</ele>
        <time>2015-09-20T06:27:29Z</time>
      </trkpt>
      <trkpt lat="44.56495" lon="2.64422">
        <ele>459.3</ele>
        <time>2015-09-20T06:27:40Z</time>
      </trkpt>
      <trkpt lat="44.56494" lon="2.64409">
        <ele>460.3</ele>
        <time>2015-09-20T06:27:49Z</time>
      </trkpt>
      <trkpt lat="44.56502" lon="2.64413">
        <ele>465.2</ele>
        <time>2015-09-20T06:28:26Z</time>
      </trkpt>
      <trkpt lat="44.56506" lon="2.64426">
        <ele>466.8</ele>
        <time>2015-09-20T06:28:41Z</time>
      </trkpt>
      <trkpt lat="44.56511" lon="2.64437">
        <ele>467.4</ele>
        <time>2015-09-20T06:28:48Z</time>
      </trkpt>
      <trkpt lat="44.56516" lon="2.6445">
        <ele>468</ele>
        <time>2015-09-20T06:28:54Z</time>
      </trkpt>
      <trkpt lat="44.5652" lon="2.64462">
        <ele>468.8</ele>
        <time>2015-09-20T06:28:59Z</time>
      </trkpt>
      <trkpt lat="44.5652" lon="2.64476">
        <ele>469.6</ele>
        <time>2015-09-20T06:29:05Z</time>
      </trkpt>
      <trkpt lat="44.56522" lon="2.64488">
        <ele>470.7</ele>
        <time>2015-09-20T06:29:12Z</time>
      </trkpt>
      <trkpt lat="44.56527" lon="2.64501">
        <ele>471.3</ele>
        <time>2015-09-20T06:29:17Z</time>
      </trkpt>
      <trkpt lat="44.56528" lon="2.64513">
        <ele>471.9</ele>
        <time>2015-09-20T06:29:22Z</time>
      </trkpt>
      <trkpt lat="44.56531" lon="2.64526">
        <ele>472.9</ele>
        <time>2015-09-20T06:29:28Z</time>
      </trkpt>
      <trkpt lat="44.56537" lon="2.64516">
        <ele>475.5</ele>
        <time>2015-09-20T06:29:44Z</time>
      </trkpt>
      <trkpt lat="44.56536" lon="2.64502">
        <ele>476.4</ele>
        <time>2015-09-20T06:29:51Z</time>
      </trkpt>
      <trkpt lat="44.56536" lon="2.64488">
        <ele>477.2</ele>
        <time>2015-09-20T06:29:58Z</time>
      </trkpt>
      <trkpt lat="44.56535" lon="2.64475">
        <ele>478</ele>
        <time>2015-09-20T06:30:05Z</time>
      </trkpt>
      <trkpt lat="44.56532" lon="2.64461">
        <ele>478.8</ele>
        <time>2015-09-20T06:30:12Z</time>
      </trkpt>
      <trkpt lat="44.56531" lon="2.64447">
        <ele>479.8</ele>
        <time>2015-09-20T06:30:20Z</time>
      </trkpt>
      <trkpt lat="44.5653" lon="2.64433">
        <ele>480.4</ele>
        <time>2015-09-20T06:30:26Z</time>
      </trkpt>
      <trkpt lat="44.56528" lon="2.6442">
        <ele>481.2</ele>
        <time>2015-09-20T06:30:33Z</time>
      </trkpt>
      <trkpt lat="44.56525" lon="2.64407">
        <ele>481.9</ele>
        <time>2015-09-20T06:30:40Z</time>
      </trkpt>
      <trkpt lat="44.56522" lon="2.64394">
        <ele>482.6</ele>
        <time>2015-09-20T06:30:46Z</time>
      </trkpt>
      <trkpt lat="44.56519" lon="2.64379">
        <ele>483.4</ele>
        <time>2015-09-20T06:30:52Z</time>
      </trkpt>
      <trkpt lat="44.56516" lon="2.64366">
        <ele>484.2</ele>
        <time>2015-09-20T06:30:58Z</time>
      </trkpt>
      <trkpt lat="44.56512" lon="2.64355">
        <ele>484.9</ele>
        <time>2015-09-20T06:31:04Z</time>
      </trkpt>
      <trkpt lat="44.56507" lon="2.64343">
        <ele>485.9</ele>
        <time>2015-09-20T06:31:11Z</time>
      </trkpt>
      <trkpt lat="44.565" lon="2.64334">
        <ele>487</ele>
        <time>2015-09-20T06:31:18Z</time>
      </trkpt>
      <trkpt lat="44.56492" lon="2.64327">
        <ele>488.1</ele>
        <time>2015-09-20T06:31:25Z</time>
      </trkpt>
      <trkpt lat="44.56486" lon="2.64317">
        <ele>489.4</ele>
        <time>2015-09-20T06:31:33Z</time>
      </trkpt>
      <trkpt lat="44.56476" lon="2.64311">
        <ele>490.7</ele>
        <time>2015-09-20T06:31:41Z</time>
      </trkpt>
      <trkpt lat="44.5647" lon="2.64301">
        <ele>492</ele>
        <time>2015-09-20T06:31:48Z</time>
      </trkpt>
      <trkpt lat="44.56463" lon="2.64292">
        <ele>493.1</ele>
        <time>2015-09-20T06:31:55Z</time>
      </trkpt>
      <trkpt lat="44.56455" lon="2.64284">
        <ele>494.2</ele>
        <time>2015-09-20T06:32:02Z</time>
      </trkpt>
      <trkpt lat="44.56448" lon="2.64274">
        <ele>495.4</ele>
        <time>2015-09-20T06:32:10Z</time>
      </trkpt>
      <trkpt lat="44.56442" lon="2.64264">
        <ele>496.8</ele>
        <time>2015-09-20T06:32:18Z</time>
      </trkpt>
      <trkpt lat="44.56439" lon="2.64251">
        <ele>498.2</ele>
        <time>2015-09-20T06:32:27Z</time>
      </trkpt>
      <trkpt lat="44.56435" lon="2.64239">
        <ele>499.8</ele>
        <time>2015-09-20T06:32:36Z</time>
      </trkpt>
      <trkpt lat="44.56432" lon="2.64226">
        <ele>501.4</ele>
        <time>2015-09-20T06:32:45Z</time>
      </trkpt>
      <trkpt lat="44.56429" lon="2.64213">
        <ele>502.7</ele>
        <time>2015-09-20T06:32:54Z</time>
      </trkpt>
      <trkpt lat="44.56426" lon="2.64202">
        <ele>504</ele>
        <time>2015-09-20T06:33:03Z</time>
      </trkpt>
      <trkpt lat="44.56424" lon="2.64189">
        <ele>505</ele>
        <time>2015-09-20T06:33:11Z</time>
      </trkpt>
      <trkpt lat="44.56424" lon="2.64176">
        <ele>506.3</ele>
        <time>2015-09-20T06:33:20Z</time>
      </trkpt>
      <trkpt lat="44.56426" lon="2.64163">
        <ele>507.5</ele>
        <time>2015-09-20T06:33:29Z</time>
      </trkpt>
      <trkpt lat="44.56429" lon="2.6415">
        <ele>508.6</ele>
        <time>2015-09-20T06:33:39Z</time>
      </trkpt>
      <trkpt lat="44.56431" lon="2.64136">
        <ele>509.8</ele>
        <time>2015-09-20T06:33:48Z</time>
      </trkpt>
      <trkpt lat="44.56433" lon="2.64124">
        <ele>510.9</ele>
        <time>2015-09-20T06:33:57Z</time>
      </trkpt>
      <trkpt lat="44.56434" lon="2.6411">
        <ele>512</ele>
        <time>2015-09-20T06:34:06Z</time>
      </trkpt>
      <trkpt lat="44.56437" lon="2.64097">
        <ele>513.2</ele>
        <time>2015-09-20T06:34:16Z</time>
      </trkpt>
      <trkpt lat="44.56442" lon="2.64087">
        <ele>514.2</ele>
        <time>2015-09-20T06:34:24Z</time>
      </trkpt>
      <trkpt lat="44.56446" lon="2.64075">
        <ele>515.6</ele>
        <time>2015-09-20T06:34:33Z</time>
      </trkpt>
      <trkpt lat="44.56451" lon="2.64064">
        <ele>516.6</ele>
        <time>2015-09-20T06:34:41Z</time>
      </trkpt>
      <trkpt lat="44.56457" lon="2.64053">
        <ele>518.1</ele>
        <time>2015-09-20T06:34:49Z</time>
      </trkpt>
      <trkpt lat="44.56462" lon="2.64043">
        <ele>519.4</ele>
        <time>2015-09-20T06:34:57Z</time>
      </trkpt>
      <trkpt lat="44.56468" lon="2.64033">
        <ele>521</ele>
        <time>2015-09-20T06:35:07Z</time>
      </trkpt>
      <trkpt lat="44.56472" lon="2.64022">
        <ele>522.3</ele>
        <time>2015-09-20T06:35:16Z</time>
      </trkpt>
      <trkpt lat="44.5648" lon="2.64013">
        <ele>523.5</ele>
        <time>2015-09-20T06:35:24Z</time>
      </trkpt>
      <trkpt lat="44.56484" lon="2.64">
        <ele>524.8</ele>
        <time>2015-09-20T06:35:33Z</time>
      </trkpt>
      <trkpt lat="44.56491" lon="2.6399">
        <ele>527.7</ele>
        <time>2015-09-20T06:39:15Z</time>
      </trkpt>
      <trkpt lat="44.56495" lon="2.63979">
        <ele>528</ele>
        <time>2015-09-20T06:39:21Z</time>
      </trkpt>
      <trkpt lat="44.56502" lon="2.63967">
        <ele>528.4</ele>
        <time>2015-09-20T06:39:27Z</time>
      </trkpt>
      <trkpt lat="44.56508" lon="2.63956">
        <ele>528.9</ele>
        <time>2015-09-20T06:39:33Z</time>
      </trkpt>
      <trkpt lat="44.56513" lon="2.63943">
        <ele>529.2</ele>
        <time>2015-09-20T06:39:39Z</time>
      </trkpt>
      <trkpt lat="44.56516" lon="2.6393">
        <ele>529.7</ele>
        <time>2015-09-20T06:39:46Z</time>
      </trkpt>
      <trkpt lat="44.56518" lon="2.63917">
        <ele>530.1</ele>
        <time>2015-09-20T06:39:52Z</time>
      </trkpt>
      <trkpt lat="44.56518" lon="2.63903">
        <ele>530.4</ele>
        <time>2015-09-20T06:39:58Z</time>
      </trkpt>
      <trkpt lat="44.56518" lon="2.63888">
        <ele>530.8</ele>
        <time>2015-09-20T06:40:02Z</time>
      </trkpt>
      <trkpt lat="44.56518" lon="2.63874">
        <ele>531.1</ele>
        <time>2015-09-20T06:40:06Z</time>
      </trkpt>
      <trkpt lat="44.56519" lon="2.63861">
        <ele>531.7</ele>
        <time>2015-09-20T06:40:10Z</time>
      </trkpt>
      <trkpt lat="44.56519" lon="2.63847">
        <ele>532.3</ele>
        <time>2015-09-20T06:40:14Z</time>
      </trkpt>
      <trkpt lat="44.56519" lon="2.63833">
        <ele>533</ele>
        <time>2015-09-20T06:40:18Z</time>
      </trkpt>
      <trkpt lat="44.56521" lon="2.63819">
        <ele>533.8</ele>
        <time>2015-09-20T06:40:23Z</time>
      </trkpt>
      <trkpt lat="44.5652" lon="2.63804">
        <ele>534.8</ele>
        <time>2015-09-20T06:40:28Z</time>
      </trkpt>
      <trkpt lat="44.56519" lon="2.63791">
        <ele>535.8</ele>
        <time>2015-09-20T06:40:33Z</time>
      </trkpt>
      <trkpt lat="44.56521" lon="2.63779">
        <ele>536.9</ele>
        <time>2015-09-20T06:40:39Z</time>
      </trkpt>
      <trkpt lat="44.56521" lon="2.63765">
        <ele>538.3</ele>
        <time>2015-09-20T06:40:47Z</time>
      </trkpt>
      <trkpt lat="44.56522" lon="2.63752">
        <ele>539.9</ele>
        <time>2015-09-20T06:40:56Z</time>
      </trkpt>
      <trkpt lat="44.56524" lon="2.63739">
        <ele>541.6</ele>
        <time>2015-09-20T06:41:05Z</time>
      </trkpt>
      <trkpt lat="44.56524" lon="2.63726">
        <ele>543.3</ele>
        <time>2015-09-20T06:41:16Z</time>
      </trkpt>
      <trkpt lat="44.56524" lon="2.63713">
        <ele>544.3</ele>
        <time>2015-09-20T06:41:23Z</time>
      </trkpt>
      <trkpt lat="44.56521" lon="2.637">
        <ele>545.5</ele>
        <time>2015-09-20T06:41:33Z</time>
      </trkpt>
      <trkpt lat="44.56523" lon="2.63688">
        <ele>546.4</ele>
        <time>2015-09-20T06:41:40Z</time>
      </trkpt>
      <trkpt lat="44.56521" lon="2.63674">
        <ele>547.8</ele>
        <time>2015-09-20T06:41:49Z</time>
      </trkpt>
      <trkpt lat="44.56522" lon="2.6366">
        <ele>549</ele>
        <time>2015-09-20T06:41:59Z</time>
      </trkpt>
      <trkpt lat="44.56522" lon="2.63647">
        <ele>550.4</ele>
        <time>2015-09-20T06:42:10Z</time>
      </trkpt>
      <trkpt lat="44.56518" lon="2.63635">
        <ele>552.2</ele>
        <time>2015-09-20T06:42:35Z</time>
      </trkpt>
      <trkpt lat="44.56525" lon="2.63625">
        <ele>553</ele>
        <time>2015-09-20T06:43:03Z</time>
      </trkpt>
      <trkpt lat="44.56525" lon="2.63612">
        <ele>553.5</ele>
        <time>2015-09-20T06:43:11Z</time>
      </trkpt>
      <trkpt lat="44.56524" lon="2.63599">
        <ele>554.4</ele>
        <time>2015-09-20T06:43:19Z</time>
      </trkpt>
      <trkpt lat="44.5652" lon="2.63586">
        <ele>555.6</ele>
        <time>2015-09-20T06:43:28Z</time>
      </trkpt>
      <trkpt lat="44.56518" lon="2.63571">
        <ele>556.9</ele>
        <time>2015-09-20T06:43:37Z</time>
      </trkpt>
      <trkpt lat="44.56516" lon="2.63557">
        <ele>558.1</ele>
        <time>2015-09-20T06:43:45Z</time>
      </trkpt>
      <trkpt lat="44.56513" lon="2.63544">
        <ele>559.2</ele>
        <time>2015-09-20T06:43:53Z</time>
      </trkpt>
      <trkpt lat="44.56509" lon="2.63531">
        <ele>560.6</ele>
        <time>2015-09-20T06:44:01Z</time>
      </trkpt>
      <trkpt lat="44.56505" lon="2.63519">
        <ele>561.6</ele>
        <time>2015-09-20T06:44:09Z</time>
      </trkpt>
      <trkpt lat="44.56499" lon="2.63507">
        <ele>562.8</ele>
        <time>2015-09-20T06:44:17Z</time>
      </trkpt>
      <trkpt lat="44.56496" lon="2.63495">
        <ele>563.8</ele>
        <time>2015-09-20T06:44:24Z</time>
      </trkpt>
      <trkpt lat="44.56491" lon="2.63484">
        <ele>564.8</ele>
        <time>2015-09-20T06:44:32Z</time>
      </trkpt>
      <trkpt lat="44.56487" lon="2.63472">
        <ele>565.7</ele>
        <time>2015-09-20T06:44:41Z</time>
      </trkpt>
      <trkpt lat="44.56481" lon="2.63461">
        <ele>566.8</ele>
        <time>2015-09-20T06:44:52Z</time>
      </trkpt>
      <trkpt lat="44.56476" lon="2.6345">
        <ele>567.9</ele>
        <time>2015-09-20T06:45:05Z</time>
      </trkpt>
      <trkpt lat="44.56471" lon="2.63438">
        <ele>568.6</ele>
        <time>2015-09-20T06:45:14Z</time>
      </trkpt>
      <trkpt lat="44.56463" lon="2.63429">
        <ele>569.5</ele>
        <time>2015-09-20T06:45:25Z</time>
      </trkpt>
      <trkpt lat="44.56462" lon="2.63417">
        <ele>570.6</ele>
        <time>2015-09-20T06:47:00Z</time>
      </trkpt>
      <trkpt lat="44.56458" lon="2.63404">
        <ele>570.9</ele>
        <time>2015-09-20T06:47:06Z</time>
      </trkpt>
      <trkpt lat="44.56454" lon="2.63391">
        <ele>571.4</ele>
        <time>2015-09-20T06:47:13Z</time>
      </trkpt>
      <trkpt lat="44.56451" lon="2.63379">
        <ele>571.9</ele>
        <time>2015-09-20T06:47:20Z</time>
      </trkpt>
      <trkpt lat="44.56445" lon="2.6337">
        <ele>572.8</ele>
        <time>2015-09-20T06:47:30Z</time>
      </trkpt>
      <trkpt lat="44.56442" lon="2.63357">
        <ele>574.8</ele>
        <time>2015-09-20T06:48:38Z</time>
      </trkpt>
      <trkpt lat="44.5644" lon="2.63343">
        <ele>575.2</ele>
        <time>2015-09-20T06:48:47Z</time>
      </trkpt>
      <trkpt lat="44.5644" lon="2.6333">
        <ele>576</ele>
        <time>2015-09-20T06:48:54Z</time>
      </trkpt>
      <trkpt lat="44.56438" lon="2.63315">
        <ele>576.9</ele>
        <time>2015-09-20T06:49:01Z</time>
      </trkpt>
      <trkpt lat="44.56436" lon="2.63301">
        <ele>578</ele>
        <time>2015-09-20T06:49:08Z</time>
      </trkpt>
      <trkpt lat="44.56435" lon="2.63288">
        <ele>579.5</ele>
        <time>2015-09-20T06:49:16Z</time>
      </trkpt>
      <trkpt lat="44.56432" lon="2.63275">
        <ele>580.9</ele>
        <time>2015-09-20T06:49:24Z</time>
      </trkpt>
      <trkpt lat="44.56431" lon="2.63262">
        <ele>582.1</ele>
        <time>2015-09-20T06:49:31Z</time>
      </trkpt>
      <trkpt lat="44.56432" lon="2.63248">
        <ele>583.4</ele>
        <time>2015-09-20T06:49:39Z</time>
      </trkpt>
      <trkpt lat="44.56435" lon="2.63235">
        <ele>584.6</ele>
        <time>2015-09-20T06:49:47Z</time>
      </trkpt>
      <trkpt lat="44.56443" lon="2.63227">
        <ele>585.7</ele>
        <time>2015-09-20T06:49:55Z</time>
      </trkpt>
      <trkpt lat="44.56453" lon="2.63228">
        <ele>587</ele>
        <time>2015-09-20T06:50:04Z</time>
      </trkpt>
      <trkpt lat="44.56458" lon="2.63238">
        <ele>588.3</ele>
        <time>2015-09-20T06:50:11Z</time>
      </trkpt>
      <trkpt lat="44.5646" lon="2.63252">
        <ele>589.9</ele>
        <time>2015-09-20T06:50:20Z</time>
      </trkpt>
      <trkpt lat="44.56467" lon="2.6326">
        <ele>593</ele>
        <time>2015-09-20T06:51:54Z</time>
      </trkpt>
      <trkpt lat="44.56476" lon="2.63257">
        <ele>593.4</ele>
        <time>2015-09-20T06:52:07Z</time>
      </trkpt>
      <trkpt lat="44.56484" lon="2.63249">
        <ele>594.1</ele>
        <time>2015-09-20T06:52:16Z</time>
      </trkpt>
      <trkpt lat="44.56493" lon="2.63241">
        <ele>595.1</ele>
        <time>2015-09-20T06:52:25Z</time>
      </trkpt>
      <trkpt lat="44.56502" lon="2.63236">
        <ele>595.7</ele>
        <time>2015-09-20T06:52:30Z</time>
      </trkpt>
      <trkpt lat="44.56512" lon="2.6323">
        <ele>596.7</ele>
        <time>2015-09-20T06:52:36Z</time>
      </trkpt>
      <trkpt lat="44.56521" lon="2.63225">
        <ele>597.7</ele>
        <time>2015-09-20T06:52:42Z</time>
      </trkpt>
      <trkpt lat="44.56531" lon="2.63221">
        <ele>598.8</ele>
        <time>2015-09-20T06:52:48Z</time>
      </trkpt>
      <trkpt lat="44.56541" lon="2.63216">
        <ele>599.8</ele>
        <time>2015-09-20T06:52:54Z</time>
      </trkpt>
      <trkpt lat="44.56549" lon="2.63211">
        <ele>600.6</ele>
        <time>2015-09-20T06:52:59Z</time>
      </trkpt>
      <trkpt lat="44.56559" lon="2.63204">
        <ele>601.5</ele>
        <time>2015-09-20T06:53:05Z</time>
      </trkpt>
      <trkpt lat="44.56569" lon="2.63198">
        <ele>602.3</ele>
        <time>2015-09-20T06:53:11Z</time>
      </trkpt>
      <trkpt lat="44.56577" lon="2.63192">
        <ele>602.9</ele>
        <time>2015-09-20T06:53:16Z</time>
      </trkpt>
      <trkpt lat="44.56587" lon="2.63187">
        <ele>603.7</ele>
        <time>2015-09-20T06:53:22Z</time>
      </trkpt>
      <trkpt lat="44.56596" lon="2.63181">
        <ele>604.3</ele>
        <time>2015-09-20T06:53:27Z</time>
      </trkpt>
      <trkpt lat="44.56605" lon="2.63173">
        <ele>604.8</ele>
        <time>2015-09-20T06:53:32Z</time>
      </trkpt>
      <trkpt lat="44.56613" lon="2.63165">
        <ele>605.3</ele>
        <time>2015-09-20T06:53:36Z</time>
      </trkpt>
      <trkpt lat="44.56621" lon="2.63155">
        <ele>605.8</ele>
        <time>2015-09-20T06:53:41Z</time>
      </trkpt>
      <trkpt lat="44.56628" lon="2.63144">
        <ele>606.3</ele>
        <time>2015-09-20T06:53:46Z</time>
      </trkpt>
      <trkpt lat="44.56634" lon="2.63134">
        <ele>606.7</ele>
        <time>2015-09-20T06:53:50Z</time>
      </trkpt>
      <trkpt lat="44.5664" lon="2.63123">
        <ele>607.2</ele>
        <time>2015-09-20T06:53:54Z</time>
      </trkpt>
      <trkpt lat="44.56647" lon="2.63113">
        <ele>607.5</ele>
        <time>2015-09-20T06:53:58Z</time>
      </trkpt>
      <trkpt lat="44.56653" lon="2.63103">
        <ele>607.8</ele>
        <time>2015-09-20T06:54:02Z</time>
      </trkpt>
      <trkpt lat="44.56659" lon="2.63093">
        <ele>608.1</ele>
        <time>2015-09-20T06:54:06Z</time>
      </trkpt>
      <trkpt lat="44.56666" lon="2.63083">
        <ele>608.4</ele>
        <time>2015-09-20T06:54:10Z</time>
      </trkpt>
      <trkpt lat="44.56672" lon="2.63073">
        <ele>608.8</ele>
        <time>2015-09-20T06:54:14Z</time>
      </trkpt>
      <trkpt lat="44.56678" lon="2.63062">
        <ele>609.1</ele>
        <time>2015-09-20T06:54:18Z</time>
      </trkpt>
      <trkpt lat="44.56685" lon="2.63051">
        <ele>609.6</ele>
        <time>2015-09-20T06:54:22Z</time>
      </trkpt>
      <trkpt lat="44.56692" lon="2.6304">
        <ele>610</ele>
        <time>2015-09-20T06:54:26Z</time>
      </trkpt>
      <trkpt lat="44.567" lon="2.63028">
        <ele>610.4</ele>
        <time>2015-09-20T06:54:30Z</time>
      </trkpt>
      <trkpt lat="44.56707" lon="2.63015">
        <ele>610.7</ele>
        <time>2015-09-20T06:54:34Z</time>
      </trkpt>
      <trkpt lat="44.56714" lon="2.63004">
        <ele>610.9</ele>
        <time>2015-09-20T06:54:38Z</time>
      </trkpt>
      <trkpt lat="44.5672" lon="2.62992">
        <ele>611.1</ele>
        <time>2015-09-20T06:54:42Z</time>
      </trkpt>
      <trkpt lat="44.56724" lon="2.6298">
        <ele>611.2</ele>
        <time>2015-09-20T06:54:46Z</time>
      </trkpt>
      <trkpt lat="44.56727" lon="2.62966">
        <ele>611.5</ele>
        <time>2015-09-20T06:54:50Z</time>
      </trkpt>
      <trkpt lat="44.5673" lon="2.62952">
        <ele>611.8</ele>
        <time>2015-09-20T06:54:54Z</time>
      </trkpt>
      <trkpt lat="44.56734" lon="2.62937">
        <ele>612.2</ele>
        <time>2015-09-20T06:54:59Z</time>
      </trkpt>
      <trkpt lat="44.56736" lon="2.62923">
        <ele>612.7</ele>
        <time>2015-09-20T06:55:04Z</time>
      </trkpt>
      <trkpt lat="44.56738" lon="2.62908">
        <ele>613.4</ele>
        <time>2015-09-20T06:55:10Z</time>
      </trkpt>
      <trkpt lat="44.56739" lon="2.62894">
        <ele>614.1</ele>
        <time>2015-09-20T06:55:16Z</time>
      </trkpt>
      <trkpt lat="44.5674" lon="2.62882">
        <ele>614.8</ele>
        <time>2015-09-20T06:55:22Z</time>
      </trkpt>
      <trkpt lat="44.56741" lon="2.62868">
        <ele>616</ele>
        <time>2015-09-20T06:55:29Z</time>
      </trkpt>
      <trkpt lat="44.5674" lon="2.62855">
        <ele>617.1</ele>
        <time>2015-09-20T06:55:36Z</time>
      </trkpt>
      <trkpt lat="44.5674" lon="2.62841">
        <ele>618.2</ele>
        <time>2015-09-20T06:55:42Z</time>
      </trkpt>
      <trkpt lat="44.56741" lon="2.62828">
        <ele>619.3</ele>
        <time>2015-09-20T06:55:49Z</time>
      </trkpt>
      <trkpt lat="44.56741" lon="2.62815">
        <ele>620.3</ele>
        <time>2015-09-20T06:55:56Z</time>
      </trkpt>
      <trkpt lat="44.56745" lon="2.62802">
        <ele>621.4</ele>
        <time>2015-09-20T06:56:03Z</time>
      </trkpt>
      <trkpt lat="44.56751" lon="2.62792">
        <ele>622.4</ele>
        <time>2015-09-20T06:56:10Z</time>
      </trkpt>
      <trkpt lat="44.5676" lon="2.62788">
        <ele>623.7</ele>
        <time>2015-09-20T06:56:18Z</time>
      </trkpt>
      <trkpt lat="44.5677" lon="2.62788">
        <ele>625</ele>
        <time>2015-09-20T06:56:26Z</time>
      </trkpt>
      <trkpt lat="44.56779" lon="2.62785">
        <ele>626.3</ele>
        <time>2015-09-20T06:56:33Z</time>
      </trkpt>
      <trkpt lat="44.56787" lon="2.62777">
        <ele>627.6</ele>
        <time>2015-09-20T06:56:40Z</time>
      </trkpt>
      <trkpt lat="44.56795" lon="2.62772">
        <ele>628.7</ele>
        <time>2015-09-20T06:56:47Z</time>
      </trkpt>
      <trkpt lat="44.56802" lon="2.62764">
        <ele>629.8</ele>
        <time>2015-09-20T06:56:54Z</time>
      </trkpt>
      <trkpt lat="44.56811" lon="2.62757">
        <ele>630.9</ele>
        <time>2015-09-20T06:57:02Z</time>
      </trkpt>
      <trkpt lat="44.56819" lon="2.62752">
        <ele>631.7</ele>
        <time>2015-09-20T06:57:10Z</time>
      </trkpt>
      <trkpt lat="44.56829" lon="2.62747">
        <ele>632.5</ele>
        <time>2015-09-20T06:57:17Z</time>
      </trkpt>
      <trkpt lat="44.56838" lon="2.62742">
        <ele>633.4</ele>
        <time>2015-09-20T06:57:26Z</time>
      </trkpt>
      <trkpt lat="44.56847" lon="2.62737">
        <ele>635.5</ele>
        <time>2015-09-20T06:57:54Z</time>
      </trkpt>
      <trkpt lat="44.56857" lon="2.62733">
        <ele>635.8</ele>
        <time>2015-09-20T06:58:00Z</time>
      </trkpt>
      <trkpt lat="44.56866" lon="2.6273">
        <ele>636.4</ele>
        <time>2015-09-20T06:58:06Z</time>
      </trkpt>
      <trkpt lat="44.56876" lon="2.6273">
        <ele>636.8</ele>
        <time>2015-09-20T06:58:12Z</time>
      </trkpt>
      <trkpt lat="44.56887" lon="2.62726">
        <ele>637.2</ele>
        <time>2015-09-20T06:58:17Z</time>
      </trkpt>
      <trkpt lat="44.56897" lon="2.62724">
        <ele>637.5</ele>
        <time>2015-09-20T06:58:22Z</time>
      </trkpt>
      <trkpt lat="44.56906" lon="2.62722">
        <ele>637.9</ele>
        <time>2015-09-20T06:58:27Z</time>
      </trkpt>
      <trkpt lat="44.56917" lon="2.62719">
        <ele>638.2</ele>
        <time>2015-09-20T06:58:32Z</time>
      </trkpt>
      <trkpt lat="44.56926" lon="2.62716">
        <ele>638.5</ele>
        <time>2015-09-20T06:58:38Z</time>
      </trkpt>
      <trkpt lat="44.56936" lon="2.62711">
        <ele>638.8</ele>
        <time>2015-09-20T06:58:44Z</time>
      </trkpt>
      <trkpt lat="44.56945" lon="2.62708">
        <ele>639.3</ele>
        <time>2015-09-20T06:58:49Z</time>
      </trkpt>
      <trkpt lat="44.56956" lon="2.62703">
        <ele>639.8</ele>
        <time>2015-09-20T06:58:55Z</time>
      </trkpt>
      <trkpt lat="44.56964" lon="2.62698">
        <ele>640.2</ele>
        <time>2015-09-20T06:59:00Z</time>
      </trkpt>
      <trkpt lat="44.56973" lon="2.62692">
        <ele>640.8</ele>
        <time>2015-09-20T06:59:06Z</time>
      </trkpt>
      <trkpt lat="44.56982" lon="2.62683">
        <ele>641.5</ele>
        <time>2015-09-20T06:59:12Z</time>
      </trkpt>
      <trkpt lat="44.5699" lon="2.62676">
        <ele>642.3</ele>
        <time>2015-09-20T06:59:18Z</time>
      </trkpt>
      <trkpt lat="44.56998" lon="2.62667">
        <ele>643.1</ele>
        <time>2015-09-20T06:59:24Z</time>
      </trkpt>
      <trkpt lat="44.57005" lon="2.62659">
        <ele>643.8</ele>
        <time>2015-09-20T06:59:30Z</time>
      </trkpt>
      <trkpt lat="44.57013" lon="2.62649">
        <ele>644.9</ele>
        <time>2015-09-20T06:59:38Z</time>
      </trkpt>
      <trkpt lat="44.57021" lon="2.62641">
        <ele>645.9</ele>
        <time>2015-09-20T06:59:45Z</time>
      </trkpt>
      <trkpt lat="44.57028" lon="2.62631">
        <ele>647.1</ele>
        <time>2015-09-20T06:59:52Z</time>
      </trkpt>
      <trkpt lat="44.57037" lon="2.62624">
        <ele>648.4</ele>
        <time>2015-09-20T06:59:59Z</time>
      </trkpt>
      <trkpt lat="44.57045" lon="2.62616">
        <ele>649.3</ele>
        <time>2015-09-20T07:00:04Z</time>
      </trkpt>
      <trkpt lat="44.57053" lon="2.62609">
        <ele>650.2</ele>
        <time>2015-09-20T07:00:09Z</time>
      </trkpt>
      <trkpt lat="44.57062" lon="2.62604">
        <ele>651.2</ele>
        <time>2015-09-20T07:00:15Z</time>
      </trkpt>
      <trkpt lat="44.57071" lon="2.62598">
        <ele>652.1</ele>
        <time>2015-09-20T07:00:20Z</time>
      </trkpt>
      <trkpt lat="44.57081" lon="2.62592">
        <ele>652.9</ele>
        <time>2015-09-20T07:00:25Z</time>
      </trkpt>
      <trkpt lat="44.57091" lon="2.62587">
        <ele>653.8</ele>
        <time>2015-09-20T07:00:30Z</time>
      </trkpt>
      <trkpt lat="44.57101" lon="2.62582">
        <ele>654.6</ele>
        <time>2015-09-20T07:00:35Z</time>
      </trkpt>
      <trkpt lat="44.5711" lon="2.62579">
        <ele>655.2</ele>
        <time>2015-09-20T07:00:40Z</time>
      </trkpt>
      <trkpt lat="44.57121" lon="2.62573">
        <ele>655.7</ele>
        <time>2015-09-20T07:00:45Z</time>
      </trkpt>
      <trkpt lat="44.5713" lon="2.62569">
        <ele>656.2</ele>
        <time>2015-09-20T07:00:49Z</time>
      </trkpt>
      <trkpt lat="44.57139" lon="2.62564">
        <ele>656.6</ele>
        <time>2015-09-20T07:00:53Z</time>
      </trkpt>
      <trkpt lat="44.57148" lon="2.62559">
        <ele>657</ele>
        <time>2015-09-20T07:00:57Z</time>
      </trkpt>
      <trkpt lat="44.57157" lon="2.62555">
        <ele>657.4</ele>
        <time>2015-09-20T07:01:01Z</time>
      </trkpt>
      <trkpt lat="44.57166" lon="2.6255">
        <ele>657.8</ele>
        <time>2015-09-20T07:01:05Z</time>
      </trkpt>
      <trkpt lat="44.57177" lon="2.62546">
        <ele>658.2</ele>
        <time>2015-09-20T07:01:10Z</time>
      </trkpt>
      <trkpt lat="44.57187" lon="2.62542">
        <ele>658.7</ele>
        <time>2015-09-20T07:01:14Z</time>
      </trkpt>
      <trkpt lat="44.57196" lon="2.62538">
        <ele>659.2</ele>
        <time>2015-09-20T07:01:19Z</time>
      </trkpt>
      <trkpt lat="44.57205" lon="2.62534">
        <ele>659.7</ele>
        <time>2015-09-20T07:01:24Z</time>
      </trkpt>
      <trkpt lat="44.57213" lon="2.6253">
        <ele>660.2</ele>
        <time>2015-09-20T07:01:28Z</time>
      </trkpt>
      <trkpt lat="44.57223" lon="2.62526">
        <ele>660.5</ele>
        <time>2015-09-20T07:01:32Z</time>
      </trkpt>
      <trkpt lat="44.57231" lon="2.62522">
        <ele>660.9</ele>
        <time>2015-09-20T07:01:36Z</time>
      </trkpt>
      <trkpt lat="44.57242" lon="2.62519">
        <ele>661.4</ele>
        <time>2015-09-20T07:01:41Z</time>
      </trkpt>
      <trkpt lat="44.57252" lon="2.62514">
        <ele>662</ele>
        <time>2015-09-20T07:01:46Z</time>
      </trkpt>
      <trkpt lat="44.57261" lon="2.62509">
        <ele>662.4</ele>
        <time>2015-09-20T07:01:50Z</time>
      </trkpt>
      <trkpt lat="44.5727" lon="2.62505">
        <ele>662.9</ele>
        <time>2015-09-20T07:01:55Z</time>
      </trkpt>
      <trkpt lat="44.5728" lon="2.62499">
        <ele>663.5</ele>
        <time>2015-09-20T07:02:00Z</time>
      </trkpt>
      <trkpt lat="44.5729" lon="2.62494">
        <ele>664</ele>
        <time>2015-09-20T07:02:05Z</time>
      </trkpt>
      <trkpt lat="44.57299" lon="2.62488">
        <ele>664.4</ele>
        <time>2015-09-20T07:02:10Z</time>
      </trkpt>
      <trkpt lat="44.57307" lon="2.62479">
        <ele>664.8</ele>
        <time>2015-09-20T07:02:15Z</time>
      </trkpt>
      <trkpt lat="44.57314" lon="2.6247">
        <ele>665.3</ele>
        <time>2015-09-20T07:02:20Z</time>
      </trkpt>
      <trkpt lat="44.57319" lon="2.6246">
        <ele>665.7</ele>
        <time>2015-09-20T07:02:25Z</time>
      </trkpt>
      <trkpt lat="44.57325" lon="2.62449">
        <ele>666.2</ele>
        <time>2015-09-20T07:02:30Z</time>
      </trkpt>
      <trkpt lat="44.5733" lon="2.62436">
        <ele>666.8</ele>
        <time>2015-09-20T07:02:36Z</time>
      </trkpt>
      <trkpt lat="44.57334" lon="2.62424">
        <ele>667.4</ele>
        <time>2015-09-20T07:02:41Z</time>
      </trkpt>
      <trkpt lat="44.5734" lon="2.62412">
        <ele>668.1</ele>
        <time>2015-09-20T07:02:46Z</time>
      </trkpt>
      <trkpt lat="44.57347" lon="2.624">
        <ele>668.6</ele>
        <time>2015-09-20T07:02:51Z</time>
      </trkpt>
      <trkpt lat="44.57354" lon="2.62391">
        <ele>669</ele>
        <time>2015-09-20T07:02:55Z</time>
      </trkpt>
      <trkpt lat="44.57363" lon="2.62384">
        <ele>669.2</ele>
        <time>2015-09-20T07:02:59Z</time>
      </trkpt>
      <trkpt lat="44.57372" lon="2.62375">
        <ele>669.4</ele>
        <time>2015-09-20T07:03:03Z</time>
      </trkpt>
      <trkpt lat="44.57381" lon="2.62369">
        <ele>669.5</ele>
        <time>2015-09-20T07:03:06Z</time>
      </trkpt>
      <trkpt lat="44.5739" lon="2.62362">
        <ele>669.6</ele>
        <time>2015-09-20T07:03:09Z</time>
      </trkpt>
      <trkpt lat="44.57401" lon="2.62354">
        <ele>669.7</ele>
        <time>2015-09-20T07:03:12Z</time>
      </trkpt>
      <trkpt lat="44.57412" lon="2.62347">
        <ele>669.7</ele>
        <time>2015-09-20T07:03:15Z</time>
      </trkpt>
      <trkpt lat="44.5742" lon="2.6234">
        <ele>669.6</ele>
        <time>2015-09-20T07:03:19Z</time>
      </trkpt>
      <trkpt lat="44.57425" lon="2.62328">
        <ele>669.1</ele>
        <time>2015-09-20T07:06:11Z</time>
      </trkpt>
      <trkpt lat="44.57434" lon="2.62321">
        <ele>669.1</ele>
        <time>2015-09-20T07:06:16Z</time>
      </trkpt>
      <trkpt lat="44.57444" lon="2.62314">
        <ele>669.1</ele>
        <time>2015-09-20T07:06:20Z</time>
      </trkpt>
      <trkpt lat="44.57454" lon="2.62306">
        <ele>669.1</ele>
        <time>2015-09-20T07:06:24Z</time>
      </trkpt>
      <trkpt lat="44.57463" lon="2.62298">
        <ele>669.1</ele>
        <time>2015-09-20T07:06:28Z</time>
      </trkpt>
      <trkpt lat="44.57471" lon="2.62289">
        <ele>669.1</ele>
        <time>2015-09-20T07:06:32Z</time>
      </trkpt>
      <trkpt lat="44.5748" lon="2.62279">
        <ele>669.1</ele>
        <time>2015-09-20T07:06:36Z</time>
      </trkpt>
      <trkpt lat="44.5749" lon="2.62268">
        <ele>669.2</ele>
        <time>2015-09-20T07:06:39Z</time>
      </trkpt>
      <trkpt lat="44.57497" lon="2.62257">
        <ele>669.3</ele>
        <time>2015-09-20T07:06:41Z</time>
      </trkpt>
      <trkpt lat="44.57503" lon="2.62247">
        <ele>669.5</ele>
        <time>2015-09-20T07:06:43Z</time>
      </trkpt>
      <trkpt lat="44.5751" lon="2.62237">
        <ele>669.6</ele>
        <time>2015-09-20T07:06:45Z</time>
      </trkpt>
      <trkpt lat="44.57517" lon="2.62222">
        <ele>670</ele>
        <time>2015-09-20T07:06:48Z</time>
      </trkpt>
      <trkpt lat="44.57526" lon="2.6221">
        <ele>670.5</ele>
        <time>2015-09-20T07:06:51Z</time>
      </trkpt>
      <trkpt lat="44.57534" lon="2.62201">
        <ele>670.9</ele>
        <time>2015-09-20T07:06:54Z</time>
      </trkpt>
      <trkpt lat="44.57543" lon="2.62192">
        <ele>671.3</ele>
        <time>2015-09-20T07:06:58Z</time>
      </trkpt>
      <trkpt lat="44.57551" lon="2.62186">
        <ele>671.7</ele>
        <time>2015-09-20T07:07:03Z</time>
      </trkpt>
      <trkpt lat="44.57561" lon="2.6218">
        <ele>673.1</ele>
        <time>2015-09-20T07:07:46Z</time>
      </trkpt>
      <trkpt lat="44.57571" lon="2.62178">
        <ele>673.1</ele>
        <time>2015-09-20T07:07:51Z</time>
      </trkpt>
      <trkpt lat="44.57583" lon="2.62174">
        <ele>673.1</ele>
        <time>2015-09-20T07:07:55Z</time>
      </trkpt>
      <trkpt lat="44.57596" lon="2.62171">
        <ele>673.1</ele>
        <time>2015-09-20T07:07:58Z</time>
      </trkpt>
      <trkpt lat="44.57607" lon="2.62168">
        <ele>673</ele>
        <time>2015-09-20T07:08:00Z</time>
      </trkpt>
      <trkpt lat="44.5762" lon="2.62164">
        <ele>672.7</ele>
        <time>2015-09-20T07:08:02Z</time>
      </trkpt>
      <trkpt lat="44.57635" lon="2.62158">
        <ele>672.3</ele>
        <time>2015-09-20T07:08:04Z</time>
      </trkpt>
      <trkpt lat="44.57651" lon="2.62152">
        <ele>671.8</ele>
        <time>2015-09-20T07:08:06Z</time>
      </trkpt>
      <trkpt lat="44.57661" lon="2.62149">
        <ele>671.5</ele>
        <time>2015-09-20T07:08:07Z</time>
      </trkpt>
      <trkpt lat="44.5767" lon="2.62146">
        <ele>671.1</ele>
        <time>2015-09-20T07:08:08Z</time>
      </trkpt>
      <trkpt lat="44.5768" lon="2.62143">
        <ele>670.7</ele>
        <time>2015-09-20T07:08:09Z</time>
      </trkpt>
      <trkpt lat="44.57688" lon="2.62136">
        <ele>670.2</ele>
        <time>2015-09-20T07:08:10Z</time>
      </trkpt>
      <trkpt lat="44.57695" lon="2.62127">
        <ele>669.7</ele>
        <time>2015-09-20T07:08:11Z</time>
      </trkpt>
      <trkpt lat="44.577" lon="2.62114">
        <ele>669.1</ele>
        <time>2015-09-20T07:08:12Z</time>
      </trkpt>
      <trkpt lat="44.57706" lon="2.62101">
        <ele>668.5</ele>
        <time>2015-09-20T07:08:13Z</time>
      </trkpt>
      <trkpt lat="44.57711" lon="2.62088">
        <ele>667.9</ele>
        <time>2015-09-20T07:08:14Z</time>
      </trkpt>
      <trkpt lat="44.57718" lon="2.62076">
        <ele>667.3</ele>
        <time>2015-09-20T07:08:15Z</time>
      </trkpt>
      <trkpt lat="44.57727" lon="2.62066">
        <ele>666.6</ele>
        <time>2015-09-20T07:08:16Z</time>
      </trkpt>
      <trkpt lat="44.57734" lon="2.62056">
        <ele>665.9</ele>
        <time>2015-09-20T07:08:17Z</time>
      </trkpt>
      <trkpt lat="44.57743" lon="2.62046">
        <ele>665.2</ele>
        <time>2015-09-20T07:08:18Z</time>
      </trkpt>
      <trkpt lat="44.57751" lon="2.62035">
        <ele>664.4</ele>
        <time>2015-09-20T07:08:19Z</time>
      </trkpt>
      <trkpt lat="44.57759" lon="2.62026">
        <ele>663.6</ele>
        <time>2015-09-20T07:08:20Z</time>
      </trkpt>
      <trkpt lat="44.57767" lon="2.62016">
        <ele>662.8</ele>
        <time>2015-09-20T07:08:21Z</time>
      </trkpt>
      <trkpt lat="44.57775" lon="2.62009">
        <ele>661.9</ele>
        <time>2015-09-20T07:08:22Z</time>
      </trkpt>
      <trkpt lat="44.57784" lon="2.62005">
        <ele>660.9</ele>
        <time>2015-09-20T07:08:23Z</time>
      </trkpt>
      <trkpt lat="44.57794" lon="2.62003">
        <ele>659.9</ele>
        <time>2015-09-20T07:08:24Z</time>
      </trkpt>
      <trkpt lat="44.57803" lon="2.62004">
        <ele>658.9</ele>
        <time>2015-09-20T07:08:25Z</time>
      </trkpt>
      <trkpt lat="44.57812" lon="2.62005">
        <ele>657.9</ele>
        <time>2015-09-20T07:08:26Z</time>
      </trkpt>
      <trkpt lat="44.57823" lon="2.62006">
        <ele>656.8</ele>
        <time>2015-09-20T07:08:27Z</time>
      </trkpt>
      <trkpt lat="44.57833" lon="2.62009">
        <ele>655.8</ele>
        <time>2015-09-20T07:08:28Z</time>
      </trkpt>
      <trkpt lat="44.57843" lon="2.6201">
        <ele>654.8</ele>
        <time>2015-09-20T07:08:29Z</time>
      </trkpt>
      <trkpt lat="44.57854" lon="2.62014">
        <ele>653.8</ele>
        <time>2015-09-20T07:08:30Z</time>
      </trkpt>
      <trkpt lat="44.57865" lon="2.62017">
        <ele>652.8</ele>
        <time>2015-09-20T07:08:31Z</time>
      </trkpt>
      <trkpt lat="44.57876" lon="2.62021">
        <ele>651.8</ele>
        <time>2015-09-20T07:08:32Z</time>
      </trkpt>
      <trkpt lat="44.57888" lon="2.62026">
        <ele>650.7</ele>
        <time>2015-09-20T07:08:33Z</time>
      </trkpt>
      <trkpt lat="44.57898" lon="2.62031">
        <ele>649.6</ele>
        <time>2015-09-20T07:08:34Z</time>
      </trkpt>
      <trkpt lat="44.57907" lon="2.62036">
        <ele>648.5</ele>
        <time>2015-09-20T07:08:35Z</time>
      </trkpt>
      <trkpt lat="44.57917" lon="2.62041">
        <ele>647.4</ele>
        <time>2015-09-20T07:08:36Z</time>
      </trkpt>
      <trkpt lat="44.57926" lon="2.62046">
        <ele>646.3</ele>
        <time>2015-09-20T07:08:37Z</time>
      </trkpt>
      <trkpt lat="44.57938" lon="2.62049">
        <ele>645.1</ele>
        <time>2015-09-20T07:08:38Z</time>
      </trkpt>
      <trkpt lat="44.57948" lon="2.62051">
        <ele>643.9</ele>
        <time>2015-09-20T07:08:39Z</time>
      </trkpt>
      <trkpt lat="44.57958" lon="2.62052">
        <ele>642.8</ele>
        <time>2015-09-20T07:08:40Z</time>
      </trkpt>
      <trkpt lat="44.57975" lon="2.6205">
        <ele>640.6</ele>
        <time>2015-09-20T07:08:42Z</time>
      </trkpt>
      <trkpt lat="44.57992" lon="2.62041">
        <ele>638.4</ele>
        <time>2015-09-20T07:08:44Z</time>
      </trkpt>
      <trkpt lat="44.57999" lon="2.62029">
        <ele>637.4</ele>
        <time>2015-09-20T07:08:45Z</time>
      </trkpt>
      <trkpt lat="44.58005" lon="2.62018">
        <ele>636.2</ele>
        <time>2015-09-20T07:08:46Z</time>
      </trkpt>
      <trkpt lat="44.58019" lon="2.61998">
        <ele>634</ele>
        <time>2015-09-20T07:08:48Z</time>
      </trkpt>
      <trkpt lat="44.58025" lon="2.61983">
        <ele>632.9</ele>
        <time>2015-09-20T07:08:49Z</time>
      </trkpt>
      <trkpt lat="44.58031" lon="2.61967">
        <ele>631.6</ele>
        <time>2015-09-20T07:08:50Z</time>
      </trkpt>
      <trkpt lat="44.58039" lon="2.61953">
        <ele>630.5</ele>
        <time>2015-09-20T07:08:51Z</time>
      </trkpt>
      <trkpt lat="44.58048" lon="2.61938">
        <ele>629.4</ele>
        <time>2015-09-20T07:08:52Z</time>
      </trkpt>
      <trkpt lat="44.58056" lon="2.61925">
        <ele>628.3</ele>
        <time>2015-09-20T07:08:53Z</time>
      </trkpt>
      <trkpt lat="44.58066" lon="2.61915">
        <ele>627.2</ele>
        <time>2015-09-20T07:08:54Z</time>
      </trkpt>
      <trkpt lat="44.58076" lon="2.61908">
        <ele>626.2</ele>
        <time>2015-09-20T07:08:55Z</time>
      </trkpt>
      <trkpt lat="44.58087" lon="2.61903">
        <ele>625.2</ele>
        <time>2015-09-20T07:08:56Z</time>
      </trkpt>
      <trkpt lat="44.58096" lon="2.61899">
        <ele>624.2</ele>
        <time>2015-09-20T07:08:57Z</time>
      </trkpt>
      <trkpt lat="44.58112" lon="2.61891">
        <ele>622.6</ele>
        <time>2015-09-20T07:08:59Z</time>
      </trkpt>
      <trkpt lat="44.58124" lon="2.61883">
        <ele>621.4</ele>
        <time>2015-09-20T07:09:01Z</time>
      </trkpt>
      <trkpt lat="44.58133" lon="2.61877">
        <ele>620.4</ele>
        <time>2015-09-20T07:09:03Z</time>
      </trkpt>
      <trkpt lat="44.58141" lon="2.6187">
        <ele>619.7</ele>
        <time>2015-09-20T07:09:05Z</time>
      </trkpt>
      <trkpt lat="44.58152" lon="2.61861">
        <ele>618.9</ele>
        <time>2015-09-20T07:09:08Z</time>
      </trkpt>
      <trkpt lat="44.58162" lon="2.61857">
        <ele>618.5</ele>
        <time>2015-09-20T07:09:11Z</time>
      </trkpt>
      <trkpt lat="44.58172" lon="2.61855">
        <ele>618.1</ele>
        <time>2015-09-20T07:09:14Z</time>
      </trkpt>
      <trkpt lat="44.58185" lon="2.61851">
        <ele>617.8</ele>
        <time>2015-09-20T07:09:17Z</time>
      </trkpt>
      <trkpt lat="44.58198" lon="2.61846">
        <ele>617.6</ele>
        <time>2015-09-20T07:09:20Z</time>
      </trkpt>
      <trkpt lat="44.58207" lon="2.61842">
        <ele>617.2</ele>
        <time>2015-09-20T07:09:24Z</time>
      </trkpt>
      <trkpt lat="44.58217" lon="2.6184">
        <ele>615.2</ele>
        <time>2015-09-20T07:10:52Z</time>
      </trkpt>
      <trkpt lat="44.58227" lon="2.61837">
        <ele>615.2</ele>
        <time>2015-09-20T07:10:57Z</time>
      </trkpt>
      <trkpt lat="44.58237" lon="2.61836">
        <ele>614.9</ele>
        <time>2015-09-20T07:11:04Z</time>
      </trkpt>
      <trkpt lat="44.58246" lon="2.61833">
        <ele>614.5</ele>
        <time>2015-09-20T07:11:09Z</time>
      </trkpt>
      <trkpt lat="44.58256" lon="2.61829">
        <ele>614.2</ele>
        <time>2015-09-20T07:11:12Z</time>
      </trkpt>
      <trkpt lat="44.58268" lon="2.61822">
        <ele>614</ele>
        <time>2015-09-20T07:11:15Z</time>
      </trkpt>
      <trkpt lat="44.58279" lon="2.61816">
        <ele>613.6</ele>
        <time>2015-09-20T07:11:18Z</time>
      </trkpt>
      <trkpt lat="44.58289" lon="2.61811">
        <ele>613.3</ele>
        <time>2015-09-20T07:11:20Z</time>
      </trkpt>
      <trkpt lat="44.58301" lon="2.61805">
        <ele>612.8</ele>
        <time>2015-09-20T07:11:22Z</time>
      </trkpt>
      <trkpt lat="44.58312" lon="2.618">
        <ele>612.6</ele>
        <time>2015-09-20T07:11:23Z</time>
      </trkpt>
      <trkpt lat="44.5832" lon="2.61794">
        <ele>611.9</ele>
        <time>2015-09-20T07:11:26Z</time>
      </trkpt>
      <trkpt lat="44.5833" lon="2.61789">
        <ele>611.1</ele>
        <time>2015-09-20T07:11:31Z</time>
      </trkpt>
      <trkpt lat="44.58339" lon="2.61789">
        <ele>608.7</ele>
        <time>2015-09-20T07:11:51Z</time>
      </trkpt>
      <trkpt lat="44.58345" lon="2.61779">
        <ele>607.5</ele>
        <time>2015-09-20T07:13:14Z</time>
      </trkpt>
      <trkpt lat="44.58353" lon="2.61773">
        <ele>607.4</ele>
        <time>2015-09-20T07:13:18Z</time>
      </trkpt>
      <trkpt lat="44.58362" lon="2.61766">
        <ele>607.3</ele>
        <time>2015-09-20T07:13:20Z</time>
      </trkpt>
      <trkpt lat="44.58372" lon="2.6176">
        <ele>607.1</ele>
        <time>2015-09-20T07:13:22Z</time>
      </trkpt>
      <trkpt lat="44.58381" lon="2.61754">
        <ele>606.8</ele>
        <time>2015-09-20T07:13:24Z</time>
      </trkpt>
      <trkpt lat="44.58392" lon="2.61747">
        <ele>606.5</ele>
        <time>2015-09-20T07:13:26Z</time>
      </trkpt>
      <trkpt lat="44.58401" lon="2.61741">
        <ele>606.2</ele>
        <time>2015-09-20T07:13:28Z</time>
      </trkpt>
      <trkpt lat="44.58412" lon="2.61734">
        <ele>605.8</ele>
        <time>2015-09-20T07:13:30Z</time>
      </trkpt>
      <trkpt lat="44.5842" lon="2.61728">
        <ele>605.6</ele>
        <time>2015-09-20T07:13:31Z</time>
      </trkpt>
      <trkpt lat="44.58433" lon="2.61717">
        <ele>605.2</ele>
        <time>2015-09-20T07:13:33Z</time>
      </trkpt>
      <trkpt lat="44.58443" lon="2.61706">
        <ele>604.8</ele>
        <time>2015-09-20T07:13:35Z</time>
      </trkpt>
      <trkpt lat="44.5845" lon="2.61695">
        <ele>604.3</ele>
        <time>2015-09-20T07:13:37Z</time>
      </trkpt>
      <trkpt lat="44.58456" lon="2.61684">
        <ele>603.8</ele>
        <time>2015-09-20T07:13:39Z</time>
      </trkpt>
      <trkpt lat="44.58467" lon="2.61673">
        <ele>603.2</ele>
        <time>2015-09-20T07:13:41Z</time>
      </trkpt>
      <trkpt lat="44.58479" lon="2.61661">
        <ele>602.7</ele>
        <time>2015-09-20T07:13:43Z</time>
      </trkpt>
      <trkpt lat="44.58487" lon="2.61652">
        <ele>602.5</ele>
        <time>2015-09-20T07:13:44Z</time>
      </trkpt>
      <trkpt lat="44.585" lon="2.61641">
        <ele>601.9</ele>
        <time>2015-09-20T07:13:46Z</time>
      </trkpt>
      <trkpt lat="44.58508" lon="2.61634">
        <ele>601.6</ele>
        <time>2015-09-20T07:13:47Z</time>
      </trkpt>
      <trkpt lat="44.58517" lon="2.6163">
        <ele>601.3</ele>
        <time>2015-09-20T07:13:48Z</time>
      </trkpt>
      <trkpt lat="44.58527" lon="2.61627">
        <ele>601</ele>
        <time>2015-09-20T07:13:49Z</time>
      </trkpt>
      <trkpt lat="44.58538" lon="2.61624">
        <ele>600.7</ele>
        <time>2015-09-20T07:13:50Z</time>
      </trkpt>
      <trkpt lat="44.58553" lon="2.61621">
        <ele>600.4</ele>
        <time>2015-09-20T07:13:51Z</time>
      </trkpt>
      <trkpt lat="44.58568" lon="2.6161">
        <ele>599.9</ele>
        <time>2015-09-20T07:13:53Z</time>
      </trkpt>
      <trkpt lat="44.58579" lon="2.61592">
        <ele>599.4</ele>
        <time>2015-09-20T07:13:55Z</time>
      </trkpt>
      <trkpt lat="44.58586" lon="2.61582">
        <ele>599.1</ele>
        <time>2015-09-20T07:13:56Z</time>
      </trkpt>
      <trkpt lat="44.58594" lon="2.61561">
        <ele>598.6</ele>
        <time>2015-09-20T07:13:58Z</time>
      </trkpt>
      <trkpt lat="44.58602" lon="2.61542">
        <ele>598.2</ele>
        <time>2015-09-20T07:14:00Z</time>
      </trkpt>
      <trkpt lat="44.5861" lon="2.61529">
        <ele>597.8</ele>
        <time>2015-09-20T07:14:02Z</time>
      </trkpt>
      <trkpt lat="44.58619" lon="2.61519">
        <ele>597.5</ele>
        <time>2015-09-20T07:14:04Z</time>
      </trkpt>
      <trkpt lat="44.58628" lon="2.61505">
        <ele>597.1</ele>
        <time>2015-09-20T07:14:07Z</time>
      </trkpt>
      <trkpt lat="44.58636" lon="2.61492">
        <ele>596.8</ele>
        <time>2015-09-20T07:14:10Z</time>
      </trkpt>
      <trkpt lat="44.58645" lon="2.61483">
        <ele>596.6</ele>
        <time>2015-09-20T07:14:12Z</time>
      </trkpt>
      <trkpt lat="44.58653" lon="2.61472">
        <ele>596.4</ele>
        <time>2015-09-20T07:14:14Z</time>
      </trkpt>
      <trkpt lat="44.58661" lon="2.61462">
        <ele>596.1</ele>
        <time>2015-09-20T07:14:16Z</time>
      </trkpt>
      <trkpt lat="44.58668" lon="2.61452">
        <ele>595.8</ele>
        <time>2015-09-20T07:14:18Z</time>
      </trkpt>
      <trkpt lat="44.5867" lon="2.61432">
        <ele>595.1</ele>
        <time>2015-09-20T07:14:21Z</time>
      </trkpt>
      <trkpt lat="44.58663" lon="2.61417">
        <ele>594.5</ele>
        <time>2015-09-20T07:14:23Z</time>
      </trkpt>
      <trkpt lat="44.58654" lon="2.61405">
        <ele>593.8</ele>
        <time>2015-09-20T07:14:25Z</time>
      </trkpt>
      <trkpt lat="44.58642" lon="2.61391">
        <ele>592.9</ele>
        <time>2015-09-20T07:14:27Z</time>
      </trkpt>
      <trkpt lat="44.58629" lon="2.61377">
        <ele>591.9</ele>
        <time>2015-09-20T07:14:29Z</time>
      </trkpt>
      <trkpt lat="44.58622" lon="2.6136">
        <ele>590.7</ele>
        <time>2015-09-20T07:14:31Z</time>
      </trkpt>
      <trkpt lat="44.5863" lon="2.61346">
        <ele>589.5</ele>
        <time>2015-09-20T07:14:33Z</time>
      </trkpt>
      <trkpt lat="44.58639" lon="2.61325">
        <ele>588.3</ele>
        <time>2015-09-20T07:14:35Z</time>
      </trkpt>
      <trkpt lat="44.58649" lon="2.61308">
        <ele>587.2</ele>
        <time>2015-09-20T07:14:37Z</time>
      </trkpt>
      <trkpt lat="44.58659" lon="2.6129">
        <ele>586.1</ele>
        <time>2015-09-20T07:14:39Z</time>
      </trkpt>
      <trkpt lat="44.58667" lon="2.61269">
        <ele>585</ele>
        <time>2015-09-20T07:14:41Z</time>
      </trkpt>
      <trkpt lat="44.58673" lon="2.61259">
        <ele>584.6</ele>
        <time>2015-09-20T07:14:42Z</time>
      </trkpt>
      <trkpt lat="44.58678" lon="2.61237">
        <ele>583.7</ele>
        <time>2015-09-20T07:14:44Z</time>
      </trkpt>
      <trkpt lat="44.58679" lon="2.61224">
        <ele>583.2</ele>
        <time>2015-09-20T07:14:45Z</time>
      </trkpt>
      <trkpt lat="44.58679" lon="2.61202">
        <ele>582.4</ele>
        <time>2015-09-20T07:14:47Z</time>
      </trkpt>
      <trkpt lat="44.58676" lon="2.61188">
        <ele>582</ele>
        <time>2015-09-20T07:14:48Z</time>
      </trkpt>
      <trkpt lat="44.5867" lon="2.61178">
        <ele>581.6</ele>
        <time>2015-09-20T07:14:49Z</time>
      </trkpt>
      <trkpt lat="44.58658" lon="2.61164">
        <ele>580.8</ele>
        <time>2015-09-20T07:14:51Z</time>
      </trkpt>
      <trkpt lat="44.58647" lon="2.61152">
        <ele>580</ele>
        <time>2015-09-20T07:14:53Z</time>
      </trkpt>
      <trkpt lat="44.58648" lon="2.61133">
        <ele>579.2</ele>
        <time>2015-09-20T07:14:55Z</time>
      </trkpt>
      <trkpt lat="44.58654" lon="2.61119">
        <ele>578.4</ele>
        <time>2015-09-20T07:14:57Z</time>
      </trkpt>
      <trkpt lat="44.5866" lon="2.61109">
        <ele>577.5</ele>
        <time>2015-09-20T07:14:59Z</time>
      </trkpt>
      <trkpt lat="44.58669" lon="2.61106">
        <ele>576.7</ele>
        <time>2015-09-20T07:15:01Z</time>
      </trkpt>
      <trkpt lat="44.58683" lon="2.61106">
        <ele>575.8</ele>
        <time>2015-09-20T07:15:03Z</time>
      </trkpt>
      <trkpt lat="44.58699" lon="2.61105">
        <ele>574.9</ele>
        <time>2015-09-20T07:15:05Z</time>
      </trkpt>
      <trkpt lat="44.58714" lon="2.61111">
        <ele>573.9</ele>
        <time>2015-09-20T07:15:07Z</time>
      </trkpt>
      <trkpt lat="44.58725" lon="2.61113">
        <ele>573.4</ele>
        <time>2015-09-20T07:15:08Z</time>
      </trkpt>
      <trkpt lat="44.58734" lon="2.61114">
        <ele>572.9</ele>
        <time>2015-09-20T07:15:09Z</time>
      </trkpt>
      <trkpt lat="44.58744" lon="2.61113">
        <ele>572.5</ele>
        <time>2015-09-20T07:15:10Z</time>
      </trkpt>
      <trkpt lat="44.58761" lon="2.61112">
        <ele>571.4</ele>
        <time>2015-09-20T07:15:12Z</time>
      </trkpt>
      <trkpt lat="44.58778" lon="2.6111">
        <ele>570.4</ele>
        <time>2015-09-20T07:15:14Z</time>
      </trkpt>
      <trkpt lat="44.58788" lon="2.61106">
        <ele>569.8</ele>
        <time>2015-09-20T07:15:15Z</time>
      </trkpt>
      <trkpt lat="44.58798" lon="2.61101">
        <ele>569.3</ele>
        <time>2015-09-20T07:15:16Z</time>
      </trkpt>
      <trkpt lat="44.58809" lon="2.61091">
        <ele>568.4</ele>
        <time>2015-09-20T07:15:18Z</time>
      </trkpt>
      <trkpt lat="44.58814" lon="2.61078">
        <ele>567.4</ele>
        <time>2015-09-20T07:15:21Z</time>
      </trkpt>
      <trkpt lat="44.58824" lon="2.61068">
        <ele>566.7</ele>
        <time>2015-09-20T07:15:25Z</time>
      </trkpt>
      <trkpt lat="44.58835" lon="2.6106">
        <ele>566.7</ele>
        <time>2015-09-20T07:15:29Z</time>
      </trkpt>
      <trkpt lat="44.58843" lon="2.61051">
        <ele>566.9</ele>
        <time>2015-09-20T07:15:33Z</time>
      </trkpt>
      <trkpt lat="44.58847" lon="2.61038">
        <ele>567.6</ele>
        <time>2015-09-20T07:15:39Z</time>
      </trkpt>
      <trkpt lat="44.58849" lon="2.61026">
        <ele>568.6</ele>
        <time>2015-09-20T07:15:46Z</time>
      </trkpt>
      <trkpt lat="44.58851" lon="2.61012">
        <ele>569.6</ele>
        <time>2015-09-20T07:15:52Z</time>
      </trkpt>
      <trkpt lat="44.58853" lon="2.60999">
        <ele>570.7</ele>
        <time>2015-09-20T07:15:59Z</time>
      </trkpt>
      <trkpt lat="44.58853" lon="2.60985">
        <ele>572.1</ele>
        <time>2015-09-20T07:16:06Z</time>
      </trkpt>
      <trkpt lat="44.58852" lon="2.60973">
        <ele>573.8</ele>
        <time>2015-09-20T07:16:14Z</time>
      </trkpt>
      <trkpt lat="44.58851" lon="2.60959">
        <ele>575.5</ele>
        <time>2015-09-20T07:16:23Z</time>
      </trkpt>
      <trkpt lat="44.58849" lon="2.60946">
        <ele>577.5</ele>
        <time>2015-09-20T07:16:33Z</time>
      </trkpt>
      <trkpt lat="44.58842" lon="2.60937">
        <ele>578.5</ele>
        <time>2015-09-20T07:16:39Z</time>
      </trkpt>
      <trkpt lat="44.58836" lon="2.60927">
        <ele>580.2</ele>
        <time>2015-09-20T07:16:48Z</time>
      </trkpt>
      <trkpt lat="44.5883" lon="2.60917">
        <ele>581.6</ele>
        <time>2015-09-20T07:16:56Z</time>
      </trkpt>
      <trkpt lat="44.58823" lon="2.60907">
        <ele>582.5</ele>
        <time>2015-09-20T07:17:03Z</time>
      </trkpt>
      <trkpt lat="44.58815" lon="2.60899">
        <ele>583.3</ele>
        <time>2015-09-20T07:17:09Z</time>
      </trkpt>
      <trkpt lat="44.58812" lon="2.60884">
        <ele>583.7</ele>
        <time>2015-09-20T07:17:14Z</time>
      </trkpt>
      <trkpt lat="44.58814" lon="2.60871">
        <ele>584.1</ele>
        <time>2015-09-20T07:17:19Z</time>
      </trkpt>
      <trkpt lat="44.58815" lon="2.60858">
        <ele>584.3</ele>
        <time>2015-09-20T07:17:24Z</time>
      </trkpt>
      <trkpt lat="44.58814" lon="2.60844">
        <ele>584.5</ele>
        <time>2015-09-20T07:17:29Z</time>
      </trkpt>
      <trkpt lat="44.58814" lon="2.6083">
        <ele>584.6</ele>
        <time>2015-09-20T07:17:33Z</time>
      </trkpt>
      <trkpt lat="44.58815" lon="2.60817">
        <ele>584.7</ele>
        <time>2015-09-20T07:17:36Z</time>
      </trkpt>
      <trkpt lat="44.58819" lon="2.60805">
        <ele>584.8</ele>
        <time>2015-09-20T07:17:40Z</time>
      </trkpt>
      <trkpt lat="44.5882" lon="2.60793">
        <ele>585.1</ele>
        <time>2015-09-20T07:17:44Z</time>
      </trkpt>
      <trkpt lat="44.58823" lon="2.60779">
        <ele>585.5</ele>
        <time>2015-09-20T07:17:48Z</time>
      </trkpt>
      <trkpt lat="44.58828" lon="2.60766">
        <ele>585.9</ele>
        <time>2015-09-20T07:17:53Z</time>
      </trkpt>
      <trkpt lat="44.58831" lon="2.60753">
        <ele>586.5</ele>
        <time>2015-09-20T07:17:58Z</time>
      </trkpt>
      <trkpt lat="44.58832" lon="2.60739">
        <ele>587.3</ele>
        <time>2015-09-20T07:18:04Z</time>
      </trkpt>
      <trkpt lat="44.58832" lon="2.60725">
        <ele>588.7</ele>
        <time>2015-09-20T07:18:11Z</time>
      </trkpt>
      <trkpt lat="44.58832" lon="2.60711">
        <ele>589.5</ele>
        <time>2015-09-20T07:18:17Z</time>
      </trkpt>
      <trkpt lat="44.58829" lon="2.60696">
        <ele>590</ele>
        <time>2015-09-20T07:18:22Z</time>
      </trkpt>
      <trkpt lat="44.58832" lon="2.60681">
        <ele>590.3</ele>
        <time>2015-09-20T07:18:26Z</time>
      </trkpt>
      <trkpt lat="44.58837" lon="2.6067">
        <ele>591</ele>
        <time>2015-09-20T07:18:37Z</time>
      </trkpt>
      <trkpt lat="44.58846" lon="2.60663">
        <ele>591.7</ele>
        <time>2015-09-20T07:18:44Z</time>
      </trkpt>
      <trkpt lat="44.58855" lon="2.60662">
        <ele>592.5</ele>
        <time>2015-09-20T07:18:52Z</time>
      </trkpt>
      <trkpt lat="44.58865" lon="2.60661">
        <ele>593.2</ele>
        <time>2015-09-20T07:19:00Z</time>
      </trkpt>
      <trkpt lat="44.58862" lon="2.60649">
        <ele>596.1</ele>
        <time>2015-09-20T07:19:22Z</time>
      </trkpt>
      <trkpt lat="44.58857" lon="2.60638">
        <ele>597.4</ele>
        <time>2015-09-20T07:19:32Z</time>
      </trkpt>
      <trkpt lat="44.58853" lon="2.60625">
        <ele>599</ele>
        <time>2015-09-20T07:19:45Z</time>
      </trkpt>
      <trkpt lat="44.5885" lon="2.60612">
        <ele>599.8</ele>
        <time>2015-09-20T07:19:54Z</time>
      </trkpt>
      <trkpt lat="44.58851" lon="2.60598">
        <ele>600.7</ele>
        <time>2015-09-20T07:20:03Z</time>
      </trkpt>
      <trkpt lat="44.58851" lon="2.60585">
        <ele>601.7</ele>
        <time>2015-09-20T07:20:11Z</time>
      </trkpt>
      <trkpt lat="44.58853" lon="2.60572">
        <ele>603.4</ele>
        <time>2015-09-20T07:20:34Z</time>
      </trkpt>
      <trkpt lat="44.58853" lon="2.60558">
        <ele>603.7</ele>
        <time>2015-09-20T07:20:42Z</time>
      </trkpt>
      <trkpt lat="44.5885" lon="2.60544">
        <ele>604.6</ele>
        <time>2015-09-20T07:24:01Z</time>
      </trkpt>
      <trkpt lat="44.58851" lon="2.6053">
        <ele>605</ele>
        <time>2015-09-20T07:24:08Z</time>
      </trkpt>
      <trkpt lat="44.58853" lon="2.60516">
        <ele>605.7</ele>
        <time>2015-09-20T07:24:15Z</time>
      </trkpt>
      <trkpt lat="44.58853" lon="2.60503">
        <ele>606.4</ele>
        <time>2015-09-20T07:24:22Z</time>
      </trkpt>
      <trkpt lat="44.58851" lon="2.6049">
        <ele>607.9</ele>
        <time>2015-09-20T07:25:06Z</time>
      </trkpt>
      <trkpt lat="44.58853" lon="2.60477">
        <ele>608</ele>
        <time>2015-09-20T07:25:14Z</time>
      </trkpt>
      <trkpt lat="44.58858" lon="2.60466">
        <ele>608.1</ele>
        <time>2015-09-20T07:25:24Z</time>
      </trkpt>
      <trkpt lat="44.58862" lon="2.60455">
        <ele>608.2</ele>
        <time>2015-09-20T07:25:28Z</time>
      </trkpt>
      <trkpt lat="44.58869" lon="2.6044">
        <ele>608.1</ele>
        <time>2015-09-20T07:25:32Z</time>
      </trkpt>
      <trkpt lat="44.58877" lon="2.60424">
        <ele>607.7</ele>
        <time>2015-09-20T07:25:35Z</time>
      </trkpt>
      <trkpt lat="44.58881" lon="2.6041">
        <ele>607.2</ele>
        <time>2015-09-20T07:25:37Z</time>
      </trkpt>
      <trkpt lat="44.58885" lon="2.60394">
        <ele>606.6</ele>
        <time>2015-09-20T07:25:39Z</time>
      </trkpt>
      <trkpt lat="44.58889" lon="2.60383">
        <ele>606</ele>
        <time>2015-09-20T07:25:41Z</time>
      </trkpt>
      <trkpt lat="44.58895" lon="2.60365">
        <ele>604.9</ele>
        <time>2015-09-20T07:25:44Z</time>
      </trkpt>
      <trkpt lat="44.58896" lon="2.60348">
        <ele>604.2</ele>
        <time>2015-09-20T07:25:46Z</time>
      </trkpt>
      <trkpt lat="44.58895" lon="2.60332">
        <ele>603.4</ele>
        <time>2015-09-20T07:25:48Z</time>
      </trkpt>
      <trkpt lat="44.58893" lon="2.60316">
        <ele>602.7</ele>
        <time>2015-09-20T07:25:50Z</time>
      </trkpt>
      <trkpt lat="44.58894" lon="2.60296">
        <ele>602.1</ele>
        <time>2015-09-20T07:25:52Z</time>
      </trkpt>
      <trkpt lat="44.589" lon="2.60285">
        <ele>601.5</ele>
        <time>2015-09-20T07:25:54Z</time>
      </trkpt>
      <trkpt lat="44.58908" lon="2.60275">
        <ele>600.9</ele>
        <time>2015-09-20T07:25:56Z</time>
      </trkpt>
      <trkpt lat="44.58912" lon="2.60261">
        <ele>600.3</ele>
        <time>2015-09-20T07:25:58Z</time>
      </trkpt>
      <trkpt lat="44.58913" lon="2.60241">
        <ele>599.8</ele>
        <time>2015-09-20T07:26:00Z</time>
      </trkpt>
      <trkpt lat="44.58915" lon="2.60222">
        <ele>598</ele>
        <time>2015-09-20T07:26:02Z</time>
      </trkpt>
      <trkpt lat="44.58922" lon="2.60204">
        <ele>598.5</ele>
        <time>2015-09-20T07:26:05Z</time>
      </trkpt>
      <trkpt lat="44.58934" lon="2.60202">
        <ele>598.1</ele>
        <time>2015-09-20T07:26:07Z</time>
      </trkpt>
      <trkpt lat="44.58946" lon="2.60203">
        <ele>597.5</ele>
        <time>2015-09-20T07:26:11Z</time>
      </trkpt>
      <trkpt lat="44.58955" lon="2.602">
        <ele>597.1</ele>
        <time>2015-09-20T07:26:14Z</time>
      </trkpt>
      <trkpt lat="44.58963" lon="2.60195">
        <ele>596.7</ele>
        <time>2015-09-20T07:26:19Z</time>
      </trkpt>
      <trkpt lat="44.58961" lon="2.60181">
        <ele>596.8</ele>
        <time>2015-09-20T07:26:24Z</time>
      </trkpt>
      <trkpt lat="44.58957" lon="2.6017">
        <ele>597.1</ele>
        <time>2015-09-20T07:26:30Z</time>
      </trkpt>
      <trkpt lat="44.58951" lon="2.60158">
        <ele>598.2</ele>
        <time>2015-09-20T07:26:37Z</time>
      </trkpt>
      <trkpt lat="44.58947" lon="2.60147">
        <ele>599.9</ele>
        <time>2015-09-20T07:26:45Z</time>
      </trkpt>
      <trkpt lat="44.58938" lon="2.6014">
        <ele>602.1</ele>
        <time>2015-09-20T07:26:59Z</time>
      </trkpt>
      <trkpt lat="44.5893" lon="2.60134">
        <ele>604.5</ele>
        <time>2015-09-20T07:27:12Z</time>
      </trkpt>
      <trkpt lat="44.58922" lon="2.60124">
        <ele>605.9</ele>
        <time>2015-09-20T07:27:21Z</time>
      </trkpt>
      <trkpt lat="44.58914" lon="2.60118">
        <ele>607.3</ele>
        <time>2015-09-20T07:27:30Z</time>
      </trkpt>
      <trkpt lat="44.58907" lon="2.6011">
        <ele>609</ele>
        <time>2015-09-20T07:27:40Z</time>
      </trkpt>
      <trkpt lat="44.58903" lon="2.60098">
        <ele>612.5</ele>
        <time>2015-09-20T07:28:21Z</time>
      </trkpt>
      <trkpt lat="44.58898" lon="2.60087">
        <ele>613</ele>
        <time>2015-09-20T07:28:29Z</time>
      </trkpt>
      <trkpt lat="44.58895" lon="2.60075">
        <ele>614.6</ele>
        <time>2015-09-20T07:28:40Z</time>
      </trkpt>
      <trkpt lat="44.58904" lon="2.60078">
        <ele>617.9</ele>
        <time>2015-09-20T07:29:02Z</time>
      </trkpt>
      <trkpt lat="44.58915" lon="2.60076">
        <ele>618.9</ele>
        <time>2015-09-20T07:29:12Z</time>
      </trkpt>
      <trkpt lat="44.58925" lon="2.60073">
        <ele>619.6</ele>
        <time>2015-09-20T07:29:19Z</time>
      </trkpt>
      <trkpt lat="44.58932" lon="2.60064">
        <ele>620.5</ele>
        <time>2015-09-20T07:29:28Z</time>
      </trkpt>
      <trkpt lat="44.58936" lon="2.60047">
        <ele>621</ele>
        <time>2015-09-20T07:29:34Z</time>
      </trkpt>
      <trkpt lat="44.58938" lon="2.60029">
        <ele>620.9</ele>
        <time>2015-09-20T07:29:37Z</time>
      </trkpt>
      <trkpt lat="44.58936" lon="2.60012">
        <ele>620.6</ele>
        <time>2015-09-20T07:29:40Z</time>
      </trkpt>
      <trkpt lat="44.58945" lon="2.60022">
        <ele>619.2</ele>
        <time>2015-09-20T07:29:49Z</time>
      </trkpt>
      <trkpt lat="44.58947" lon="2.60034">
        <ele>618.6</ele>
        <time>2015-09-20T07:29:51Z</time>
      </trkpt>
      <trkpt lat="44.58955" lon="2.60042">
        <ele>618.3</ele>
        <time>2015-09-20T07:29:52Z</time>
      </trkpt>
      <trkpt lat="44.58965" lon="2.60059">
        <ele>617.7</ele>
        <time>2015-09-20T07:29:54Z</time>
      </trkpt>
      <trkpt lat="44.58973" lon="2.60068">
        <ele>617</ele>
        <time>2015-09-20T07:29:56Z</time>
      </trkpt>
      <trkpt lat="44.5899" lon="2.60072">
        <ele>616.4</ele>
        <time>2015-09-20T07:29:58Z</time>
      </trkpt>
      <trkpt lat="44.59" lon="2.60069">
        <ele>615.9</ele>
        <time>2015-09-20T07:30:00Z</time>
      </trkpt>
      <trkpt lat="44.59009" lon="2.60064">
        <ele>615.4</ele>
        <time>2015-09-20T07:30:02Z</time>
      </trkpt>
      <trkpt lat="44.5902" lon="2.6007">
        <ele>614.9</ele>
        <time>2015-09-20T07:30:06Z</time>
      </trkpt>
      <trkpt lat="44.5903" lon="2.60065">
        <ele>614.6</ele>
        <time>2015-09-20T07:30:10Z</time>
      </trkpt>
      <trkpt lat="44.59039" lon="2.60059">
        <ele>614.6</ele>
        <time>2015-09-20T07:30:15Z</time>
      </trkpt>
      <trkpt lat="44.5905" lon="2.60057">
        <ele>614.9</ele>
        <time>2015-09-20T07:30:21Z</time>
      </trkpt>
      <trkpt lat="44.59059" lon="2.60053">
        <ele>615.6</ele>
        <time>2015-09-20T07:30:29Z</time>
      </trkpt>
      <trkpt lat="44.59067" lon="2.60046">
        <ele>616.2</ele>
        <time>2015-09-20T07:30:34Z</time>
      </trkpt>
      <trkpt lat="44.59074" lon="2.60039">
        <ele>617.2</ele>
        <time>2015-09-20T07:30:41Z</time>
      </trkpt>
      <trkpt lat="44.59083" lon="2.60032">
        <ele>618.4</ele>
        <time>2015-09-20T07:30:49Z</time>
      </trkpt>
      <trkpt lat="44.5909" lon="2.60024">
        <ele>619.9</ele>
        <time>2015-09-20T07:30:58Z</time>
      </trkpt>
      <trkpt lat="44.59098" lon="2.60018">
        <ele>620.8</ele>
        <time>2015-09-20T07:31:04Z</time>
      </trkpt>
      <trkpt lat="44.59107" lon="2.60012">
        <ele>621.8</ele>
        <time>2015-09-20T07:31:11Z</time>
      </trkpt>
      <trkpt lat="44.59116" lon="2.60011">
        <ele>622.6</ele>
        <time>2015-09-20T07:31:17Z</time>
      </trkpt>
      <trkpt lat="44.59125" lon="2.60008">
        <ele>623.5</ele>
        <time>2015-09-20T07:31:24Z</time>
      </trkpt>
      <trkpt lat="44.59134" lon="2.60004">
        <ele>624.4</ele>
        <time>2015-09-20T07:31:34Z</time>
      </trkpt>
      <trkpt lat="44.59141" lon="2.59994">
        <ele>625.4</ele>
        <time>2015-09-20T07:31:45Z</time>
      </trkpt>
      <trkpt lat="44.59149" lon="2.59986">
        <ele>626.7</ele>
        <time>2015-09-20T07:31:55Z</time>
      </trkpt>
      <trkpt lat="44.59157" lon="2.59977">
        <ele>627.9</ele>
        <time>2015-09-20T07:32:03Z</time>
      </trkpt>
      <trkpt lat="44.59164" lon="2.59969">
        <ele>629</ele>
        <time>2015-09-20T07:32:11Z</time>
      </trkpt>
      <trkpt lat="44.5917" lon="2.59958">
        <ele>630.7</ele>
        <time>2015-09-20T07:32:22Z</time>
      </trkpt>
      <trkpt lat="44.59178" lon="2.5995">
        <ele>631.5</ele>
        <time>2015-09-20T07:32:28Z</time>
      </trkpt>
      <trkpt lat="44.59186" lon="2.59942">
        <ele>632.4</ele>
        <time>2015-09-20T07:32:35Z</time>
      </trkpt>
      <trkpt lat="44.59193" lon="2.59934">
        <ele>633.2</ele>
        <time>2015-09-20T07:32:41Z</time>
      </trkpt>
      <trkpt lat="44.59201" lon="2.59925">
        <ele>634.5</ele>
        <time>2015-09-20T07:32:49Z</time>
      </trkpt>
      <trkpt lat="44.59209" lon="2.59917">
        <ele>635.5</ele>
        <time>2015-09-20T07:32:56Z</time>
      </trkpt>
      <trkpt lat="44.59217" lon="2.59908">
        <ele>637</ele>
        <time>2015-09-20T07:33:08Z</time>
      </trkpt>
      <trkpt lat="44.59226" lon="2.59904">
        <ele>637.3</ele>
        <time>2015-09-20T07:33:13Z</time>
      </trkpt>
      <trkpt lat="44.59236" lon="2.59903">
        <ele>637.9</ele>
        <time>2015-09-20T07:33:26Z</time>
      </trkpt>
      <trkpt lat="44.59245" lon="2.59903">
        <ele>638.2</ele>
        <time>2015-09-20T07:33:42Z</time>
      </trkpt>
      <trkpt lat="44.59254" lon="2.59901">
        <ele>638.7</ele>
        <time>2015-09-20T07:35:43Z</time>
      </trkpt>
      <trkpt lat="44.59262" lon="2.59896">
        <ele>638.7</ele>
        <time>2015-09-20T07:36:28Z</time>
      </trkpt>
      <trkpt lat="44.59253" lon="2.59893">
        <ele>638.7</ele>
        <time>2015-09-20T07:38:04Z</time>
      </trkpt>
      <trkpt lat="44.59257" lon="2.5988">
        <ele>639.1</ele>
        <time>2015-09-20T07:39:11Z</time>
      </trkpt>
      <trkpt lat="44.59261" lon="2.59868">
        <ele>639.9</ele>
        <time>2015-09-20T07:39:19Z</time>
      </trkpt>
      <trkpt lat="44.59265" lon="2.59856">
        <ele>640.5</ele>
        <time>2015-09-20T07:39:24Z</time>
      </trkpt>
      <trkpt lat="44.59268" lon="2.59844">
        <ele>641</ele>
        <time>2015-09-20T07:39:29Z</time>
      </trkpt>
      <trkpt lat="44.59274" lon="2.59833">
        <ele>641.4</ele>
        <time>2015-09-20T07:39:33Z</time>
      </trkpt>
      <trkpt lat="44.59279" lon="2.5982">
        <ele>641.7</ele>
        <time>2015-09-20T07:39:36Z</time>
      </trkpt>
      <trkpt lat="44.59284" lon="2.5981">
        <ele>642.2</ele>
        <time>2015-09-20T07:39:40Z</time>
      </trkpt>
      <trkpt lat="44.59283" lon="2.59794">
        <ele>642.9</ele>
        <time>2015-09-20T07:39:45Z</time>
      </trkpt>
      <trkpt lat="44.5929" lon="2.59782">
        <ele>643.5</ele>
        <time>2015-09-20T07:39:50Z</time>
      </trkpt>
      <trkpt lat="44.59297" lon="2.59774">
        <ele>644.2</ele>
        <time>2015-09-20T07:39:55Z</time>
      </trkpt>
      <trkpt lat="44.59307" lon="2.59766">
        <ele>645.1</ele>
        <time>2015-09-20T07:40:01Z</time>
      </trkpt>
      <trkpt lat="44.59313" lon="2.59756">
        <ele>646.3</ele>
        <time>2015-09-20T07:40:08Z</time>
      </trkpt>
      <trkpt lat="44.59319" lon="2.59744">
        <ele>647.1</ele>
        <time>2015-09-20T07:40:13Z</time>
      </trkpt>
      <trkpt lat="44.59328" lon="2.59743">
        <ele>648.1</ele>
        <time>2015-09-20T07:40:19Z</time>
      </trkpt>
      <trkpt lat="44.59337" lon="2.59748">
        <ele>649.9</ele>
        <time>2015-09-20T07:40:30Z</time>
      </trkpt>
      <trkpt lat="44.59347" lon="2.5975">
        <ele>650.3</ele>
        <time>2015-09-20T07:40:34Z</time>
      </trkpt>
      <trkpt lat="44.59358" lon="2.59755">
        <ele>650.5</ele>
        <time>2015-09-20T07:40:37Z</time>
      </trkpt>
      <trkpt lat="44.59367" lon="2.59761">
        <ele>650.8</ele>
        <time>2015-09-20T07:40:41Z</time>
      </trkpt>
      <trkpt lat="44.59377" lon="2.59765">
        <ele>650.9</ele>
        <time>2015-09-20T07:40:46Z</time>
      </trkpt>
      <trkpt lat="44.59384" lon="2.59772">
        <ele>650.7</ele>
        <time>2015-09-20T07:40:54Z</time>
      </trkpt>
      <trkpt lat="44.59393" lon="2.59777">
        <ele>650</ele>
        <time>2015-09-20T07:41:24Z</time>
      </trkpt>
      <trkpt lat="44.59404" lon="2.59783">
        <ele>649.9</ele>
        <time>2015-09-20T07:41:27Z</time>
      </trkpt>
      <trkpt lat="44.59414" lon="2.59788">
        <ele>649.7</ele>
        <time>2015-09-20T07:41:29Z</time>
      </trkpt>
      <trkpt lat="44.59424" lon="2.5979">
        <ele>649.3</ele>
        <time>2015-09-20T07:41:31Z</time>
      </trkpt>
      <trkpt lat="44.59433" lon="2.59787">
        <ele>648.9</ele>
        <time>2015-09-20T07:41:33Z</time>
      </trkpt>
      <trkpt lat="44.59441" lon="2.59778">
        <ele>648.3</ele>
        <time>2015-09-20T07:41:36Z</time>
      </trkpt>
      <trkpt lat="44.5945" lon="2.5977">
        <ele>647.8</ele>
        <time>2015-09-20T07:41:40Z</time>
      </trkpt>
      <trkpt lat="44.59458" lon="2.5976">
        <ele>647.6</ele>
        <time>2015-09-20T07:41:45Z</time>
      </trkpt>
      <trkpt lat="44.59464" lon="2.59747">
        <ele>647.8</ele>
        <time>2015-09-20T07:41:50Z</time>
      </trkpt>
      <trkpt lat="44.59468" lon="2.59734">
        <ele>648.2</ele>
        <time>2015-09-20T07:41:54Z</time>
      </trkpt>
      <trkpt lat="44.59471" lon="2.59722">
        <ele>648.6</ele>
        <time>2015-09-20T07:41:58Z</time>
      </trkpt>
      <trkpt lat="44.59472" lon="2.59707">
        <ele>649.1</ele>
        <time>2015-09-20T07:42:03Z</time>
      </trkpt>
      <trkpt lat="44.59469" lon="2.59691">
        <ele>649.6</ele>
        <time>2015-09-20T07:42:08Z</time>
      </trkpt>
      <trkpt lat="44.59467" lon="2.59678">
        <ele>649.9</ele>
        <time>2015-09-20T07:42:12Z</time>
      </trkpt>
      <trkpt lat="44.59464" lon="2.59665">
        <ele>650.3</ele>
        <time>2015-09-20T07:42:18Z</time>
      </trkpt>
      <trkpt lat="44.59462" lon="2.59649">
        <ele>650.6</ele>
        <time>2015-09-20T07:42:24Z</time>
      </trkpt>
      <trkpt lat="44.59464" lon="2.59636">
        <ele>650.7</ele>
        <time>2015-09-20T07:42:28Z</time>
      </trkpt>
      <trkpt lat="44.59464" lon="2.5962">
        <ele>650.8</ele>
        <time>2015-09-20T07:42:33Z</time>
      </trkpt>
      <trkpt lat="44.59463" lon="2.59607">
        <ele>651</ele>
        <time>2015-09-20T07:42:37Z</time>
      </trkpt>
      <trkpt lat="44.59461" lon="2.59592">
        <ele>651.1</ele>
        <time>2015-09-20T07:42:41Z</time>
      </trkpt>
      <trkpt lat="44.59461" lon="2.59576">
        <ele>651.4</ele>
        <time>2015-09-20T07:42:46Z</time>
      </trkpt>
      <trkpt lat="44.59457" lon="2.59563">
        <ele>651.7</ele>
        <time>2015-09-20T07:42:50Z</time>
      </trkpt>
      <trkpt lat="44.59453" lon="2.59551">
        <ele>652.3</ele>
        <time>2015-09-20T07:43:05Z</time>
      </trkpt>
      <trkpt lat="44.59448" lon="2.59538">
        <ele>652.6</ele>
        <time>2015-09-20T07:43:23Z</time>
      </trkpt>
      <trkpt lat="44.59445" lon="2.59526">
        <ele>652.6</ele>
        <time>2015-09-20T07:43:25Z</time>
      </trkpt>
      <trkpt lat="44.59441" lon="2.5951">
        <ele>652.6</ele>
        <time>2015-09-20T07:43:27Z</time>
      </trkpt>
      <trkpt lat="44.59438" lon="2.59492">
        <ele>652.6</ele>
        <time>2015-09-20T07:43:29Z</time>
      </trkpt>
      <trkpt lat="44.59435" lon="2.59473">
        <ele>652.4</ele>
        <time>2015-09-20T07:43:31Z</time>
      </trkpt>
      <trkpt lat="44.5943" lon="2.59459">
        <ele>652.2</ele>
        <time>2015-09-20T07:43:33Z</time>
      </trkpt>
      <trkpt lat="44.59418" lon="2.59448">
        <ele>652.1</ele>
        <time>2015-09-20T07:43:35Z</time>
      </trkpt>
      <trkpt lat="44.59403" lon="2.59445">
        <ele>651.8</ele>
        <time>2015-09-20T07:43:37Z</time>
      </trkpt>
      <trkpt lat="44.5939" lon="2.59445">
        <ele>651.4</ele>
        <time>2015-09-20T07:43:39Z</time>
      </trkpt>
      <trkpt lat="44.59378" lon="2.59445">
        <ele>650.9</ele>
        <time>2015-09-20T07:43:41Z</time>
      </trkpt>
      <trkpt lat="44.59364" lon="2.59441">
        <ele>650.5</ele>
        <time>2015-09-20T07:43:43Z</time>
      </trkpt>
      <trkpt lat="44.59352" lon="2.59439">
        <ele>650</ele>
        <time>2015-09-20T07:43:45Z</time>
      </trkpt>
      <trkpt lat="44.59341" lon="2.5943">
        <ele>649.5</ele>
        <time>2015-09-20T07:43:47Z</time>
      </trkpt>
      <trkpt lat="44.59332" lon="2.59422">
        <ele>649</ele>
        <time>2015-09-20T07:43:49Z</time>
      </trkpt>
      <trkpt lat="44.5932" lon="2.59409">
        <ele>648.5</ele>
        <time>2015-09-20T07:43:51Z</time>
      </trkpt>
      <trkpt lat="44.59314" lon="2.594">
        <ele>648.2</ele>
        <time>2015-09-20T07:43:52Z</time>
      </trkpt>
      <trkpt lat="44.59298" lon="2.59385">
        <ele>647.7</ele>
        <time>2015-09-20T07:43:54Z</time>
      </trkpt>
      <trkpt lat="44.59289" lon="2.59367">
        <ele>647.2</ele>
        <time>2015-09-20T07:43:56Z</time>
      </trkpt>
      <trkpt lat="44.59284" lon="2.59346">
        <ele>646.8</ele>
        <time>2015-09-20T07:43:58Z</time>
      </trkpt>
      <trkpt lat="44.59286" lon="2.59328">
        <ele>646.4</ele>
        <time>2015-09-20T07:44:00Z</time>
      </trkpt>
      <trkpt lat="44.59283" lon="2.59312">
        <ele>646.1</ele>
        <time>2015-09-20T07:44:02Z</time>
      </trkpt>
      <trkpt lat="44.59285" lon="2.59297">
        <ele>645.9</ele>
        <time>2015-09-20T07:44:04Z</time>
      </trkpt>
      <trkpt lat="44.59286" lon="2.59283">
        <ele>645.8</ele>
        <time>2015-09-20T07:44:06Z</time>
      </trkpt>
      <trkpt lat="44.59289" lon="2.5927">
        <ele>645.7</ele>
        <time>2015-09-20T07:44:08Z</time>
      </trkpt>
      <trkpt lat="44.5929" lon="2.59253">
        <ele>645.7</ele>
        <time>2015-09-20T07:44:11Z</time>
      </trkpt>
      <trkpt lat="44.5929" lon="2.59237">
        <ele>646</ele>
        <time>2015-09-20T07:44:14Z</time>
      </trkpt>
      <trkpt lat="44.59288" lon="2.59224">
        <ele>646.3</ele>
        <time>2015-09-20T07:44:17Z</time>
      </trkpt>
      <trkpt lat="44.59286" lon="2.5921">
        <ele>646.6</ele>
        <time>2015-09-20T07:44:20Z</time>
      </trkpt>
      <trkpt lat="44.59292" lon="2.59197">
        <ele>647.1</ele>
        <time>2015-09-20T07:44:23Z</time>
      </trkpt>
      <trkpt lat="44.59295" lon="2.59184">
        <ele>647.7</ele>
        <time>2015-09-20T07:44:26Z</time>
      </trkpt>
      <trkpt lat="44.59303" lon="2.59171">
        <ele>648.4</ele>
        <time>2015-09-20T07:44:29Z</time>
      </trkpt>
      <trkpt lat="44.59306" lon="2.59158">
        <ele>649</ele>
        <time>2015-09-20T07:44:32Z</time>
      </trkpt>
      <trkpt lat="44.59309" lon="2.59142">
        <ele>649.7</ele>
        <time>2015-09-20T07:44:36Z</time>
      </trkpt>
      <trkpt lat="44.59316" lon="2.59132">
        <ele>650.2</ele>
        <time>2015-09-20T07:44:39Z</time>
      </trkpt>
      <trkpt lat="44.59327" lon="2.59126">
        <ele>650.5</ele>
        <time>2015-09-20T07:44:42Z</time>
      </trkpt>
      <trkpt lat="44.59338" lon="2.5912">
        <ele>650.8</ele>
        <time>2015-09-20T07:44:45Z</time>
      </trkpt>
      <trkpt lat="44.59347" lon="2.59111">
        <ele>651.1</ele>
        <time>2015-09-20T07:44:48Z</time>
      </trkpt>
      <trkpt lat="44.59356" lon="2.59107">
        <ele>651.3</ele>
        <time>2015-09-20T07:44:51Z</time>
      </trkpt>
      <trkpt lat="44.59366" lon="2.59103">
        <ele>651.7</ele>
        <time>2015-09-20T07:44:54Z</time>
      </trkpt>
      <trkpt lat="44.59377" lon="2.59101">
        <ele>652.2</ele>
        <time>2015-09-20T07:44:59Z</time>
      </trkpt>
      <trkpt lat="44.59387" lon="2.59103">
        <ele>652.5</ele>
        <time>2015-09-20T07:45:03Z</time>
      </trkpt>
      <trkpt lat="44.59396" lon="2.59101">
        <ele>652.9</ele>
        <time>2015-09-20T07:45:22Z</time>
      </trkpt>
      <trkpt lat="44.59405" lon="2.59104">
        <ele>652.2</ele>
        <time>2015-09-20T07:47:07Z</time>
      </trkpt>
      <trkpt lat="44.59414" lon="2.59097">
        <ele>652.3</ele>
        <time>2015-09-20T07:47:47Z</time>
      </trkpt>
      <trkpt lat="44.59421" lon="2.59086">
        <ele>652.3</ele>
        <time>2015-09-20T07:47:52Z</time>
      </trkpt>
      <trkpt lat="44.59427" lon="2.59073">
        <ele>652.3</ele>
        <time>2015-09-20T07:47:57Z</time>
      </trkpt>
      <trkpt lat="44.59431" lon="2.59062">
        <ele>652.3</ele>
        <time>2015-09-20T07:48:01Z</time>
      </trkpt>
      <trkpt lat="44.59434" lon="2.59048">
        <ele>652.5</ele>
        <time>2015-09-20T07:48:07Z</time>
      </trkpt>
      <trkpt lat="44.59438" lon="2.59035">
        <ele>652.6</ele>
        <time>2015-09-20T07:48:12Z</time>
      </trkpt>
      <trkpt lat="44.59441" lon="2.59023">
        <ele>652.8</ele>
        <time>2015-09-20T07:48:16Z</time>
      </trkpt>
      <trkpt lat="44.59443" lon="2.5901">
        <ele>653.1</ele>
        <time>2015-09-20T07:48:21Z</time>
      </trkpt>
      <trkpt lat="44.5945" lon="2.59">
        <ele>653.3</ele>
        <time>2015-09-20T07:48:25Z</time>
      </trkpt>
      <trkpt lat="44.5946" lon="2.58992">
        <ele>653.6</ele>
        <time>2015-09-20T07:48:28Z</time>
      </trkpt>
      <trkpt lat="44.5947" lon="2.58988">
        <ele>654.1</ele>
        <time>2015-09-20T07:48:32Z</time>
      </trkpt>
      <trkpt lat="44.5948" lon="2.58986">
        <ele>654.5</ele>
        <time>2015-09-20T07:48:36Z</time>
      </trkpt>
      <trkpt lat="44.5949" lon="2.58983">
        <ele>655.2</ele>
        <time>2015-09-20T07:48:41Z</time>
      </trkpt>
      <trkpt lat="44.59498" lon="2.58975">
        <ele>655.7</ele>
        <time>2015-09-20T07:48:45Z</time>
      </trkpt>
      <trkpt lat="44.59504" lon="2.58963">
        <ele>656.1</ele>
        <time>2015-09-20T07:48:49Z</time>
      </trkpt>
      <trkpt lat="44.59508" lon="2.58949">
        <ele>656.7</ele>
        <time>2015-09-20T07:48:54Z</time>
      </trkpt>
      <trkpt lat="44.59511" lon="2.58936">
        <ele>657.2</ele>
        <time>2015-09-20T07:48:58Z</time>
      </trkpt>
      <trkpt lat="44.59511" lon="2.58923">
        <ele>657.7</ele>
        <time>2015-09-20T07:49:02Z</time>
      </trkpt>
      <trkpt lat="44.59509" lon="2.58908">
        <ele>658.5</ele>
        <time>2015-09-20T07:49:07Z</time>
      </trkpt>
      <trkpt lat="44.59503" lon="2.58899">
        <ele>659.1</ele>
        <time>2015-09-20T07:49:11Z</time>
      </trkpt>
      <trkpt lat="44.59494" lon="2.58895">
        <ele>659.6</ele>
        <time>2015-09-20T07:49:15Z</time>
      </trkpt>
      <trkpt lat="44.59483" lon="2.58891">
        <ele>660.4</ele>
        <time>2015-09-20T07:49:20Z</time>
      </trkpt>
      <trkpt lat="44.59474" lon="2.58889">
        <ele>661</ele>
        <time>2015-09-20T07:49:24Z</time>
      </trkpt>
      <trkpt lat="44.59464" lon="2.58882">
        <ele>661.6</ele>
        <time>2015-09-20T07:49:29Z</time>
      </trkpt>
      <trkpt lat="44.59456" lon="2.58874">
        <ele>662.6</ele>
        <time>2015-09-20T07:49:35Z</time>
      </trkpt>
      <trkpt lat="44.59449" lon="2.58864">
        <ele>663.8</ele>
        <time>2015-09-20T07:49:43Z</time>
      </trkpt>
      <trkpt lat="44.59444" lon="2.58853">
        <ele>665.1</ele>
        <time>2015-09-20T07:49:54Z</time>
      </trkpt>
      <trkpt lat="44.59437" lon="2.58844">
        <ele>667.1</ele>
        <time>2015-09-20T07:50:14Z</time>
      </trkpt>
      <trkpt lat="44.59434" lon="2.58831">
        <ele>668.2</ele>
        <time>2015-09-20T07:50:48Z</time>
      </trkpt>
      <trkpt lat="44.59427" lon="2.58822">
        <ele>668.3</ele>
        <time>2015-09-20T07:50:54Z</time>
      </trkpt>
      <trkpt lat="44.59417" lon="2.58813">
        <ele>668.6</ele>
        <time>2015-09-20T07:51:01Z</time>
      </trkpt>
      <trkpt lat="44.59409" lon="2.58803">
        <ele>668.8</ele>
        <time>2015-09-20T07:51:06Z</time>
      </trkpt>
      <trkpt lat="44.59403" lon="2.5879">
        <ele>668.8</ele>
        <time>2015-09-20T07:51:10Z</time>
      </trkpt>
      <trkpt lat="44.59394" lon="2.5878">
        <ele>668.9</ele>
        <time>2015-09-20T07:51:13Z</time>
      </trkpt>
      <trkpt lat="44.59384" lon="2.58771">
        <ele>668.8</ele>
        <time>2015-09-20T07:51:16Z</time>
      </trkpt>
      <trkpt lat="44.5937" lon="2.5876">
        <ele>668.6</ele>
        <time>2015-09-20T07:51:19Z</time>
      </trkpt>
      <trkpt lat="44.59358" lon="2.58751">
        <ele>668.3</ele>
        <time>2015-09-20T07:51:21Z</time>
      </trkpt>
      <trkpt lat="44.59348" lon="2.58737">
        <ele>668</ele>
        <time>2015-09-20T07:51:23Z</time>
      </trkpt>
      <trkpt lat="44.5934" lon="2.58725">
        <ele>667.6</ele>
        <time>2015-09-20T07:51:25Z</time>
      </trkpt>
      <trkpt lat="44.59334" lon="2.58711">
        <ele>667.1</ele>
        <time>2015-09-20T07:51:27Z</time>
      </trkpt>
      <trkpt lat="44.59322" lon="2.58675">
        <ele>665</ele>
        <time>2015-09-20T07:51:29Z</time>
      </trkpt>
      <trkpt lat="44.59299" lon="2.58617">
        <ele>665</ele>
        <time>2015-09-20T07:51:34Z</time>
      </trkpt>
      <trkpt lat="44.59292" lon="2.58603">
        <ele>664.5</ele>
        <time>2015-09-20T07:51:36Z</time>
      </trkpt>
      <trkpt lat="44.59295" lon="2.58587">
        <ele>663.9</ele>
        <time>2015-09-20T07:51:39Z</time>
      </trkpt>
      <trkpt lat="44.59305" lon="2.58579">
        <ele>663.3</ele>
        <time>2015-09-20T07:51:42Z</time>
      </trkpt>
      <trkpt lat="44.59313" lon="2.58573">
        <ele>663</ele>
        <time>2015-09-20T07:51:44Z</time>
      </trkpt>
      <trkpt lat="44.59321" lon="2.58567">
        <ele>662.8</ele>
        <time>2015-09-20T07:51:46Z</time>
      </trkpt>
      <trkpt lat="44.59329" lon="2.5856">
        <ele>662.5</ele>
        <time>2015-09-20T07:51:48Z</time>
      </trkpt>
      <trkpt lat="44.59337" lon="2.58553">
        <ele>662.3</ele>
        <time>2015-09-20T07:51:50Z</time>
      </trkpt>
      <trkpt lat="44.59348" lon="2.58542">
        <ele>662</ele>
        <time>2015-09-20T07:51:53Z</time>
      </trkpt>
      <trkpt lat="44.59357" lon="2.5853">
        <ele>661.8</ele>
        <time>2015-09-20T07:51:56Z</time>
      </trkpt>
      <trkpt lat="44.59365" lon="2.58517">
        <ele>661.7</ele>
        <time>2015-09-20T07:51:59Z</time>
      </trkpt>
      <trkpt lat="44.59373" lon="2.58503">
        <ele>661.5</ele>
        <time>2015-09-20T07:52:02Z</time>
      </trkpt>
      <trkpt lat="44.5938" lon="2.5849">
        <ele>661.3</ele>
        <time>2015-09-20T07:52:05Z</time>
      </trkpt>
      <trkpt lat="44.59387" lon="2.58476">
        <ele>661.1</ele>
        <time>2015-09-20T07:52:08Z</time>
      </trkpt>
      <trkpt lat="44.59393" lon="2.58462">
        <ele>660.9</ele>
        <time>2015-09-20T07:52:11Z</time>
      </trkpt>
      <trkpt lat="44.59399" lon="2.58449">
        <ele>660.8</ele>
        <time>2015-09-20T07:52:14Z</time>
      </trkpt>
      <trkpt lat="44.59404" lon="2.58436">
        <ele>660.6</ele>
        <time>2015-09-20T07:52:17Z</time>
      </trkpt>
      <trkpt lat="44.59408" lon="2.58422">
        <ele>660.4</ele>
        <time>2015-09-20T07:52:20Z</time>
      </trkpt>
      <trkpt lat="44.59415" lon="2.58408">
        <ele>660.3</ele>
        <time>2015-09-20T07:52:23Z</time>
      </trkpt>
      <trkpt lat="44.5942" lon="2.58394">
        <ele>660.1</ele>
        <time>2015-09-20T07:52:26Z</time>
      </trkpt>
      <trkpt lat="44.59424" lon="2.58378">
        <ele>659.8</ele>
        <time>2015-09-20T07:52:29Z</time>
      </trkpt>
      <trkpt lat="44.59429" lon="2.58361">
        <ele>659.5</ele>
        <time>2015-09-20T07:52:32Z</time>
      </trkpt>
      <trkpt lat="44.59433" lon="2.58348">
        <ele>659.3</ele>
        <time>2015-09-20T07:52:34Z</time>
      </trkpt>
      <trkpt lat="44.59437" lon="2.58335">
        <ele>659</ele>
        <time>2015-09-20T07:52:36Z</time>
      </trkpt>
      <trkpt lat="44.59441" lon="2.58321">
        <ele>658.7</ele>
        <time>2015-09-20T07:52:38Z</time>
      </trkpt>
      <trkpt lat="44.59446" lon="2.58307">
        <ele>658.4</ele>
        <time>2015-09-20T07:52:40Z</time>
      </trkpt>
      <trkpt lat="44.59451" lon="2.58294">
        <ele>658.2</ele>
        <time>2015-09-20T07:52:42Z</time>
      </trkpt>
      <trkpt lat="44.59456" lon="2.58281">
        <ele>657.9</ele>
        <time>2015-09-20T07:52:44Z</time>
      </trkpt>
      <trkpt lat="44.59462" lon="2.58269">
        <ele>657.6</ele>
        <time>2015-09-20T07:52:46Z</time>
      </trkpt>
      <trkpt lat="44.59469" lon="2.58258">
        <ele>657.4</ele>
        <time>2015-09-20T07:52:48Z</time>
      </trkpt>
      <trkpt lat="44.59477" lon="2.58247">
        <ele>657.1</ele>
        <time>2015-09-20T07:52:50Z</time>
      </trkpt>
      <trkpt lat="44.59484" lon="2.58239">
        <ele>656.9</ele>
        <time>2015-09-20T07:52:52Z</time>
      </trkpt>
      <trkpt lat="44.59492" lon="2.58231">
        <ele>656.7</ele>
        <time>2015-09-20T07:52:54Z</time>
      </trkpt>
      <trkpt lat="44.59503" lon="2.58221">
        <ele>656.4</ele>
        <time>2015-09-20T07:52:57Z</time>
      </trkpt>
      <trkpt lat="44.59515" lon="2.58213">
        <ele>656.1</ele>
        <time>2015-09-20T07:53:00Z</time>
      </trkpt>
      <trkpt lat="44.59526" lon="2.58205">
        <ele>655.9</ele>
        <time>2015-09-20T07:53:03Z</time>
      </trkpt>
      <trkpt lat="44.59537" lon="2.58199">
        <ele>655.7</ele>
        <time>2015-09-20T07:53:06Z</time>
      </trkpt>
      <trkpt lat="44.5955" lon="2.58193">
        <ele>655.6</ele>
        <time>2015-09-20T07:53:09Z</time>
      </trkpt>
      <trkpt lat="44.59562" lon="2.58186">
        <ele>655.5</ele>
        <time>2015-09-20T07:53:12Z</time>
      </trkpt>
      <trkpt lat="44.59573" lon="2.58181">
        <ele>655.4</ele>
        <time>2015-09-20T07:53:15Z</time>
      </trkpt>
      <trkpt lat="44.59584" lon="2.58177">
        <ele>655.4</ele>
        <time>2015-09-20T07:53:18Z</time>
      </trkpt>
      <trkpt lat="44.59595" lon="2.58174">
        <ele>655.4</ele>
        <time>2015-09-20T07:53:21Z</time>
      </trkpt>
      <trkpt lat="44.59606" lon="2.58171">
        <ele>655.5</ele>
        <time>2015-09-20T07:53:24Z</time>
      </trkpt>
      <trkpt lat="44.59616" lon="2.58169">
        <ele>655.7</ele>
        <time>2015-09-20T07:53:27Z</time>
      </trkpt>
      <trkpt lat="44.59626" lon="2.58168">
        <ele>655.9</ele>
        <time>2015-09-20T07:53:30Z</time>
      </trkpt>
      <trkpt lat="44.59635" lon="2.58166">
        <ele>656.2</ele>
        <time>2015-09-20T07:53:33Z</time>
      </trkpt>
      <trkpt lat="44.59645" lon="2.58165">
        <ele>656.4</ele>
        <time>2015-09-20T07:53:36Z</time>
      </trkpt>
      <trkpt lat="44.59654" lon="2.58164">
        <ele>656.7</ele>
        <time>2015-09-20T07:53:39Z</time>
      </trkpt>
      <trkpt lat="44.59664" lon="2.58162">
        <ele>657</ele>
        <time>2015-09-20T07:53:42Z</time>
      </trkpt>
      <trkpt lat="44.59674" lon="2.58161">
        <ele>657.4</ele>
        <time>2015-09-20T07:53:45Z</time>
      </trkpt>
      <trkpt lat="44.59683" lon="2.58161">
        <ele>657.9</ele>
        <time>2015-09-20T07:53:48Z</time>
      </trkpt>
      <trkpt lat="44.59695" lon="2.5816">
        <ele>658.5</ele>
        <time>2015-09-20T07:53:52Z</time>
      </trkpt>
      <trkpt lat="44.59706" lon="2.58159">
        <ele>659</ele>
        <time>2015-09-20T07:53:56Z</time>
      </trkpt>
      <trkpt lat="44.59718" lon="2.58159">
        <ele>659.5</ele>
        <time>2015-09-20T07:54:00Z</time>
      </trkpt>
      <trkpt lat="44.59727" lon="2.58159">
        <ele>660</ele>
        <time>2015-09-20T07:54:03Z</time>
      </trkpt>
      <trkpt lat="44.5974" lon="2.58159">
        <ele>660.5</ele>
        <time>2015-09-20T07:54:07Z</time>
      </trkpt>
      <trkpt lat="44.59749" lon="2.58158">
        <ele>660.8</ele>
        <time>2015-09-20T07:54:10Z</time>
      </trkpt>
      <trkpt lat="44.59759" lon="2.58158">
        <ele>661</ele>
        <time>2015-09-20T07:54:13Z</time>
      </trkpt>
      <trkpt lat="44.59768" lon="2.58157">
        <ele>661.3</ele>
        <time>2015-09-20T07:54:16Z</time>
      </trkpt>
      <trkpt lat="44.59777" lon="2.58156">
        <ele>661.6</ele>
        <time>2015-09-20T07:54:19Z</time>
      </trkpt>
      <trkpt lat="44.59786" lon="2.58154">
        <ele>661.8</ele>
        <time>2015-09-20T07:54:22Z</time>
      </trkpt>
      <trkpt lat="44.59796" lon="2.58151">
        <ele>662</ele>
        <time>2015-09-20T07:54:25Z</time>
      </trkpt>
      <trkpt lat="44.59804" lon="2.58146">
        <ele>662.3</ele>
        <time>2015-09-20T07:54:28Z</time>
      </trkpt>
      <trkpt lat="44.59814" lon="2.58137">
        <ele>662.7</ele>
        <time>2015-09-20T07:54:32Z</time>
      </trkpt>
      <trkpt lat="44.59822" lon="2.5813">
        <ele>663</ele>
        <time>2015-09-20T07:54:35Z</time>
      </trkpt>
      <trkpt lat="44.59831" lon="2.5812">
        <ele>663.4</ele>
        <time>2015-09-20T07:54:39Z</time>
      </trkpt>
      <trkpt lat="44.5984" lon="2.5811">
        <ele>663.6</ele>
        <time>2015-09-20T07:54:43Z</time>
      </trkpt>
      <trkpt lat="44.59849" lon="2.581">
        <ele>663.9</ele>
        <time>2015-09-20T07:54:47Z</time>
      </trkpt>
      <trkpt lat="44.59858" lon="2.58089">
        <ele>664.2</ele>
        <time>2015-09-20T07:54:51Z</time>
      </trkpt>
      <trkpt lat="44.59867" lon="2.58079">
        <ele>664.5</ele>
        <time>2015-09-20T07:54:55Z</time>
      </trkpt>
      <trkpt lat="44.59876" lon="2.5807">
        <ele>664.8</ele>
        <time>2015-09-20T07:54:59Z</time>
      </trkpt>
      <trkpt lat="44.59884" lon="2.5806">
        <ele>665.2</ele>
        <time>2015-09-20T07:55:03Z</time>
      </trkpt>
      <trkpt lat="44.59893" lon="2.58051">
        <ele>665.7</ele>
        <time>2015-09-20T07:55:07Z</time>
      </trkpt>
      <trkpt lat="44.59901" lon="2.58043">
        <ele>666</ele>
        <time>2015-09-20T07:55:11Z</time>
      </trkpt>
      <trkpt lat="44.59908" lon="2.58034">
        <ele>666.3</ele>
        <time>2015-09-20T07:55:15Z</time>
      </trkpt>
      <trkpt lat="44.59915" lon="2.58026">
        <ele>666.6</ele>
        <time>2015-09-20T07:55:18Z</time>
      </trkpt>
      <trkpt lat="44.59925" lon="2.58017">
        <ele>667</ele>
        <time>2015-09-20T07:55:22Z</time>
      </trkpt>
      <trkpt lat="44.59933" lon="2.58007">
        <ele>667.3</ele>
        <time>2015-09-20T07:55:26Z</time>
      </trkpt>
      <trkpt lat="44.59942" lon="2.57996">
        <ele>667.8</ele>
        <time>2015-09-20T07:55:30Z</time>
      </trkpt>
      <trkpt lat="44.5995" lon="2.57987">
        <ele>668.2</ele>
        <time>2015-09-20T07:55:34Z</time>
      </trkpt>
      <trkpt lat="44.59959" lon="2.57977">
        <ele>668.6</ele>
        <time>2015-09-20T07:55:38Z</time>
      </trkpt>
      <trkpt lat="44.59968" lon="2.57968">
        <ele>669</ele>
        <time>2015-09-20T07:55:42Z</time>
      </trkpt>
      <trkpt lat="44.59977" lon="2.5796">
        <ele>669.5</ele>
        <time>2015-09-20T07:55:46Z</time>
      </trkpt>
      <trkpt lat="44.59987" lon="2.57955">
        <ele>670</ele>
        <time>2015-09-20T07:55:50Z</time>
      </trkpt>
      <trkpt lat="44.59997" lon="2.57953">
        <ele>670.5</ele>
        <time>2015-09-20T07:55:54Z</time>
      </trkpt>
      <trkpt lat="44.60007" lon="2.57955">
        <ele>671</ele>
        <time>2015-09-20T07:55:58Z</time>
      </trkpt>
      <trkpt lat="44.60016" lon="2.5796">
        <ele>671.5</ele>
        <time>2015-09-20T07:56:02Z</time>
      </trkpt>
      <trkpt lat="44.60024" lon="2.57966">
        <ele>672</ele>
        <time>2015-09-20T07:56:06Z</time>
      </trkpt>
      <trkpt lat="44.60034" lon="2.57975">
        <ele>672.8</ele>
        <time>2015-09-20T07:56:11Z</time>
      </trkpt>
      <trkpt lat="44.60043" lon="2.57981">
        <ele>673.6</ele>
        <time>2015-09-20T07:56:16Z</time>
      </trkpt>
      <trkpt lat="44.60051" lon="2.57991">
        <ele>674.3</ele>
        <time>2015-09-20T07:56:22Z</time>
      </trkpt>
      <trkpt lat="44.60056" lon="2.58004">
        <ele>674.9</ele>
        <time>2015-09-20T07:56:28Z</time>
      </trkpt>
      <trkpt lat="44.60061" lon="2.58015">
        <ele>675.3</ele>
        <time>2015-09-20T07:56:32Z</time>
      </trkpt>
      <trkpt lat="44.60064" lon="2.58028">
        <ele>675.4</ele>
        <time>2015-09-20T07:56:35Z</time>
      </trkpt>
      <trkpt lat="44.60069" lon="2.58045">
        <ele>675.6</ele>
        <time>2015-09-20T07:56:38Z</time>
      </trkpt>
      <trkpt lat="44.60073" lon="2.58058">
        <ele>675.6</ele>
        <time>2015-09-20T07:56:40Z</time>
      </trkpt>
      <trkpt lat="44.60077" lon="2.58073">
        <ele>675.5</ele>
        <time>2015-09-20T07:56:42Z</time>
      </trkpt>
      <trkpt lat="44.60084" lon="2.58089">
        <ele>675.3</ele>
        <time>2015-09-20T07:56:44Z</time>
      </trkpt>
      <trkpt lat="44.60092" lon="2.58107">
        <ele>675</ele>
        <time>2015-09-20T07:56:46Z</time>
      </trkpt>
      <trkpt lat="44.601" lon="2.58124">
        <ele>674.6</ele>
        <time>2015-09-20T07:56:48Z</time>
      </trkpt>
      <trkpt lat="44.6011" lon="2.58141">
        <ele>674.1</ele>
        <time>2015-09-20T07:56:50Z</time>
      </trkpt>
      <trkpt lat="44.6012" lon="2.5816">
        <ele>673.5</ele>
        <time>2015-09-20T07:56:52Z</time>
      </trkpt>
      <trkpt lat="44.6013" lon="2.58178">
        <ele>672.8</ele>
        <time>2015-09-20T07:56:54Z</time>
      </trkpt>
      <trkpt lat="44.60139" lon="2.58196">
        <ele>672.1</ele>
        <time>2015-09-20T07:56:56Z</time>
      </trkpt>
      <trkpt lat="44.60149" lon="2.58214">
        <ele>671.5</ele>
        <time>2015-09-20T07:56:58Z</time>
      </trkpt>
      <trkpt lat="44.60159" lon="2.58231">
        <ele>670.9</ele>
        <time>2015-09-20T07:57:00Z</time>
      </trkpt>
      <trkpt lat="44.60169" lon="2.58247">
        <ele>670.4</ele>
        <time>2015-09-20T07:57:02Z</time>
      </trkpt>
      <trkpt lat="44.60179" lon="2.5826">
        <ele>669.9</ele>
        <time>2015-09-20T07:57:04Z</time>
      </trkpt>
      <trkpt lat="44.60189" lon="2.58272">
        <ele>669.5</ele>
        <time>2015-09-20T07:57:06Z</time>
      </trkpt>
      <trkpt lat="44.60199" lon="2.58282">
        <ele>669.2</ele>
        <time>2015-09-20T07:57:08Z</time>
      </trkpt>
      <trkpt lat="44.60208" lon="2.58292">
        <ele>668.8</ele>
        <time>2015-09-20T07:57:10Z</time>
      </trkpt>
      <trkpt lat="44.60217" lon="2.58305">
        <ele>668.5</ele>
        <time>2015-09-20T07:57:12Z</time>
      </trkpt>
      <trkpt lat="44.60222" lon="2.5832">
        <ele>668.2</ele>
        <time>2015-09-20T07:57:14Z</time>
      </trkpt>
      <trkpt lat="44.60225" lon="2.58335">
        <ele>668</ele>
        <time>2015-09-20T07:57:16Z</time>
      </trkpt>
      <trkpt lat="44.60225" lon="2.58349">
        <ele>667.8</ele>
        <time>2015-09-20T07:57:18Z</time>
      </trkpt>
      <trkpt lat="44.60226" lon="2.58363">
        <ele>667.6</ele>
        <time>2015-09-20T07:57:20Z</time>
      </trkpt>
      <trkpt lat="44.60227" lon="2.58377">
        <ele>667.4</ele>
        <time>2015-09-20T07:57:22Z</time>
      </trkpt>
      <trkpt lat="44.60228" lon="2.5839">
        <ele>667.3</ele>
        <time>2015-09-20T07:57:24Z</time>
      </trkpt>
      <trkpt lat="44.60231" lon="2.58403">
        <ele>667.1</ele>
        <time>2015-09-20T07:57:26Z</time>
      </trkpt>
      <trkpt lat="44.60234" lon="2.58417">
        <ele>666.9</ele>
        <time>2015-09-20T07:57:28Z</time>
      </trkpt>
      <trkpt lat="44.6024" lon="2.58429">
        <ele>666.7</ele>
        <time>2015-09-20T07:57:30Z</time>
      </trkpt>
      <trkpt lat="44.60249" lon="2.58439">
        <ele>666.5</ele>
        <time>2015-09-20T07:57:32Z</time>
      </trkpt>
      <trkpt lat="44.60259" lon="2.58448">
        <ele>666.2</ele>
        <time>2015-09-20T07:57:34Z</time>
      </trkpt>
      <trkpt lat="44.60271" lon="2.58454">
        <ele>665.8</ele>
        <time>2015-09-20T07:57:36Z</time>
      </trkpt>
      <trkpt lat="44.60282" lon="2.58455">
        <ele>665.5</ele>
        <time>2015-09-20T07:57:38Z</time>
      </trkpt>
      <trkpt lat="44.60292" lon="2.58454">
        <ele>665.1</ele>
        <time>2015-09-20T07:57:40Z</time>
      </trkpt>
      <trkpt lat="44.60301" lon="2.5845">
        <ele>664.9</ele>
        <time>2015-09-20T07:57:42Z</time>
      </trkpt>
      <trkpt lat="44.60309" lon="2.58444">
        <ele>664.6</ele>
        <time>2015-09-20T07:57:44Z</time>
      </trkpt>
      <trkpt lat="44.60317" lon="2.58437">
        <ele>664.4</ele>
        <time>2015-09-20T07:57:46Z</time>
      </trkpt>
      <trkpt lat="44.60321" lon="2.58426">
        <ele>664.3</ele>
        <time>2015-09-20T07:57:53Z</time>
      </trkpt>
      <trkpt lat="44.60312" lon="2.58434">
        <ele>663.2</ele>
        <time>2015-09-20T08:40:57Z</time>
      </trkpt>
      <trkpt lat="44.60316" lon="2.58446">
        <ele>662.6</ele>
        <time>2015-09-20T08:41:03Z</time>
      </trkpt>
      <trkpt lat="44.60327" lon="2.58446">
        <ele>662.2</ele>
        <time>2015-09-20T08:41:07Z</time>
      </trkpt>
      <trkpt lat="44.60337" lon="2.58445">
        <ele>662</ele>
        <time>2015-09-20T08:41:11Z</time>
      </trkpt>
      <trkpt lat="44.60347" lon="2.58443">
        <ele>661.7</ele>
        <time>2015-09-20T08:41:15Z</time>
      </trkpt>
      <trkpt lat="44.60357" lon="2.5844">
        <ele>661.5</ele>
        <time>2015-09-20T08:41:20Z</time>
      </trkpt>
      <trkpt lat="44.60366" lon="2.58436">
        <ele>661.4</ele>
        <time>2015-09-20T08:41:25Z</time>
      </trkpt>
      <trkpt lat="44.60375" lon="2.5843">
        <ele>661.3</ele>
        <time>2015-09-20T08:41:29Z</time>
      </trkpt>
      <trkpt lat="44.60385" lon="2.58422">
        <ele>661.2</ele>
        <time>2015-09-20T08:41:33Z</time>
      </trkpt>
      <trkpt lat="44.60395" lon="2.58415">
        <ele>660.9</ele>
        <time>2015-09-20T08:41:37Z</time>
      </trkpt>
      <trkpt lat="44.60406" lon="2.58407">
        <ele>660.5</ele>
        <time>2015-09-20T08:41:40Z</time>
      </trkpt>
      <trkpt lat="44.60416" lon="2.584">
        <ele>660.2</ele>
        <time>2015-09-20T08:41:42Z</time>
      </trkpt>
      <trkpt lat="44.60428" lon="2.58391">
        <ele>659.7</ele>
        <time>2015-09-20T08:41:44Z</time>
      </trkpt>
      <trkpt lat="44.6044" lon="2.58381">
        <ele>659.2</ele>
        <time>2015-09-20T08:41:46Z</time>
      </trkpt>
      <trkpt lat="44.60451" lon="2.58367">
        <ele>658.7</ele>
        <time>2015-09-20T08:41:48Z</time>
      </trkpt>
      <trkpt lat="44.60462" lon="2.58358">
        <ele>658.1</ele>
        <time>2015-09-20T08:41:50Z</time>
      </trkpt>
      <trkpt lat="44.60472" lon="2.58355">
        <ele>657.6</ele>
        <time>2015-09-20T08:41:52Z</time>
      </trkpt>
      <trkpt lat="44.60482" lon="2.58353">
        <ele>656.4</ele>
        <time>2015-09-20T08:41:57Z</time>
      </trkpt>
      <trkpt lat="44.60482" lon="2.5834">
        <ele>654.9</ele>
        <time>2015-09-20T08:42:06Z</time>
      </trkpt>
      <trkpt lat="44.60477" lon="2.58327">
        <ele>654.3</ele>
        <time>2015-09-20T08:42:11Z</time>
      </trkpt>
      <trkpt lat="44.60476" lon="2.58313">
        <ele>654</ele>
        <time>2015-09-20T08:42:15Z</time>
      </trkpt>
      <trkpt lat="44.60478" lon="2.58301">
        <ele>653.9</ele>
        <time>2015-09-20T08:42:19Z</time>
      </trkpt>
      <trkpt lat="44.60484" lon="2.58288">
        <ele>654.1</ele>
        <time>2015-09-20T08:42:23Z</time>
      </trkpt>
      <trkpt lat="44.60484" lon="2.58274">
        <ele>654.3</ele>
        <time>2015-09-20T08:42:28Z</time>
      </trkpt>
      <trkpt lat="44.60477" lon="2.58283">
        <ele>655.8</ele>
        <time>2015-09-20T08:42:44Z</time>
      </trkpt>
      <trkpt lat="44.6047" lon="2.58291">
        <ele>656.6</ele>
        <time>2015-09-20T08:42:51Z</time>
      </trkpt>
      <trkpt lat="44.60461" lon="2.58298">
        <ele>657.8</ele>
        <time>2015-09-20T08:42:59Z</time>
      </trkpt>
      <trkpt lat="44.6046" lon="2.58282">
        <ele>659.3</ele>
        <time>2015-09-20T08:43:10Z</time>
      </trkpt>
      <trkpt lat="44.60457" lon="2.5827">
        <ele>659.8</ele>
        <time>2015-09-20T08:43:16Z</time>
      </trkpt>
      <trkpt lat="44.6045" lon="2.5826">
        <ele>660.3</ele>
        <time>2015-09-20T08:43:22Z</time>
      </trkpt>
      <trkpt lat="44.60443" lon="2.5825">
        <ele>661.3</ele>
        <time>2015-09-20T08:43:29Z</time>
      </trkpt>
      <trkpt lat="44.60437" lon="2.5824">
        <ele>662.8</ele>
        <time>2015-09-20T08:43:38Z</time>
      </trkpt>
      <trkpt lat="44.60431" lon="2.5823">
        <ele>664.3</ele>
        <time>2015-09-20T08:43:46Z</time>
      </trkpt>
      <trkpt lat="44.60424" lon="2.58221">
        <ele>665.8</ele>
        <time>2015-09-20T08:43:56Z</time>
      </trkpt>
      <trkpt lat="44.60418" lon="2.5821">
        <ele>668.2</ele>
        <time>2015-09-20T08:44:12Z</time>
      </trkpt>
      <trkpt lat="44.60413" lon="2.582">
        <ele>670.4</ele>
        <time>2015-09-20T08:44:28Z</time>
      </trkpt>
      <trkpt lat="44.60408" lon="2.58188">
        <ele>672.3</ele>
        <time>2015-09-20T08:44:41Z</time>
      </trkpt>
      <trkpt lat="44.60404" lon="2.58177">
        <ele>673.9</ele>
        <time>2015-09-20T08:44:53Z</time>
      </trkpt>
      <trkpt lat="44.60398" lon="2.58166">
        <ele>676</ele>
        <time>2015-09-20T08:45:07Z</time>
      </trkpt>
      <trkpt lat="44.60395" lon="2.58153">
        <ele>678.3</ele>
        <time>2015-09-20T08:45:21Z</time>
      </trkpt>
      <trkpt lat="44.60392" lon="2.5814">
        <ele>680.3</ele>
        <time>2015-09-20T08:45:33Z</time>
      </trkpt>
      <trkpt lat="44.60386" lon="2.5813">
        <ele>681.9</ele>
        <time>2015-09-20T08:45:44Z</time>
      </trkpt>
      <trkpt lat="44.60381" lon="2.58118">
        <ele>684.1</ele>
        <time>2015-09-20T08:46:07Z</time>
      </trkpt>
      <trkpt lat="44.60376" lon="2.58108">
        <ele>685</ele>
        <time>2015-09-20T08:46:21Z</time>
      </trkpt>
      <trkpt lat="44.60369" lon="2.58097">
        <ele>685.7</ele>
        <time>2015-09-20T08:46:27Z</time>
      </trkpt>
      <trkpt lat="44.60364" lon="2.58085">
        <ele>686.8</ele>
        <time>2015-09-20T08:46:35Z</time>
      </trkpt>
      <trkpt lat="44.6036" lon="2.58072">
        <ele>687.8</ele>
        <time>2015-09-20T08:46:43Z</time>
      </trkpt>
      <trkpt lat="44.60357" lon="2.5806">
        <ele>688.6</ele>
        <time>2015-09-20T08:46:51Z</time>
      </trkpt>
      <trkpt lat="44.60361" lon="2.58046">
        <ele>689</ele>
        <time>2015-09-20T08:46:58Z</time>
      </trkpt>
      <trkpt lat="44.60364" lon="2.58034">
        <ele>689.2</ele>
        <time>2015-09-20T08:47:02Z</time>
      </trkpt>
      <trkpt lat="44.60366" lon="2.5802">
        <ele>689.3</ele>
        <time>2015-09-20T08:47:06Z</time>
      </trkpt>
      <trkpt lat="44.60368" lon="2.58003">
        <ele>689.4</ele>
        <time>2015-09-20T08:47:10Z</time>
      </trkpt>
      <trkpt lat="44.6037" lon="2.57989">
        <ele>689.4</ele>
        <time>2015-09-20T08:47:13Z</time>
      </trkpt>
      <trkpt lat="44.60371" lon="2.57974">
        <ele>689.4</ele>
        <time>2015-09-20T08:47:16Z</time>
      </trkpt>
      <trkpt lat="44.60372" lon="2.57958">
        <ele>689.4</ele>
        <time>2015-09-20T08:47:19Z</time>
      </trkpt>
      <trkpt lat="44.60374" lon="2.57942">
        <ele>689.2</ele>
        <time>2015-09-20T08:47:22Z</time>
      </trkpt>
      <trkpt lat="44.60376" lon="2.57924">
        <ele>689</ele>
        <time>2015-09-20T08:47:25Z</time>
      </trkpt>
      <trkpt lat="44.60378" lon="2.57906">
        <ele>688.9</ele>
        <time>2015-09-20T08:47:28Z</time>
      </trkpt>
      <trkpt lat="44.60379" lon="2.57888">
        <ele>688.7</ele>
        <time>2015-09-20T08:47:31Z</time>
      </trkpt>
      <trkpt lat="44.6038" lon="2.5787">
        <ele>688.5</ele>
        <time>2015-09-20T08:47:34Z</time>
      </trkpt>
      <trkpt lat="44.60381" lon="2.57854">
        <ele>688.3</ele>
        <time>2015-09-20T08:47:37Z</time>
      </trkpt>
      <trkpt lat="44.60383" lon="2.57838">
        <ele>688</ele>
        <time>2015-09-20T08:47:41Z</time>
      </trkpt>
      <trkpt lat="44.60384" lon="2.57823">
        <ele>687.8</ele>
        <time>2015-09-20T08:47:45Z</time>
      </trkpt>
      <trkpt lat="44.60383" lon="2.57809">
        <ele>687.6</ele>
        <time>2015-09-20T08:47:48Z</time>
      </trkpt>
      <trkpt lat="44.60384" lon="2.57793">
        <ele>687.5</ele>
        <time>2015-09-20T08:47:51Z</time>
      </trkpt>
      <trkpt lat="44.60385" lon="2.57776">
        <ele>687.4</ele>
        <time>2015-09-20T08:47:54Z</time>
      </trkpt>
      <trkpt lat="44.60385" lon="2.57762">
        <ele>687.3</ele>
        <time>2015-09-20T08:47:56Z</time>
      </trkpt>
      <trkpt lat="44.60386" lon="2.57748">
        <ele>687.1</ele>
        <time>2015-09-20T08:47:58Z</time>
      </trkpt>
      <trkpt lat="44.60388" lon="2.57729">
        <ele>686.7</ele>
        <time>2015-09-20T08:48:01Z</time>
      </trkpt>
      <trkpt lat="44.60388" lon="2.57715">
        <ele>686.4</ele>
        <time>2015-09-20T08:48:03Z</time>
      </trkpt>
      <trkpt lat="44.60389" lon="2.577">
        <ele>686.1</ele>
        <time>2015-09-20T08:48:05Z</time>
      </trkpt>
      <trkpt lat="44.60389" lon="2.57687">
        <ele>685.9</ele>
        <time>2015-09-20T08:48:07Z</time>
      </trkpt>
      <trkpt lat="44.60389" lon="2.57674">
        <ele>685.7</ele>
        <time>2015-09-20T08:48:09Z</time>
      </trkpt>
      <trkpt lat="44.60389" lon="2.57659">
        <ele>685.4</ele>
        <time>2015-09-20T08:48:11Z</time>
      </trkpt>
      <trkpt lat="44.60388" lon="2.57644">
        <ele>685.1</ele>
        <time>2015-09-20T08:48:13Z</time>
      </trkpt>
      <trkpt lat="44.60388" lon="2.57629">
        <ele>684.9</ele>
        <time>2015-09-20T08:48:15Z</time>
      </trkpt>
      <trkpt lat="44.60389" lon="2.57614">
        <ele>684.7</ele>
        <time>2015-09-20T08:48:17Z</time>
      </trkpt>
      <trkpt lat="44.60389" lon="2.57599">
        <ele>684.6</ele>
        <time>2015-09-20T08:48:19Z</time>
      </trkpt>
      <trkpt lat="44.60389" lon="2.57584">
        <ele>684.4</ele>
        <time>2015-09-20T08:48:21Z</time>
      </trkpt>
      <trkpt lat="44.60388" lon="2.5757">
        <ele>684.3</ele>
        <time>2015-09-20T08:48:23Z</time>
      </trkpt>
      <trkpt lat="44.60387" lon="2.57557">
        <ele>684.2</ele>
        <time>2015-09-20T08:48:25Z</time>
      </trkpt>
      <trkpt lat="44.60385" lon="2.57539">
        <ele>684</ele>
        <time>2015-09-20T08:48:28Z</time>
      </trkpt>
      <trkpt lat="44.60382" lon="2.57521">
        <ele>683.9</ele>
        <time>2015-09-20T08:48:31Z</time>
      </trkpt>
      <trkpt lat="44.60378" lon="2.57504">
        <ele>683.8</ele>
        <time>2015-09-20T08:48:34Z</time>
      </trkpt>
      <trkpt lat="44.60376" lon="2.57488">
        <ele>683.8</ele>
        <time>2015-09-20T08:48:37Z</time>
      </trkpt>
      <trkpt lat="44.60376" lon="2.57473">
        <ele>683.9</ele>
        <time>2015-09-20T08:48:40Z</time>
      </trkpt>
      <trkpt lat="44.60377" lon="2.57458">
        <ele>683.9</ele>
        <time>2015-09-20T08:48:43Z</time>
      </trkpt>
      <trkpt lat="44.60377" lon="2.57444">
        <ele>684</ele>
        <time>2015-09-20T08:48:46Z</time>
      </trkpt>
      <trkpt lat="44.60376" lon="2.5743">
        <ele>684.2</ele>
        <time>2015-09-20T08:48:51Z</time>
      </trkpt>
      <trkpt lat="44.60376" lon="2.57414">
        <ele>684.4</ele>
        <time>2015-09-20T08:48:56Z</time>
      </trkpt>
      <trkpt lat="44.60375" lon="2.57394">
        <ele>684.3</ele>
        <time>2015-09-20T08:48:59Z</time>
      </trkpt>
      <trkpt lat="44.60375" lon="2.57375">
        <ele>684.2</ele>
        <time>2015-09-20T08:49:01Z</time>
      </trkpt>
      <trkpt lat="44.60377" lon="2.57355">
        <ele>684.1</ele>
        <time>2015-09-20T08:49:03Z</time>
      </trkpt>
      <trkpt lat="44.60379" lon="2.57337">
        <ele>683.8</ele>
        <time>2015-09-20T08:49:05Z</time>
      </trkpt>
      <trkpt lat="44.60379" lon="2.57312">
        <ele>683.5</ele>
        <time>2015-09-20T08:49:07Z</time>
      </trkpt>
      <trkpt lat="44.6038" lon="2.57295">
        <ele>683.1</ele>
        <time>2015-09-20T08:49:09Z</time>
      </trkpt>
      <trkpt lat="44.60381" lon="2.5728">
        <ele>682.7</ele>
        <time>2015-09-20T08:49:11Z</time>
      </trkpt>
      <trkpt lat="44.60384" lon="2.57259">
        <ele>682</ele>
        <time>2015-09-20T08:49:14Z</time>
      </trkpt>
      <trkpt lat="44.60386" lon="2.57245">
        <ele>681.5</ele>
        <time>2015-09-20T08:49:16Z</time>
      </trkpt>
      <trkpt lat="44.60391" lon="2.5723">
        <ele>681</ele>
        <time>2015-09-20T08:49:18Z</time>
      </trkpt>
      <trkpt lat="44.60396" lon="2.57212">
        <ele>680.6</ele>
        <time>2015-09-20T08:49:20Z</time>
      </trkpt>
      <trkpt lat="44.604" lon="2.57195">
        <ele>680</ele>
        <time>2015-09-20T08:49:22Z</time>
      </trkpt>
      <trkpt lat="44.604" lon="2.57172">
        <ele>679.3</ele>
        <time>2015-09-20T08:49:24Z</time>
      </trkpt>
      <trkpt lat="44.60398" lon="2.5716">
        <ele>678.9</ele>
        <time>2015-09-20T08:49:25Z</time>
      </trkpt>
      <trkpt lat="44.6039" lon="2.57143">
        <ele>678</ele>
        <time>2015-09-20T08:49:27Z</time>
      </trkpt>
      <trkpt lat="44.60382" lon="2.57128">
        <ele>677.1</ele>
        <time>2015-09-20T08:49:29Z</time>
      </trkpt>
      <trkpt lat="44.60373" lon="2.57117">
        <ele>676.1</ele>
        <time>2015-09-20T08:49:31Z</time>
      </trkpt>
      <trkpt lat="44.60362" lon="2.57104">
        <ele>675.1</ele>
        <time>2015-09-20T08:49:33Z</time>
      </trkpt>
      <trkpt lat="44.6035" lon="2.57089">
        <ele>673.9</ele>
        <time>2015-09-20T08:49:35Z</time>
      </trkpt>
      <trkpt lat="44.60338" lon="2.57075">
        <ele>672.7</ele>
        <time>2015-09-20T08:49:37Z</time>
      </trkpt>
      <trkpt lat="44.60332" lon="2.57058">
        <ele>671.5</ele>
        <time>2015-09-20T08:49:39Z</time>
      </trkpt>
      <trkpt lat="44.6033" lon="2.57036">
        <ele>670.2</ele>
        <time>2015-09-20T08:49:41Z</time>
      </trkpt>
      <trkpt lat="44.60329" lon="2.57023">
        <ele>669.5</ele>
        <time>2015-09-20T08:49:42Z</time>
      </trkpt>
      <trkpt lat="44.60328" lon="2.57009">
        <ele>668.7</ele>
        <time>2015-09-20T08:49:43Z</time>
      </trkpt>
      <trkpt lat="44.60329" lon="2.56996">
        <ele>668</ele>
        <time>2015-09-20T08:49:44Z</time>
      </trkpt>
      <trkpt lat="44.6033" lon="2.56976">
        <ele>666.5</ele>
        <time>2015-09-20T08:49:46Z</time>
      </trkpt>
      <trkpt lat="44.60335" lon="2.56964">
        <ele>664.4</ele>
        <time>2015-09-20T08:49:49Z</time>
      </trkpt>
      <trkpt lat="44.60336" lon="2.56948">
        <ele>662</ele>
        <time>2015-09-20T08:49:53Z</time>
      </trkpt>
      <trkpt lat="44.60338" lon="2.56933">
        <ele>660.1</ele>
        <time>2015-09-20T08:49:57Z</time>
      </trkpt>
      <trkpt lat="44.6034" lon="2.5692">
        <ele>658.7</ele>
        <time>2015-09-20T08:50:01Z</time>
      </trkpt>
      <trkpt lat="44.60341" lon="2.56907">
        <ele>657.8</ele>
        <time>2015-09-20T08:50:04Z</time>
      </trkpt>
      <trkpt lat="44.60344" lon="2.56894">
        <ele>656.9</ele>
        <time>2015-09-20T08:50:08Z</time>
      </trkpt>
      <trkpt lat="44.60347" lon="2.56881">
        <ele>656.2</ele>
        <time>2015-09-20T08:50:12Z</time>
      </trkpt>
      <trkpt lat="44.60352" lon="2.56869">
        <ele>655.7</ele>
        <time>2015-09-20T08:50:16Z</time>
      </trkpt>
      <trkpt lat="44.60357" lon="2.56855">
        <ele>655.4</ele>
        <time>2015-09-20T08:50:22Z</time>
      </trkpt>
      <trkpt lat="44.60361" lon="2.56843">
        <ele>655.3</ele>
        <time>2015-09-20T08:50:25Z</time>
      </trkpt>
      <trkpt lat="44.60366" lon="2.56825">
        <ele>655.3</ele>
        <time>2015-09-20T08:50:28Z</time>
      </trkpt>
      <trkpt lat="44.60368" lon="2.56813">
        <ele>655.3</ele>
        <time>2015-09-20T08:50:30Z</time>
      </trkpt>
      <trkpt lat="44.60372" lon="2.56795">
        <ele>655.3</ele>
        <time>2015-09-20T08:50:33Z</time>
      </trkpt>
      <trkpt lat="44.60375" lon="2.56782">
        <ele>655.2</ele>
        <time>2015-09-20T08:50:35Z</time>
      </trkpt>
      <trkpt lat="44.60376" lon="2.56767">
        <ele>655.2</ele>
        <time>2015-09-20T08:50:37Z</time>
      </trkpt>
      <trkpt lat="44.60376" lon="2.56751">
        <ele>655.1</ele>
        <time>2015-09-20T08:50:39Z</time>
      </trkpt>
      <trkpt lat="44.60375" lon="2.56734">
        <ele>655</ele>
        <time>2015-09-20T08:50:41Z</time>
      </trkpt>
      <trkpt lat="44.60374" lon="2.56717">
        <ele>654.8</ele>
        <time>2015-09-20T08:50:43Z</time>
      </trkpt>
      <trkpt lat="44.60372" lon="2.567">
        <ele>654.6</ele>
        <time>2015-09-20T08:50:45Z</time>
      </trkpt>
      <trkpt lat="44.60371" lon="2.56683">
        <ele>654.4</ele>
        <time>2015-09-20T08:50:47Z</time>
      </trkpt>
      <trkpt lat="44.6037" lon="2.56665">
        <ele>654.2</ele>
        <time>2015-09-20T08:50:49Z</time>
      </trkpt>
      <trkpt lat="44.60368" lon="2.56647">
        <ele>653.9</ele>
        <time>2015-09-20T08:50:51Z</time>
      </trkpt>
      <trkpt lat="44.60367" lon="2.56629">
        <ele>653.7</ele>
        <time>2015-09-20T08:50:53Z</time>
      </trkpt>
      <trkpt lat="44.60365" lon="2.56611">
        <ele>653.6</ele>
        <time>2015-09-20T08:50:55Z</time>
      </trkpt>
      <trkpt lat="44.60364" lon="2.56593">
        <ele>653.4</ele>
        <time>2015-09-20T08:50:57Z</time>
      </trkpt>
      <trkpt lat="44.60363" lon="2.56576">
        <ele>653.2</ele>
        <time>2015-09-20T08:50:59Z</time>
      </trkpt>
      <trkpt lat="44.60361" lon="2.56558">
        <ele>653.1</ele>
        <time>2015-09-20T08:51:01Z</time>
      </trkpt>
      <trkpt lat="44.60361" lon="2.5654">
        <ele>652.9</ele>
        <time>2015-09-20T08:51:03Z</time>
      </trkpt>
      <trkpt lat="44.60361" lon="2.56523">
        <ele>652.8</ele>
        <time>2015-09-20T08:51:05Z</time>
      </trkpt>
      <trkpt lat="44.60363" lon="2.56507">
        <ele>652.7</ele>
        <time>2015-09-20T08:51:07Z</time>
      </trkpt>
      <trkpt lat="44.60365" lon="2.56491">
        <ele>652.6</ele>
        <time>2015-09-20T08:51:09Z</time>
      </trkpt>
      <trkpt lat="44.60369" lon="2.56476">
        <ele>652.4</ele>
        <time>2015-09-20T08:51:11Z</time>
      </trkpt>
      <trkpt lat="44.60374" lon="2.5646">
        <ele>652.2</ele>
        <time>2015-09-20T08:51:13Z</time>
      </trkpt>
      <trkpt lat="44.60379" lon="2.56445">
        <ele>652</ele>
        <time>2015-09-20T08:51:15Z</time>
      </trkpt>
      <trkpt lat="44.60385" lon="2.56431">
        <ele>651.8</ele>
        <time>2015-09-20T08:51:17Z</time>
      </trkpt>
      <trkpt lat="44.60386" lon="2.56418">
        <ele>651.5</ele>
        <time>2015-09-20T08:51:20Z</time>
      </trkpt>
      <trkpt lat="44.6038" lon="2.5643">
        <ele>651</ele>
        <time>2015-09-20T08:51:25Z</time>
      </trkpt>
      <trkpt lat="44.60374" lon="2.56441">
        <ele>650.6</ele>
        <time>2015-09-20T08:51:31Z</time>
      </trkpt>
      <trkpt lat="44.60383" lon="2.56438">
        <ele>649.8</ele>
        <time>2015-09-20T08:52:05Z</time>
      </trkpt>
      <trkpt lat="44.60386" lon="2.56424">
        <ele>649.7</ele>
        <time>2015-09-20T08:52:19Z</time>
      </trkpt>
      <trkpt lat="44.60392" lon="2.56412">
        <ele>649.7</ele>
        <time>2015-09-20T08:52:22Z</time>
      </trkpt>
      <trkpt lat="44.60398" lon="2.564">
        <ele>649.7</ele>
        <time>2015-09-20T08:52:25Z</time>
      </trkpt>
      <trkpt lat="44.60404" lon="2.56387">
        <ele>649.7</ele>
        <time>2015-09-20T08:52:29Z</time>
      </trkpt>
      <trkpt lat="44.60409" lon="2.56375">
        <ele>649.7</ele>
        <time>2015-09-20T08:52:35Z</time>
      </trkpt>
      <trkpt lat="44.6041" lon="2.5636">
        <ele>649.7</ele>
        <time>2015-09-20T08:52:43Z</time>
      </trkpt>
      <trkpt lat="44.60412" lon="2.56347">
        <ele>649.7</ele>
        <time>2015-09-20T08:52:50Z</time>
      </trkpt>
      <trkpt lat="44.60412" lon="2.56333">
        <ele>649.7</ele>
        <time>2015-09-20T08:52:57Z</time>
      </trkpt>
      <trkpt lat="44.60411" lon="2.5632">
        <ele>649.7</ele>
        <time>2015-09-20T08:53:02Z</time>
      </trkpt>
      <trkpt lat="44.6041" lon="2.56305">
        <ele>649.7</ele>
        <time>2015-09-20T08:53:06Z</time>
      </trkpt>
      <trkpt lat="44.60409" lon="2.56291">
        <ele>649.8</ele>
        <time>2015-09-20T08:53:10Z</time>
      </trkpt>
      <trkpt lat="44.60407" lon="2.56277">
        <ele>649.9</ele>
        <time>2015-09-20T08:53:13Z</time>
      </trkpt>
      <trkpt lat="44.60404" lon="2.56264">
        <ele>650.2</ele>
        <time>2015-09-20T08:53:16Z</time>
      </trkpt>
      <trkpt lat="44.60401" lon="2.5625">
        <ele>650.4</ele>
        <time>2015-09-20T08:53:19Z</time>
      </trkpt>
      <trkpt lat="44.60398" lon="2.56237">
        <ele>650.7</ele>
        <time>2015-09-20T08:53:22Z</time>
      </trkpt>
      <trkpt lat="44.60397" lon="2.56222">
        <ele>651</ele>
        <time>2015-09-20T08:53:26Z</time>
      </trkpt>
      <trkpt lat="44.60397" lon="2.56208">
        <ele>651.4</ele>
        <time>2015-09-20T08:53:30Z</time>
      </trkpt>
      <trkpt lat="44.60397" lon="2.56193">
        <ele>651.8</ele>
        <time>2015-09-20T08:53:34Z</time>
      </trkpt>
      <trkpt lat="44.60397" lon="2.56178">
        <ele>652.2</ele>
        <time>2015-09-20T08:53:38Z</time>
      </trkpt>
      <trkpt lat="44.604" lon="2.56163">
        <ele>652.4</ele>
        <time>2015-09-20T08:53:41Z</time>
      </trkpt>
      <trkpt lat="44.60403" lon="2.56148">
        <ele>652.6</ele>
        <time>2015-09-20T08:53:44Z</time>
      </trkpt>
      <trkpt lat="44.60407" lon="2.56133">
        <ele>652.9</ele>
        <time>2015-09-20T08:53:47Z</time>
      </trkpt>
      <trkpt lat="44.6041" lon="2.56119">
        <ele>653.1</ele>
        <time>2015-09-20T08:53:50Z</time>
      </trkpt>
      <trkpt lat="44.60412" lon="2.56104">
        <ele>653.4</ele>
        <time>2015-09-20T08:53:53Z</time>
      </trkpt>
      <trkpt lat="44.60413" lon="2.56089">
        <ele>653.6</ele>
        <time>2015-09-20T08:53:56Z</time>
      </trkpt>
      <trkpt lat="44.60414" lon="2.56074">
        <ele>653.8</ele>
        <time>2015-09-20T08:53:59Z</time>
      </trkpt>
      <trkpt lat="44.60415" lon="2.56059">
        <ele>654.1</ele>
        <time>2015-09-20T08:54:02Z</time>
      </trkpt>
      <trkpt lat="44.60415" lon="2.56043">
        <ele>654.4</ele>
        <time>2015-09-20T08:54:05Z</time>
      </trkpt>
      <trkpt lat="44.60415" lon="2.56028">
        <ele>654.6</ele>
        <time>2015-09-20T08:54:08Z</time>
      </trkpt>
      <trkpt lat="44.60416" lon="2.56014">
        <ele>654.8</ele>
        <time>2015-09-20T08:54:11Z</time>
      </trkpt>
      <trkpt lat="44.60417" lon="2.56">
        <ele>655</ele>
        <time>2015-09-20T08:54:14Z</time>
      </trkpt>
      <trkpt lat="44.60418" lon="2.55983">
        <ele>655.3</ele>
        <time>2015-09-20T08:54:18Z</time>
      </trkpt>
      <trkpt lat="44.60418" lon="2.55969">
        <ele>655.5</ele>
        <time>2015-09-20T08:54:21Z</time>
      </trkpt>
      <trkpt lat="44.6042" lon="2.55955">
        <ele>655.7</ele>
        <time>2015-09-20T08:54:24Z</time>
      </trkpt>
      <trkpt lat="44.60421" lon="2.55942">
        <ele>655.9</ele>
        <time>2015-09-20T08:54:27Z</time>
      </trkpt>
      <trkpt lat="44.60421" lon="2.55928">
        <ele>656.2</ele>
        <time>2015-09-20T08:54:30Z</time>
      </trkpt>
      <trkpt lat="44.60421" lon="2.55914">
        <ele>656.4</ele>
        <time>2015-09-20T08:54:33Z</time>
      </trkpt>
      <trkpt lat="44.60423" lon="2.55901">
        <ele>656.7</ele>
        <time>2015-09-20T08:54:36Z</time>
      </trkpt>
      <trkpt lat="44.60426" lon="2.55888">
        <ele>656.9</ele>
        <time>2015-09-20T08:54:39Z</time>
      </trkpt>
      <trkpt lat="44.60431" lon="2.55875">
        <ele>657.2</ele>
        <time>2015-09-20T08:54:42Z</time>
      </trkpt>
      <trkpt lat="44.60436" lon="2.55861">
        <ele>657.4</ele>
        <time>2015-09-20T08:54:45Z</time>
      </trkpt>
      <trkpt lat="44.60442" lon="2.55848">
        <ele>657.6</ele>
        <time>2015-09-20T08:54:48Z</time>
      </trkpt>
      <trkpt lat="44.6045" lon="2.55837">
        <ele>657.8</ele>
        <time>2015-09-20T08:54:51Z</time>
      </trkpt>
      <trkpt lat="44.60459" lon="2.55829">
        <ele>658</ele>
        <time>2015-09-20T08:54:54Z</time>
      </trkpt>
      <trkpt lat="44.60468" lon="2.55823">
        <ele>658.2</ele>
        <time>2015-09-20T08:54:57Z</time>
      </trkpt>
      <trkpt lat="44.60477" lon="2.55819">
        <ele>658.4</ele>
        <time>2015-09-20T08:55:00Z</time>
      </trkpt>
      <trkpt lat="44.60487" lon="2.55813">
        <ele>658.6</ele>
        <time>2015-09-20T08:55:03Z</time>
      </trkpt>
      <trkpt lat="44.60497" lon="2.55808">
        <ele>658.7</ele>
        <time>2015-09-20T08:55:06Z</time>
      </trkpt>
      <trkpt lat="44.60506" lon="2.55802">
        <ele>658.8</ele>
        <time>2015-09-20T08:55:09Z</time>
      </trkpt>
      <trkpt lat="44.60516" lon="2.558">
        <ele>659</ele>
        <time>2015-09-20T08:55:13Z</time>
      </trkpt>
      <trkpt lat="44.60526" lon="2.55795">
        <ele>659.1</ele>
        <time>2015-09-20T08:55:17Z</time>
      </trkpt>
      <trkpt lat="44.60534" lon="2.55792">
        <ele>659.2</ele>
        <time>2015-09-20T08:55:21Z</time>
      </trkpt>
      <trkpt lat="44.60543" lon="2.55787">
        <ele>659.3</ele>
        <time>2015-09-20T08:55:26Z</time>
      </trkpt>
      <trkpt lat="44.60553" lon="2.55781">
        <ele>659.4</ele>
        <time>2015-09-20T08:55:32Z</time>
      </trkpt>
      <trkpt lat="44.60563" lon="2.55778">
        <ele>659.4</ele>
        <time>2015-09-20T08:55:36Z</time>
      </trkpt>
      <trkpt lat="44.60571" lon="2.55773">
        <ele>659.4</ele>
        <time>2015-09-20T08:55:40Z</time>
      </trkpt>
      <trkpt lat="44.60581" lon="2.5577">
        <ele>659.7</ele>
        <time>2015-09-20T08:55:45Z</time>
      </trkpt>
      <trkpt lat="44.60582" lon="2.55756">
        <ele>659.7</ele>
        <time>2015-09-20T08:56:50Z</time>
      </trkpt>
      <trkpt lat="44.60577" lon="2.55741">
        <ele>659.4</ele>
        <time>2015-09-20T08:56:54Z</time>
      </trkpt>
      <trkpt lat="44.60576" lon="2.55724">
        <ele>658.9</ele>
        <time>2015-09-20T08:56:57Z</time>
      </trkpt>
      <trkpt lat="44.60582" lon="2.55712">
        <ele>658.5</ele>
        <time>2015-09-20T08:56:59Z</time>
      </trkpt>
      <trkpt lat="44.60586" lon="2.557">
        <ele>657.7</ele>
        <time>2015-09-20T08:57:02Z</time>
      </trkpt>
      <trkpt lat="44.60577" lon="2.55689">
        <ele>656.7</ele>
        <time>2015-09-20T08:57:05Z</time>
      </trkpt>
      <trkpt lat="44.60566" lon="2.55686">
        <ele>656</ele>
        <time>2015-09-20T08:57:07Z</time>
      </trkpt>
      <trkpt lat="44.60557" lon="2.55675">
        <ele>655.2</ele>
        <time>2015-09-20T08:57:09Z</time>
      </trkpt>
      <trkpt lat="44.60551" lon="2.55658">
        <ele>654.4</ele>
        <time>2015-09-20T08:57:11Z</time>
      </trkpt>
      <trkpt lat="44.60545" lon="2.55641">
        <ele>653.5</ele>
        <time>2015-09-20T08:57:13Z</time>
      </trkpt>
      <trkpt lat="44.6054" lon="2.55624">
        <ele>652.7</ele>
        <time>2015-09-20T08:57:15Z</time>
      </trkpt>
      <trkpt lat="44.60536" lon="2.55613">
        <ele>651.6</ele>
        <time>2015-09-20T08:57:18Z</time>
      </trkpt>
      <trkpt lat="44.60532" lon="2.556">
        <ele>650.1</ele>
        <time>2015-09-20T08:57:23Z</time>
      </trkpt>
      <trkpt lat="44.6053" lon="2.55584">
        <ele>649.1</ele>
        <time>2015-09-20T08:57:26Z</time>
      </trkpt>
      <trkpt lat="44.60526" lon="2.55567">
        <ele>648.2</ele>
        <time>2015-09-20T08:57:28Z</time>
      </trkpt>
      <trkpt lat="44.60521" lon="2.55546">
        <ele>647</ele>
        <time>2015-09-20T08:57:30Z</time>
      </trkpt>
      <trkpt lat="44.60518" lon="2.55525">
        <ele>645.8</ele>
        <time>2015-09-20T08:57:32Z</time>
      </trkpt>
      <trkpt lat="44.60513" lon="2.55503">
        <ele>644.3</ele>
        <time>2015-09-20T08:57:34Z</time>
      </trkpt>
      <trkpt lat="44.6051" lon="2.55483">
        <ele>643</ele>
        <time>2015-09-20T08:57:36Z</time>
      </trkpt>
      <trkpt lat="44.60506" lon="2.55463">
        <ele>641.5</ele>
        <time>2015-09-20T08:57:38Z</time>
      </trkpt>
      <trkpt lat="44.60502" lon="2.55445">
        <ele>640.2</ele>
        <time>2015-09-20T08:57:40Z</time>
      </trkpt>
      <trkpt lat="44.60495" lon="2.55431">
        <ele>638.9</ele>
        <time>2015-09-20T08:57:42Z</time>
      </trkpt>
      <trkpt lat="44.60491" lon="2.55419">
        <ele>637.6</ele>
        <time>2015-09-20T08:57:44Z</time>
      </trkpt>
      <trkpt lat="44.60487" lon="2.55407">
        <ele>636.2</ele>
        <time>2015-09-20T08:57:46Z</time>
      </trkpt>
      <trkpt lat="44.60484" lon="2.55392">
        <ele>634.3</ele>
        <time>2015-09-20T08:57:49Z</time>
      </trkpt>
      <trkpt lat="44.6048" lon="2.55377">
        <ele>632.5</ele>
        <time>2015-09-20T08:57:52Z</time>
      </trkpt>
      <trkpt lat="44.60478" lon="2.55364">
        <ele>630.6</ele>
        <time>2015-09-20T08:57:56Z</time>
      </trkpt>
      <trkpt lat="44.60475" lon="2.55349">
        <ele>628.3</ele>
        <time>2015-09-20T08:58:01Z</time>
      </trkpt>
      <trkpt lat="44.60468" lon="2.55334">
        <ele>627.1</ele>
        <time>2015-09-20T08:58:04Z</time>
      </trkpt>
      <trkpt lat="44.60462" lon="2.55324">
        <ele>626.3</ele>
        <time>2015-09-20T08:58:06Z</time>
      </trkpt>
      <trkpt lat="44.60455" lon="2.55313">
        <ele>625.7</ele>
        <time>2015-09-20T08:58:08Z</time>
      </trkpt>
      <trkpt lat="44.60447" lon="2.55304">
        <ele>625</ele>
        <time>2015-09-20T08:58:10Z</time>
      </trkpt>
      <trkpt lat="44.60438" lon="2.55296">
        <ele>624.5</ele>
        <time>2015-09-20T08:58:12Z</time>
      </trkpt>
      <trkpt lat="44.60429" lon="2.55289">
        <ele>623.9</ele>
        <time>2015-09-20T08:58:14Z</time>
      </trkpt>
      <trkpt lat="44.6042" lon="2.55282">
        <ele>623.3</ele>
        <time>2015-09-20T08:58:16Z</time>
      </trkpt>
      <trkpt lat="44.60413" lon="2.55275">
        <ele>622.9</ele>
        <time>2015-09-20T08:58:18Z</time>
      </trkpt>
      <trkpt lat="44.6041" lon="2.55259">
        <ele>622</ele>
        <time>2015-09-20T08:58:22Z</time>
      </trkpt>
      <trkpt lat="44.60412" lon="2.55243">
        <ele>621.3</ele>
        <time>2015-09-20T08:58:26Z</time>
      </trkpt>
      <trkpt lat="44.60414" lon="2.5523">
        <ele>620.8</ele>
        <time>2015-09-20T08:58:30Z</time>
      </trkpt>
      <trkpt lat="44.6042" lon="2.5522">
        <ele>620.1</ele>
        <time>2015-09-20T08:58:51Z</time>
      </trkpt>
      <trkpt lat="44.6043" lon="2.55213">
        <ele>620.1</ele>
        <time>2015-09-20T08:58:57Z</time>
      </trkpt>
      <trkpt lat="44.60437" lon="2.552">
        <ele>620.1</ele>
        <time>2015-09-20T08:59:01Z</time>
      </trkpt>
      <trkpt lat="44.60441" lon="2.55188">
        <ele>620.1</ele>
        <time>2015-09-20T08:59:04Z</time>
      </trkpt>
      <trkpt lat="44.60444" lon="2.55174">
        <ele>620.1</ele>
        <time>2015-09-20T08:59:08Z</time>
      </trkpt>
      <trkpt lat="44.60445" lon="2.55154">
        <ele>620.1</ele>
        <time>2015-09-20T08:59:11Z</time>
      </trkpt>
      <trkpt lat="44.60447" lon="2.55139">
        <ele>620.2</ele>
        <time>2015-09-20T08:59:14Z</time>
      </trkpt>
      <trkpt lat="44.60451" lon="2.55127">
        <ele>620.3</ele>
        <time>2015-09-20T08:59:17Z</time>
      </trkpt>
      <trkpt lat="44.60453" lon="2.55114">
        <ele>620.3</ele>
        <time>2015-09-20T08:59:20Z</time>
      </trkpt>
      <trkpt lat="44.60453" lon="2.55099">
        <ele>620.4</ele>
        <time>2015-09-20T08:59:23Z</time>
      </trkpt>
      <trkpt lat="44.60452" lon="2.55084">
        <ele>620.4</ele>
        <time>2015-09-20T08:59:25Z</time>
      </trkpt>
      <trkpt lat="44.60451" lon="2.55069">
        <ele>620.3</ele>
        <time>2015-09-20T08:59:28Z</time>
      </trkpt>
      <trkpt lat="44.60444" lon="2.55054">
        <ele>620.2</ele>
        <time>2015-09-20T08:59:31Z</time>
      </trkpt>
      <trkpt lat="44.60438" lon="2.55044">
        <ele>620.1</ele>
        <time>2015-09-20T08:59:33Z</time>
      </trkpt>
      <trkpt lat="44.60429" lon="2.55036">
        <ele>619.8</ele>
        <time>2015-09-20T08:59:35Z</time>
      </trkpt>
      <trkpt lat="44.60419" lon="2.55028">
        <ele>619.6</ele>
        <time>2015-09-20T08:59:37Z</time>
      </trkpt>
      <trkpt lat="44.60406" lon="2.5502">
        <ele>619.3</ele>
        <time>2015-09-20T08:59:39Z</time>
      </trkpt>
      <trkpt lat="44.60394" lon="2.55012">
        <ele>619</ele>
        <time>2015-09-20T08:59:41Z</time>
      </trkpt>
      <trkpt lat="44.60381" lon="2.55007">
        <ele>618.8</ele>
        <time>2015-09-20T08:59:43Z</time>
      </trkpt>
      <trkpt lat="44.60368" lon="2.54999">
        <ele>618.5</ele>
        <time>2015-09-20T08:59:45Z</time>
      </trkpt>
      <trkpt lat="44.60357" lon="2.54991">
        <ele>618</ele>
        <time>2015-09-20T08:59:47Z</time>
      </trkpt>
      <trkpt lat="44.60349" lon="2.54981">
        <ele>617.7</ele>
        <time>2015-09-20T08:59:49Z</time>
      </trkpt>
      <trkpt lat="44.60344" lon="2.54968">
        <ele>617.4</ele>
        <time>2015-09-20T08:59:51Z</time>
      </trkpt>
      <trkpt lat="44.60339" lon="2.5495">
        <ele>617.1</ele>
        <time>2015-09-20T08:59:53Z</time>
      </trkpt>
      <trkpt lat="44.60338" lon="2.54929">
        <ele>616.7</ele>
        <time>2015-09-20T08:59:55Z</time>
      </trkpt>
      <trkpt lat="44.60337" lon="2.54907">
        <ele>616.2</ele>
        <time>2015-09-20T08:59:57Z</time>
      </trkpt>
      <trkpt lat="44.60335" lon="2.54885">
        <ele>615.7</ele>
        <time>2015-09-20T08:59:59Z</time>
      </trkpt>
      <trkpt lat="44.60331" lon="2.54861">
        <ele>615.3</ele>
        <time>2015-09-20T09:00:01Z</time>
      </trkpt>
      <trkpt lat="44.60327" lon="2.54849">
        <ele>615.1</ele>
        <time>2015-09-20T09:00:02Z</time>
      </trkpt>
      <trkpt lat="44.60323" lon="2.54836">
        <ele>615</ele>
        <time>2015-09-20T09:00:03Z</time>
      </trkpt>
      <trkpt lat="44.60317" lon="2.54814">
        <ele>614.5</ele>
        <time>2015-09-20T09:00:05Z</time>
      </trkpt>
      <trkpt lat="44.60311" lon="2.54797">
        <ele>614.2</ele>
        <time>2015-09-20T09:00:07Z</time>
      </trkpt>
      <trkpt lat="44.60306" lon="2.54782">
        <ele>613.8</ele>
        <time>2015-09-20T09:00:09Z</time>
      </trkpt>
      <trkpt lat="44.60301" lon="2.54766">
        <ele>613.5</ele>
        <time>2015-09-20T09:00:11Z</time>
      </trkpt>
      <trkpt lat="44.60296" lon="2.54752">
        <ele>613.2</ele>
        <time>2015-09-20T09:00:13Z</time>
      </trkpt>
      <trkpt lat="44.60292" lon="2.54739">
        <ele>613</ele>
        <time>2015-09-20T09:00:15Z</time>
      </trkpt>
      <trkpt lat="44.60287" lon="2.54725">
        <ele>612.7</ele>
        <time>2015-09-20T09:00:17Z</time>
      </trkpt>
      <trkpt lat="44.60285" lon="2.54707">
        <ele>612.5</ele>
        <time>2015-09-20T09:00:20Z</time>
      </trkpt>
      <trkpt lat="44.60284" lon="2.54693">
        <ele>612.3</ele>
        <time>2015-09-20T09:00:22Z</time>
      </trkpt>
      <trkpt lat="44.60277" lon="2.54682">
        <ele>612.1</ele>
        <time>2015-09-20T09:00:24Z</time>
      </trkpt>
      <trkpt lat="44.6027" lon="2.54671">
        <ele>611.8</ele>
        <time>2015-09-20T09:00:26Z</time>
      </trkpt>
      <trkpt lat="44.60263" lon="2.54657">
        <ele>611.4</ele>
        <time>2015-09-20T09:00:28Z</time>
      </trkpt>
      <trkpt lat="44.60253" lon="2.54639">
        <ele>610.9</ele>
        <time>2015-09-20T09:00:30Z</time>
      </trkpt>
      <trkpt lat="44.6024" lon="2.54623">
        <ele>610.4</ele>
        <time>2015-09-20T09:00:32Z</time>
      </trkpt>
      <trkpt lat="44.60226" lon="2.54611">
        <ele>609.8</ele>
        <time>2015-09-20T09:00:34Z</time>
      </trkpt>
      <trkpt lat="44.60217" lon="2.54605">
        <ele>609.3</ele>
        <time>2015-09-20T09:00:36Z</time>
      </trkpt>
      <trkpt lat="44.60206" lon="2.54603">
        <ele>608.1</ele>
        <time>2015-09-20T09:00:42Z</time>
      </trkpt>
      <trkpt lat="44.60197" lon="2.54606">
        <ele>607.6</ele>
        <time>2015-09-20T09:00:45Z</time>
      </trkpt>
      <trkpt lat="44.60188" lon="2.5461">
        <ele>607.2</ele>
        <time>2015-09-20T09:00:48Z</time>
      </trkpt>
      <trkpt lat="44.60176" lon="2.54611">
        <ele>606.8</ele>
        <time>2015-09-20T09:00:52Z</time>
      </trkpt>
      <trkpt lat="44.60167" lon="2.54608">
        <ele>606.6</ele>
        <time>2015-09-20T09:00:56Z</time>
      </trkpt>
      <trkpt lat="44.60157" lon="2.54602">
        <ele>606.5</ele>
        <time>2015-09-20T09:01:01Z</time>
      </trkpt>
      <trkpt lat="44.60148" lon="2.54595">
        <ele>606.7</ele>
        <time>2015-09-20T09:01:06Z</time>
      </trkpt>
      <trkpt lat="44.60139" lon="2.54589">
        <ele>607.2</ele>
        <time>2015-09-20T09:01:11Z</time>
      </trkpt>
      <trkpt lat="44.6013" lon="2.54583">
        <ele>608</ele>
        <time>2015-09-20T09:01:16Z</time>
      </trkpt>
      <trkpt lat="44.60122" lon="2.54576">
        <ele>608.9</ele>
        <time>2015-09-20T09:01:21Z</time>
      </trkpt>
      <trkpt lat="44.60113" lon="2.54569">
        <ele>610</ele>
        <time>2015-09-20T09:01:27Z</time>
      </trkpt>
      <trkpt lat="44.60105" lon="2.54559">
        <ele>610.9</ele>
        <time>2015-09-20T09:01:34Z</time>
      </trkpt>
      <trkpt lat="44.60103" lon="2.54545">
        <ele>611.5</ele>
        <time>2015-09-20T09:01:40Z</time>
      </trkpt>
      <trkpt lat="44.60104" lon="2.5453">
        <ele>611.9</ele>
        <time>2015-09-20T09:01:47Z</time>
      </trkpt>
      <trkpt lat="44.60104" lon="2.54517">
        <ele>612.2</ele>
        <time>2015-09-20T09:01:52Z</time>
      </trkpt>
      <trkpt lat="44.60104" lon="2.54505">
        <ele>612.4</ele>
        <time>2015-09-20T09:01:56Z</time>
      </trkpt>
      <trkpt lat="44.60104" lon="2.54491">
        <ele>612.7</ele>
        <time>2015-09-20T09:02:00Z</time>
      </trkpt>
      <trkpt lat="44.60104" lon="2.54478">
        <ele>613.1</ele>
        <time>2015-09-20T09:02:04Z</time>
      </trkpt>
      <trkpt lat="44.60106" lon="2.54464">
        <ele>613.5</ele>
        <time>2015-09-20T09:02:09Z</time>
      </trkpt>
      <trkpt lat="44.60106" lon="2.54448">
        <ele>614.1</ele>
        <time>2015-09-20T09:02:14Z</time>
      </trkpt>
      <trkpt lat="44.60107" lon="2.54435">
        <ele>614.9</ele>
        <time>2015-09-20T09:02:19Z</time>
      </trkpt>
      <trkpt lat="44.60108" lon="2.54421">
        <ele>615.8</ele>
        <time>2015-09-20T09:02:25Z</time>
      </trkpt>
      <trkpt lat="44.60108" lon="2.54408">
        <ele>617.1</ele>
        <time>2015-09-20T09:02:32Z</time>
      </trkpt>
      <trkpt lat="44.60108" lon="2.54394">
        <ele>618.4</ele>
        <time>2015-09-20T09:02:39Z</time>
      </trkpt>
      <trkpt lat="44.60108" lon="2.5438">
        <ele>619.9</ele>
        <time>2015-09-20T09:02:46Z</time>
      </trkpt>
      <trkpt lat="44.60108" lon="2.54367">
        <ele>621.5</ele>
        <time>2015-09-20T09:02:54Z</time>
      </trkpt>
      <trkpt lat="44.60107" lon="2.54353">
        <ele>622.8</ele>
        <time>2015-09-20T09:03:01Z</time>
      </trkpt>
      <trkpt lat="44.60109" lon="2.54339">
        <ele>623.8</ele>
        <time>2015-09-20T09:03:07Z</time>
      </trkpt>
      <trkpt lat="44.60109" lon="2.54326">
        <ele>624.8</ele>
        <time>2015-09-20T09:03:13Z</time>
      </trkpt>
      <trkpt lat="44.60109" lon="2.54312">
        <ele>625.9</ele>
        <time>2015-09-20T09:03:20Z</time>
      </trkpt>
      <trkpt lat="44.60108" lon="2.54299">
        <ele>627</ele>
        <time>2015-09-20T09:03:26Z</time>
      </trkpt>
      <trkpt lat="44.60108" lon="2.54283">
        <ele>627.9</ele>
        <time>2015-09-20T09:03:32Z</time>
      </trkpt>
      <trkpt lat="44.60106" lon="2.54271">
        <ele>628.5</ele>
        <time>2015-09-20T09:03:36Z</time>
      </trkpt>
      <trkpt lat="44.60103" lon="2.54256">
        <ele>629.1</ele>
        <time>2015-09-20T09:03:41Z</time>
      </trkpt>
      <trkpt lat="44.60101" lon="2.54243">
        <ele>629.6</ele>
        <time>2015-09-20T09:03:45Z</time>
      </trkpt>
      <trkpt lat="44.60098" lon="2.54229">
        <ele>630.2</ele>
        <time>2015-09-20T09:03:49Z</time>
      </trkpt>
      <trkpt lat="44.60096" lon="2.54217">
        <ele>630.7</ele>
        <time>2015-09-20T09:03:53Z</time>
      </trkpt>
      <trkpt lat="44.60094" lon="2.54202">
        <ele>631.2</ele>
        <time>2015-09-20T09:03:58Z</time>
      </trkpt>
      <trkpt lat="44.60091" lon="2.54186">
        <ele>631.6</ele>
        <time>2015-09-20T09:04:03Z</time>
      </trkpt>
      <trkpt lat="44.60089" lon="2.54174">
        <ele>631.9</ele>
        <time>2015-09-20T09:04:07Z</time>
      </trkpt>
      <trkpt lat="44.60085" lon="2.5416">
        <ele>632.3</ele>
        <time>2015-09-20T09:04:12Z</time>
      </trkpt>
      <trkpt lat="44.60083" lon="2.54146">
        <ele>632.8</ele>
        <time>2015-09-20T09:04:17Z</time>
      </trkpt>
      <trkpt lat="44.6008" lon="2.54131">
        <ele>633.3</ele>
        <time>2015-09-20T09:04:22Z</time>
      </trkpt>
      <trkpt lat="44.60079" lon="2.54116">
        <ele>633.7</ele>
        <time>2015-09-20T09:04:27Z</time>
      </trkpt>
      <trkpt lat="44.60077" lon="2.54104">
        <ele>634.2</ele>
        <time>2015-09-20T09:04:32Z</time>
      </trkpt>
      <trkpt lat="44.60081" lon="2.54091">
        <ele>635.9</ele>
        <time>2015-09-20T09:05:58Z</time>
      </trkpt>
      <trkpt lat="44.6008" lon="2.54075">
        <ele>635.9</ele>
        <time>2015-09-20T09:06:03Z</time>
      </trkpt>
      <trkpt lat="44.6008" lon="2.54062">
        <ele>636</ele>
        <time>2015-09-20T09:06:07Z</time>
      </trkpt>
      <trkpt lat="44.60078" lon="2.54047">
        <ele>636.3</ele>
        <time>2015-09-20T09:06:12Z</time>
      </trkpt>
      <trkpt lat="44.60076" lon="2.54031">
        <ele>636.9</ele>
        <time>2015-09-20T09:06:17Z</time>
      </trkpt>
      <trkpt lat="44.60075" lon="2.54019">
        <ele>637.6</ele>
        <time>2015-09-20T09:06:22Z</time>
      </trkpt>
      <trkpt lat="44.60072" lon="2.54006">
        <ele>638.2</ele>
        <time>2015-09-20T09:06:27Z</time>
      </trkpt>
      <trkpt lat="44.60069" lon="2.53992">
        <ele>638.8</ele>
        <time>2015-09-20T09:06:32Z</time>
      </trkpt>
      <trkpt lat="44.60064" lon="2.53981">
        <ele>639.3</ele>
        <time>2015-09-20T09:06:37Z</time>
      </trkpt>
      <trkpt lat="44.60059" lon="2.53969">
        <ele>639.8</ele>
        <time>2015-09-20T09:06:42Z</time>
      </trkpt>
      <trkpt lat="44.60054" lon="2.53959">
        <ele>640.3</ele>
        <time>2015-09-20T09:06:47Z</time>
      </trkpt>
      <trkpt lat="44.60049" lon="2.53948">
        <ele>640.8</ele>
        <time>2015-09-20T09:06:52Z</time>
      </trkpt>
      <trkpt lat="44.60043" lon="2.53938">
        <ele>641.4</ele>
        <time>2015-09-20T09:06:57Z</time>
      </trkpt>
      <trkpt lat="44.60038" lon="2.53927">
        <ele>642.1</ele>
        <time>2015-09-20T09:07:02Z</time>
      </trkpt>
      <trkpt lat="44.60033" lon="2.53916">
        <ele>643.1</ele>
        <time>2015-09-20T09:07:14Z</time>
      </trkpt>
      <trkpt lat="44.60028" lon="2.53905">
        <ele>644</ele>
        <time>2015-09-20T09:07:26Z</time>
      </trkpt>
      <trkpt lat="44.60022" lon="2.53895">
        <ele>644.9</ele>
        <time>2015-09-20T09:07:59Z</time>
      </trkpt>
      <trkpt lat="44.60017" lon="2.53885">
        <ele>645</ele>
        <time>2015-09-20T09:08:04Z</time>
      </trkpt>
      <trkpt lat="44.60011" lon="2.53873">
        <ele>645.3</ele>
        <time>2015-09-20T09:08:10Z</time>
      </trkpt>
      <trkpt lat="44.60006" lon="2.53861">
        <ele>645.7</ele>
        <time>2015-09-20T09:08:16Z</time>
      </trkpt>
      <trkpt lat="44.6" lon="2.5385">
        <ele>646</ele>
        <time>2015-09-20T09:08:22Z</time>
      </trkpt>
      <trkpt lat="44.59996" lon="2.53837">
        <ele>646.6</ele>
        <time>2015-09-20T09:08:28Z</time>
      </trkpt>
      <trkpt lat="44.5999" lon="2.53827">
        <ele>647.1</ele>
        <time>2015-09-20T09:08:32Z</time>
      </trkpt>
      <trkpt lat="44.59985" lon="2.53815">
        <ele>647.4</ele>
        <time>2015-09-20T09:08:36Z</time>
      </trkpt>
      <trkpt lat="44.5998" lon="2.53804">
        <ele>647.8</ele>
        <time>2015-09-20T09:08:40Z</time>
      </trkpt>
      <trkpt lat="44.59976" lon="2.5379">
        <ele>648.3</ele>
        <time>2015-09-20T09:08:45Z</time>
      </trkpt>
      <trkpt lat="44.59971" lon="2.53778">
        <ele>649.1</ele>
        <time>2015-09-20T09:08:50Z</time>
      </trkpt>
      <trkpt lat="44.59967" lon="2.53766">
        <ele>649.8</ele>
        <time>2015-09-20T09:08:56Z</time>
      </trkpt>
      <trkpt lat="44.59962" lon="2.53753">
        <ele>650.3</ele>
        <time>2015-09-20T09:09:02Z</time>
      </trkpt>
      <trkpt lat="44.59957" lon="2.53742">
        <ele>650.9</ele>
        <time>2015-09-20T09:09:08Z</time>
      </trkpt>
      <trkpt lat="44.59958" lon="2.53728">
        <ele>652.3</ele>
        <time>2015-09-20T09:09:33Z</time>
      </trkpt>
      <trkpt lat="44.59964" lon="2.53717">
        <ele>652.6</ele>
        <time>2015-09-20T09:09:39Z</time>
      </trkpt>
      <trkpt lat="44.59972" lon="2.53707">
        <ele>652.7</ele>
        <time>2015-09-20T09:09:44Z</time>
      </trkpt>
      <trkpt lat="44.59979" lon="2.53697">
        <ele>652.8</ele>
        <time>2015-09-20T09:09:49Z</time>
      </trkpt>
      <trkpt lat="44.59986" lon="2.53688">
        <ele>652.8</ele>
        <time>2015-09-20T09:09:53Z</time>
      </trkpt>
      <trkpt lat="44.59994" lon="2.53678">
        <ele>652.8</ele>
        <time>2015-09-20T09:09:57Z</time>
      </trkpt>
      <trkpt lat="44.60002" lon="2.53667">
        <ele>652.8</ele>
        <time>2015-09-20T09:10:01Z</time>
      </trkpt>
      <trkpt lat="44.60011" lon="2.53656">
        <ele>652.8</ele>
        <time>2015-09-20T09:10:05Z</time>
      </trkpt>
      <trkpt lat="44.60019" lon="2.53644">
        <ele>652.8</ele>
        <time>2015-09-20T09:10:09Z</time>
      </trkpt>
      <trkpt lat="44.60025" lon="2.53634">
        <ele>652.8</ele>
        <time>2015-09-20T09:10:13Z</time>
      </trkpt>
      <trkpt lat="44.60029" lon="2.53622">
        <ele>652.8</ele>
        <time>2015-09-20T09:10:17Z</time>
      </trkpt>
      <trkpt lat="44.60025" lon="2.53607">
        <ele>652.8</ele>
        <time>2015-09-20T09:10:21Z</time>
      </trkpt>
      <trkpt lat="44.60018" lon="2.53596">
        <ele>652.8</ele>
        <time>2015-09-20T09:10:25Z</time>
      </trkpt>
      <trkpt lat="44.60012" lon="2.53586">
        <ele>652.8</ele>
        <time>2015-09-20T09:10:28Z</time>
      </trkpt>
      <trkpt lat="44.60004" lon="2.53574">
        <ele>652.6</ele>
        <time>2015-09-20T09:10:31Z</time>
      </trkpt>
      <trkpt lat="44.60001" lon="2.53556">
        <ele>652.2</ele>
        <time>2015-09-20T09:10:34Z</time>
      </trkpt>
      <trkpt lat="44.60006" lon="2.53542">
        <ele>651.8</ele>
        <time>2015-09-20T09:10:36Z</time>
      </trkpt>
      <trkpt lat="44.60014" lon="2.53525">
        <ele>651.3</ele>
        <time>2015-09-20T09:10:38Z</time>
      </trkpt>
      <trkpt lat="44.60023" lon="2.53508">
        <ele>650.6</ele>
        <time>2015-09-20T09:10:40Z</time>
      </trkpt>
      <trkpt lat="44.6003" lon="2.53486">
        <ele>649.9</ele>
        <time>2015-09-20T09:10:42Z</time>
      </trkpt>
      <trkpt lat="44.60033" lon="2.53474">
        <ele>649.4</ele>
        <time>2015-09-20T09:10:43Z</time>
      </trkpt>
      <trkpt lat="44.60036" lon="2.53461">
        <ele>648.9</ele>
        <time>2015-09-20T09:10:44Z</time>
      </trkpt>
      <trkpt lat="44.60038" lon="2.53447">
        <ele>648.4</ele>
        <time>2015-09-20T09:10:45Z</time>
      </trkpt>
      <trkpt lat="44.60041" lon="2.53433">
        <ele>647.8</ele>
        <time>2015-09-20T09:10:46Z</time>
      </trkpt>
      <trkpt lat="44.60044" lon="2.53418">
        <ele>647.2</ele>
        <time>2015-09-20T09:10:47Z</time>
      </trkpt>
      <trkpt lat="44.60046" lon="2.53404">
        <ele>646.5</ele>
        <time>2015-09-20T09:10:48Z</time>
      </trkpt>
      <trkpt lat="44.60047" lon="2.53388">
        <ele>645.9</ele>
        <time>2015-09-20T09:10:49Z</time>
      </trkpt>
      <trkpt lat="44.60048" lon="2.53372">
        <ele>645.2</ele>
        <time>2015-09-20T09:10:50Z</time>
      </trkpt>
      <trkpt lat="44.60049" lon="2.53356">
        <ele>644.5</ele>
        <time>2015-09-20T09:10:51Z</time>
      </trkpt>
      <trkpt lat="44.60051" lon="2.53339">
        <ele>643.7</ele>
        <time>2015-09-20T09:10:52Z</time>
      </trkpt>
      <trkpt lat="44.60052" lon="2.53324">
        <ele>642.9</ele>
        <time>2015-09-20T09:10:53Z</time>
      </trkpt>
      <trkpt lat="44.60052" lon="2.53303">
        <ele>641.1</ele>
        <time>2015-09-20T09:10:55Z</time>
      </trkpt>
      <trkpt lat="44.60045" lon="2.53296">
        <ele>639.5</ele>
        <time>2015-09-20T09:10:57Z</time>
      </trkpt>
      <trkpt lat="44.60034" lon="2.53304">
        <ele>637.8</ele>
        <time>2015-09-20T09:10:59Z</time>
      </trkpt>
      <trkpt lat="44.60023" lon="2.53318">
        <ele>636.2</ele>
        <time>2015-09-20T09:11:01Z</time>
      </trkpt>
      <trkpt lat="44.60011" lon="2.53335">
        <ele>634.5</ele>
        <time>2015-09-20T09:11:03Z</time>
      </trkpt>
      <trkpt lat="44.60005" lon="2.53344">
        <ele>633.7</ele>
        <time>2015-09-20T09:11:04Z</time>
      </trkpt>
      <trkpt lat="44.59997" lon="2.53354">
        <ele>632.8</ele>
        <time>2015-09-20T09:11:05Z</time>
      </trkpt>
      <trkpt lat="44.59989" lon="2.53363">
        <ele>631.9</ele>
        <time>2015-09-20T09:11:06Z</time>
      </trkpt>
      <trkpt lat="44.59979" lon="2.53371">
        <ele>630.9</ele>
        <time>2015-09-20T09:11:07Z</time>
      </trkpt>
      <trkpt lat="44.5997" lon="2.53378">
        <ele>630</ele>
        <time>2015-09-20T09:11:08Z</time>
      </trkpt>
      <trkpt lat="44.59961" lon="2.53385">
        <ele>629.2</ele>
        <time>2015-09-20T09:11:09Z</time>
      </trkpt>
      <trkpt lat="44.59952" lon="2.5339">
        <ele>628.3</ele>
        <time>2015-09-20T09:11:10Z</time>
      </trkpt>
      <trkpt lat="44.5994" lon="2.53394">
        <ele>626.6</ele>
        <time>2015-09-20T09:11:12Z</time>
      </trkpt>
      <trkpt lat="44.59938" lon="2.5338">
        <ele>622</ele>
        <time>2015-09-20T09:11:18Z</time>
      </trkpt>
      <trkpt lat="44.59944" lon="2.53369">
        <ele>620.1</ele>
        <time>2015-09-20T09:11:21Z</time>
      </trkpt>
      <trkpt lat="44.59952" lon="2.53361">
        <ele>618.9</ele>
        <time>2015-09-20T09:11:23Z</time>
      </trkpt>
      <trkpt lat="44.59959" lon="2.53348">
        <ele>617.7</ele>
        <time>2015-09-20T09:11:25Z</time>
      </trkpt>
      <trkpt lat="44.59965" lon="2.53333">
        <ele>616.4</ele>
        <time>2015-09-20T09:11:27Z</time>
      </trkpt>
      <trkpt lat="44.5997" lon="2.53318">
        <ele>615.1</ele>
        <time>2015-09-20T09:11:29Z</time>
      </trkpt>
      <trkpt lat="44.59976" lon="2.53299">
        <ele>613.8</ele>
        <time>2015-09-20T09:11:31Z</time>
      </trkpt>
      <trkpt lat="44.59979" lon="2.53275">
        <ele>612.3</ele>
        <time>2015-09-20T09:11:33Z</time>
      </trkpt>
      <trkpt lat="44.59981" lon="2.53261">
        <ele>611.5</ele>
        <time>2015-09-20T09:11:34Z</time>
      </trkpt>
      <trkpt lat="44.59983" lon="2.53247">
        <ele>610.7</ele>
        <time>2015-09-20T09:11:35Z</time>
      </trkpt>
      <trkpt lat="44.59985" lon="2.53232">
        <ele>609.8</ele>
        <time>2015-09-20T09:11:36Z</time>
      </trkpt>
      <trkpt lat="44.59987" lon="2.53216">
        <ele>608.8</ele>
        <time>2015-09-20T09:11:37Z</time>
      </trkpt>
      <trkpt lat="44.59989" lon="2.532">
        <ele>607.9</ele>
        <time>2015-09-20T09:11:38Z</time>
      </trkpt>
      <trkpt lat="44.59991" lon="2.53183">
        <ele>606.9</ele>
        <time>2015-09-20T09:11:39Z</time>
      </trkpt>
      <trkpt lat="44.59993" lon="2.53166">
        <ele>605.9</ele>
        <time>2015-09-20T09:11:40Z</time>
      </trkpt>
      <trkpt lat="44.59995" lon="2.53149">
        <ele>604.9</ele>
        <time>2015-09-20T09:11:41Z</time>
      </trkpt>
      <trkpt lat="44.59996" lon="2.53132">
        <ele>603.8</ele>
        <time>2015-09-20T09:11:42Z</time>
      </trkpt>
      <trkpt lat="44.59998" lon="2.53114">
        <ele>602.7</ele>
        <time>2015-09-20T09:11:43Z</time>
      </trkpt>
      <trkpt lat="44.60001" lon="2.53096">
        <ele>601.5</ele>
        <time>2015-09-20T09:11:44Z</time>
      </trkpt>
      <trkpt lat="44.60004" lon="2.53079">
        <ele>600.3</ele>
        <time>2015-09-20T09:11:45Z</time>
      </trkpt>
      <trkpt lat="44.60009" lon="2.53061">
        <ele>599.1</ele>
        <time>2015-09-20T09:11:46Z</time>
      </trkpt>
      <trkpt lat="44.60015" lon="2.53044">
        <ele>597.9</ele>
        <time>2015-09-20T09:11:47Z</time>
      </trkpt>
      <trkpt lat="44.60021" lon="2.53027">
        <ele>596.7</ele>
        <time>2015-09-20T09:11:48Z</time>
      </trkpt>
      <trkpt lat="44.6003" lon="2.53013">
        <ele>595.5</ele>
        <time>2015-09-20T09:11:49Z</time>
      </trkpt>
      <trkpt lat="44.6004" lon="2.52999">
        <ele>594.4</ele>
        <time>2015-09-20T09:11:50Z</time>
      </trkpt>
      <trkpt lat="44.60051" lon="2.52987">
        <ele>593.1</ele>
        <time>2015-09-20T09:11:51Z</time>
      </trkpt>
      <trkpt lat="44.60061" lon="2.52973">
        <ele>591.9</ele>
        <time>2015-09-20T09:11:52Z</time>
      </trkpt>
      <trkpt lat="44.6007" lon="2.52957">
        <ele>590.7</ele>
        <time>2015-09-20T09:11:53Z</time>
      </trkpt>
      <trkpt lat="44.6008" lon="2.52945">
        <ele>589.5</ele>
        <time>2015-09-20T09:11:54Z</time>
      </trkpt>
      <trkpt lat="44.60091" lon="2.52934">
        <ele>588.2</ele>
        <time>2015-09-20T09:11:55Z</time>
      </trkpt>
      <trkpt lat="44.60103" lon="2.52924">
        <ele>587</ele>
        <time>2015-09-20T09:11:56Z</time>
      </trkpt>
      <trkpt lat="44.60113" lon="2.52912">
        <ele>585.7</ele>
        <time>2015-09-20T09:11:57Z</time>
      </trkpt>
      <trkpt lat="44.60124" lon="2.52899">
        <ele>584.4</ele>
        <time>2015-09-20T09:11:58Z</time>
      </trkpt>
      <trkpt lat="44.60135" lon="2.52888">
        <ele>583.2</ele>
        <time>2015-09-20T09:11:59Z</time>
      </trkpt>
      <trkpt lat="44.60146" lon="2.52877">
        <ele>581.8</ele>
        <time>2015-09-20T09:12:00Z</time>
      </trkpt>
      <trkpt lat="44.60159" lon="2.52869">
        <ele>580.5</ele>
        <time>2015-09-20T09:12:01Z</time>
      </trkpt>
      <trkpt lat="44.60172" lon="2.52861">
        <ele>579.1</ele>
        <time>2015-09-20T09:12:02Z</time>
      </trkpt>
      <trkpt lat="44.60184" lon="2.52855">
        <ele>577.8</ele>
        <time>2015-09-20T09:12:03Z</time>
      </trkpt>
      <trkpt lat="44.60195" lon="2.52851">
        <ele>576.5</ele>
        <time>2015-09-20T09:12:04Z</time>
      </trkpt>
      <trkpt lat="44.60205" lon="2.52849">
        <ele>575.1</ele>
        <time>2015-09-20T09:12:05Z</time>
      </trkpt>
      <trkpt lat="44.60217" lon="2.52841">
        <ele>572.6</ele>
        <time>2015-09-20T09:12:07Z</time>
      </trkpt>
      <trkpt lat="44.60214" lon="2.52829">
        <ele>570.1</ele>
        <time>2015-09-20T09:12:09Z</time>
      </trkpt>
      <trkpt lat="44.60201" lon="2.52823">
        <ele>567.7</ele>
        <time>2015-09-20T09:12:11Z</time>
      </trkpt>
      <trkpt lat="44.60187" lon="2.5282">
        <ele>565.4</ele>
        <time>2015-09-20T09:12:13Z</time>
      </trkpt>
      <trkpt lat="44.60178" lon="2.52816">
        <ele>564.2</ele>
        <time>2015-09-20T09:12:14Z</time>
      </trkpt>
      <trkpt lat="44.60168" lon="2.52815">
        <ele>563</ele>
        <time>2015-09-20T09:12:15Z</time>
      </trkpt>
      <trkpt lat="44.60159" lon="2.52812">
        <ele>561.8</ele>
        <time>2015-09-20T09:12:16Z</time>
      </trkpt>
      <trkpt lat="44.60148" lon="2.52806">
        <ele>560.7</ele>
        <time>2015-09-20T09:12:17Z</time>
      </trkpt>
      <trkpt lat="44.60135" lon="2.52801">
        <ele>559.5</ele>
        <time>2015-09-20T09:12:18Z</time>
      </trkpt>
      <trkpt lat="44.60124" lon="2.52798">
        <ele>558.4</ele>
        <time>2015-09-20T09:12:19Z</time>
      </trkpt>
      <trkpt lat="44.60113" lon="2.52799">
        <ele>557.2</ele>
        <time>2015-09-20T09:12:20Z</time>
      </trkpt>
      <trkpt lat="44.60101" lon="2.52803">
        <ele>556</ele>
        <time>2015-09-20T09:12:21Z</time>
      </trkpt>
      <trkpt lat="44.60091" lon="2.52808">
        <ele>554.8</ele>
        <time>2015-09-20T09:12:22Z</time>
      </trkpt>
      <trkpt lat="44.6008" lon="2.52814">
        <ele>553.6</ele>
        <time>2015-09-20T09:12:23Z</time>
      </trkpt>
      <trkpt lat="44.60069" lon="2.5282">
        <ele>552.5</ele>
        <time>2015-09-20T09:12:24Z</time>
      </trkpt>
      <trkpt lat="44.60058" lon="2.52827">
        <ele>551.4</ele>
        <time>2015-09-20T09:12:25Z</time>
      </trkpt>
      <trkpt lat="44.60047" lon="2.52835">
        <ele>550.3</ele>
        <time>2015-09-20T09:12:26Z</time>
      </trkpt>
      <trkpt lat="44.60037" lon="2.5284">
        <ele>549.2</ele>
        <time>2015-09-20T09:12:27Z</time>
      </trkpt>
      <trkpt lat="44.60027" lon="2.52842">
        <ele>548.1</ele>
        <time>2015-09-20T09:12:28Z</time>
      </trkpt>
      <trkpt lat="44.60018" lon="2.5284">
        <ele>547</ele>
        <time>2015-09-20T09:12:29Z</time>
      </trkpt>
      <trkpt lat="44.60009" lon="2.52834">
        <ele>545.9</ele>
        <time>2015-09-20T09:12:30Z</time>
      </trkpt>
      <trkpt lat="44.60001" lon="2.52828">
        <ele>544.8</ele>
        <time>2015-09-20T09:12:31Z</time>
      </trkpt>
      <trkpt lat="44.59988" lon="2.52819">
        <ele>542.5</ele>
        <time>2015-09-20T09:12:33Z</time>
      </trkpt>
      <trkpt lat="44.59979" lon="2.52814">
        <ele>540.3</ele>
        <time>2015-09-20T09:12:35Z</time>
      </trkpt>
      <trkpt lat="44.59977" lon="2.528">
        <ele>538.2</ele>
        <time>2015-09-20T09:12:37Z</time>
      </trkpt>
      <trkpt lat="44.59986" lon="2.52786">
        <ele>536.2</ele>
        <time>2015-09-20T09:12:39Z</time>
      </trkpt>
      <trkpt lat="44.60001" lon="2.52778">
        <ele>534</ele>
        <time>2015-09-20T09:12:41Z</time>
      </trkpt>
      <trkpt lat="44.60018" lon="2.52776">
        <ele>532</ele>
        <time>2015-09-20T09:12:43Z</time>
      </trkpt>
      <trkpt lat="44.60026" lon="2.52773">
        <ele>531</ele>
        <time>2015-09-20T09:12:44Z</time>
      </trkpt>
      <trkpt lat="44.60034" lon="2.52766">
        <ele>530</ele>
        <time>2015-09-20T09:12:45Z</time>
      </trkpt>
      <trkpt lat="44.60043" lon="2.52757">
        <ele>529</ele>
        <time>2015-09-20T09:12:46Z</time>
      </trkpt>
      <trkpt lat="44.6005" lon="2.52747">
        <ele>528.1</ele>
        <time>2015-09-20T09:12:47Z</time>
      </trkpt>
      <trkpt lat="44.60057" lon="2.52737">
        <ele>527.1</ele>
        <time>2015-09-20T09:12:48Z</time>
      </trkpt>
      <trkpt lat="44.60064" lon="2.52727">
        <ele>526.1</ele>
        <time>2015-09-20T09:12:49Z</time>
      </trkpt>
      <trkpt lat="44.60071" lon="2.52717">
        <ele>525.2</ele>
        <time>2015-09-20T09:12:50Z</time>
      </trkpt>
      <trkpt lat="44.60078" lon="2.52706">
        <ele>524.3</ele>
        <time>2015-09-20T09:12:51Z</time>
      </trkpt>
      <trkpt lat="44.60085" lon="2.52696">
        <ele>523.4</ele>
        <time>2015-09-20T09:12:52Z</time>
      </trkpt>
      <trkpt lat="44.60091" lon="2.52686">
        <ele>522.4</ele>
        <time>2015-09-20T09:12:53Z</time>
      </trkpt>
      <trkpt lat="44.60104" lon="2.52672">
        <ele>520.7</ele>
        <time>2015-09-20T09:12:55Z</time>
      </trkpt>
      <trkpt lat="44.60116" lon="2.52668">
        <ele>519.1</ele>
        <time>2015-09-20T09:12:57Z</time>
      </trkpt>
      <trkpt lat="44.60129" lon="2.5267">
        <ele>517.5</ele>
        <time>2015-09-20T09:12:59Z</time>
      </trkpt>
      <trkpt lat="44.60146" lon="2.52669">
        <ele>516</ele>
        <time>2015-09-20T09:13:01Z</time>
      </trkpt>
      <trkpt lat="44.60154" lon="2.52664">
        <ele>515.2</ele>
        <time>2015-09-20T09:13:02Z</time>
      </trkpt>
      <trkpt lat="44.60162" lon="2.52657">
        <ele>514.5</ele>
        <time>2015-09-20T09:13:03Z</time>
      </trkpt>
      <trkpt lat="44.60169" lon="2.52649">
        <ele>513.8</ele>
        <time>2015-09-20T09:13:04Z</time>
      </trkpt>
      <trkpt lat="44.60174" lon="2.52637">
        <ele>513</ele>
        <time>2015-09-20T09:13:05Z</time>
      </trkpt>
      <trkpt lat="44.60179" lon="2.52626">
        <ele>512.3</ele>
        <time>2015-09-20T09:13:06Z</time>
      </trkpt>
      <trkpt lat="44.60188" lon="2.52605">
        <ele>510.9</ele>
        <time>2015-09-20T09:13:08Z</time>
      </trkpt>
      <trkpt lat="44.60193" lon="2.52594">
        <ele>510.2</ele>
        <time>2015-09-20T09:13:09Z</time>
      </trkpt>
      <trkpt lat="44.60203" lon="2.52575">
        <ele>509</ele>
        <time>2015-09-20T09:13:11Z</time>
      </trkpt>
      <trkpt lat="44.60213" lon="2.5256">
        <ele>507.9</ele>
        <time>2015-09-20T09:13:13Z</time>
      </trkpt>
      <trkpt lat="44.60224" lon="2.52549">
        <ele>506.9</ele>
        <time>2015-09-20T09:13:15Z</time>
      </trkpt>
      <trkpt lat="44.60234" lon="2.52543">
        <ele>506</ele>
        <time>2015-09-20T09:13:17Z</time>
      </trkpt>
      <trkpt lat="44.60246" lon="2.52533">
        <ele>504.9</ele>
        <time>2015-09-20T09:13:20Z</time>
      </trkpt>
      <trkpt lat="44.60254" lon="2.52525">
        <ele>504.2</ele>
        <time>2015-09-20T09:13:22Z</time>
      </trkpt>
      <trkpt lat="44.60263" lon="2.52518">
        <ele>503.6</ele>
        <time>2015-09-20T09:13:24Z</time>
      </trkpt>
      <trkpt lat="44.60273" lon="2.52514">
        <ele>503.1</ele>
        <time>2015-09-20T09:13:26Z</time>
      </trkpt>
      <trkpt lat="44.60284" lon="2.52507">
        <ele>502.5</ele>
        <time>2015-09-20T09:13:29Z</time>
      </trkpt>
      <trkpt lat="44.60293" lon="2.52501">
        <ele>501.9</ele>
        <time>2015-09-20T09:13:32Z</time>
      </trkpt>
      <trkpt lat="44.60304" lon="2.52492">
        <ele>501.5</ele>
        <time>2015-09-20T09:13:35Z</time>
      </trkpt>
      <trkpt lat="44.60313" lon="2.52482">
        <ele>501.2</ele>
        <time>2015-09-20T09:13:38Z</time>
      </trkpt>
      <trkpt lat="44.60321" lon="2.52472">
        <ele>500.9</ele>
        <time>2015-09-20T09:13:41Z</time>
      </trkpt>
      <trkpt lat="44.60333" lon="2.52468">
        <ele>500.7</ele>
        <time>2015-09-20T09:13:44Z</time>
      </trkpt>
      <trkpt lat="44.60342" lon="2.52466">
        <ele>500.6</ele>
        <time>2015-09-20T09:13:46Z</time>
      </trkpt>
      <trkpt lat="44.60354" lon="2.52463">
        <ele>500.4</ele>
        <time>2015-09-20T09:13:48Z</time>
      </trkpt>
      <trkpt lat="44.60367" lon="2.52458">
        <ele>500.1</ele>
        <time>2015-09-20T09:13:50Z</time>
      </trkpt>
      <trkpt lat="44.60379" lon="2.52449">
        <ele>499.7</ele>
        <time>2015-09-20T09:13:52Z</time>
      </trkpt>
      <trkpt lat="44.6039" lon="2.52438">
        <ele>499.3</ele>
        <time>2015-09-20T09:13:54Z</time>
      </trkpt>
      <trkpt lat="44.60397" lon="2.52423">
        <ele>498.9</ele>
        <time>2015-09-20T09:13:56Z</time>
      </trkpt>
      <trkpt lat="44.60404" lon="2.52406">
        <ele>498.3</ele>
        <time>2015-09-20T09:13:58Z</time>
      </trkpt>
      <trkpt lat="44.60414" lon="2.52389">
        <ele>497.7</ele>
        <time>2015-09-20T09:14:00Z</time>
      </trkpt>
      <trkpt lat="44.60427" lon="2.52376">
        <ele>497.1</ele>
        <time>2015-09-20T09:14:02Z</time>
      </trkpt>
      <trkpt lat="44.60431" lon="2.52358">
        <ele>496.3</ele>
        <time>2015-09-20T09:14:04Z</time>
      </trkpt>
      <trkpt lat="44.60424" lon="2.52339">
        <ele>495.4</ele>
        <time>2015-09-20T09:14:06Z</time>
      </trkpt>
      <trkpt lat="44.60416" lon="2.52318">
        <ele>494.6</ele>
        <time>2015-09-20T09:14:08Z</time>
      </trkpt>
      <trkpt lat="44.6041" lon="2.52305">
        <ele>494.2</ele>
        <time>2015-09-20T09:14:09Z</time>
      </trkpt>
      <trkpt lat="44.60404" lon="2.52294">
        <ele>493.8</ele>
        <time>2015-09-20T09:14:10Z</time>
      </trkpt>
      <trkpt lat="44.60395" lon="2.52272">
        <ele>493.2</ele>
        <time>2015-09-20T09:14:12Z</time>
      </trkpt>
      <trkpt lat="44.60385" lon="2.52255">
        <ele>492.6</ele>
        <time>2015-09-20T09:14:14Z</time>
      </trkpt>
      <trkpt lat="44.60378" lon="2.52236">
        <ele>492</ele>
        <time>2015-09-20T09:14:16Z</time>
      </trkpt>
      <trkpt lat="44.60372" lon="2.52217">
        <ele>491.6</ele>
        <time>2015-09-20T09:14:18Z</time>
      </trkpt>
      <trkpt lat="44.60368" lon="2.52201">
        <ele>491.2</ele>
        <time>2015-09-20T09:14:20Z</time>
      </trkpt>
      <trkpt lat="44.60361" lon="2.52186">
        <ele>490.9</ele>
        <time>2015-09-20T09:14:22Z</time>
      </trkpt>
      <trkpt lat="44.60353" lon="2.52172">
        <ele>490.6</ele>
        <time>2015-09-20T09:14:24Z</time>
      </trkpt>
      <trkpt lat="44.60347" lon="2.5216">
        <ele>490.4</ele>
        <time>2015-09-20T09:14:26Z</time>
      </trkpt>
      <trkpt lat="44.60345" lon="2.52147">
        <ele>490.3</ele>
        <time>2015-09-20T09:14:28Z</time>
      </trkpt>
      <trkpt lat="44.60351" lon="2.52131">
        <ele>490.2</ele>
        <time>2015-09-20T09:14:31Z</time>
      </trkpt>
      <trkpt lat="44.60357" lon="2.52121">
        <ele>490.1</ele>
        <time>2015-09-20T09:14:33Z</time>
      </trkpt>
      <trkpt lat="44.60364" lon="2.52111">
        <ele>490.1</ele>
        <time>2015-09-20T09:14:35Z</time>
      </trkpt>
      <trkpt lat="44.60373" lon="2.52102">
        <ele>490</ele>
        <time>2015-09-20T09:14:37Z</time>
      </trkpt>
      <trkpt lat="44.60384" lon="2.52096">
        <ele>490</ele>
        <time>2015-09-20T09:14:39Z</time>
      </trkpt>
      <trkpt lat="44.60394" lon="2.52088">
        <ele>489.9</ele>
        <time>2015-09-20T09:14:41Z</time>
      </trkpt>
      <trkpt lat="44.60406" lon="2.52079">
        <ele>489.8</ele>
        <time>2015-09-20T09:14:43Z</time>
      </trkpt>
      <trkpt lat="44.60418" lon="2.52067">
        <ele>489.5</ele>
        <time>2015-09-20T09:14:45Z</time>
      </trkpt>
      <trkpt lat="44.6043" lon="2.52051">
        <ele>489.1</ele>
        <time>2015-09-20T09:14:47Z</time>
      </trkpt>
      <trkpt lat="44.60443" lon="2.52035">
        <ele>488.5</ele>
        <time>2015-09-20T09:14:49Z</time>
      </trkpt>
      <trkpt lat="44.6045" lon="2.52027">
        <ele>488.2</ele>
        <time>2015-09-20T09:14:50Z</time>
      </trkpt>
      <trkpt lat="44.60458" lon="2.52019">
        <ele>487.9</ele>
        <time>2015-09-20T09:14:51Z</time>
      </trkpt>
      <trkpt lat="44.60465" lon="2.52011">
        <ele>487.5</ele>
        <time>2015-09-20T09:14:52Z</time>
      </trkpt>
      <trkpt lat="44.60472" lon="2.52001">
        <ele>487.1</ele>
        <time>2015-09-20T09:14:53Z</time>
      </trkpt>
      <trkpt lat="44.60479" lon="2.51991">
        <ele>486.6</ele>
        <time>2015-09-20T09:14:54Z</time>
      </trkpt>
      <trkpt lat="44.60485" lon="2.5198">
        <ele>486.2</ele>
        <time>2015-09-20T09:14:55Z</time>
      </trkpt>
      <trkpt lat="44.60492" lon="2.51969">
        <ele>485.7</ele>
        <time>2015-09-20T09:14:56Z</time>
      </trkpt>
      <trkpt lat="44.605" lon="2.51961">
        <ele>485.2</ele>
        <time>2015-09-20T09:14:57Z</time>
      </trkpt>
      <trkpt lat="44.60511" lon="2.51959">
        <ele>484.6</ele>
        <time>2015-09-20T09:14:58Z</time>
      </trkpt>
      <trkpt lat="44.60521" lon="2.51957">
        <ele>484</ele>
        <time>2015-09-20T09:14:59Z</time>
      </trkpt>
      <trkpt lat="44.6053" lon="2.51955">
        <ele>483.5</ele>
        <time>2015-09-20T09:15:00Z</time>
      </trkpt>
      <trkpt lat="44.6054" lon="2.51951">
        <ele>482.9</ele>
        <time>2015-09-20T09:15:01Z</time>
      </trkpt>
      <trkpt lat="44.60548" lon="2.51944">
        <ele>482.4</ele>
        <time>2015-09-20T09:15:02Z</time>
      </trkpt>
      <trkpt lat="44.60556" lon="2.51935">
        <ele>481.8</ele>
        <time>2015-09-20T09:15:03Z</time>
      </trkpt>
      <trkpt lat="44.60563" lon="2.51925">
        <ele>481.3</ele>
        <time>2015-09-20T09:15:04Z</time>
      </trkpt>
      <trkpt lat="44.60571" lon="2.51916">
        <ele>480.7</ele>
        <time>2015-09-20T09:15:05Z</time>
      </trkpt>
      <trkpt lat="44.60579" lon="2.51908">
        <ele>480.2</ele>
        <time>2015-09-20T09:15:06Z</time>
      </trkpt>
      <trkpt lat="44.60588" lon="2.51903">
        <ele>479.6</ele>
        <time>2015-09-20T09:15:07Z</time>
      </trkpt>
      <trkpt lat="44.606" lon="2.51892">
        <ele>478.4</ele>
        <time>2015-09-20T09:15:09Z</time>
      </trkpt>
      <trkpt lat="44.60586" lon="2.51862">
        <ele>476</ele>
        <time>2015-09-20T09:15:12Z</time>
      </trkpt>
      <trkpt lat="44.60562" lon="2.51842">
        <ele>474.6</ele>
        <time>2015-09-20T09:15:15Z</time>
      </trkpt>
      <trkpt lat="44.60554" lon="2.51834">
        <ele>473.9</ele>
        <time>2015-09-20T09:15:16Z</time>
      </trkpt>
      <trkpt lat="44.60548" lon="2.51824">
        <ele>473.1</ele>
        <time>2015-09-20T09:15:17Z</time>
      </trkpt>
      <trkpt lat="44.60546" lon="2.51804">
        <ele>471.6</ele>
        <time>2015-09-20T09:15:19Z</time>
      </trkpt>
      <trkpt lat="44.60552" lon="2.51787">
        <ele>470.1</ele>
        <time>2015-09-20T09:15:21Z</time>
      </trkpt>
      <trkpt lat="44.6056" lon="2.51777">
        <ele>468.9</ele>
        <time>2015-09-20T09:15:23Z</time>
      </trkpt>
      <trkpt lat="44.6057" lon="2.51768">
        <ele>467.8</ele>
        <time>2015-09-20T09:15:25Z</time>
      </trkpt>
      <trkpt lat="44.6058" lon="2.51758">
        <ele>466.8</ele>
        <time>2015-09-20T09:15:27Z</time>
      </trkpt>
      <trkpt lat="44.60591" lon="2.51747">
        <ele>465.8</ele>
        <time>2015-09-20T09:15:29Z</time>
      </trkpt>
      <trkpt lat="44.60602" lon="2.51733">
        <ele>464.7</ele>
        <time>2015-09-20T09:15:31Z</time>
      </trkpt>
      <trkpt lat="44.60613" lon="2.51718">
        <ele>463.7</ele>
        <time>2015-09-20T09:15:33Z</time>
      </trkpt>
      <trkpt lat="44.60626" lon="2.51705">
        <ele>462.7</ele>
        <time>2015-09-20T09:15:35Z</time>
      </trkpt>
      <trkpt lat="44.60633" lon="2.51693">
        <ele>461.8</ele>
        <time>2015-09-20T09:15:37Z</time>
      </trkpt>
      <trkpt lat="44.60634" lon="2.51679">
        <ele>460.9</ele>
        <time>2015-09-20T09:15:39Z</time>
      </trkpt>
      <trkpt lat="44.60629" lon="2.51665">
        <ele>460</ele>
        <time>2015-09-20T09:15:41Z</time>
      </trkpt>
      <trkpt lat="44.60624" lon="2.51652">
        <ele>459.1</ele>
        <time>2015-09-20T09:15:43Z</time>
      </trkpt>
      <trkpt lat="44.60622" lon="2.51638">
        <ele>457.6</ele>
        <time>2015-09-20T09:15:47Z</time>
      </trkpt>
      <trkpt lat="44.60621" lon="2.51626">
        <ele>450.7</ele>
        <time>2015-09-20T09:17:04Z</time>
      </trkpt>
      <trkpt lat="44.60628" lon="2.51615">
        <ele>450.2</ele>
        <time>2015-09-20T09:18:06Z</time>
      </trkpt>
      <trkpt lat="44.60635" lon="2.51607">
        <ele>450.1</ele>
        <time>2015-09-20T09:18:09Z</time>
      </trkpt>
      <trkpt lat="44.60645" lon="2.51597">
        <ele>449.9</ele>
        <time>2015-09-20T09:18:12Z</time>
      </trkpt>
      <trkpt lat="44.60653" lon="2.51588">
        <ele>449.7</ele>
        <time>2015-09-20T09:18:14Z</time>
      </trkpt>
      <trkpt lat="44.60661" lon="2.51577">
        <ele>449.3</ele>
        <time>2015-09-20T09:18:16Z</time>
      </trkpt>
      <trkpt lat="44.6067" lon="2.51563">
        <ele>448.9</ele>
        <time>2015-09-20T09:18:18Z</time>
      </trkpt>
      <trkpt lat="44.60681" lon="2.51549">
        <ele>448.5</ele>
        <time>2015-09-20T09:18:20Z</time>
      </trkpt>
      <trkpt lat="44.60694" lon="2.51535">
        <ele>447.9</ele>
        <time>2015-09-20T09:18:22Z</time>
      </trkpt>
      <trkpt lat="44.60709" lon="2.51522">
        <ele>447.4</ele>
        <time>2015-09-20T09:18:24Z</time>
      </trkpt>
      <trkpt lat="44.60724" lon="2.5151">
        <ele>446.7</ele>
        <time>2015-09-20T09:18:26Z</time>
      </trkpt>
      <trkpt lat="44.6074" lon="2.51503">
        <ele>445.8</ele>
        <time>2015-09-20T09:18:28Z</time>
      </trkpt>
      <trkpt lat="44.6075" lon="2.51499">
        <ele>445.3</ele>
        <time>2015-09-20T09:18:29Z</time>
      </trkpt>
      <trkpt lat="44.60759" lon="2.51494">
        <ele>444.8</ele>
        <time>2015-09-20T09:18:30Z</time>
      </trkpt>
      <trkpt lat="44.60769" lon="2.5149">
        <ele>444.3</ele>
        <time>2015-09-20T09:18:31Z</time>
      </trkpt>
      <trkpt lat="44.60778" lon="2.51487">
        <ele>443.8</ele>
        <time>2015-09-20T09:18:32Z</time>
      </trkpt>
      <trkpt lat="44.60794" lon="2.51483">
        <ele>442.8</ele>
        <time>2015-09-20T09:18:34Z</time>
      </trkpt>
      <trkpt lat="44.60808" lon="2.51492">
        <ele>441.6</ele>
        <time>2015-09-20T09:18:36Z</time>
      </trkpt>
      <trkpt lat="44.60815" lon="2.51502">
        <ele>441.1</ele>
        <time>2015-09-20T09:18:37Z</time>
      </trkpt>
      <trkpt lat="44.60824" lon="2.51522">
        <ele>439.9</ele>
        <time>2015-09-20T09:18:39Z</time>
      </trkpt>
      <trkpt lat="44.60831" lon="2.51539">
        <ele>438.9</ele>
        <time>2015-09-20T09:18:41Z</time>
      </trkpt>
      <trkpt lat="44.60838" lon="2.51551">
        <ele>437.7</ele>
        <time>2015-09-20T09:18:44Z</time>
      </trkpt>
      <trkpt lat="44.60846" lon="2.51559">
        <ele>436.1</ele>
        <time>2015-09-20T09:18:52Z</time>
      </trkpt>
      <trkpt lat="44.60855" lon="2.51564">
        <ele>435.7</ele>
        <time>2015-09-20T09:18:58Z</time>
      </trkpt>
      <trkpt lat="44.60864" lon="2.51567">
        <ele>435.9</ele>
        <time>2015-09-20T09:19:04Z</time>
      </trkpt>
      <trkpt lat="44.60873" lon="2.51564">
        <ele>436.2</ele>
        <time>2015-09-20T09:19:09Z</time>
      </trkpt>
      <trkpt lat="44.60882" lon="2.51556">
        <ele>436.7</ele>
        <time>2015-09-20T09:19:15Z</time>
      </trkpt>
      <trkpt lat="44.60889" lon="2.51547">
        <ele>437.5</ele>
        <time>2015-09-20T09:19:21Z</time>
      </trkpt>
      <trkpt lat="44.60896" lon="2.51538">
        <ele>438.3</ele>
        <time>2015-09-20T09:19:27Z</time>
      </trkpt>
      <trkpt lat="44.60903" lon="2.5153">
        <ele>439.1</ele>
        <time>2015-09-20T09:19:34Z</time>
      </trkpt>
      <trkpt lat="44.60914" lon="2.5153">
        <ele>440</ele>
        <time>2015-09-20T09:19:41Z</time>
      </trkpt>
      <trkpt lat="44.60923" lon="2.51535">
        <ele>440.7</ele>
        <time>2015-09-20T09:19:47Z</time>
      </trkpt>
      <trkpt lat="44.60931" lon="2.5154">
        <ele>441.4</ele>
        <time>2015-09-20T09:19:53Z</time>
      </trkpt>
      <trkpt lat="44.6094" lon="2.51546">
        <ele>442</ele>
        <time>2015-09-20T09:19:58Z</time>
      </trkpt>
      <trkpt lat="44.60949" lon="2.51552">
        <ele>442.4</ele>
        <time>2015-09-20T09:20:03Z</time>
      </trkpt>
      <trkpt lat="44.60959" lon="2.51554">
        <ele>442.7</ele>
        <time>2015-09-20T09:20:09Z</time>
      </trkpt>
      <trkpt lat="44.60969" lon="2.51555">
        <ele>442.9</ele>
        <time>2015-09-20T09:20:14Z</time>
      </trkpt>
      <trkpt lat="44.60979" lon="2.5155">
        <ele>443.3</ele>
        <time>2015-09-20T09:20:20Z</time>
      </trkpt>
      <trkpt lat="44.60989" lon="2.51546">
        <ele>443.6</ele>
        <time>2015-09-20T09:20:25Z</time>
      </trkpt>
      <trkpt lat="44.60998" lon="2.51541">
        <ele>443.7</ele>
        <time>2015-09-20T09:20:29Z</time>
      </trkpt>
      <trkpt lat="44.61007" lon="2.51535">
        <ele>443.9</ele>
        <time>2015-09-20T09:20:34Z</time>
      </trkpt>
      <trkpt lat="44.61016" lon="2.51529">
        <ele>444</ele>
        <time>2015-09-20T09:20:39Z</time>
      </trkpt>
      <trkpt lat="44.61024" lon="2.51526">
        <ele>444</ele>
        <time>2015-09-20T09:20:44Z</time>
      </trkpt>
      <trkpt lat="44.61034" lon="2.51523">
        <ele>444.1</ele>
        <time>2015-09-20T09:20:51Z</time>
      </trkpt>
      <trkpt lat="44.61037" lon="2.5151">
        <ele>443.2</ele>
        <time>2015-09-20T09:21:20Z</time>
      </trkpt>
      <trkpt lat="44.61039" lon="2.51497">
        <ele>442.6</ele>
        <time>2015-09-20T09:22:20Z</time>
      </trkpt>
      <trkpt lat="44.61038" lon="2.51483">
        <ele>441.9</ele>
        <time>2015-09-20T09:22:26Z</time>
      </trkpt>
      <trkpt lat="44.61035" lon="2.51466">
        <ele>441.1</ele>
        <time>2015-09-20T09:22:30Z</time>
      </trkpt>
      <trkpt lat="44.61033" lon="2.5145">
        <ele>440.1</ele>
        <time>2015-09-20T09:22:33Z</time>
      </trkpt>
      <trkpt lat="44.61036" lon="2.51438">
        <ele>435.2</ele>
        <time>2015-09-20T09:22:48Z</time>
      </trkpt>
      <trkpt lat="44.61042" lon="2.51427">
        <ele>434.1</ele>
        <time>2015-09-20T09:22:53Z</time>
      </trkpt>
      <trkpt lat="44.61049" lon="2.51415">
        <ele>433.5</ele>
        <time>2015-09-20T09:22:55Z</time>
      </trkpt>
      <trkpt lat="44.61053" lon="2.514">
        <ele>432.1</ele>
        <time>2015-09-20T09:22:58Z</time>
      </trkpt>
      <trkpt lat="44.61056" lon="2.51384">
        <ele>430.6</ele>
        <time>2015-09-20T09:23:01Z</time>
      </trkpt>
      <trkpt lat="44.61062" lon="2.51371">
        <ele>429.5</ele>
        <time>2015-09-20T09:23:03Z</time>
      </trkpt>
      <trkpt lat="44.6107" lon="2.51364">
        <ele>428.3</ele>
        <time>2015-09-20T09:23:05Z</time>
      </trkpt>
      <trkpt lat="44.61082" lon="2.51363">
        <ele>427.1</ele>
        <time>2015-09-20T09:23:07Z</time>
      </trkpt>
      <trkpt lat="44.61093" lon="2.51359">
        <ele>425.2</ele>
        <time>2015-09-20T09:23:10Z</time>
      </trkpt>
      <trkpt lat="44.61102" lon="2.51355">
        <ele>423.5</ele>
        <time>2015-09-20T09:23:13Z</time>
      </trkpt>
      <trkpt lat="44.61115" lon="2.51354">
        <ele>422.1</ele>
        <time>2015-09-20T09:23:16Z</time>
      </trkpt>
      <trkpt lat="44.61124" lon="2.51362">
        <ele>420.8</ele>
        <time>2015-09-20T09:23:19Z</time>
      </trkpt>
      <trkpt lat="44.61126" lon="2.51379">
        <ele>419.3</ele>
        <time>2015-09-20T09:23:22Z</time>
      </trkpt>
      <trkpt lat="44.61125" lon="2.51395">
        <ele>418.2</ele>
        <time>2015-09-20T09:23:24Z</time>
      </trkpt>
      <trkpt lat="44.61124" lon="2.5141">
        <ele>416.6</ele>
        <time>2015-09-20T09:23:27Z</time>
      </trkpt>
      <trkpt lat="44.61132" lon="2.51419">
        <ele>413.5</ele>
        <time>2015-09-20T09:23:32Z</time>
      </trkpt>
      <trkpt lat="44.6114" lon="2.51426">
        <ele>411.8</ele>
        <time>2015-09-20T09:23:35Z</time>
      </trkpt>
      <trkpt lat="44.61148" lon="2.51433">
        <ele>409.1</ele>
        <time>2015-09-20T09:23:40Z</time>
      </trkpt>
      <trkpt lat="44.61157" lon="2.51445">
        <ele>407.1</ele>
        <time>2015-09-20T09:23:43Z</time>
      </trkpt>
      <trkpt lat="44.61166" lon="2.51456">
        <ele>405.3</ele>
        <time>2015-09-20T09:23:46Z</time>
      </trkpt>
      <trkpt lat="44.61168" lon="2.51469">
        <ele>403.6</ele>
        <time>2015-09-20T09:23:49Z</time>
      </trkpt>
      <trkpt lat="44.61165" lon="2.51486">
        <ele>401.5</ele>
        <time>2015-09-20T09:23:53Z</time>
      </trkpt>
      <trkpt lat="44.61163" lon="2.51501">
        <ele>400</ele>
        <time>2015-09-20T09:23:56Z</time>
      </trkpt>
      <trkpt lat="44.61169" lon="2.51514">
        <ele>399.2</ele>
        <time>2015-09-20T09:23:59Z</time>
      </trkpt>
      <trkpt lat="44.61187" lon="2.5151">
        <ele>397</ele>
        <time>2015-09-20T09:24:05Z</time>
      </trkpt>
      <trkpt lat="44.61205" lon="2.51511">
        <ele>397.2</ele>
        <time>2015-09-20T09:24:08Z</time>
      </trkpt>
      <trkpt lat="44.61217" lon="2.51513">
        <ele>397.1</ele>
        <time>2015-09-20T09:24:10Z</time>
      </trkpt>
      <trkpt lat="44.61224" lon="2.51503">
        <ele>396.9</ele>
        <time>2015-09-20T09:24:13Z</time>
      </trkpt>
      <trkpt lat="44.61228" lon="2.51487">
        <ele>396.8</ele>
        <time>2015-09-20T09:24:16Z</time>
      </trkpt>
      <trkpt lat="44.61232" lon="2.51471">
        <ele>396.5</ele>
        <time>2015-09-20T09:24:19Z</time>
      </trkpt>
      <trkpt lat="44.61234" lon="2.51456">
        <ele>396.4</ele>
        <time>2015-09-20T09:24:21Z</time>
      </trkpt>
      <trkpt lat="44.61233" lon="2.51443">
        <ele>396.3</ele>
        <time>2015-09-20T09:24:23Z</time>
      </trkpt>
      <trkpt lat="44.6123" lon="2.51431">
        <ele>396.1</ele>
        <time>2015-09-20T09:24:25Z</time>
      </trkpt>
      <trkpt lat="44.61226" lon="2.51416">
        <ele>396.1</ele>
        <time>2015-09-20T09:24:27Z</time>
      </trkpt>
      <trkpt lat="44.61227" lon="2.51402">
        <ele>396</ele>
        <time>2015-09-20T09:24:29Z</time>
      </trkpt>
      <trkpt lat="44.61233" lon="2.51388">
        <ele>396.1</ele>
        <time>2015-09-20T09:24:32Z</time>
      </trkpt>
      <trkpt lat="44.61238" lon="2.51376">
        <ele>396.4</ele>
        <time>2015-09-20T09:24:36Z</time>
      </trkpt>
      <trkpt lat="44.61241" lon="2.51363">
        <ele>396.7</ele>
        <time>2015-09-20T09:24:40Z</time>
      </trkpt>
      <trkpt lat="44.61246" lon="2.51351">
        <ele>397.2</ele>
        <time>2015-09-20T09:24:44Z</time>
      </trkpt>
      <trkpt lat="44.61253" lon="2.51337">
        <ele>398</ele>
        <time>2015-09-20T09:24:49Z</time>
      </trkpt>
      <trkpt lat="44.6126" lon="2.51327">
        <ele>398.4</ele>
        <time>2015-09-20T09:24:52Z</time>
      </trkpt>
      <trkpt lat="44.61261" lon="2.51312">
        <ele>398.9</ele>
        <time>2015-09-20T09:24:56Z</time>
      </trkpt>
      <trkpt lat="44.61257" lon="2.51298">
        <ele>399.2</ele>
        <time>2015-09-20T09:24:59Z</time>
      </trkpt>
      <trkpt lat="44.61254" lon="2.51284">
        <ele>399.3</ele>
        <time>2015-09-20T09:25:01Z</time>
      </trkpt>
      <trkpt lat="44.61252" lon="2.5127">
        <ele>399.5</ele>
        <time>2015-09-20T09:25:03Z</time>
      </trkpt>
      <trkpt lat="44.61249" lon="2.51255">
        <ele>399.7</ele>
        <time>2015-09-20T09:25:06Z</time>
      </trkpt>
      <trkpt lat="44.61247" lon="2.51241">
        <ele>399.9</ele>
        <time>2015-09-20T09:25:09Z</time>
      </trkpt>
      <trkpt lat="44.61245" lon="2.51226">
        <ele>400</ele>
        <time>2015-09-20T09:25:12Z</time>
      </trkpt>
      <trkpt lat="44.61244" lon="2.51212">
        <ele>400.2</ele>
        <time>2015-09-20T09:25:15Z</time>
      </trkpt>
      <trkpt lat="44.61245" lon="2.51199">
        <ele>400.5</ele>
        <time>2015-09-20T09:25:18Z</time>
      </trkpt>
      <trkpt lat="44.61247" lon="2.51186">
        <ele>400.7</ele>
        <time>2015-09-20T09:25:21Z</time>
      </trkpt>
      <trkpt lat="44.61249" lon="2.51173">
        <ele>401.2</ele>
        <time>2015-09-20T09:25:27Z</time>
      </trkpt>
      <trkpt lat="44.61253" lon="2.5116">
        <ele>401.6</ele>
        <time>2015-09-20T09:25:32Z</time>
      </trkpt>
      <trkpt lat="44.61256" lon="2.51148">
        <ele>401.8</ele>
        <time>2015-09-20T09:25:35Z</time>
      </trkpt>
      <trkpt lat="44.61261" lon="2.51135">
        <ele>402</ele>
        <time>2015-09-20T09:25:38Z</time>
      </trkpt>
      <trkpt lat="44.61265" lon="2.51122">
        <ele>402.2</ele>
        <time>2015-09-20T09:25:41Z</time>
      </trkpt>
      <trkpt lat="44.61269" lon="2.51109">
        <ele>402.3</ele>
        <time>2015-09-20T09:25:44Z</time>
      </trkpt>
      <trkpt lat="44.61273" lon="2.51098">
        <ele>402.4</ele>
        <time>2015-09-20T09:25:47Z</time>
      </trkpt>
      <trkpt lat="44.61278" lon="2.51087">
        <ele>402.8</ele>
        <time>2015-09-20T09:25:52Z</time>
      </trkpt>
      <trkpt lat="44.61278" lon="2.51073">
        <ele>403.2</ele>
        <time>2015-09-20T09:25:57Z</time>
      </trkpt>
      <trkpt lat="44.61268" lon="2.51064">
        <ele>403.3</ele>
        <time>2015-09-20T09:26:00Z</time>
      </trkpt>
      <trkpt lat="44.61263" lon="2.51053">
        <ele>402.6</ele>
        <time>2015-09-20T09:26:11Z</time>
      </trkpt>
      <trkpt lat="44.61261" lon="2.5104">
        <ele>401.2</ele>
        <time>2015-09-20T09:26:43Z</time>
      </trkpt>
      <trkpt lat="44.61256" lon="2.51026">
        <ele>401.1</ele>
        <time>2015-09-20T09:26:47Z</time>
      </trkpt>
      <trkpt lat="44.61251" lon="2.51016">
        <ele>400.5</ele>
        <time>2015-09-20T09:27:13Z</time>
      </trkpt>
      <trkpt lat="44.61252" lon="2.51002">
        <ele>398.9</ele>
        <time>2015-09-20T09:28:29Z</time>
      </trkpt>
      <trkpt lat="44.6125" lon="2.50988">
        <ele>398.8</ele>
        <time>2015-09-20T09:28:32Z</time>
      </trkpt>
      <trkpt lat="44.61246" lon="2.5097">
        <ele>398.6</ele>
        <time>2015-09-20T09:28:35Z</time>
      </trkpt>
      <trkpt lat="44.61243" lon="2.50955">
        <ele>398.4</ele>
        <time>2015-09-20T09:28:37Z</time>
      </trkpt>
      <trkpt lat="44.61238" lon="2.50939">
        <ele>398.1</ele>
        <time>2015-09-20T09:28:39Z</time>
      </trkpt>
      <trkpt lat="44.61227" lon="2.50928">
        <ele>397.8</ele>
        <time>2015-09-20T09:28:41Z</time>
      </trkpt>
      <trkpt lat="44.61215" lon="2.50922">
        <ele>397.5</ele>
        <time>2015-09-20T09:28:43Z</time>
      </trkpt>
      <trkpt lat="44.61204" lon="2.50922">
        <ele>397.2</ele>
        <time>2015-09-20T09:28:45Z</time>
      </trkpt>
      <trkpt lat="44.61193" lon="2.50925">
        <ele>396.9</ele>
        <time>2015-09-20T09:28:47Z</time>
      </trkpt>
      <trkpt lat="44.61184" lon="2.50933">
        <ele>396.5</ele>
        <time>2015-09-20T09:28:50Z</time>
      </trkpt>
      <trkpt lat="44.6118" lon="2.50945">
        <ele>396.1</ele>
        <time>2015-09-20T09:28:52Z</time>
      </trkpt>
      <trkpt lat="44.61179" lon="2.50961">
        <ele>395.6</ele>
        <time>2015-09-20T09:28:55Z</time>
      </trkpt>
      <trkpt lat="44.61183" lon="2.50976">
        <ele>394.9</ele>
        <time>2015-09-20T09:28:58Z</time>
      </trkpt>
      <trkpt lat="44.61187" lon="2.50988">
        <ele>394.2</ele>
        <time>2015-09-20T09:29:01Z</time>
      </trkpt>
      <trkpt lat="44.61191" lon="2.50999">
        <ele>393.7</ele>
        <time>2015-09-20T09:29:03Z</time>
      </trkpt>
      <trkpt lat="44.61181" lon="2.51002">
        <ele>392.9</ele>
        <time>2015-09-20T09:29:06Z</time>
      </trkpt>
      <trkpt lat="44.61174" lon="2.50993">
        <ele>392.5</ele>
        <time>2015-09-20T09:29:08Z</time>
      </trkpt>
      <trkpt lat="44.61166" lon="2.50981">
        <ele>391.9</ele>
        <time>2015-09-20T09:29:10Z</time>
      </trkpt>
      <trkpt lat="44.61156" lon="2.50967">
        <ele>391.3</ele>
        <time>2015-09-20T09:29:12Z</time>
      </trkpt>
      <trkpt lat="44.61148" lon="2.50954">
        <ele>390.6</ele>
        <time>2015-09-20T09:29:14Z</time>
      </trkpt>
      <trkpt lat="44.6114" lon="2.50942">
        <ele>389.8</ele>
        <time>2015-09-20T09:29:17Z</time>
      </trkpt>
      <trkpt lat="44.61129" lon="2.50937">
        <ele>389</ele>
        <time>2015-09-20T09:29:20Z</time>
      </trkpt>
      <trkpt lat="44.61121" lon="2.5093">
        <ele>388.4</ele>
        <time>2015-09-20T09:29:22Z</time>
      </trkpt>
      <trkpt lat="44.61109" lon="2.5092">
        <ele>387.6</ele>
        <time>2015-09-20T09:29:24Z</time>
      </trkpt>
      <trkpt lat="44.61095" lon="2.50908">
        <ele>386.7</ele>
        <time>2015-09-20T09:29:26Z</time>
      </trkpt>
      <trkpt lat="44.61088" lon="2.509">
        <ele>386.2</ele>
        <time>2015-09-20T09:29:27Z</time>
      </trkpt>
      <trkpt lat="44.61081" lon="2.50892">
        <ele>385.6</ele>
        <time>2015-09-20T09:29:28Z</time>
      </trkpt>
      <trkpt lat="44.6107" lon="2.50878">
        <ele>384.4</ele>
        <time>2015-09-20T09:29:30Z</time>
      </trkpt>
      <trkpt lat="44.61062" lon="2.50866">
        <ele>383.2</ele>
        <time>2015-09-20T09:29:32Z</time>
      </trkpt>
      <trkpt lat="44.61051" lon="2.50853">
        <ele>381.9</ele>
        <time>2015-09-20T09:29:34Z</time>
      </trkpt>
      <trkpt lat="44.61037" lon="2.50844">
        <ele>380.4</ele>
        <time>2015-09-20T09:29:36Z</time>
      </trkpt>
      <trkpt lat="44.61021" lon="2.5084">
        <ele>378.8</ele>
        <time>2015-09-20T09:29:38Z</time>
      </trkpt>
      <trkpt lat="44.61009" lon="2.50837">
        <ele>377.3</ele>
        <time>2015-09-20T09:29:40Z</time>
      </trkpt>
      <trkpt lat="44.61" lon="2.5083">
        <ele>374.3</ele>
        <time>2015-09-20T09:29:45Z</time>
      </trkpt>
      <trkpt lat="44.60991" lon="2.50829">
        <ele>372.1</ele>
        <time>2015-09-20T09:29:50Z</time>
      </trkpt>
      <trkpt lat="44.60984" lon="2.5084">
        <ele>370.2</ele>
        <time>2015-09-20T09:29:56Z</time>
      </trkpt>
      <trkpt lat="44.60978" lon="2.5085">
        <ele>369.2</ele>
        <time>2015-09-20T09:30:01Z</time>
      </trkpt>
      <trkpt lat="44.60973" lon="2.50862">
        <ele>368.7</ele>
        <time>2015-09-20T09:30:08Z</time>
      </trkpt>
      <trkpt lat="44.60967" lon="2.50872">
        <ele>369.4</ele>
        <time>2015-09-20T09:30:23Z</time>
      </trkpt>
      <trkpt lat="44.60961" lon="2.50882">
        <ele>370.6</ele>
        <time>2015-09-20T09:30:33Z</time>
      </trkpt>
      <trkpt lat="44.60958" lon="2.50895">
        <ele>372.8</ele>
        <time>2015-09-20T09:30:44Z</time>
      </trkpt>
      <trkpt lat="44.60953" lon="2.50906">
        <ele>374.9</ele>
        <time>2015-09-20T09:30:55Z</time>
      </trkpt>
      <trkpt lat="44.60949" lon="2.50918">
        <ele>377</ele>
        <time>2015-09-20T09:31:06Z</time>
      </trkpt>
      <trkpt lat="44.60945" lon="2.5093">
        <ele>378.8</ele>
        <time>2015-09-20T09:31:15Z</time>
      </trkpt>
      <trkpt lat="44.60939" lon="2.50939">
        <ele>380.3</ele>
        <time>2015-09-20T09:31:23Z</time>
      </trkpt>
      <trkpt lat="44.60934" lon="2.50951">
        <ele>382</ele>
        <time>2015-09-20T09:31:33Z</time>
      </trkpt>
      <trkpt lat="44.60928" lon="2.50962">
        <ele>383.4</ele>
        <time>2015-09-20T09:31:41Z</time>
      </trkpt>
      <trkpt lat="44.60918" lon="2.50961">
        <ele>384.7</ele>
        <time>2015-09-20T09:31:51Z</time>
      </trkpt>
      <trkpt lat="44.60911" lon="2.50952">
        <ele>386</ele>
        <time>2015-09-20T09:32:00Z</time>
      </trkpt>
      <trkpt lat="44.60911" lon="2.50939">
        <ele>387</ele>
        <time>2015-09-20T09:32:10Z</time>
      </trkpt>
      <trkpt lat="44.60913" lon="2.50926">
        <ele>387.4</ele>
        <time>2015-09-20T09:32:16Z</time>
      </trkpt>
      <trkpt lat="44.60912" lon="2.50913">
        <ele>387.9</ele>
        <time>2015-09-20T09:32:23Z</time>
      </trkpt>
      <trkpt lat="44.60907" lon="2.50901">
        <ele>388.5</ele>
        <time>2015-09-20T09:32:30Z</time>
      </trkpt>
      <trkpt lat="44.60906" lon="2.50887">
        <ele>389.8</ele>
        <time>2015-09-20T09:32:38Z</time>
      </trkpt>
      <trkpt lat="44.60903" lon="2.50874">
        <ele>390.9</ele>
        <time>2015-09-20T09:32:44Z</time>
      </trkpt>
      <trkpt lat="44.60899" lon="2.50862">
        <ele>391.5</ele>
        <time>2015-09-20T09:32:49Z</time>
      </trkpt>
      <trkpt lat="44.60895" lon="2.50849">
        <ele>392.1</ele>
        <time>2015-09-20T09:32:54Z</time>
      </trkpt>
      <trkpt lat="44.6089" lon="2.50836">
        <ele>392.4</ele>
        <time>2015-09-20T09:32:59Z</time>
      </trkpt>
      <trkpt lat="44.60886" lon="2.50825">
        <ele>392.8</ele>
        <time>2015-09-20T09:33:04Z</time>
      </trkpt>
      <trkpt lat="44.60882" lon="2.50812">
        <ele>393.2</ele>
        <time>2015-09-20T09:33:09Z</time>
      </trkpt>
      <trkpt lat="44.60879" lon="2.50799">
        <ele>393.7</ele>
        <time>2015-09-20T09:33:14Z</time>
      </trkpt>
      <trkpt lat="44.60876" lon="2.50786">
        <ele>394.4</ele>
        <time>2015-09-20T09:33:19Z</time>
      </trkpt>
      <trkpt lat="44.60874" lon="2.50773">
        <ele>395</ele>
        <time>2015-09-20T09:33:24Z</time>
      </trkpt>
      <trkpt lat="44.60871" lon="2.5076">
        <ele>395.7</ele>
        <time>2015-09-20T09:33:29Z</time>
      </trkpt>
      <trkpt lat="44.60871" lon="2.50746">
        <ele>396.6</ele>
        <time>2015-09-20T09:33:36Z</time>
      </trkpt>
      <trkpt lat="44.60871" lon="2.50733">
        <ele>397.6</ele>
        <time>2015-09-20T09:33:43Z</time>
      </trkpt>
      <trkpt lat="44.6087" lon="2.5072">
        <ele>398.7</ele>
        <time>2015-09-20T09:33:50Z</time>
      </trkpt>
      <trkpt lat="44.6087" lon="2.50706">
        <ele>400.9</ele>
        <time>2015-09-20T09:34:00Z</time>
      </trkpt>
      <trkpt lat="44.60873" lon="2.50694">
        <ele>402.3</ele>
        <time>2015-09-20T09:34:06Z</time>
      </trkpt>
      <trkpt lat="44.60877" lon="2.50681">
        <ele>403.4</ele>
        <time>2015-09-20T09:34:12Z</time>
      </trkpt>
      <trkpt lat="44.60876" lon="2.50667">
        <ele>404.3</ele>
        <time>2015-09-20T09:34:17Z</time>
      </trkpt>
      <trkpt lat="44.60875" lon="2.50651">
        <ele>404.8</ele>
        <time>2015-09-20T09:34:21Z</time>
      </trkpt>
      <trkpt lat="44.60873" lon="2.50635">
        <ele>405.2</ele>
        <time>2015-09-20T09:34:24Z</time>
      </trkpt>
      <trkpt lat="44.6087" lon="2.50621">
        <ele>405.5</ele>
        <time>2015-09-20T09:34:27Z</time>
      </trkpt>
      <trkpt lat="44.60867" lon="2.50607">
        <ele>405.8</ele>
        <time>2015-09-20T09:34:30Z</time>
      </trkpt>
      <trkpt lat="44.60864" lon="2.50595">
        <ele>406</ele>
        <time>2015-09-20T09:34:33Z</time>
      </trkpt>
      <trkpt lat="44.6086" lon="2.50581">
        <ele>406.4</ele>
        <time>2015-09-20T09:34:37Z</time>
      </trkpt>
      <trkpt lat="44.60857" lon="2.50568">
        <ele>406.9</ele>
        <time>2015-09-20T09:34:41Z</time>
      </trkpt>
      <trkpt lat="44.60853" lon="2.50556">
        <ele>407.3</ele>
        <time>2015-09-20T09:34:45Z</time>
      </trkpt>
      <trkpt lat="44.6085" lon="2.50543">
        <ele>407.9</ele>
        <time>2015-09-20T09:34:49Z</time>
      </trkpt>
      <trkpt lat="44.60848" lon="2.5053">
        <ele>408.4</ele>
        <time>2015-09-20T09:34:53Z</time>
      </trkpt>
      <trkpt lat="44.60846" lon="2.50516">
        <ele>409</ele>
        <time>2015-09-20T09:34:57Z</time>
      </trkpt>
      <trkpt lat="44.60844" lon="2.50503">
        <ele>409.6</ele>
        <time>2015-09-20T09:35:01Z</time>
      </trkpt>
      <trkpt lat="44.60842" lon="2.5049">
        <ele>410.2</ele>
        <time>2015-09-20T09:35:05Z</time>
      </trkpt>
      <trkpt lat="44.60839" lon="2.50477">
        <ele>411</ele>
        <time>2015-09-20T09:35:10Z</time>
      </trkpt>
      <trkpt lat="44.60834" lon="2.50464">
        <ele>411.8</ele>
        <time>2015-09-20T09:35:15Z</time>
      </trkpt>
      <trkpt lat="44.60829" lon="2.50452">
        <ele>412.4</ele>
        <time>2015-09-20T09:35:19Z</time>
      </trkpt>
      <trkpt lat="44.60824" lon="2.5044">
        <ele>412.9</ele>
        <time>2015-09-20T09:35:23Z</time>
      </trkpt>
      <trkpt lat="44.60817" lon="2.50431">
        <ele>413.5</ele>
        <time>2015-09-20T09:35:27Z</time>
      </trkpt>
      <trkpt lat="44.6081" lon="2.50422">
        <ele>414.5</ele>
        <time>2015-09-20T09:35:36Z</time>
      </trkpt>
      <trkpt lat="44.60801" lon="2.50417">
        <ele>415.2</ele>
        <time>2015-09-20T09:35:42Z</time>
      </trkpt>
      <trkpt lat="44.60793" lon="2.50411">
        <ele>415.9</ele>
        <time>2015-09-20T09:35:49Z</time>
      </trkpt>
      <trkpt lat="44.60786" lon="2.50403">
        <ele>416.5</ele>
        <time>2015-09-20T09:35:57Z</time>
      </trkpt>
      <trkpt lat="44.60778" lon="2.50396">
        <ele>417</ele>
        <time>2015-09-20T09:36:05Z</time>
      </trkpt>
      <trkpt lat="44.6077" lon="2.50389">
        <ele>418.5</ele>
        <time>2015-09-20T09:37:37Z</time>
      </trkpt>
      <trkpt lat="44.60761" lon="2.5038">
        <ele>418.5</ele>
        <time>2015-09-20T09:37:42Z</time>
      </trkpt>
      <trkpt lat="44.60751" lon="2.50372">
        <ele>418.8</ele>
        <time>2015-09-20T09:37:47Z</time>
      </trkpt>
      <trkpt lat="44.60744" lon="2.50364">
        <ele>419.2</ele>
        <time>2015-09-20T09:37:52Z</time>
      </trkpt>
      <trkpt lat="44.60737" lon="2.50355">
        <ele>419.9</ele>
        <time>2015-09-20T09:37:59Z</time>
      </trkpt>
      <trkpt lat="44.60727" lon="2.50357">
        <ele>422.2</ele>
        <time>2015-09-20T09:38:38Z</time>
      </trkpt>
      <trkpt lat="44.60714" lon="2.5035">
        <ele>422</ele>
        <time>2015-09-20T09:38:41Z</time>
      </trkpt>
      <trkpt lat="44.60705" lon="2.50346">
        <ele>421.8</ele>
        <time>2015-09-20T09:38:43Z</time>
      </trkpt>
      <trkpt lat="44.60698" lon="2.50336">
        <ele>421.1</ele>
        <time>2015-09-20T09:38:48Z</time>
      </trkpt>
      <trkpt lat="44.60695" lon="2.50322">
        <ele>420</ele>
        <time>2015-09-20T09:38:54Z</time>
      </trkpt>
      <trkpt lat="44.60698" lon="2.5031">
        <ele>418.9</ele>
        <time>2015-09-20T09:38:58Z</time>
      </trkpt>
      <trkpt lat="44.60702" lon="2.50291">
        <ele>417.9</ele>
        <time>2015-09-20T09:39:01Z</time>
      </trkpt>
      <trkpt lat="44.60701" lon="2.50276">
        <ele>417.3</ele>
        <time>2015-09-20T09:39:03Z</time>
      </trkpt>
      <trkpt lat="44.60694" lon="2.50261">
        <ele>416.6</ele>
        <time>2015-09-20T09:39:05Z</time>
      </trkpt>
      <trkpt lat="44.60682" lon="2.50255">
        <ele>416.1</ele>
        <time>2015-09-20T09:39:07Z</time>
      </trkpt>
      <trkpt lat="44.60671" lon="2.50249">
        <ele>415.5</ele>
        <time>2015-09-20T09:39:09Z</time>
      </trkpt>
      <trkpt lat="44.60662" lon="2.50243">
        <ele>414.9</ele>
        <time>2015-09-20T09:39:11Z</time>
      </trkpt>
      <trkpt lat="44.6065" lon="2.50237">
        <ele>414.1</ele>
        <time>2015-09-20T09:39:14Z</time>
      </trkpt>
      <trkpt lat="44.60641" lon="2.50237">
        <ele>412.8</ele>
        <time>2015-09-20T09:39:24Z</time>
      </trkpt>
      <trkpt lat="44.60635" lon="2.50226">
        <ele>412.9</ele>
        <time>2015-09-20T09:39:37Z</time>
      </trkpt>
      <trkpt lat="44.60634" lon="2.50211">
        <ele>413.1</ele>
        <time>2015-09-20T09:39:43Z</time>
      </trkpt>
      <trkpt lat="44.60635" lon="2.50198">
        <ele>413.4</ele>
        <time>2015-09-20T09:39:48Z</time>
      </trkpt>
      <trkpt lat="44.60636" lon="2.50183">
        <ele>413.7</ele>
        <time>2015-09-20T09:39:53Z</time>
      </trkpt>
      <trkpt lat="44.60637" lon="2.50171">
        <ele>414</ele>
        <time>2015-09-20T09:39:57Z</time>
      </trkpt>
      <trkpt lat="44.60638" lon="2.50158">
        <ele>414.3</ele>
        <time>2015-09-20T09:40:01Z</time>
      </trkpt>
      <trkpt lat="44.60638" lon="2.50145">
        <ele>414.5</ele>
        <time>2015-09-20T09:40:05Z</time>
      </trkpt>
      <trkpt lat="44.60638" lon="2.50129">
        <ele>414.9</ele>
        <time>2015-09-20T09:40:10Z</time>
      </trkpt>
      <trkpt lat="44.60638" lon="2.50114">
        <ele>415.4</ele>
        <time>2015-09-20T09:40:15Z</time>
      </trkpt>
      <trkpt lat="44.60637" lon="2.501">
        <ele>415.9</ele>
        <time>2015-09-20T09:40:20Z</time>
      </trkpt>
      <trkpt lat="44.60633" lon="2.50085">
        <ele>416.6</ele>
        <time>2015-09-20T09:40:25Z</time>
      </trkpt>
      <trkpt lat="44.60629" lon="2.50073">
        <ele>417</ele>
        <time>2015-09-20T09:40:29Z</time>
      </trkpt>
      <trkpt lat="44.60622" lon="2.50062">
        <ele>417.4</ele>
        <time>2015-09-20T09:40:33Z</time>
      </trkpt>
      <trkpt lat="44.60615" lon="2.50054">
        <ele>417.8</ele>
        <time>2015-09-20T09:40:37Z</time>
      </trkpt>
      <trkpt lat="44.60606" lon="2.50044">
        <ele>418.4</ele>
        <time>2015-09-20T09:40:42Z</time>
      </trkpt>
      <trkpt lat="44.60598" lon="2.50037">
        <ele>418.8</ele>
        <time>2015-09-20T09:40:46Z</time>
      </trkpt>
      <trkpt lat="44.60589" lon="2.50032">
        <ele>419.1</ele>
        <time>2015-09-20T09:40:50Z</time>
      </trkpt>
      <trkpt lat="44.6058" lon="2.50026">
        <ele>419.4</ele>
        <time>2015-09-20T09:40:54Z</time>
      </trkpt>
      <trkpt lat="44.6057" lon="2.5002">
        <ele>419.6</ele>
        <time>2015-09-20T09:40:58Z</time>
      </trkpt>
      <trkpt lat="44.60561" lon="2.50014">
        <ele>419.8</ele>
        <time>2015-09-20T09:41:02Z</time>
      </trkpt>
      <trkpt lat="44.60551" lon="2.50008">
        <ele>420</ele>
        <time>2015-09-20T09:41:06Z</time>
      </trkpt>
      <trkpt lat="44.6054" lon="2.50001">
        <ele>420.3</ele>
        <time>2015-09-20T09:41:10Z</time>
      </trkpt>
      <trkpt lat="44.6053" lon="2.49993">
        <ele>420.5</ele>
        <time>2015-09-20T09:41:14Z</time>
      </trkpt>
      <trkpt lat="44.6052" lon="2.49985">
        <ele>420.7</ele>
        <time>2015-09-20T09:41:18Z</time>
      </trkpt>
      <trkpt lat="44.60511" lon="2.49976">
        <ele>420.9</ele>
        <time>2015-09-20T09:41:22Z</time>
      </trkpt>
      <trkpt lat="44.60504" lon="2.49966">
        <ele>421</ele>
        <time>2015-09-20T09:41:26Z</time>
      </trkpt>
      <trkpt lat="44.60497" lon="2.49956">
        <ele>421.1</ele>
        <time>2015-09-20T09:41:30Z</time>
      </trkpt>
      <trkpt lat="44.60492" lon="2.49944">
        <ele>421.3</ele>
        <time>2015-09-20T09:41:34Z</time>
      </trkpt>
      <trkpt lat="44.6049" lon="2.4993">
        <ele>421.5</ele>
        <time>2015-09-20T09:41:38Z</time>
      </trkpt>
      <trkpt lat="44.60488" lon="2.49914">
        <ele>421.6</ele>
        <time>2015-09-20T09:41:42Z</time>
      </trkpt>
      <trkpt lat="44.60487" lon="2.49901">
        <ele>421.7</ele>
        <time>2015-09-20T09:41:45Z</time>
      </trkpt>
      <trkpt lat="44.60486" lon="2.49887">
        <ele>421.8</ele>
        <time>2015-09-20T09:41:48Z</time>
      </trkpt>
      <trkpt lat="44.60487" lon="2.49872">
        <ele>421.9</ele>
        <time>2015-09-20T09:41:52Z</time>
      </trkpt>
      <trkpt lat="44.60487" lon="2.49858">
        <ele>422</ele>
        <time>2015-09-20T09:41:56Z</time>
      </trkpt>
      <trkpt lat="44.60487" lon="2.49842">
        <ele>422.1</ele>
        <time>2015-09-20T09:42:00Z</time>
      </trkpt>
      <trkpt lat="44.60487" lon="2.49826">
        <ele>422.2</ele>
        <time>2015-09-20T09:42:04Z</time>
      </trkpt>
      <trkpt lat="44.60485" lon="2.49813">
        <ele>422.2</ele>
        <time>2015-09-20T09:42:07Z</time>
      </trkpt>
      <trkpt lat="44.60486" lon="2.49799">
        <ele>422.3</ele>
        <time>2015-09-20T09:42:11Z</time>
      </trkpt>
      <trkpt lat="44.60488" lon="2.49783">
        <ele>422.5</ele>
        <time>2015-09-20T09:42:28Z</time>
      </trkpt>
      <trkpt lat="44.60489" lon="2.49766">
        <ele>422.5</ele>
        <time>2015-09-20T09:42:31Z</time>
      </trkpt>
      <trkpt lat="44.60492" lon="2.49753">
        <ele>422.5</ele>
        <time>2015-09-20T09:42:33Z</time>
      </trkpt>
      <trkpt lat="44.60496" lon="2.49741">
        <ele>422.5</ele>
        <time>2015-09-20T09:42:35Z</time>
      </trkpt>
      <trkpt lat="44.605" lon="2.49728">
        <ele>422.5</ele>
        <time>2015-09-20T09:42:37Z</time>
      </trkpt>
      <trkpt lat="44.60504" lon="2.49714">
        <ele>422.5</ele>
        <time>2015-09-20T09:42:39Z</time>
      </trkpt>
      <trkpt lat="44.60508" lon="2.497">
        <ele>422.5</ele>
        <time>2015-09-20T09:42:41Z</time>
      </trkpt>
      <trkpt lat="44.60512" lon="2.49686">
        <ele>422.5</ele>
        <time>2015-09-20T09:42:43Z</time>
      </trkpt>
      <trkpt lat="44.60516" lon="2.49672">
        <ele>422.5</ele>
        <time>2015-09-20T09:42:45Z</time>
      </trkpt>
      <trkpt lat="44.6052" lon="2.49659">
        <ele>422.5</ele>
        <time>2015-09-20T09:42:47Z</time>
      </trkpt>
      <trkpt lat="44.60522" lon="2.49646">
        <ele>422.5</ele>
        <time>2015-09-20T09:42:49Z</time>
      </trkpt>
      <trkpt lat="44.60527" lon="2.4963">
        <ele>422.4</ele>
        <time>2015-09-20T09:42:52Z</time>
      </trkpt>
      <trkpt lat="44.60529" lon="2.49614">
        <ele>422.4</ele>
        <time>2015-09-20T09:42:55Z</time>
      </trkpt>
      <trkpt lat="44.60522" lon="2.49606">
        <ele>422.3</ele>
        <time>2015-09-20T09:42:58Z</time>
      </trkpt>
      <trkpt lat="44.60514" lon="2.49599">
        <ele>422.3</ele>
        <time>2015-09-20T09:43:01Z</time>
      </trkpt>
      <trkpt lat="44.60522" lon="2.49605">
        <ele>422.2</ele>
        <time>2015-09-20T09:43:14Z</time>
      </trkpt>
      <trkpt lat="44.60532" lon="2.49601">
        <ele>422.2</ele>
        <time>2015-09-20T09:43:18Z</time>
      </trkpt>
      <trkpt lat="44.6054" lon="2.49594">
        <ele>422.2</ele>
        <time>2015-09-20T09:43:21Z</time>
      </trkpt>
      <trkpt lat="44.60547" lon="2.49587">
        <ele>422.2</ele>
        <time>2015-09-20T09:43:25Z</time>
      </trkpt>
      <trkpt lat="44.60556" lon="2.4958">
        <ele>422.4</ele>
        <time>2015-09-20T09:43:30Z</time>
      </trkpt>
      <trkpt lat="44.60565" lon="2.49575">
        <ele>423</ele>
        <time>2015-09-20T09:43:36Z</time>
      </trkpt>
      <trkpt lat="44.60573" lon="2.49569">
        <ele>423.4</ele>
        <time>2015-09-20T09:43:41Z</time>
      </trkpt>
      <trkpt lat="44.60582" lon="2.49563">
        <ele>424</ele>
        <time>2015-09-20T09:43:46Z</time>
      </trkpt>
      <trkpt lat="44.60591" lon="2.49558">
        <ele>424.4</ele>
        <time>2015-09-20T09:43:50Z</time>
      </trkpt>
      <trkpt lat="44.606" lon="2.49553">
        <ele>424.9</ele>
        <time>2015-09-20T09:43:54Z</time>
      </trkpt>
      <trkpt lat="44.60609" lon="2.49548">
        <ele>425.6</ele>
        <time>2015-09-20T09:43:59Z</time>
      </trkpt>
      <trkpt lat="44.60619" lon="2.49543">
        <ele>426.3</ele>
        <time>2015-09-20T09:44:04Z</time>
      </trkpt>
      <trkpt lat="44.60628" lon="2.49537">
        <ele>426.8</ele>
        <time>2015-09-20T09:44:08Z</time>
      </trkpt>
      <trkpt lat="44.60637" lon="2.4953">
        <ele>427.4</ele>
        <time>2015-09-20T09:44:13Z</time>
      </trkpt>
      <trkpt lat="44.60646" lon="2.49521">
        <ele>428.1</ele>
        <time>2015-09-20T09:44:18Z</time>
      </trkpt>
      <trkpt lat="44.60651" lon="2.49508">
        <ele>428.8</ele>
        <time>2015-09-20T09:44:23Z</time>
      </trkpt>
      <trkpt lat="44.60654" lon="2.49495">
        <ele>429.5</ele>
        <time>2015-09-20T09:44:28Z</time>
      </trkpt>
      <trkpt lat="44.60653" lon="2.49482">
        <ele>430.1</ele>
        <time>2015-09-20T09:44:33Z</time>
      </trkpt>
      <trkpt lat="44.60647" lon="2.49469">
        <ele>430.7</ele>
        <time>2015-09-20T09:44:38Z</time>
      </trkpt>
      <trkpt lat="44.60639" lon="2.4946">
        <ele>431.5</ele>
        <time>2015-09-20T09:44:43Z</time>
      </trkpt>
      <trkpt lat="44.6063" lon="2.49451">
        <ele>432.3</ele>
        <time>2015-09-20T09:44:48Z</time>
      </trkpt>
      <trkpt lat="44.60622" lon="2.49441">
        <ele>433.2</ele>
        <time>2015-09-20T09:44:53Z</time>
      </trkpt>
      <trkpt lat="44.60616" lon="2.4943">
        <ele>433.9</ele>
        <time>2015-09-20T09:44:58Z</time>
      </trkpt>
      <trkpt lat="44.6061" lon="2.49418">
        <ele>434.6</ele>
        <time>2015-09-20T09:45:03Z</time>
      </trkpt>
      <trkpt lat="44.60606" lon="2.49406">
        <ele>435.3</ele>
        <time>2015-09-20T09:45:07Z</time>
      </trkpt>
      <trkpt lat="44.60602" lon="2.49392">
        <ele>436</ele>
        <time>2015-09-20T09:45:12Z</time>
      </trkpt>
      <trkpt lat="44.60599" lon="2.49379">
        <ele>436.7</ele>
        <time>2015-09-20T09:45:17Z</time>
      </trkpt>
      <trkpt lat="44.60595" lon="2.49367">
        <ele>437.4</ele>
        <time>2015-09-20T09:45:22Z</time>
      </trkpt>
      <trkpt lat="44.60593" lon="2.49354">
        <ele>438</ele>
        <time>2015-09-20T09:45:26Z</time>
      </trkpt>
      <trkpt lat="44.60591" lon="2.49342">
        <ele>438.6</ele>
        <time>2015-09-20T09:45:30Z</time>
      </trkpt>
      <trkpt lat="44.60587" lon="2.49328">
        <ele>439.5</ele>
        <time>2015-09-20T09:45:36Z</time>
      </trkpt>
      <trkpt lat="44.60584" lon="2.49315">
        <ele>440.3</ele>
        <time>2015-09-20T09:45:41Z</time>
      </trkpt>
      <trkpt lat="44.60581" lon="2.493">
        <ele>440.9</ele>
        <time>2015-09-20T09:45:46Z</time>
      </trkpt>
      <trkpt lat="44.60577" lon="2.49287">
        <ele>441.6</ele>
        <time>2015-09-20T09:45:51Z</time>
      </trkpt>
      <trkpt lat="44.60573" lon="2.49273">
        <ele>442.4</ele>
        <time>2015-09-20T09:45:56Z</time>
      </trkpt>
      <trkpt lat="44.6057" lon="2.4926">
        <ele>443.3</ele>
        <time>2015-09-20T09:46:01Z</time>
      </trkpt>
      <trkpt lat="44.60567" lon="2.49247">
        <ele>444</ele>
        <time>2015-09-20T09:46:05Z</time>
      </trkpt>
      <trkpt lat="44.60564" lon="2.49232">
        <ele>444.8</ele>
        <time>2015-09-20T09:46:10Z</time>
      </trkpt>
      <trkpt lat="44.60562" lon="2.49218">
        <ele>445.6</ele>
        <time>2015-09-20T09:46:15Z</time>
      </trkpt>
      <trkpt lat="44.60562" lon="2.49204">
        <ele>446.6</ele>
        <time>2015-09-20T09:46:22Z</time>
      </trkpt>
      <trkpt lat="44.60562" lon="2.49191">
        <ele>447.4</ele>
        <time>2015-09-20T09:46:28Z</time>
      </trkpt>
      <trkpt lat="44.60563" lon="2.49176">
        <ele>448.3</ele>
        <time>2015-09-20T09:46:34Z</time>
      </trkpt>
      <trkpt lat="44.60564" lon="2.49162">
        <ele>449.1</ele>
        <time>2015-09-20T09:46:40Z</time>
      </trkpt>
      <trkpt lat="44.60565" lon="2.49147">
        <ele>449.7</ele>
        <time>2015-09-20T09:46:46Z</time>
      </trkpt>
      <trkpt lat="44.60566" lon="2.49132">
        <ele>450.5</ele>
        <time>2015-09-20T09:46:52Z</time>
      </trkpt>
      <trkpt lat="44.60568" lon="2.49118">
        <ele>451.4</ele>
        <time>2015-09-20T09:46:58Z</time>
      </trkpt>
      <trkpt lat="44.6057" lon="2.49103">
        <ele>452.1</ele>
        <time>2015-09-20T09:47:04Z</time>
      </trkpt>
      <trkpt lat="44.6057" lon="2.4909">
        <ele>452.8</ele>
        <time>2015-09-20T09:47:09Z</time>
      </trkpt>
      <trkpt lat="44.60572" lon="2.49077">
        <ele>453.5</ele>
        <time>2015-09-20T09:47:14Z</time>
      </trkpt>
      <trkpt lat="44.60573" lon="2.49064">
        <ele>454.2</ele>
        <time>2015-09-20T09:47:19Z</time>
      </trkpt>
      <trkpt lat="44.60576" lon="2.4905">
        <ele>455</ele>
        <time>2015-09-20T09:47:25Z</time>
      </trkpt>
      <trkpt lat="44.60581" lon="2.49038">
        <ele>455.7</ele>
        <time>2015-09-20T09:47:30Z</time>
      </trkpt>
      <trkpt lat="44.60584" lon="2.49025">
        <ele>457</ele>
        <time>2015-09-20T09:47:43Z</time>
      </trkpt>
      <trkpt lat="44.6059" lon="2.49014">
        <ele>457.5</ele>
        <time>2015-09-20T09:47:49Z</time>
      </trkpt>
      <trkpt lat="44.60597" lon="2.49005">
        <ele>457.9</ele>
        <time>2015-09-20T09:47:54Z</time>
      </trkpt>
      <trkpt lat="44.60604" lon="2.48997">
        <ele>458.5</ele>
        <time>2015-09-20T09:47:59Z</time>
      </trkpt>
      <trkpt lat="44.60611" lon="2.48988">
        <ele>459</ele>
        <time>2015-09-20T09:48:04Z</time>
      </trkpt>
      <trkpt lat="44.60616" lon="2.48978">
        <ele>459.6</ele>
        <time>2015-09-20T09:48:09Z</time>
      </trkpt>
      <trkpt lat="44.60621" lon="2.48966">
        <ele>460.1</ele>
        <time>2015-09-20T09:48:14Z</time>
      </trkpt>
      <trkpt lat="44.60626" lon="2.48955">
        <ele>460.7</ele>
        <time>2015-09-20T09:48:19Z</time>
      </trkpt>
      <trkpt lat="44.60631" lon="2.48944">
        <ele>461.4</ele>
        <time>2015-09-20T09:48:24Z</time>
      </trkpt>
      <trkpt lat="44.60635" lon="2.48932">
        <ele>462.2</ele>
        <time>2015-09-20T09:48:29Z</time>
      </trkpt>
      <trkpt lat="44.6064" lon="2.48921">
        <ele>462.9</ele>
        <time>2015-09-20T09:48:34Z</time>
      </trkpt>
      <trkpt lat="44.60645" lon="2.48909">
        <ele>463.6</ele>
        <time>2015-09-20T09:48:39Z</time>
      </trkpt>
      <trkpt lat="44.60651" lon="2.48899">
        <ele>464.2</ele>
        <time>2015-09-20T09:48:44Z</time>
      </trkpt>
      <trkpt lat="44.60658" lon="2.48891">
        <ele>464.8</ele>
        <time>2015-09-20T09:48:49Z</time>
      </trkpt>
      <trkpt lat="44.60666" lon="2.48882">
        <ele>465.6</ele>
        <time>2015-09-20T09:48:54Z</time>
      </trkpt>
      <trkpt lat="44.60674" lon="2.48875">
        <ele>466.4</ele>
        <time>2015-09-20T09:48:59Z</time>
      </trkpt>
      <trkpt lat="44.60683" lon="2.48869">
        <ele>467.1</ele>
        <time>2015-09-20T09:49:04Z</time>
      </trkpt>
      <trkpt lat="44.60692" lon="2.48864">
        <ele>468</ele>
        <time>2015-09-20T09:49:09Z</time>
      </trkpt>
      <trkpt lat="44.60701" lon="2.4886">
        <ele>468.7</ele>
        <time>2015-09-20T09:49:14Z</time>
      </trkpt>
      <trkpt lat="44.60711" lon="2.48856">
        <ele>469.4</ele>
        <time>2015-09-20T09:49:19Z</time>
      </trkpt>
      <trkpt lat="44.6072" lon="2.48851">
        <ele>470.2</ele>
        <time>2015-09-20T09:49:25Z</time>
      </trkpt>
      <trkpt lat="44.6073" lon="2.48844">
        <ele>471</ele>
        <time>2015-09-20T09:49:31Z</time>
      </trkpt>
      <trkpt lat="44.60738" lon="2.48838">
        <ele>471.6</ele>
        <time>2015-09-20T09:49:36Z</time>
      </trkpt>
      <trkpt lat="44.60745" lon="2.48829">
        <ele>472.2</ele>
        <time>2015-09-20T09:49:41Z</time>
      </trkpt>
      <trkpt lat="44.60751" lon="2.48815">
        <ele>472</ele>
        <time>2015-09-20T09:49:47Z</time>
      </trkpt>
      <trkpt lat="44.60756" lon="2.48804">
        <ele>473.5</ele>
        <time>2015-09-20T09:49:52Z</time>
      </trkpt>
      <trkpt lat="44.6076" lon="2.48791">
        <ele>474.1</ele>
        <time>2015-09-20T09:49:57Z</time>
      </trkpt>
      <trkpt lat="44.60767" lon="2.4878">
        <ele>474.8</ele>
        <time>2015-09-20T09:50:02Z</time>
      </trkpt>
      <trkpt lat="44.6077" lon="2.48768">
        <ele>475.5</ele>
        <time>2015-09-20T09:50:07Z</time>
      </trkpt>
      <trkpt lat="44.60772" lon="2.48754">
        <ele>476.1</ele>
        <time>2015-09-20T09:50:12Z</time>
      </trkpt>
      <trkpt lat="44.60771" lon="2.48741">
        <ele>476.9</ele>
        <time>2015-09-20T09:50:17Z</time>
      </trkpt>
      <trkpt lat="44.6077" lon="2.48726">
        <ele>477.6</ele>
        <time>2015-09-20T09:50:23Z</time>
      </trkpt>
      <trkpt lat="44.60767" lon="2.48713">
        <ele>478.2</ele>
        <time>2015-09-20T09:50:28Z</time>
      </trkpt>
      <trkpt lat="44.60761" lon="2.48702">
        <ele>478.7</ele>
        <time>2015-09-20T09:50:33Z</time>
      </trkpt>
      <trkpt lat="44.60754" lon="2.48692">
        <ele>479.4</ele>
        <time>2015-09-20T09:50:39Z</time>
      </trkpt>
      <trkpt lat="44.60746" lon="2.48686">
        <ele>480</ele>
        <time>2015-09-20T09:50:44Z</time>
      </trkpt>
      <trkpt lat="44.60738" lon="2.48681">
        <ele>480.8</ele>
        <time>2015-09-20T09:50:49Z</time>
      </trkpt>
      <trkpt lat="44.60729" lon="2.48676">
        <ele>481.5</ele>
        <time>2015-09-20T09:50:54Z</time>
      </trkpt>
      <trkpt lat="44.60719" lon="2.4867">
        <ele>482.3</ele>
        <time>2015-09-20T09:51:00Z</time>
      </trkpt>
      <trkpt lat="44.60711" lon="2.48666">
        <ele>483</ele>
        <time>2015-09-20T09:51:05Z</time>
      </trkpt>
      <trkpt lat="44.607" lon="2.48661">
        <ele>483.7</ele>
        <time>2015-09-20T09:51:11Z</time>
      </trkpt>
      <trkpt lat="44.60692" lon="2.48656">
        <ele>484.7</ele>
        <time>2015-09-20T09:51:18Z</time>
      </trkpt>
      <trkpt lat="44.60684" lon="2.48651">
        <ele>485.3</ele>
        <time>2015-09-20T09:51:24Z</time>
      </trkpt>
      <trkpt lat="44.60676" lon="2.48642">
        <ele>485.9</ele>
        <time>2015-09-20T09:51:30Z</time>
      </trkpt>
      <trkpt lat="44.6067" lon="2.48631">
        <ele>486.7</ele>
        <time>2015-09-20T09:51:36Z</time>
      </trkpt>
      <trkpt lat="44.60666" lon="2.4862">
        <ele>487.4</ele>
        <time>2015-09-20T09:51:41Z</time>
      </trkpt>
      <trkpt lat="44.60665" lon="2.48607">
        <ele>488.2</ele>
        <time>2015-09-20T09:51:46Z</time>
      </trkpt>
      <trkpt lat="44.60667" lon="2.48592">
        <ele>489.2</ele>
        <time>2015-09-20T09:51:52Z</time>
      </trkpt>
      <trkpt lat="44.60669" lon="2.48579">
        <ele>489.9</ele>
        <time>2015-09-20T09:51:57Z</time>
      </trkpt>
      <trkpt lat="44.60674" lon="2.48568">
        <ele>490.6</ele>
        <time>2015-09-20T09:52:02Z</time>
      </trkpt>
      <trkpt lat="44.60679" lon="2.48555">
        <ele>491.4</ele>
        <time>2015-09-20T09:52:08Z</time>
      </trkpt>
      <trkpt lat="44.60683" lon="2.48543">
        <ele>492</ele>
        <time>2015-09-20T09:52:13Z</time>
      </trkpt>
      <trkpt lat="44.60685" lon="2.48528">
        <ele>492.7</ele>
        <time>2015-09-20T09:52:18Z</time>
      </trkpt>
      <trkpt lat="44.60682" lon="2.48514">
        <ele>493.4</ele>
        <time>2015-09-20T09:52:23Z</time>
      </trkpt>
      <trkpt lat="44.60674" lon="2.48506">
        <ele>494</ele>
        <time>2015-09-20T09:52:28Z</time>
      </trkpt>
      <trkpt lat="44.60665" lon="2.48501">
        <ele>494.6</ele>
        <time>2015-09-20T09:52:33Z</time>
      </trkpt>
      <trkpt lat="44.60656" lon="2.48502">
        <ele>495.4</ele>
        <time>2015-09-20T09:52:39Z</time>
      </trkpt>
      <trkpt lat="44.60646" lon="2.48505">
        <ele>496.1</ele>
        <time>2015-09-20T09:52:45Z</time>
      </trkpt>
      <trkpt lat="44.60637" lon="2.48507">
        <ele>496.7</ele>
        <time>2015-09-20T09:52:49Z</time>
      </trkpt>
      <trkpt lat="44.60628" lon="2.48511">
        <ele>497.3</ele>
        <time>2015-09-20T09:52:54Z</time>
      </trkpt>
      <trkpt lat="44.60619" lon="2.48517">
        <ele>497.9</ele>
        <time>2015-09-20T09:52:59Z</time>
      </trkpt>
      <trkpt lat="44.6061" lon="2.48524">
        <ele>498.4</ele>
        <time>2015-09-20T09:53:04Z</time>
      </trkpt>
      <trkpt lat="44.60603" lon="2.48533">
        <ele>499.2</ele>
        <time>2015-09-20T09:53:10Z</time>
      </trkpt>
      <trkpt lat="44.60596" lon="2.48542">
        <ele>500.1</ele>
        <time>2015-09-20T09:53:17Z</time>
      </trkpt>
      <trkpt lat="44.60587" lon="2.48549">
        <ele>501.7</ele>
        <time>2015-09-20T09:53:42Z</time>
      </trkpt>
      <trkpt lat="44.60577" lon="2.4855">
        <ele>502</ele>
        <time>2015-09-20T09:53:48Z</time>
      </trkpt>
      <trkpt lat="44.60567" lon="2.48549">
        <ele>502.4</ele>
        <time>2015-09-20T09:53:53Z</time>
      </trkpt>
      <trkpt lat="44.60558" lon="2.48544">
        <ele>502.9</ele>
        <time>2015-09-20T09:53:59Z</time>
      </trkpt>
      <trkpt lat="44.6055" lon="2.48539">
        <ele>503.3</ele>
        <time>2015-09-20T09:54:04Z</time>
      </trkpt>
      <trkpt lat="44.60541" lon="2.48533">
        <ele>503.8</ele>
        <time>2015-09-20T09:54:09Z</time>
      </trkpt>
      <trkpt lat="44.60533" lon="2.48539">
        <ele>504.6</ele>
        <time>2015-09-20T09:54:17Z</time>
      </trkpt>
      <trkpt lat="44.60528" lon="2.48549">
        <ele>505</ele>
        <time>2015-09-20T09:54:23Z</time>
      </trkpt>
      <trkpt lat="44.60524" lon="2.48561">
        <ele>506.4</ele>
        <time>2015-09-20T09:54:39Z</time>
      </trkpt>
      <trkpt lat="44.60517" lon="2.4857">
        <ele>507.3</ele>
        <time>2015-09-20T09:54:52Z</time>
      </trkpt>
      <trkpt lat="44.60515" lon="2.48583">
        <ele>508.6</ele>
        <time>2015-09-20T09:55:05Z</time>
      </trkpt>
      <trkpt lat="44.6051" lon="2.48594">
        <ele>509.5</ele>
        <time>2015-09-20T09:55:16Z</time>
      </trkpt>
      <trkpt lat="44.60501" lon="2.48596">
        <ele>511</ele>
        <time>2015-09-20T09:57:55Z</time>
      </trkpt>
      <trkpt lat="44.60493" lon="2.48603">
        <ele>511</ele>
        <time>2015-09-20T09:58:13Z</time>
      </trkpt>
      <trkpt lat="44.60483" lon="2.48606">
        <ele>511</ele>
        <time>2015-09-20T09:58:20Z</time>
      </trkpt>
      <trkpt lat="44.60474" lon="2.48606">
        <ele>511</ele>
        <time>2015-09-20T09:58:28Z</time>
      </trkpt>
      <trkpt lat="44.60485" lon="2.48608">
        <ele>511</ele>
        <time>2015-09-20T09:58:38Z</time>
      </trkpt>
      <trkpt lat="44.60492" lon="2.48599">
        <ele>511</ele>
        <time>2015-09-20T09:58:49Z</time>
      </trkpt>
      <trkpt lat="44.60501" lon="2.48594">
        <ele>511</ele>
        <time>2015-09-20T09:58:56Z</time>
      </trkpt>
      <trkpt lat="44.6051" lon="2.48598">
        <ele>511</ele>
        <time>2015-09-20T09:59:13Z</time>
      </trkpt>
      <trkpt lat="44.60518" lon="2.48589">
        <ele>511.3</ele>
        <time>2015-09-20T10:03:24Z</time>
      </trkpt>
      <trkpt lat="44.60521" lon="2.48577">
        <ele>511.3</ele>
        <time>2015-09-20T10:03:30Z</time>
      </trkpt>
      <trkpt lat="44.60527" lon="2.48566">
        <ele>511.1</ele>
        <time>2015-09-20T10:03:34Z</time>
      </trkpt>
      <trkpt lat="44.60532" lon="2.48556">
        <ele>510.6</ele>
        <time>2015-09-20T10:03:38Z</time>
      </trkpt>
      <trkpt lat="44.60535" lon="2.48542">
        <ele>509.6</ele>
        <time>2015-09-20T10:03:44Z</time>
      </trkpt>
      <trkpt lat="44.60534" lon="2.48529">
        <ele>508.4</ele>
        <time>2015-09-20T10:03:53Z</time>
      </trkpt>
      <trkpt lat="44.60531" lon="2.48515">
        <ele>507.2</ele>
        <time>2015-09-20T10:04:12Z</time>
      </trkpt>
      <trkpt lat="44.60524" lon="2.48502">
        <ele>507</ele>
        <time>2015-09-20T10:04:16Z</time>
      </trkpt>
      <trkpt lat="44.60517" lon="2.48489">
        <ele>506.9</ele>
        <time>2015-09-20T10:04:19Z</time>
      </trkpt>
      <trkpt lat="44.6051" lon="2.48474">
        <ele>506.8</ele>
        <time>2015-09-20T10:04:22Z</time>
      </trkpt>
      <trkpt lat="44.60506" lon="2.48462">
        <ele>506.7</ele>
        <time>2015-09-20T10:04:24Z</time>
      </trkpt>
      <trkpt lat="44.605" lon="2.48452">
        <ele>506.5</ele>
        <time>2015-09-20T10:04:26Z</time>
      </trkpt>
      <trkpt lat="44.60493" lon="2.48439">
        <ele>506.3</ele>
        <time>2015-09-20T10:04:29Z</time>
      </trkpt>
      <trkpt lat="44.60486" lon="2.48427">
        <ele>506.1</ele>
        <time>2015-09-20T10:04:34Z</time>
      </trkpt>
      <trkpt lat="44.60476" lon="2.48419">
        <ele>506</ele>
        <time>2015-09-20T10:04:37Z</time>
      </trkpt>
      <trkpt lat="44.60467" lon="2.4841">
        <ele>506</ele>
        <time>2015-09-20T10:04:40Z</time>
      </trkpt>
      <trkpt lat="44.60459" lon="2.48398">
        <ele>506.2</ele>
        <time>2015-09-20T10:04:43Z</time>
      </trkpt>
      <trkpt lat="44.60454" lon="2.48386">
        <ele>506.4</ele>
        <time>2015-09-20T10:04:46Z</time>
      </trkpt>
      <trkpt lat="44.60452" lon="2.48372">
        <ele>506.6</ele>
        <time>2015-09-20T10:04:49Z</time>
      </trkpt>
      <trkpt lat="44.60452" lon="2.48358">
        <ele>507</ele>
        <time>2015-09-20T10:04:52Z</time>
      </trkpt>
      <trkpt lat="44.60453" lon="2.48345">
        <ele>507.4</ele>
        <time>2015-09-20T10:04:55Z</time>
      </trkpt>
      <trkpt lat="44.60455" lon="2.48333">
        <ele>507.9</ele>
        <time>2015-09-20T10:04:58Z</time>
      </trkpt>
      <trkpt lat="44.60458" lon="2.48317">
        <ele>508.4</ele>
        <time>2015-09-20T10:05:02Z</time>
      </trkpt>
      <trkpt lat="44.60459" lon="2.48302">
        <ele>509</ele>
        <time>2015-09-20T10:05:06Z</time>
      </trkpt>
      <trkpt lat="44.60457" lon="2.48288">
        <ele>509.7</ele>
        <time>2015-09-20T10:05:10Z</time>
      </trkpt>
      <trkpt lat="44.60454" lon="2.48276">
        <ele>510.5</ele>
        <time>2015-09-20T10:05:15Z</time>
      </trkpt>
      <trkpt lat="44.60449" lon="2.48264">
        <ele>511.4</ele>
        <time>2015-09-20T10:05:21Z</time>
      </trkpt>
      <trkpt lat="44.60442" lon="2.48255">
        <ele>512.3</ele>
        <time>2015-09-20T10:05:27Z</time>
      </trkpt>
      <trkpt lat="44.60434" lon="2.48247">
        <ele>513.3</ele>
        <time>2015-09-20T10:05:33Z</time>
      </trkpt>
      <trkpt lat="44.60427" lon="2.48237">
        <ele>514.3</ele>
        <time>2015-09-20T10:05:40Z</time>
      </trkpt>
      <trkpt lat="44.6043" lon="2.48224">
        <ele>515.4</ele>
        <time>2015-09-20T10:05:47Z</time>
      </trkpt>
      <trkpt lat="44.60439" lon="2.48223">
        <ele>516.4</ele>
        <time>2015-09-20T10:05:55Z</time>
      </trkpt>
      <trkpt lat="44.60448" lon="2.48228">
        <ele>517.5</ele>
        <time>2015-09-20T10:06:03Z</time>
      </trkpt>
      <trkpt lat="44.60457" lon="2.48235">
        <ele>518.8</ele>
        <time>2015-09-20T10:06:13Z</time>
      </trkpt>
      <trkpt lat="44.60466" lon="2.48237">
        <ele>520.2</ele>
        <time>2015-09-20T10:06:27Z</time>
      </trkpt>
      <trkpt lat="44.60474" lon="2.48233">
        <ele>521.1</ele>
        <time>2015-09-20T10:06:38Z</time>
      </trkpt>
      <trkpt lat="44.60482" lon="2.48226">
        <ele>522</ele>
        <time>2015-09-20T10:06:49Z</time>
      </trkpt>
      <trkpt lat="44.60492" lon="2.48223">
        <ele>522.8</ele>
        <time>2015-09-20T10:07:00Z</time>
      </trkpt>
      <trkpt lat="44.60501" lon="2.48227">
        <ele>523.5</ele>
        <time>2015-09-20T10:07:10Z</time>
      </trkpt>
      <trkpt lat="44.60509" lon="2.48234">
        <ele>524.1</ele>
        <time>2015-09-20T10:07:20Z</time>
      </trkpt>
      <trkpt lat="44.60512" lon="2.48246">
        <ele>524.7</ele>
        <time>2015-09-20T10:07:32Z</time>
      </trkpt>
      <trkpt lat="44.60518" lon="2.48258">
        <ele>526</ele>
        <time>2015-09-20T10:08:15Z</time>
      </trkpt>
      <trkpt lat="44.6052" lon="2.48271">
        <ele>526</ele>
        <time>2015-09-20T10:08:19Z</time>
      </trkpt>
      <trkpt lat="44.60523" lon="2.48285">
        <ele>526.1</ele>
        <time>2015-09-20T10:08:24Z</time>
      </trkpt>
      <trkpt lat="44.6053" lon="2.48296">
        <ele>526.1</ele>
        <time>2015-09-20T10:08:29Z</time>
      </trkpt>
      <trkpt lat="44.60541" lon="2.48298">
        <ele>525.8</ele>
        <time>2015-09-20T10:08:33Z</time>
      </trkpt>
      <trkpt lat="44.60551" lon="2.48292">
        <ele>525.2</ele>
        <time>2015-09-20T10:08:37Z</time>
      </trkpt>
      <trkpt lat="44.60561" lon="2.48284">
        <ele>524.4</ele>
        <time>2015-09-20T10:08:41Z</time>
      </trkpt>
      <trkpt lat="44.6057" lon="2.48278">
        <ele>523.8</ele>
        <time>2015-09-20T10:08:44Z</time>
      </trkpt>
      <trkpt lat="44.60577" lon="2.48271">
        <ele>523</ele>
        <time>2015-09-20T10:08:47Z</time>
      </trkpt>
      <trkpt lat="44.60589" lon="2.48258">
        <ele>522.2</ele>
        <time>2015-09-20T10:08:50Z</time>
      </trkpt>
      <trkpt lat="44.60598" lon="2.48248">
        <ele>521.6</ele>
        <time>2015-09-20T10:08:52Z</time>
      </trkpt>
      <trkpt lat="44.60606" lon="2.48238">
        <ele>521</ele>
        <time>2015-09-20T10:08:54Z</time>
      </trkpt>
      <trkpt lat="44.60613" lon="2.48227">
        <ele>520.4</ele>
        <time>2015-09-20T10:08:57Z</time>
      </trkpt>
      <trkpt lat="44.60619" lon="2.48215">
        <ele>519.5</ele>
        <time>2015-09-20T10:09:02Z</time>
      </trkpt>
      <trkpt lat="44.60624" lon="2.48202">
        <ele>519.2</ele>
        <time>2015-09-20T10:09:07Z</time>
      </trkpt>
      <trkpt lat="44.60629" lon="2.48188">
        <ele>519.1</ele>
        <time>2015-09-20T10:09:12Z</time>
      </trkpt>
      <trkpt lat="44.60636" lon="2.48176">
        <ele>519.2</ele>
        <time>2015-09-20T10:09:17Z</time>
      </trkpt>
      <trkpt lat="44.60641" lon="2.48166">
        <ele>519.3</ele>
        <time>2015-09-20T10:09:22Z</time>
      </trkpt>
      <trkpt lat="44.60649" lon="2.48158">
        <ele>519.7</ele>
        <time>2015-09-20T10:09:28Z</time>
      </trkpt>
      <trkpt lat="44.60657" lon="2.48152">
        <ele>520.4</ele>
        <time>2015-09-20T10:09:34Z</time>
      </trkpt>
      <trkpt lat="44.60665" lon="2.48146">
        <ele>521.2</ele>
        <time>2015-09-20T10:09:41Z</time>
      </trkpt>
      <trkpt lat="44.60673" lon="2.48138">
        <ele>521.9</ele>
        <time>2015-09-20T10:09:48Z</time>
      </trkpt>
      <trkpt lat="44.60681" lon="2.48132">
        <ele>522.5</ele>
        <time>2015-09-20T10:09:54Z</time>
      </trkpt>
      <trkpt lat="44.60688" lon="2.48123">
        <ele>524.2</ele>
        <time>2015-09-20T10:10:25Z</time>
      </trkpt>
      <trkpt lat="44.60696" lon="2.48117">
        <ele>524.3</ele>
        <time>2015-09-20T10:10:33Z</time>
      </trkpt>
      <trkpt lat="44.60705" lon="2.4811">
        <ele>524.8</ele>
        <time>2015-09-20T10:10:40Z</time>
      </trkpt>
      <trkpt lat="44.60713" lon="2.48104">
        <ele>525.3</ele>
        <time>2015-09-20T10:10:46Z</time>
      </trkpt>
      <trkpt lat="44.6072" lon="2.48095">
        <ele>525.7</ele>
        <time>2015-09-20T10:10:52Z</time>
      </trkpt>
      <trkpt lat="44.60727" lon="2.48086">
        <ele>526.3</ele>
        <time>2015-09-20T10:10:58Z</time>
      </trkpt>
      <trkpt lat="44.60732" lon="2.48075">
        <ele>526.8</ele>
        <time>2015-09-20T10:11:04Z</time>
      </trkpt>
      <trkpt lat="44.60739" lon="2.48064">
        <ele>527.4</ele>
        <time>2015-09-20T10:11:10Z</time>
      </trkpt>
      <trkpt lat="44.60744" lon="2.48053">
        <ele>528.1</ele>
        <time>2015-09-20T10:11:15Z</time>
      </trkpt>
      <trkpt lat="44.6075" lon="2.48042">
        <ele>528.6</ele>
        <time>2015-09-20T10:11:20Z</time>
      </trkpt>
      <trkpt lat="44.60756" lon="2.48031">
        <ele>529.3</ele>
        <time>2015-09-20T10:11:26Z</time>
      </trkpt>
      <trkpt lat="44.60762" lon="2.48018">
        <ele>529.8</ele>
        <time>2015-09-20T10:11:32Z</time>
      </trkpt>
      <trkpt lat="44.60768" lon="2.48007">
        <ele>530.4</ele>
        <time>2015-09-20T10:11:38Z</time>
      </trkpt>
      <trkpt lat="44.60773" lon="2.47994">
        <ele>531.3</ele>
        <time>2015-09-20T10:11:44Z</time>
      </trkpt>
      <trkpt lat="44.60777" lon="2.47982">
        <ele>532.1</ele>
        <time>2015-09-20T10:11:50Z</time>
      </trkpt>
      <trkpt lat="44.6078" lon="2.4797">
        <ele>532.9</ele>
        <time>2015-09-20T10:11:56Z</time>
      </trkpt>
      <trkpt lat="44.60783" lon="2.47957">
        <ele>533.7</ele>
        <time>2015-09-20T10:12:02Z</time>
      </trkpt>
      <trkpt lat="44.60785" lon="2.47944">
        <ele>534.4</ele>
        <time>2015-09-20T10:12:08Z</time>
      </trkpt>
      <trkpt lat="44.60787" lon="2.4793">
        <ele>534.9</ele>
        <time>2015-09-20T10:12:14Z</time>
      </trkpt>
      <trkpt lat="44.60787" lon="2.47916">
        <ele>535.6</ele>
        <time>2015-09-20T10:12:20Z</time>
      </trkpt>
      <trkpt lat="44.60787" lon="2.47903">
        <ele>536.3</ele>
        <time>2015-09-20T10:12:26Z</time>
      </trkpt>
      <trkpt lat="44.60784" lon="2.4789">
        <ele>537.1</ele>
        <time>2015-09-20T10:12:32Z</time>
      </trkpt>
      <trkpt lat="44.60782" lon="2.47877">
        <ele>537.8</ele>
        <time>2015-09-20T10:12:38Z</time>
      </trkpt>
      <trkpt lat="44.60779" lon="2.47864">
        <ele>538.4</ele>
        <time>2015-09-20T10:12:44Z</time>
      </trkpt>
      <trkpt lat="44.60779" lon="2.47849">
        <ele>539.3</ele>
        <time>2015-09-20T10:12:51Z</time>
      </trkpt>
      <trkpt lat="44.60779" lon="2.47834">
        <ele>540.1</ele>
        <time>2015-09-20T10:12:58Z</time>
      </trkpt>
      <trkpt lat="44.60779" lon="2.4782">
        <ele>540.8</ele>
        <time>2015-09-20T10:13:04Z</time>
      </trkpt>
      <trkpt lat="44.60778" lon="2.47807">
        <ele>541.4</ele>
        <time>2015-09-20T10:13:10Z</time>
      </trkpt>
      <trkpt lat="44.60781" lon="2.47794">
        <ele>542.2</ele>
        <time>2015-09-20T10:13:17Z</time>
      </trkpt>
      <trkpt lat="44.60788" lon="2.47785">
        <ele>543.1</ele>
        <time>2015-09-20T10:13:26Z</time>
      </trkpt>
      <trkpt lat="44.60797" lon="2.47777">
        <ele>544</ele>
        <time>2015-09-20T10:13:35Z</time>
      </trkpt>
      <trkpt lat="44.60805" lon="2.47769">
        <ele>544.6</ele>
        <time>2015-09-20T10:13:42Z</time>
      </trkpt>
      <trkpt lat="44.60812" lon="2.47759">
        <ele>545.2</ele>
        <time>2015-09-20T10:13:49Z</time>
      </trkpt>
      <trkpt lat="44.60818" lon="2.47748">
        <ele>545.8</ele>
        <time>2015-09-20T10:13:56Z</time>
      </trkpt>
      <trkpt lat="44.60822" lon="2.47736">
        <ele>546.3</ele>
        <time>2015-09-20T10:14:02Z</time>
      </trkpt>
      <trkpt lat="44.60822" lon="2.47722">
        <ele>547.1</ele>
        <time>2015-09-20T10:14:09Z</time>
      </trkpt>
      <trkpt lat="44.60818" lon="2.47707">
        <ele>547.6</ele>
        <time>2015-09-20T10:14:14Z</time>
      </trkpt>
      <trkpt lat="44.60814" lon="2.47694">
        <ele>548.3</ele>
        <time>2015-09-20T10:14:19Z</time>
      </trkpt>
      <trkpt lat="44.60814" lon="2.4768">
        <ele>548.9</ele>
        <time>2015-09-20T10:14:24Z</time>
      </trkpt>
      <trkpt lat="44.60817" lon="2.47668">
        <ele>549.6</ele>
        <time>2015-09-20T10:14:29Z</time>
      </trkpt>
      <trkpt lat="44.60824" lon="2.47657">
        <ele>550.4</ele>
        <time>2015-09-20T10:14:35Z</time>
      </trkpt>
      <trkpt lat="44.60833" lon="2.4765">
        <ele>551.3</ele>
        <time>2015-09-20T10:14:41Z</time>
      </trkpt>
      <trkpt lat="44.60841" lon="2.4764">
        <ele>552</ele>
        <time>2015-09-20T10:14:47Z</time>
      </trkpt>
      <trkpt lat="44.60847" lon="2.47629">
        <ele>552.7</ele>
        <time>2015-09-20T10:14:53Z</time>
      </trkpt>
      <trkpt lat="44.60852" lon="2.47617">
        <ele>553.3</ele>
        <time>2015-09-20T10:14:59Z</time>
      </trkpt>
      <trkpt lat="44.60855" lon="2.47604">
        <ele>553.8</ele>
        <time>2015-09-20T10:15:05Z</time>
      </trkpt>
      <trkpt lat="44.60858" lon="2.47591">
        <ele>554.5</ele>
        <time>2015-09-20T10:15:11Z</time>
      </trkpt>
      <trkpt lat="44.6086" lon="2.47578">
        <ele>555.3</ele>
        <time>2015-09-20T10:15:17Z</time>
      </trkpt>
      <trkpt lat="44.6086" lon="2.47565">
        <ele>555.9</ele>
        <time>2015-09-20T10:15:23Z</time>
      </trkpt>
      <trkpt lat="44.60859" lon="2.47552">
        <ele>556.4</ele>
        <time>2015-09-20T10:15:29Z</time>
      </trkpt>
      <trkpt lat="44.60857" lon="2.47538">
        <ele>557.2</ele>
        <time>2015-09-20T10:15:36Z</time>
      </trkpt>
      <trkpt lat="44.60857" lon="2.47523">
        <ele>557.9</ele>
        <time>2015-09-20T10:15:43Z</time>
      </trkpt>
      <trkpt lat="44.60857" lon="2.4751">
        <ele>558.6</ele>
        <time>2015-09-20T10:15:50Z</time>
      </trkpt>
      <trkpt lat="44.60856" lon="2.47495">
        <ele>559.3</ele>
        <time>2015-09-20T10:15:58Z</time>
      </trkpt>
      <trkpt lat="44.60853" lon="2.47483">
        <ele>559.8</ele>
        <time>2015-09-20T10:16:03Z</time>
      </trkpt>
      <trkpt lat="44.60848" lon="2.47469">
        <ele>560.5</ele>
        <time>2015-09-20T10:16:09Z</time>
      </trkpt>
      <trkpt lat="44.60844" lon="2.47457">
        <ele>561.3</ele>
        <time>2015-09-20T10:16:15Z</time>
      </trkpt>
      <trkpt lat="44.60838" lon="2.47444">
        <ele>562.3</ele>
        <time>2015-09-20T10:16:22Z</time>
      </trkpt>
      <trkpt lat="44.60832" lon="2.47435">
        <ele>562.8</ele>
        <time>2015-09-20T10:16:27Z</time>
      </trkpt>
      <trkpt lat="44.60824" lon="2.47427">
        <ele>563.7</ele>
        <time>2015-09-20T10:16:33Z</time>
      </trkpt>
      <trkpt lat="44.60816" lon="2.47419">
        <ele>564.4</ele>
        <time>2015-09-20T10:16:39Z</time>
      </trkpt>
      <trkpt lat="44.60808" lon="2.47411">
        <ele>565</ele>
        <time>2015-09-20T10:16:44Z</time>
      </trkpt>
      <trkpt lat="44.60801" lon="2.47402">
        <ele>565.7</ele>
        <time>2015-09-20T10:16:50Z</time>
      </trkpt>
      <trkpt lat="44.60793" lon="2.47391">
        <ele>566.4</ele>
        <time>2015-09-20T10:16:56Z</time>
      </trkpt>
      <trkpt lat="44.60787" lon="2.47381">
        <ele>567</ele>
        <time>2015-09-20T10:17:02Z</time>
      </trkpt>
      <trkpt lat="44.6078" lon="2.47371">
        <ele>567.6</ele>
        <time>2015-09-20T10:17:07Z</time>
      </trkpt>
      <trkpt lat="44.60772" lon="2.47359">
        <ele>568.1</ele>
        <time>2015-09-20T10:17:11Z</time>
      </trkpt>
      <trkpt lat="44.60765" lon="2.47349">
        <ele>568.6</ele>
        <time>2015-09-20T10:17:16Z</time>
      </trkpt>
      <trkpt lat="44.60759" lon="2.47338">
        <ele>569.3</ele>
        <time>2015-09-20T10:17:22Z</time>
      </trkpt>
      <trkpt lat="44.60752" lon="2.47328">
        <ele>569.9</ele>
        <time>2015-09-20T10:17:28Z</time>
      </trkpt>
      <trkpt lat="44.60744" lon="2.47317">
        <ele>570.4</ele>
        <time>2015-09-20T10:17:34Z</time>
      </trkpt>
      <trkpt lat="44.60739" lon="2.47307">
        <ele>571.1</ele>
        <time>2015-09-20T10:17:41Z</time>
      </trkpt>
      <trkpt lat="44.60732" lon="2.47298">
        <ele>571.6</ele>
        <time>2015-09-20T10:17:46Z</time>
      </trkpt>
      <trkpt lat="44.60726" lon="2.47287">
        <ele>572.8</ele>
        <time>2015-09-20T10:17:54Z</time>
      </trkpt>
      <trkpt lat="44.6072" lon="2.47277">
        <ele>573.7</ele>
        <time>2015-09-20T10:18:00Z</time>
      </trkpt>
      <trkpt lat="44.60711" lon="2.47268">
        <ele>574.1</ele>
        <time>2015-09-20T10:18:03Z</time>
      </trkpt>
      <trkpt lat="44.60702" lon="2.4726">
        <ele>574.6</ele>
        <time>2015-09-20T10:18:06Z</time>
      </trkpt>
      <trkpt lat="44.60692" lon="2.47252">
        <ele>575.1</ele>
        <time>2015-09-20T10:18:10Z</time>
      </trkpt>
      <trkpt lat="44.60685" lon="2.47241">
        <ele>575.6</ele>
        <time>2015-09-20T10:18:14Z</time>
      </trkpt>
      <trkpt lat="44.60681" lon="2.47229">
        <ele>576.1</ele>
        <time>2015-09-20T10:18:18Z</time>
      </trkpt>
      <trkpt lat="44.60683" lon="2.47216">
        <ele>576.7</ele>
        <time>2015-09-20T10:18:22Z</time>
      </trkpt>
      <trkpt lat="44.60685" lon="2.47201">
        <ele>577.5</ele>
        <time>2015-09-20T10:18:27Z</time>
      </trkpt>
      <trkpt lat="44.60688" lon="2.47187">
        <ele>578.2</ele>
        <time>2015-09-20T10:18:31Z</time>
      </trkpt>
      <trkpt lat="44.60687" lon="2.47173">
        <ele>579.2</ele>
        <time>2015-09-20T10:18:37Z</time>
      </trkpt>
      <trkpt lat="44.60683" lon="2.47159">
        <ele>580.1</ele>
        <time>2015-09-20T10:18:43Z</time>
      </trkpt>
      <trkpt lat="44.60678" lon="2.47146">
        <ele>580.9</ele>
        <time>2015-09-20T10:18:49Z</time>
      </trkpt>
      <trkpt lat="44.60674" lon="2.47132">
        <ele>581.7</ele>
        <time>2015-09-20T10:18:55Z</time>
      </trkpt>
      <trkpt lat="44.6067" lon="2.47118">
        <ele>582.3</ele>
        <time>2015-09-20T10:19:01Z</time>
      </trkpt>
      <trkpt lat="44.60667" lon="2.47106">
        <ele>583.1</ele>
        <time>2015-09-20T10:19:07Z</time>
      </trkpt>
      <trkpt lat="44.60663" lon="2.47093">
        <ele>584</ele>
        <time>2015-09-20T10:19:14Z</time>
      </trkpt>
      <trkpt lat="44.60659" lon="2.47081">
        <ele>584.7</ele>
        <time>2015-09-20T10:19:19Z</time>
      </trkpt>
      <trkpt lat="44.60656" lon="2.47069">
        <ele>585.3</ele>
        <time>2015-09-20T10:19:24Z</time>
      </trkpt>
      <trkpt lat="44.60654" lon="2.47057">
        <ele>585.9</ele>
        <time>2015-09-20T10:19:29Z</time>
      </trkpt>
      <trkpt lat="44.60653" lon="2.47042">
        <ele>586.8</ele>
        <time>2015-09-20T10:19:35Z</time>
      </trkpt>
      <trkpt lat="44.60654" lon="2.47028">
        <ele>587.7</ele>
        <time>2015-09-20T10:19:41Z</time>
      </trkpt>
      <trkpt lat="44.60654" lon="2.47014">
        <ele>588.7</ele>
        <time>2015-09-20T10:19:47Z</time>
      </trkpt>
      <trkpt lat="44.6065" lon="2.47001">
        <ele>589.7</ele>
        <time>2015-09-20T10:19:54Z</time>
      </trkpt>
      <trkpt lat="44.60642" lon="2.4699">
        <ele>590.6</ele>
        <time>2015-09-20T10:20:00Z</time>
      </trkpt>
      <trkpt lat="44.60634" lon="2.4698">
        <ele>591.6</ele>
        <time>2015-09-20T10:20:06Z</time>
      </trkpt>
      <trkpt lat="44.60628" lon="2.4697">
        <ele>592.3</ele>
        <time>2015-09-20T10:20:11Z</time>
      </trkpt>
      <trkpt lat="44.60625" lon="2.46958">
        <ele>593.1</ele>
        <time>2015-09-20T10:20:17Z</time>
      </trkpt>
      <trkpt lat="44.60624" lon="2.46945">
        <ele>594</ele>
        <time>2015-09-20T10:20:24Z</time>
      </trkpt>
      <trkpt lat="44.60626" lon="2.46931">
        <ele>595</ele>
        <time>2015-09-20T10:20:30Z</time>
      </trkpt>
      <trkpt lat="44.60624" lon="2.46917">
        <ele>595.9</ele>
        <time>2015-09-20T10:20:36Z</time>
      </trkpt>
      <trkpt lat="44.60621" lon="2.46905">
        <ele>596.8</ele>
        <time>2015-09-20T10:20:42Z</time>
      </trkpt>
      <trkpt lat="44.60617" lon="2.46891">
        <ele>597.9</ele>
        <time>2015-09-20T10:20:49Z</time>
      </trkpt>
      <trkpt lat="44.60614" lon="2.46877">
        <ele>598.9</ele>
        <time>2015-09-20T10:20:55Z</time>
      </trkpt>
      <trkpt lat="44.60612" lon="2.46863">
        <ele>599.8</ele>
        <time>2015-09-20T10:21:01Z</time>
      </trkpt>
      <trkpt lat="44.60604" lon="2.46855">
        <ele>601.3</ele>
        <time>2015-09-20T10:21:13Z</time>
      </trkpt>
      <trkpt lat="44.60595" lon="2.46854">
        <ele>601.9</ele>
        <time>2015-09-20T10:21:20Z</time>
      </trkpt>
      <trkpt lat="44.60606" lon="2.46851">
        <ele>602.8</ele>
        <time>2015-09-20T10:21:29Z</time>
      </trkpt>
      <trkpt lat="44.60613" lon="2.46841">
        <ele>603</ele>
        <time>2015-09-20T10:21:32Z</time>
      </trkpt>
      <trkpt lat="44.60619" lon="2.4683">
        <ele>603.2</ele>
        <time>2015-09-20T10:21:37Z</time>
      </trkpt>
      <trkpt lat="44.60625" lon="2.4682">
        <ele>603.5</ele>
        <time>2015-09-20T10:21:42Z</time>
      </trkpt>
      <trkpt lat="44.60632" lon="2.46811">
        <ele>603.9</ele>
        <time>2015-09-20T10:21:47Z</time>
      </trkpt>
      <trkpt lat="44.6064" lon="2.46804">
        <ele>604.8</ele>
        <time>2015-09-20T10:21:55Z</time>
      </trkpt>
      <trkpt lat="44.60649" lon="2.46799">
        <ele>605.3</ele>
        <time>2015-09-20T10:22:01Z</time>
      </trkpt>
      <trkpt lat="44.60657" lon="2.46792">
        <ele>605.9</ele>
        <time>2015-09-20T10:22:07Z</time>
      </trkpt>
      <trkpt lat="44.60666" lon="2.46786">
        <ele>606.5</ele>
        <time>2015-09-20T10:22:13Z</time>
      </trkpt>
      <trkpt lat="44.60674" lon="2.46777">
        <ele>607.1</ele>
        <time>2015-09-20T10:22:19Z</time>
      </trkpt>
      <trkpt lat="44.60681" lon="2.46769">
        <ele>607.6</ele>
        <time>2015-09-20T10:22:24Z</time>
      </trkpt>
      <trkpt lat="44.60688" lon="2.46759">
        <ele>608.3</ele>
        <time>2015-09-20T10:22:29Z</time>
      </trkpt>
      <trkpt lat="44.60693" lon="2.46749">
        <ele>608.8</ele>
        <time>2015-09-20T10:22:34Z</time>
      </trkpt>
      <trkpt lat="44.60697" lon="2.46737">
        <ele>609.5</ele>
        <time>2015-09-20T10:22:39Z</time>
      </trkpt>
      <trkpt lat="44.607" lon="2.46724">
        <ele>610.1</ele>
        <time>2015-09-20T10:22:44Z</time>
      </trkpt>
      <trkpt lat="44.60703" lon="2.46711">
        <ele>610.6</ele>
        <time>2015-09-20T10:22:49Z</time>
      </trkpt>
      <trkpt lat="44.60707" lon="2.46699">
        <ele>611.2</ele>
        <time>2015-09-20T10:22:54Z</time>
      </trkpt>
      <trkpt lat="44.60712" lon="2.46687">
        <ele>611.7</ele>
        <time>2015-09-20T10:22:59Z</time>
      </trkpt>
      <trkpt lat="44.60719" lon="2.46676">
        <ele>612.3</ele>
        <time>2015-09-20T10:23:04Z</time>
      </trkpt>
      <trkpt lat="44.60726" lon="2.46665">
        <ele>612.8</ele>
        <time>2015-09-20T10:23:09Z</time>
      </trkpt>
      <trkpt lat="44.60732" lon="2.46656">
        <ele>613.2</ele>
        <time>2015-09-20T10:23:13Z</time>
      </trkpt>
      <trkpt lat="44.60738" lon="2.46645">
        <ele>613.7</ele>
        <time>2015-09-20T10:23:18Z</time>
      </trkpt>
      <trkpt lat="44.60745" lon="2.46635">
        <ele>614.1</ele>
        <time>2015-09-20T10:23:23Z</time>
      </trkpt>
      <trkpt lat="44.60752" lon="2.46626">
        <ele>614.5</ele>
        <time>2015-09-20T10:23:28Z</time>
      </trkpt>
      <trkpt lat="44.60759" lon="2.46616">
        <ele>614.9</ele>
        <time>2015-09-20T10:23:34Z</time>
      </trkpt>
      <trkpt lat="44.60766" lon="2.46604">
        <ele>615.3</ele>
        <time>2015-09-20T10:23:41Z</time>
      </trkpt>
      <trkpt lat="44.60772" lon="2.46593">
        <ele>615.7</ele>
        <time>2015-09-20T10:23:47Z</time>
      </trkpt>
      <trkpt lat="44.60777" lon="2.46582">
        <ele>615.9</ele>
        <time>2015-09-20T10:23:52Z</time>
      </trkpt>
      <trkpt lat="44.60781" lon="2.46568">
        <ele>616</ele>
        <time>2015-09-20T10:23:57Z</time>
      </trkpt>
      <trkpt lat="44.60782" lon="2.46552">
        <ele>616.3</ele>
        <time>2015-09-20T10:24:02Z</time>
      </trkpt>
      <trkpt lat="44.60781" lon="2.46537">
        <ele>616.5</ele>
        <time>2015-09-20T10:24:07Z</time>
      </trkpt>
      <trkpt lat="44.60779" lon="2.46522">
        <ele>616.8</ele>
        <time>2015-09-20T10:24:11Z</time>
      </trkpt>
      <trkpt lat="44.60773" lon="2.4651">
        <ele>617</ele>
        <time>2015-09-20T10:24:15Z</time>
      </trkpt>
      <trkpt lat="44.60768" lon="2.46498">
        <ele>617.2</ele>
        <time>2015-09-20T10:24:20Z</time>
      </trkpt>
      <trkpt lat="44.60764" lon="2.46486">
        <ele>617.4</ele>
        <time>2015-09-20T10:24:24Z</time>
      </trkpt>
      <trkpt lat="44.60759" lon="2.46473">
        <ele>617.7</ele>
        <time>2015-09-20T10:24:29Z</time>
      </trkpt>
      <trkpt lat="44.60756" lon="2.46461">
        <ele>617.9</ele>
        <time>2015-09-20T10:24:33Z</time>
      </trkpt>
      <trkpt lat="44.60753" lon="2.46448">
        <ele>618.1</ele>
        <time>2015-09-20T10:24:37Z</time>
      </trkpt>
      <trkpt lat="44.6075" lon="2.46435">
        <ele>618.4</ele>
        <time>2015-09-20T10:24:41Z</time>
      </trkpt>
      <trkpt lat="44.60747" lon="2.46421">
        <ele>618.7</ele>
        <time>2015-09-20T10:24:45Z</time>
      </trkpt>
      <trkpt lat="44.60744" lon="2.46407">
        <ele>619</ele>
        <time>2015-09-20T10:24:49Z</time>
      </trkpt>
      <trkpt lat="44.60742" lon="2.46393">
        <ele>619.3</ele>
        <time>2015-09-20T10:24:53Z</time>
      </trkpt>
      <trkpt lat="44.60739" lon="2.46379">
        <ele>619.6</ele>
        <time>2015-09-20T10:24:57Z</time>
      </trkpt>
      <trkpt lat="44.60737" lon="2.46365">
        <ele>619.9</ele>
        <time>2015-09-20T10:25:01Z</time>
      </trkpt>
      <trkpt lat="44.60735" lon="2.46353">
        <ele>620.1</ele>
        <time>2015-09-20T10:25:05Z</time>
      </trkpt>
      <trkpt lat="44.60733" lon="2.46339">
        <ele>620.4</ele>
        <time>2015-09-20T10:25:09Z</time>
      </trkpt>
      <trkpt lat="44.60729" lon="2.46326">
        <ele>620.6</ele>
        <time>2015-09-20T10:25:13Z</time>
      </trkpt>
      <trkpt lat="44.60726" lon="2.46312">
        <ele>620.8</ele>
        <time>2015-09-20T10:25:17Z</time>
      </trkpt>
      <trkpt lat="44.60723" lon="2.46297">
        <ele>621</ele>
        <time>2015-09-20T10:25:21Z</time>
      </trkpt>
      <trkpt lat="44.6072" lon="2.46283">
        <ele>621.2</ele>
        <time>2015-09-20T10:25:25Z</time>
      </trkpt>
      <trkpt lat="44.60717" lon="2.46267">
        <ele>621.4</ele>
        <time>2015-09-20T10:25:29Z</time>
      </trkpt>
      <trkpt lat="44.60715" lon="2.46252">
        <ele>621.6</ele>
        <time>2015-09-20T10:25:33Z</time>
      </trkpt>
      <trkpt lat="44.60711" lon="2.46238">
        <ele>621.9</ele>
        <time>2015-09-20T10:25:37Z</time>
      </trkpt>
      <trkpt lat="44.60707" lon="2.46224">
        <ele>622.3</ele>
        <time>2015-09-20T10:25:42Z</time>
      </trkpt>
      <trkpt lat="44.60706" lon="2.46209">
        <ele>622.7</ele>
        <time>2015-09-20T10:25:47Z</time>
      </trkpt>
      <trkpt lat="44.60701" lon="2.46198">
        <ele>623</ele>
        <time>2015-09-20T10:25:52Z</time>
      </trkpt>
      <trkpt lat="44.60701" lon="2.46185">
        <ele>623.3</ele>
        <time>2015-09-20T10:25:57Z</time>
      </trkpt>
      <trkpt lat="44.607" lon="2.46172">
        <ele>623.6</ele>
        <time>2015-09-20T10:26:02Z</time>
      </trkpt>
      <trkpt lat="44.60699" lon="2.46158">
        <ele>623.9</ele>
        <time>2015-09-20T10:26:07Z</time>
      </trkpt>
      <trkpt lat="44.60698" lon="2.46144">
        <ele>624.2</ele>
        <time>2015-09-20T10:26:14Z</time>
      </trkpt>
      <trkpt lat="44.60693" lon="2.46134">
        <ele>625.3</ele>
        <time>2015-09-20T10:27:25Z</time>
      </trkpt>
      <trkpt lat="44.60702" lon="2.46132">
        <ele>625.5</ele>
        <time>2015-09-20T10:28:11Z</time>
      </trkpt>
      <trkpt lat="44.60709" lon="2.46121">
        <ele>625.5</ele>
        <time>2015-09-20T10:28:16Z</time>
      </trkpt>
      <trkpt lat="44.60713" lon="2.46108">
        <ele>625.5</ele>
        <time>2015-09-20T10:28:20Z</time>
      </trkpt>
      <trkpt lat="44.60719" lon="2.46095">
        <ele>625.5</ele>
        <time>2015-09-20T10:28:24Z</time>
      </trkpt>
      <trkpt lat="44.60723" lon="2.46083">
        <ele>625.5</ele>
        <time>2015-09-20T10:28:27Z</time>
      </trkpt>
      <trkpt lat="44.60729" lon="2.4607">
        <ele>625.5</ele>
        <time>2015-09-20T10:28:30Z</time>
      </trkpt>
      <trkpt lat="44.60735" lon="2.46055">
        <ele>625.4</ele>
        <time>2015-09-20T10:28:33Z</time>
      </trkpt>
      <trkpt lat="44.60744" lon="2.4604">
        <ele>625.3</ele>
        <time>2015-09-20T10:28:36Z</time>
      </trkpt>
      <trkpt lat="44.60752" lon="2.4603">
        <ele>625.2</ele>
        <time>2015-09-20T10:28:38Z</time>
      </trkpt>
      <trkpt lat="44.60761" lon="2.46021">
        <ele>625</ele>
        <time>2015-09-20T10:28:40Z</time>
      </trkpt>
      <trkpt lat="44.60771" lon="2.46014">
        <ele>624.8</ele>
        <time>2015-09-20T10:28:42Z</time>
      </trkpt>
      <trkpt lat="44.60783" lon="2.46007">
        <ele>624.4</ele>
        <time>2015-09-20T10:28:44Z</time>
      </trkpt>
      <trkpt lat="44.60795" lon="2.46002">
        <ele>624.1</ele>
        <time>2015-09-20T10:28:46Z</time>
      </trkpt>
      <trkpt lat="44.60807" lon="2.45996">
        <ele>623.8</ele>
        <time>2015-09-20T10:28:48Z</time>
      </trkpt>
      <trkpt lat="44.6082" lon="2.45991">
        <ele>623.3</ele>
        <time>2015-09-20T10:28:50Z</time>
      </trkpt>
      <trkpt lat="44.60833" lon="2.45985">
        <ele>622.8</ele>
        <time>2015-09-20T10:28:52Z</time>
      </trkpt>
      <trkpt lat="44.60845" lon="2.45976">
        <ele>622.4</ele>
        <time>2015-09-20T10:28:54Z</time>
      </trkpt>
      <trkpt lat="44.60855" lon="2.45964">
        <ele>621.9</ele>
        <time>2015-09-20T10:28:56Z</time>
      </trkpt>
      <trkpt lat="44.60864" lon="2.45949">
        <ele>621.4</ele>
        <time>2015-09-20T10:28:58Z</time>
      </trkpt>
      <trkpt lat="44.60872" lon="2.45932">
        <ele>620.9</ele>
        <time>2015-09-20T10:29:00Z</time>
      </trkpt>
      <trkpt lat="44.60877" lon="2.45912">
        <ele>620.3</ele>
        <time>2015-09-20T10:29:02Z</time>
      </trkpt>
      <trkpt lat="44.60881" lon="2.45891">
        <ele>619.8</ele>
        <time>2015-09-20T10:29:04Z</time>
      </trkpt>
      <trkpt lat="44.60885" lon="2.45868">
        <ele>619.2</ele>
        <time>2015-09-20T10:29:06Z</time>
      </trkpt>
      <trkpt lat="44.60889" lon="2.45846">
        <ele>618.6</ele>
        <time>2015-09-20T10:29:08Z</time>
      </trkpt>
      <trkpt lat="44.60893" lon="2.45823">
        <ele>618.1</ele>
        <time>2015-09-20T10:29:10Z</time>
      </trkpt>
      <trkpt lat="44.60897" lon="2.458">
        <ele>617.5</ele>
        <time>2015-09-20T10:29:12Z</time>
      </trkpt>
      <trkpt lat="44.60901" lon="2.45777">
        <ele>616.9</ele>
        <time>2015-09-20T10:29:14Z</time>
      </trkpt>
      <trkpt lat="44.60906" lon="2.45755">
        <ele>616.2</ele>
        <time>2015-09-20T10:29:16Z</time>
      </trkpt>
      <trkpt lat="44.60911" lon="2.45731">
        <ele>615.6</ele>
        <time>2015-09-20T10:29:18Z</time>
      </trkpt>
      <trkpt lat="44.60916" lon="2.45708">
        <ele>615</ele>
        <time>2015-09-20T10:29:20Z</time>
      </trkpt>
      <trkpt lat="44.60925" lon="2.45687">
        <ele>614.3</ele>
        <time>2015-09-20T10:29:22Z</time>
      </trkpt>
      <trkpt lat="44.60937" lon="2.45669">
        <ele>613.6</ele>
        <time>2015-09-20T10:29:24Z</time>
      </trkpt>
      <trkpt lat="44.60952" lon="2.45656">
        <ele>612.9</ele>
        <time>2015-09-20T10:29:26Z</time>
      </trkpt>
      <trkpt lat="44.60968" lon="2.45652">
        <ele>612.2</ele>
        <time>2015-09-20T10:29:28Z</time>
      </trkpt>
      <trkpt lat="44.60984" lon="2.45658">
        <ele>611.4</ele>
        <time>2015-09-20T10:29:30Z</time>
      </trkpt>
      <trkpt lat="44.60997" lon="2.4567">
        <ele>610.7</ele>
        <time>2015-09-20T10:29:32Z</time>
      </trkpt>
      <trkpt lat="44.61008" lon="2.45682">
        <ele>610</ele>
        <time>2015-09-20T10:29:34Z</time>
      </trkpt>
      <trkpt lat="44.61024" lon="2.45683">
        <ele>609.3</ele>
        <time>2015-09-20T10:29:36Z</time>
      </trkpt>
      <trkpt lat="44.61038" lon="2.45669">
        <ele>608.5</ele>
        <time>2015-09-20T10:29:38Z</time>
      </trkpt>
      <trkpt lat="44.61048" lon="2.45648">
        <ele>607.8</ele>
        <time>2015-09-20T10:29:40Z</time>
      </trkpt>
      <trkpt lat="44.61054" lon="2.45624">
        <ele>607</ele>
        <time>2015-09-20T10:29:42Z</time>
      </trkpt>
      <trkpt lat="44.61057" lon="2.45612">
        <ele>606.7</ele>
        <time>2015-09-20T10:29:43Z</time>
      </trkpt>
      <trkpt lat="44.61059" lon="2.456">
        <ele>606.4</ele>
        <time>2015-09-20T10:29:44Z</time>
      </trkpt>
      <trkpt lat="44.61062" lon="2.45588">
        <ele>606</ele>
        <time>2015-09-20T10:29:45Z</time>
      </trkpt>
      <trkpt lat="44.61065" lon="2.45576">
        <ele>605.6</ele>
        <time>2015-09-20T10:29:46Z</time>
      </trkpt>
      <trkpt lat="44.61067" lon="2.45551">
        <ele>604.9</ele>
        <time>2015-09-20T10:29:48Z</time>
      </trkpt>
      <trkpt lat="44.61064" lon="2.45527">
        <ele>604.1</ele>
        <time>2015-09-20T10:29:50Z</time>
      </trkpt>
      <trkpt lat="44.61056" lon="2.45506">
        <ele>603.3</ele>
        <time>2015-09-20T10:29:52Z</time>
      </trkpt>
      <trkpt lat="44.61044" lon="2.45491">
        <ele>602.6</ele>
        <time>2015-09-20T10:29:54Z</time>
      </trkpt>
      <trkpt lat="44.61031" lon="2.4548">
        <ele>602</ele>
        <time>2015-09-20T10:29:56Z</time>
      </trkpt>
      <trkpt lat="44.61019" lon="2.4547">
        <ele>601.5</ele>
        <time>2015-09-20T10:29:58Z</time>
      </trkpt>
      <trkpt lat="44.6101" lon="2.45459">
        <ele>601.1</ele>
        <time>2015-09-20T10:30:00Z</time>
      </trkpt>
      <trkpt lat="44.61003" lon="2.45446">
        <ele>600.7</ele>
        <time>2015-09-20T10:30:02Z</time>
      </trkpt>
      <trkpt lat="44.60999" lon="2.45433">
        <ele>600.3</ele>
        <time>2015-09-20T10:30:04Z</time>
      </trkpt>
      <trkpt lat="44.60998" lon="2.45419">
        <ele>600</ele>
        <time>2015-09-20T10:30:06Z</time>
      </trkpt>
      <trkpt lat="44.60999" lon="2.45406">
        <ele>599.8</ele>
        <time>2015-09-20T10:30:08Z</time>
      </trkpt>
      <trkpt lat="44.61001" lon="2.45389">
        <ele>599.6</ele>
        <time>2015-09-20T10:30:11Z</time>
      </trkpt>
      <trkpt lat="44.61002" lon="2.45372">
        <ele>599.4</ele>
        <time>2015-09-20T10:30:14Z</time>
      </trkpt>
      <trkpt lat="44.61005" lon="2.45354">
        <ele>599.3</ele>
        <time>2015-09-20T10:30:17Z</time>
      </trkpt>
      <trkpt lat="44.61008" lon="2.45336">
        <ele>599.2</ele>
        <time>2015-09-20T10:30:20Z</time>
      </trkpt>
      <trkpt lat="44.6101" lon="2.45317">
        <ele>599.2</ele>
        <time>2015-09-20T10:30:23Z</time>
      </trkpt>
      <trkpt lat="44.61009" lon="2.45298">
        <ele>599.3</ele>
        <time>2015-09-20T10:30:26Z</time>
      </trkpt>
      <trkpt lat="44.61006" lon="2.4528">
        <ele>599.3</ele>
        <time>2015-09-20T10:30:29Z</time>
      </trkpt>
      <trkpt lat="44.60999" lon="2.45265">
        <ele>599.4</ele>
        <time>2015-09-20T10:30:32Z</time>
      </trkpt>
      <trkpt lat="44.60991" lon="2.45251">
        <ele>599.5</ele>
        <time>2015-09-20T10:30:35Z</time>
      </trkpt>
      <trkpt lat="44.60982" lon="2.45239">
        <ele>599.7</ele>
        <time>2015-09-20T10:30:38Z</time>
      </trkpt>
      <trkpt lat="44.60973" lon="2.45225">
        <ele>599.9</ele>
        <time>2015-09-20T10:30:41Z</time>
      </trkpt>
      <trkpt lat="44.60967" lon="2.45209">
        <ele>600.1</ele>
        <time>2015-09-20T10:30:44Z</time>
      </trkpt>
      <trkpt lat="44.60964" lon="2.45193">
        <ele>600.3</ele>
        <time>2015-09-20T10:30:47Z</time>
      </trkpt>
      <trkpt lat="44.60965" lon="2.45176">
        <ele>600.4</ele>
        <time>2015-09-20T10:30:50Z</time>
      </trkpt>
      <trkpt lat="44.60967" lon="2.45159">
        <ele>600.6</ele>
        <time>2015-09-20T10:30:53Z</time>
      </trkpt>
      <trkpt lat="44.60972" lon="2.45143">
        <ele>600.7</ele>
        <time>2015-09-20T10:30:56Z</time>
      </trkpt>
      <trkpt lat="44.60977" lon="2.45127">
        <ele>600.9</ele>
        <time>2015-09-20T10:30:59Z</time>
      </trkpt>
      <trkpt lat="44.6098" lon="2.45111">
        <ele>601.1</ele>
        <time>2015-09-20T10:31:02Z</time>
      </trkpt>
      <trkpt lat="44.60983" lon="2.45094">
        <ele>601.3</ele>
        <time>2015-09-20T10:31:05Z</time>
      </trkpt>
      <trkpt lat="44.60984" lon="2.45078">
        <ele>601.4</ele>
        <time>2015-09-20T10:31:08Z</time>
      </trkpt>
      <trkpt lat="44.60984" lon="2.45061">
        <ele>601.6</ele>
        <time>2015-09-20T10:31:11Z</time>
      </trkpt>
      <trkpt lat="44.60983" lon="2.45044">
        <ele>601.8</ele>
        <time>2015-09-20T10:31:14Z</time>
      </trkpt>
      <trkpt lat="44.6098" lon="2.45028">
        <ele>602</ele>
        <time>2015-09-20T10:31:17Z</time>
      </trkpt>
      <trkpt lat="44.60976" lon="2.45013">
        <ele>602.2</ele>
        <time>2015-09-20T10:31:20Z</time>
      </trkpt>
      <trkpt lat="44.60969" lon="2.45">
        <ele>602.4</ele>
        <time>2015-09-20T10:31:23Z</time>
      </trkpt>
      <trkpt lat="44.60961" lon="2.44989">
        <ele>602.5</ele>
        <time>2015-09-20T10:31:26Z</time>
      </trkpt>
      <trkpt lat="44.60951" lon="2.44979">
        <ele>602.7</ele>
        <time>2015-09-20T10:31:29Z</time>
      </trkpt>
      <trkpt lat="44.60941" lon="2.44969">
        <ele>603</ele>
        <time>2015-09-20T10:31:32Z</time>
      </trkpt>
      <trkpt lat="44.60932" lon="2.44959">
        <ele>603.2</ele>
        <time>2015-09-20T10:31:35Z</time>
      </trkpt>
      <trkpt lat="44.60923" lon="2.44946">
        <ele>603.4</ele>
        <time>2015-09-20T10:31:38Z</time>
      </trkpt>
      <trkpt lat="44.60916" lon="2.44931">
        <ele>603.6</ele>
        <time>2015-09-20T10:31:41Z</time>
      </trkpt>
      <trkpt lat="44.6091" lon="2.44915">
        <ele>603.8</ele>
        <time>2015-09-20T10:31:44Z</time>
      </trkpt>
      <trkpt lat="44.60904" lon="2.44899">
        <ele>603.9</ele>
        <time>2015-09-20T10:31:47Z</time>
      </trkpt>
      <trkpt lat="44.60898" lon="2.44883">
        <ele>604.1</ele>
        <time>2015-09-20T10:31:50Z</time>
      </trkpt>
      <trkpt lat="44.60892" lon="2.44874">
        <ele>604.4</ele>
        <time>2015-09-20T10:31:52Z</time>
      </trkpt>
      <trkpt lat="44.60885" lon="2.44865">
        <ele>604.6</ele>
        <time>2015-09-20T10:31:54Z</time>
      </trkpt>
      <trkpt lat="44.60876" lon="2.44853">
        <ele>604.9</ele>
        <time>2015-09-20T10:31:57Z</time>
      </trkpt>
      <trkpt lat="44.60871" lon="2.44843">
        <ele>605.2</ele>
        <time>2015-09-20T10:32:00Z</time>
      </trkpt>
      <trkpt lat="44.60868" lon="2.44829">
        <ele>605.5</ele>
        <time>2015-09-20T10:32:04Z</time>
      </trkpt>
      <trkpt lat="44.60868" lon="2.44813">
        <ele>605.8</ele>
        <time>2015-09-20T10:32:08Z</time>
      </trkpt>
      <trkpt lat="44.60871" lon="2.44798">
        <ele>606</ele>
        <time>2015-09-20T10:32:12Z</time>
      </trkpt>
      <trkpt lat="44.60875" lon="2.44782">
        <ele>606.3</ele>
        <time>2015-09-20T10:32:16Z</time>
      </trkpt>
      <trkpt lat="44.60879" lon="2.44767">
        <ele>606.4</ele>
        <time>2015-09-20T10:32:20Z</time>
      </trkpt>
      <trkpt lat="44.60883" lon="2.44756">
        <ele>606.5</ele>
        <time>2015-09-20T10:32:23Z</time>
      </trkpt>
      <trkpt lat="44.60888" lon="2.44741">
        <ele>606.6</ele>
        <time>2015-09-20T10:32:27Z</time>
      </trkpt>
      <trkpt lat="44.60894" lon="2.44727">
        <ele>606.7</ele>
        <time>2015-09-20T10:32:31Z</time>
      </trkpt>
      <trkpt lat="44.60899" lon="2.44715">
        <ele>606.7</ele>
        <time>2015-09-20T10:32:34Z</time>
      </trkpt>
      <trkpt lat="44.60905" lon="2.44704">
        <ele>606.7</ele>
        <time>2015-09-20T10:32:37Z</time>
      </trkpt>
      <trkpt lat="44.6091" lon="2.44692">
        <ele>606.7</ele>
        <time>2015-09-20T10:32:40Z</time>
      </trkpt>
      <trkpt lat="44.60916" lon="2.44679">
        <ele>606.7</ele>
        <time>2015-09-20T10:32:43Z</time>
      </trkpt>
      <trkpt lat="44.60923" lon="2.44666">
        <ele>606.6</ele>
        <time>2015-09-20T10:32:46Z</time>
      </trkpt>
      <trkpt lat="44.6093" lon="2.44653">
        <ele>606.6</ele>
        <time>2015-09-20T10:32:49Z</time>
      </trkpt>
      <trkpt lat="44.60935" lon="2.44638">
        <ele>606.5</ele>
        <time>2015-09-20T10:32:52Z</time>
      </trkpt>
      <trkpt lat="44.60937" lon="2.44622">
        <ele>606.4</ele>
        <time>2015-09-20T10:32:55Z</time>
      </trkpt>
      <trkpt lat="44.60939" lon="2.44606">
        <ele>606.3</ele>
        <time>2015-09-20T10:32:58Z</time>
      </trkpt>
      <trkpt lat="44.60942" lon="2.44588">
        <ele>606.1</ele>
        <time>2015-09-20T10:33:01Z</time>
      </trkpt>
      <trkpt lat="44.60946" lon="2.44576">
        <ele>605.9</ele>
        <time>2015-09-20T10:33:03Z</time>
      </trkpt>
      <trkpt lat="44.60949" lon="2.44563">
        <ele>605.8</ele>
        <time>2015-09-20T10:33:05Z</time>
      </trkpt>
      <trkpt lat="44.60954" lon="2.4455">
        <ele>605.6</ele>
        <time>2015-09-20T10:33:07Z</time>
      </trkpt>
      <trkpt lat="44.60958" lon="2.44536">
        <ele>605.4</ele>
        <time>2015-09-20T10:33:09Z</time>
      </trkpt>
      <trkpt lat="44.60961" lon="2.44522">
        <ele>605.2</ele>
        <time>2015-09-20T10:33:11Z</time>
      </trkpt>
      <trkpt lat="44.60965" lon="2.44507">
        <ele>605</ele>
        <time>2015-09-20T10:33:13Z</time>
      </trkpt>
      <trkpt lat="44.60966" lon="2.44491">
        <ele>604.7</ele>
        <time>2015-09-20T10:33:15Z</time>
      </trkpt>
      <trkpt lat="44.60964" lon="2.44474">
        <ele>604.4</ele>
        <time>2015-09-20T10:33:17Z</time>
      </trkpt>
      <trkpt lat="44.60958" lon="2.4446">
        <ele>604.1</ele>
        <time>2015-09-20T10:33:19Z</time>
      </trkpt>
      <trkpt lat="44.60949" lon="2.44449">
        <ele>603.8</ele>
        <time>2015-09-20T10:33:21Z</time>
      </trkpt>
      <trkpt lat="44.60939" lon="2.4444">
        <ele>603.5</ele>
        <time>2015-09-20T10:33:23Z</time>
      </trkpt>
      <trkpt lat="44.60928" lon="2.44431">
        <ele>603.2</ele>
        <time>2015-09-20T10:33:25Z</time>
      </trkpt>
      <trkpt lat="44.60921" lon="2.44419">
        <ele>602.9</ele>
        <time>2015-09-20T10:33:27Z</time>
      </trkpt>
      <trkpt lat="44.60916" lon="2.44404">
        <ele>602.5</ele>
        <time>2015-09-20T10:33:29Z</time>
      </trkpt>
      <trkpt lat="44.60916" lon="2.44388">
        <ele>602.1</ele>
        <time>2015-09-20T10:33:31Z</time>
      </trkpt>
      <trkpt lat="44.60918" lon="2.44371">
        <ele>601.8</ele>
        <time>2015-09-20T10:33:33Z</time>
      </trkpt>
      <trkpt lat="44.6092" lon="2.44354">
        <ele>601.5</ele>
        <time>2015-09-20T10:33:35Z</time>
      </trkpt>
      <trkpt lat="44.60923" lon="2.44338">
        <ele>601.1</ele>
        <time>2015-09-20T10:33:37Z</time>
      </trkpt>
      <trkpt lat="44.60927" lon="2.44321">
        <ele>600.8</ele>
        <time>2015-09-20T10:33:39Z</time>
      </trkpt>
      <trkpt lat="44.60932" lon="2.44306">
        <ele>600.4</ele>
        <time>2015-09-20T10:33:41Z</time>
      </trkpt>
      <trkpt lat="44.60938" lon="2.4429">
        <ele>600</ele>
        <time>2015-09-20T10:33:43Z</time>
      </trkpt>
      <trkpt lat="44.60944" lon="2.44275">
        <ele>599.7</ele>
        <time>2015-09-20T10:33:45Z</time>
      </trkpt>
      <trkpt lat="44.6095" lon="2.4426">
        <ele>599.3</ele>
        <time>2015-09-20T10:33:47Z</time>
      </trkpt>
      <trkpt lat="44.60956" lon="2.44245">
        <ele>599</ele>
        <time>2015-09-20T10:33:49Z</time>
      </trkpt>
      <trkpt lat="44.60963" lon="2.44231">
        <ele>598.6</ele>
        <time>2015-09-20T10:33:51Z</time>
      </trkpt>
      <trkpt lat="44.60967" lon="2.44215">
        <ele>598.2</ele>
        <time>2015-09-20T10:33:53Z</time>
      </trkpt>
      <trkpt lat="44.6097" lon="2.44198">
        <ele>597.9</ele>
        <time>2015-09-20T10:33:55Z</time>
      </trkpt>
      <trkpt lat="44.60969" lon="2.44181">
        <ele>597.5</ele>
        <time>2015-09-20T10:33:57Z</time>
      </trkpt>
      <trkpt lat="44.60966" lon="2.44164">
        <ele>597.1</ele>
        <time>2015-09-20T10:33:59Z</time>
      </trkpt>
      <trkpt lat="44.6096" lon="2.44148">
        <ele>596.8</ele>
        <time>2015-09-20T10:34:01Z</time>
      </trkpt>
      <trkpt lat="44.60953" lon="2.44134">
        <ele>596.4</ele>
        <time>2015-09-20T10:34:03Z</time>
      </trkpt>
      <trkpt lat="44.60945" lon="2.44118">
        <ele>596.1</ele>
        <time>2015-09-20T10:34:05Z</time>
      </trkpt>
      <trkpt lat="44.6094" lon="2.44102">
        <ele>595.7</ele>
        <time>2015-09-20T10:34:07Z</time>
      </trkpt>
      <trkpt lat="44.60939" lon="2.44083">
        <ele>595.4</ele>
        <time>2015-09-20T10:34:09Z</time>
      </trkpt>
      <trkpt lat="44.60941" lon="2.44065">
        <ele>595</ele>
        <time>2015-09-20T10:34:11Z</time>
      </trkpt>
      <trkpt lat="44.60943" lon="2.44048">
        <ele>594.6</ele>
        <time>2015-09-20T10:34:13Z</time>
      </trkpt>
      <trkpt lat="44.60947" lon="2.44032">
        <ele>594.3</ele>
        <time>2015-09-20T10:34:15Z</time>
      </trkpt>
      <trkpt lat="44.60952" lon="2.44017">
        <ele>594</ele>
        <time>2015-09-20T10:34:17Z</time>
      </trkpt>
      <trkpt lat="44.60958" lon="2.44003">
        <ele>593.7</ele>
        <time>2015-09-20T10:34:19Z</time>
      </trkpt>
      <trkpt lat="44.60961" lon="2.43988">
        <ele>593.4</ele>
        <time>2015-09-20T10:34:21Z</time>
      </trkpt>
      <trkpt lat="44.60964" lon="2.43972">
        <ele>593.1</ele>
        <time>2015-09-20T10:34:23Z</time>
      </trkpt>
      <trkpt lat="44.60965" lon="2.43957">
        <ele>592.9</ele>
        <time>2015-09-20T10:34:25Z</time>
      </trkpt>
      <trkpt lat="44.60964" lon="2.43941">
        <ele>592.6</ele>
        <time>2015-09-20T10:34:27Z</time>
      </trkpt>
      <trkpt lat="44.60961" lon="2.43925">
        <ele>592.3</ele>
        <time>2015-09-20T10:34:29Z</time>
      </trkpt>
      <trkpt lat="44.60958" lon="2.4391">
        <ele>592</ele>
        <time>2015-09-20T10:34:31Z</time>
      </trkpt>
      <trkpt lat="44.60955" lon="2.43895">
        <ele>591.7</ele>
        <time>2015-09-20T10:34:33Z</time>
      </trkpt>
      <trkpt lat="44.60954" lon="2.43879">
        <ele>591.4</ele>
        <time>2015-09-20T10:34:35Z</time>
      </trkpt>
      <trkpt lat="44.60956" lon="2.43863">
        <ele>591</ele>
        <time>2015-09-20T10:34:37Z</time>
      </trkpt>
      <trkpt lat="44.60962" lon="2.4385">
        <ele>590.7</ele>
        <time>2015-09-20T10:34:39Z</time>
      </trkpt>
      <trkpt lat="44.60969" lon="2.43839">
        <ele>590.3</ele>
        <time>2015-09-20T10:34:41Z</time>
      </trkpt>
      <trkpt lat="44.60977" lon="2.43828">
        <ele>590</ele>
        <time>2015-09-20T10:34:43Z</time>
      </trkpt>
      <trkpt lat="44.60983" lon="2.43816">
        <ele>589.8</ele>
        <time>2015-09-20T10:34:45Z</time>
      </trkpt>
      <trkpt lat="44.60987" lon="2.43803">
        <ele>589.5</ele>
        <time>2015-09-20T10:34:47Z</time>
      </trkpt>
      <trkpt lat="44.6099" lon="2.43789">
        <ele>589.3</ele>
        <time>2015-09-20T10:34:49Z</time>
      </trkpt>
      <trkpt lat="44.60993" lon="2.43775">
        <ele>589.1</ele>
        <time>2015-09-20T10:34:51Z</time>
      </trkpt>
      <trkpt lat="44.60994" lon="2.43758">
        <ele>588.8</ele>
        <time>2015-09-20T10:34:53Z</time>
      </trkpt>
      <trkpt lat="44.60996" lon="2.43742">
        <ele>588.5</ele>
        <time>2015-09-20T10:34:55Z</time>
      </trkpt>
      <trkpt lat="44.61002" lon="2.43727">
        <ele>588.1</ele>
        <time>2015-09-20T10:34:57Z</time>
      </trkpt>
      <trkpt lat="44.61009" lon="2.43713">
        <ele>587.8</ele>
        <time>2015-09-20T10:34:59Z</time>
      </trkpt>
      <trkpt lat="44.61018" lon="2.43703">
        <ele>587.5</ele>
        <time>2015-09-20T10:35:01Z</time>
      </trkpt>
      <trkpt lat="44.61028" lon="2.43696">
        <ele>587.2</ele>
        <time>2015-09-20T10:35:03Z</time>
      </trkpt>
      <trkpt lat="44.6104" lon="2.43691">
        <ele>586.9</ele>
        <time>2015-09-20T10:35:05Z</time>
      </trkpt>
      <trkpt lat="44.61052" lon="2.43687">
        <ele>586.7</ele>
        <time>2015-09-20T10:35:07Z</time>
      </trkpt>
      <trkpt lat="44.61063" lon="2.43681">
        <ele>586.4</ele>
        <time>2015-09-20T10:35:09Z</time>
      </trkpt>
      <trkpt lat="44.61073" lon="2.43672">
        <ele>586.1</ele>
        <time>2015-09-20T10:35:11Z</time>
      </trkpt>
      <trkpt lat="44.61082" lon="2.43661">
        <ele>585.8</ele>
        <time>2015-09-20T10:35:13Z</time>
      </trkpt>
      <trkpt lat="44.61091" lon="2.43648">
        <ele>585.4</ele>
        <time>2015-09-20T10:35:15Z</time>
      </trkpt>
      <trkpt lat="44.611" lon="2.43637">
        <ele>585</ele>
        <time>2015-09-20T10:35:17Z</time>
      </trkpt>
      <trkpt lat="44.61106" lon="2.43623">
        <ele>584.7</ele>
        <time>2015-09-20T10:35:19Z</time>
      </trkpt>
      <trkpt lat="44.6111" lon="2.4361">
        <ele>584.3</ele>
        <time>2015-09-20T10:35:21Z</time>
      </trkpt>
      <trkpt lat="44.61111" lon="2.43594">
        <ele>584</ele>
        <time>2015-09-20T10:35:23Z</time>
      </trkpt>
      <trkpt lat="44.61113" lon="2.43577">
        <ele>583.7</ele>
        <time>2015-09-20T10:35:25Z</time>
      </trkpt>
      <trkpt lat="44.61114" lon="2.43559">
        <ele>583.3</ele>
        <time>2015-09-20T10:35:27Z</time>
      </trkpt>
      <trkpt lat="44.61116" lon="2.43544">
        <ele>583</ele>
        <time>2015-09-20T10:35:29Z</time>
      </trkpt>
      <trkpt lat="44.61117" lon="2.43527">
        <ele>582.6</ele>
        <time>2015-09-20T10:35:31Z</time>
      </trkpt>
      <trkpt lat="44.61116" lon="2.43508">
        <ele>582.2</ele>
        <time>2015-09-20T10:35:33Z</time>
      </trkpt>
      <trkpt lat="44.61112" lon="2.43486">
        <ele>581.8</ele>
        <time>2015-09-20T10:35:35Z</time>
      </trkpt>
      <trkpt lat="44.61108" lon="2.43471">
        <ele>581.5</ele>
        <time>2015-09-20T10:35:36Z</time>
      </trkpt>
      <trkpt lat="44.61105" lon="2.43451">
        <ele>581.1</ele>
        <time>2015-09-20T10:35:38Z</time>
      </trkpt>
      <trkpt lat="44.611" lon="2.4343">
        <ele>580.7</ele>
        <time>2015-09-20T10:35:40Z</time>
      </trkpt>
      <trkpt lat="44.61093" lon="2.4341">
        <ele>580.3</ele>
        <time>2015-09-20T10:35:42Z</time>
      </trkpt>
      <trkpt lat="44.61087" lon="2.43392">
        <ele>579.9</ele>
        <time>2015-09-20T10:35:44Z</time>
      </trkpt>
      <trkpt lat="44.61081" lon="2.43374">
        <ele>579.6</ele>
        <time>2015-09-20T10:35:46Z</time>
      </trkpt>
      <trkpt lat="44.61075" lon="2.43357">
        <ele>579.2</ele>
        <time>2015-09-20T10:35:48Z</time>
      </trkpt>
      <trkpt lat="44.61071" lon="2.43341">
        <ele>578.9</ele>
        <time>2015-09-20T10:35:50Z</time>
      </trkpt>
      <trkpt lat="44.61068" lon="2.43324">
        <ele>578.6</ele>
        <time>2015-09-20T10:35:52Z</time>
      </trkpt>
      <trkpt lat="44.61069" lon="2.43308">
        <ele>578.3</ele>
        <time>2015-09-20T10:35:54Z</time>
      </trkpt>
      <trkpt lat="44.61069" lon="2.43293">
        <ele>578</ele>
        <time>2015-09-20T10:35:56Z</time>
      </trkpt>
      <trkpt lat="44.61069" lon="2.43279">
        <ele>577.8</ele>
        <time>2015-09-20T10:35:58Z</time>
      </trkpt>
      <trkpt lat="44.6107" lon="2.43266">
        <ele>577.6</ele>
        <time>2015-09-20T10:36:00Z</time>
      </trkpt>
      <trkpt lat="44.61072" lon="2.43253">
        <ele>577.4</ele>
        <time>2015-09-20T10:36:02Z</time>
      </trkpt>
      <trkpt lat="44.61074" lon="2.4324">
        <ele>577.2</ele>
        <time>2015-09-20T10:36:04Z</time>
      </trkpt>
      <trkpt lat="44.61076" lon="2.43227">
        <ele>577</ele>
        <time>2015-09-20T10:36:06Z</time>
      </trkpt>
      <trkpt lat="44.61079" lon="2.43215">
        <ele>576.8</ele>
        <time>2015-09-20T10:36:08Z</time>
      </trkpt>
      <trkpt lat="44.61083" lon="2.43203">
        <ele>576.7</ele>
        <time>2015-09-20T10:36:10Z</time>
      </trkpt>
      <trkpt lat="44.61088" lon="2.43191">
        <ele>576.5</ele>
        <time>2015-09-20T10:36:12Z</time>
      </trkpt>
      <trkpt lat="44.61094" lon="2.4318">
        <ele>576.4</ele>
        <time>2015-09-20T10:36:14Z</time>
      </trkpt>
      <trkpt lat="44.61101" lon="2.4317">
        <ele>576.2</ele>
        <time>2015-09-20T10:36:16Z</time>
      </trkpt>
      <trkpt lat="44.61108" lon="2.4316">
        <ele>576.1</ele>
        <time>2015-09-20T10:36:18Z</time>
      </trkpt>
      <trkpt lat="44.61115" lon="2.43149">
        <ele>576</ele>
        <time>2015-09-20T10:36:20Z</time>
      </trkpt>
      <trkpt lat="44.61122" lon="2.43139">
        <ele>576</ele>
        <time>2015-09-20T10:36:22Z</time>
      </trkpt>
      <trkpt lat="44.61129" lon="2.43129">
        <ele>575.9</ele>
        <time>2015-09-20T10:36:24Z</time>
      </trkpt>
      <trkpt lat="44.61137" lon="2.43119">
        <ele>575.8</ele>
        <time>2015-09-20T10:36:26Z</time>
      </trkpt>
      <trkpt lat="44.61145" lon="2.43108">
        <ele>575.7</ele>
        <time>2015-09-20T10:36:28Z</time>
      </trkpt>
      <trkpt lat="44.61154" lon="2.43097">
        <ele>575.6</ele>
        <time>2015-09-20T10:36:30Z</time>
      </trkpt>
      <trkpt lat="44.61162" lon="2.43085">
        <ele>575.5</ele>
        <time>2015-09-20T10:36:32Z</time>
      </trkpt>
      <trkpt lat="44.61168" lon="2.43072">
        <ele>575.4</ele>
        <time>2015-09-20T10:36:34Z</time>
      </trkpt>
      <trkpt lat="44.61173" lon="2.43058">
        <ele>575.3</ele>
        <time>2015-09-20T10:36:36Z</time>
      </trkpt>
      <trkpt lat="44.61176" lon="2.43043">
        <ele>575.1</ele>
        <time>2015-09-20T10:36:38Z</time>
      </trkpt>
      <trkpt lat="44.61176" lon="2.43027">
        <ele>575</ele>
        <time>2015-09-20T10:36:40Z</time>
      </trkpt>
      <trkpt lat="44.61173" lon="2.43012">
        <ele>574.9</ele>
        <time>2015-09-20T10:36:42Z</time>
      </trkpt>
      <trkpt lat="44.61167" lon="2.42999">
        <ele>574.8</ele>
        <time>2015-09-20T10:36:44Z</time>
      </trkpt>
      <trkpt lat="44.6116" lon="2.42988">
        <ele>574.7</ele>
        <time>2015-09-20T10:36:46Z</time>
      </trkpt>
      <trkpt lat="44.61151" lon="2.42981">
        <ele>574.5</ele>
        <time>2015-09-20T10:36:48Z</time>
      </trkpt>
      <trkpt lat="44.61142" lon="2.42975">
        <ele>574.5</ele>
        <time>2015-09-20T10:36:50Z</time>
      </trkpt>
      <trkpt lat="44.61132" lon="2.4297">
        <ele>574.4</ele>
        <time>2015-09-20T10:36:52Z</time>
      </trkpt>
      <trkpt lat="44.61121" lon="2.42965">
        <ele>574.3</ele>
        <time>2015-09-20T10:36:54Z</time>
      </trkpt>
      <trkpt lat="44.61111" lon="2.42961">
        <ele>574.2</ele>
        <time>2015-09-20T10:36:56Z</time>
      </trkpt>
      <trkpt lat="44.61102" lon="2.42956">
        <ele>574.1</ele>
        <time>2015-09-20T10:36:58Z</time>
      </trkpt>
      <trkpt lat="44.61094" lon="2.42951">
        <ele>574.1</ele>
        <time>2015-09-20T10:37:00Z</time>
      </trkpt>
      <trkpt lat="44.61082" lon="2.42945">
        <ele>573.9</ele>
        <time>2015-09-20T10:37:03Z</time>
      </trkpt>
      <trkpt lat="44.61069" lon="2.42939">
        <ele>573.7</ele>
        <time>2015-09-20T10:37:06Z</time>
      </trkpt>
      <trkpt lat="44.6106" lon="2.42935">
        <ele>573.6</ele>
        <time>2015-09-20T10:37:08Z</time>
      </trkpt>
      <trkpt lat="44.61051" lon="2.4293">
        <ele>573.5</ele>
        <time>2015-09-20T10:37:10Z</time>
      </trkpt>
      <trkpt lat="44.61042" lon="2.42926">
        <ele>573.4</ele>
        <time>2015-09-20T10:37:12Z</time>
      </trkpt>
      <trkpt lat="44.61033" lon="2.42922">
        <ele>573.4</ele>
        <time>2015-09-20T10:37:14Z</time>
      </trkpt>
      <trkpt lat="44.61021" lon="2.42915">
        <ele>573.3</ele>
        <time>2015-09-20T10:37:17Z</time>
      </trkpt>
      <trkpt lat="44.6101" lon="2.42908">
        <ele>573.2</ele>
        <time>2015-09-20T10:37:20Z</time>
      </trkpt>
      <trkpt lat="44.61" lon="2.42895">
        <ele>573.1</ele>
        <time>2015-09-20T10:37:23Z</time>
      </trkpt>
      <trkpt lat="44.60995" lon="2.42883">
        <ele>573.1</ele>
        <time>2015-09-20T10:37:25Z</time>
      </trkpt>
      <trkpt lat="44.60992" lon="2.42871">
        <ele>573</ele>
        <time>2015-09-20T10:37:27Z</time>
      </trkpt>
      <trkpt lat="44.60991" lon="2.42858">
        <ele>573</ele>
        <time>2015-09-20T10:37:30Z</time>
      </trkpt>
      <trkpt lat="44.6099" lon="2.42844">
        <ele>572.8</ele>
        <time>2015-09-20T10:37:34Z</time>
      </trkpt>
      <trkpt lat="44.60983" lon="2.4283">
        <ele>572.8</ele>
        <time>2015-09-20T10:37:36Z</time>
      </trkpt>
      <trkpt lat="44.60978" lon="2.42816">
        <ele>572.7</ele>
        <time>2015-09-20T10:37:39Z</time>
      </trkpt>
      <trkpt lat="44.60974" lon="2.42803">
        <ele>572.6</ele>
        <time>2015-09-20T10:37:42Z</time>
      </trkpt>
      <trkpt lat="44.60966" lon="2.42791">
        <ele>572.4</ele>
        <time>2015-09-20T10:37:46Z</time>
      </trkpt>
      <trkpt lat="44.60956" lon="2.42791">
        <ele>572.3</ele>
        <time>2015-09-20T10:37:50Z</time>
      </trkpt>
      <trkpt lat="44.60943" lon="2.42792">
        <ele>572.1</ele>
        <time>2015-09-20T10:37:53Z</time>
      </trkpt>
      <trkpt lat="44.60932" lon="2.42799">
        <ele>571.9</ele>
        <time>2015-09-20T10:37:55Z</time>
      </trkpt>
      <trkpt lat="44.60922" lon="2.42806">
        <ele>571.6</ele>
        <time>2015-09-20T10:37:57Z</time>
      </trkpt>
      <trkpt lat="44.60911" lon="2.42813">
        <ele>571.3</ele>
        <time>2015-09-20T10:37:59Z</time>
      </trkpt>
      <trkpt lat="44.60899" lon="2.42821">
        <ele>570.9</ele>
        <time>2015-09-20T10:38:01Z</time>
      </trkpt>
      <trkpt lat="44.60888" lon="2.42832">
        <ele>570.5</ele>
        <time>2015-09-20T10:38:03Z</time>
      </trkpt>
      <trkpt lat="44.60877" lon="2.42847">
        <ele>570</ele>
        <time>2015-09-20T10:38:05Z</time>
      </trkpt>
      <trkpt lat="44.60867" lon="2.42865">
        <ele>569.4</ele>
        <time>2015-09-20T10:38:07Z</time>
      </trkpt>
      <trkpt lat="44.60856" lon="2.42882">
        <ele>568.9</ele>
        <time>2015-09-20T10:38:09Z</time>
      </trkpt>
      <trkpt lat="44.60842" lon="2.42895">
        <ele>568.4</ele>
        <time>2015-09-20T10:38:11Z</time>
      </trkpt>
      <trkpt lat="44.60825" lon="2.429">
        <ele>567.7</ele>
        <time>2015-09-20T10:38:13Z</time>
      </trkpt>
      <trkpt lat="44.60807" lon="2.429">
        <ele>567.1</ele>
        <time>2015-09-20T10:38:15Z</time>
      </trkpt>
      <trkpt lat="44.6079" lon="2.42901">
        <ele>566.4</ele>
        <time>2015-09-20T10:38:17Z</time>
      </trkpt>
      <trkpt lat="44.60781" lon="2.42902">
        <ele>566.1</ele>
        <time>2015-09-20T10:38:18Z</time>
      </trkpt>
      <trkpt lat="44.60772" lon="2.42904">
        <ele>565.7</ele>
        <time>2015-09-20T10:38:19Z</time>
      </trkpt>
      <trkpt lat="44.60763" lon="2.42906">
        <ele>565.2</ele>
        <time>2015-09-20T10:38:20Z</time>
      </trkpt>
      <trkpt lat="44.60745" lon="2.42903">
        <ele>564.4</ele>
        <time>2015-09-20T10:38:22Z</time>
      </trkpt>
      <trkpt lat="44.60736" lon="2.429">
        <ele>564</ele>
        <time>2015-09-20T10:38:23Z</time>
      </trkpt>
      <trkpt lat="44.60727" lon="2.42896">
        <ele>563.6</ele>
        <time>2015-09-20T10:38:24Z</time>
      </trkpt>
      <trkpt lat="44.6071" lon="2.42891">
        <ele>562.7</ele>
        <time>2015-09-20T10:38:26Z</time>
      </trkpt>
      <trkpt lat="44.60693" lon="2.42887">
        <ele>561.8</ele>
        <time>2015-09-20T10:38:28Z</time>
      </trkpt>
      <trkpt lat="44.60675" lon="2.42885">
        <ele>560.9</ele>
        <time>2015-09-20T10:38:30Z</time>
      </trkpt>
      <trkpt lat="44.60665" lon="2.42891">
        <ele>560.4</ele>
        <time>2015-09-20T10:38:31Z</time>
      </trkpt>
      <trkpt lat="44.60655" lon="2.4291">
        <ele>559.5</ele>
        <time>2015-09-20T10:38:33Z</time>
      </trkpt>
      <trkpt lat="44.60652" lon="2.42925">
        <ele>559</ele>
        <time>2015-09-20T10:38:34Z</time>
      </trkpt>
      <trkpt lat="44.60651" lon="2.42939">
        <ele>558.5</ele>
        <time>2015-09-20T10:38:35Z</time>
      </trkpt>
      <trkpt lat="44.60651" lon="2.42954">
        <ele>558</ele>
        <time>2015-09-20T10:38:36Z</time>
      </trkpt>
      <trkpt lat="44.60651" lon="2.42969">
        <ele>557.5</ele>
        <time>2015-09-20T10:38:37Z</time>
      </trkpt>
      <trkpt lat="44.60651" lon="2.42984">
        <ele>557</ele>
        <time>2015-09-20T10:38:38Z</time>
      </trkpt>
      <trkpt lat="44.60649" lon="2.42999">
        <ele>556.4</ele>
        <time>2015-09-20T10:38:39Z</time>
      </trkpt>
      <trkpt lat="44.60646" lon="2.43013">
        <ele>555.8</ele>
        <time>2015-09-20T10:38:40Z</time>
      </trkpt>
      <trkpt lat="44.60642" lon="2.43026">
        <ele>555.3</ele>
        <time>2015-09-20T10:38:41Z</time>
      </trkpt>
      <trkpt lat="44.60635" lon="2.43038">
        <ele>554.8</ele>
        <time>2015-09-20T10:38:42Z</time>
      </trkpt>
      <trkpt lat="44.60628" lon="2.43048">
        <ele>554.3</ele>
        <time>2015-09-20T10:38:43Z</time>
      </trkpt>
      <trkpt lat="44.60621" lon="2.43055">
        <ele>553.7</ele>
        <time>2015-09-20T10:38:44Z</time>
      </trkpt>
      <trkpt lat="44.60603" lon="2.43062">
        <ele>552.7</ele>
        <time>2015-09-20T10:38:46Z</time>
      </trkpt>
      <trkpt lat="44.60594" lon="2.43062">
        <ele>552.1</ele>
        <time>2015-09-20T10:38:47Z</time>
      </trkpt>
      <trkpt lat="44.60584" lon="2.4306">
        <ele>551.6</ele>
        <time>2015-09-20T10:38:48Z</time>
      </trkpt>
      <trkpt lat="44.60574" lon="2.43059">
        <ele>551.1</ele>
        <time>2015-09-20T10:38:49Z</time>
      </trkpt>
      <trkpt lat="44.60565" lon="2.43056">
        <ele>550.5</ele>
        <time>2015-09-20T10:38:50Z</time>
      </trkpt>
      <trkpt lat="44.60557" lon="2.4305">
        <ele>550</ele>
        <time>2015-09-20T10:38:51Z</time>
      </trkpt>
      <trkpt lat="44.60545" lon="2.4303">
        <ele>548.9</ele>
        <time>2015-09-20T10:38:53Z</time>
      </trkpt>
      <trkpt lat="44.60539" lon="2.43019">
        <ele>548.3</ele>
        <time>2015-09-20T10:38:54Z</time>
      </trkpt>
      <trkpt lat="44.6053" lon="2.42996">
        <ele>547.2</ele>
        <time>2015-09-20T10:38:56Z</time>
      </trkpt>
      <trkpt lat="44.60524" lon="2.42987">
        <ele>546.7</ele>
        <time>2015-09-20T10:38:57Z</time>
      </trkpt>
      <trkpt lat="44.60515" lon="2.42981">
        <ele>546.2</ele>
        <time>2015-09-20T10:38:58Z</time>
      </trkpt>
      <trkpt lat="44.605" lon="2.42972">
        <ele>545.1</ele>
        <time>2015-09-20T10:39:00Z</time>
      </trkpt>
      <trkpt lat="44.60492" lon="2.42965">
        <ele>544.5</ele>
        <time>2015-09-20T10:39:01Z</time>
      </trkpt>
      <trkpt lat="44.60475" lon="2.42953">
        <ele>543.3</ele>
        <time>2015-09-20T10:39:03Z</time>
      </trkpt>
      <trkpt lat="44.60465" lon="2.42952">
        <ele>542.8</ele>
        <time>2015-09-20T10:39:04Z</time>
      </trkpt>
      <trkpt lat="44.60454" lon="2.42954">
        <ele>542.2</ele>
        <time>2015-09-20T10:39:05Z</time>
      </trkpt>
      <trkpt lat="44.60441" lon="2.42954">
        <ele>541.7</ele>
        <time>2015-09-20T10:39:06Z</time>
      </trkpt>
      <trkpt lat="44.60428" lon="2.42957">
        <ele>541.1</ele>
        <time>2015-09-20T10:39:07Z</time>
      </trkpt>
      <trkpt lat="44.60416" lon="2.42961">
        <ele>540.5</ele>
        <time>2015-09-20T10:39:08Z</time>
      </trkpt>
      <trkpt lat="44.60408" lon="2.42969">
        <ele>540</ele>
        <time>2015-09-20T10:39:09Z</time>
      </trkpt>
      <trkpt lat="44.60403" lon="2.42981">
        <ele>539.4</ele>
        <time>2015-09-20T10:39:10Z</time>
      </trkpt>
      <trkpt lat="44.60397" lon="2.42993">
        <ele>538.9</ele>
        <time>2015-09-20T10:39:11Z</time>
      </trkpt>
      <trkpt lat="44.60389" lon="2.43002">
        <ele>538.3</ele>
        <time>2015-09-20T10:39:12Z</time>
      </trkpt>
      <trkpt lat="44.6038" lon="2.43007">
        <ele>537.8</ele>
        <time>2015-09-20T10:39:13Z</time>
      </trkpt>
      <trkpt lat="44.6037" lon="2.43006">
        <ele>537.2</ele>
        <time>2015-09-20T10:39:14Z</time>
      </trkpt>
      <trkpt lat="44.6036" lon="2.43004">
        <ele>536.6</ele>
        <time>2015-09-20T10:39:15Z</time>
      </trkpt>
      <trkpt lat="44.60349" lon="2.43">
        <ele>536</ele>
        <time>2015-09-20T10:39:16Z</time>
      </trkpt>
      <trkpt lat="44.60339" lon="2.42997">
        <ele>535.4</ele>
        <time>2015-09-20T10:39:17Z</time>
      </trkpt>
      <trkpt lat="44.60328" lon="2.42998">
        <ele>534.8</ele>
        <time>2015-09-20T10:39:18Z</time>
      </trkpt>
      <trkpt lat="44.60318" lon="2.43001">
        <ele>534.2</ele>
        <time>2015-09-20T10:39:19Z</time>
      </trkpt>
      <trkpt lat="44.60309" lon="2.43008">
        <ele>533.6</ele>
        <time>2015-09-20T10:39:20Z</time>
      </trkpt>
      <trkpt lat="44.60301" lon="2.43017">
        <ele>533</ele>
        <time>2015-09-20T10:39:21Z</time>
      </trkpt>
      <trkpt lat="44.60295" lon="2.43027">
        <ele>532.5</ele>
        <time>2015-09-20T10:39:22Z</time>
      </trkpt>
      <trkpt lat="44.60291" lon="2.43051">
        <ele>531.3</ele>
        <time>2015-09-20T10:39:24Z</time>
      </trkpt>
      <trkpt lat="44.60287" lon="2.43065">
        <ele>530.7</ele>
        <time>2015-09-20T10:39:25Z</time>
      </trkpt>
      <trkpt lat="44.6028" lon="2.43078">
        <ele>530.1</ele>
        <time>2015-09-20T10:39:26Z</time>
      </trkpt>
      <trkpt lat="44.60272" lon="2.43089">
        <ele>529.5</ele>
        <time>2015-09-20T10:39:27Z</time>
      </trkpt>
      <trkpt lat="44.6026" lon="2.43102">
        <ele>528.9</ele>
        <time>2015-09-20T10:39:28Z</time>
      </trkpt>
      <trkpt lat="44.6025" lon="2.43113">
        <ele>528.3</ele>
        <time>2015-09-20T10:39:29Z</time>
      </trkpt>
      <trkpt lat="44.6024" lon="2.43123">
        <ele>527.7</ele>
        <time>2015-09-20T10:39:30Z</time>
      </trkpt>
      <trkpt lat="44.60229" lon="2.43132">
        <ele>527.1</ele>
        <time>2015-09-20T10:39:31Z</time>
      </trkpt>
      <trkpt lat="44.60219" lon="2.43143">
        <ele>526.4</ele>
        <time>2015-09-20T10:39:32Z</time>
      </trkpt>
      <trkpt lat="44.60208" lon="2.43154">
        <ele>525.8</ele>
        <time>2015-09-20T10:39:33Z</time>
      </trkpt>
      <trkpt lat="44.60197" lon="2.43166">
        <ele>525.2</ele>
        <time>2015-09-20T10:39:34Z</time>
      </trkpt>
      <trkpt lat="44.60187" lon="2.43176">
        <ele>524.5</ele>
        <time>2015-09-20T10:39:35Z</time>
      </trkpt>
      <trkpt lat="44.60177" lon="2.43186">
        <ele>523.9</ele>
        <time>2015-09-20T10:39:36Z</time>
      </trkpt>
      <trkpt lat="44.60167" lon="2.43197">
        <ele>523.3</ele>
        <time>2015-09-20T10:39:37Z</time>
      </trkpt>
      <trkpt lat="44.60158" lon="2.43208">
        <ele>522.6</ele>
        <time>2015-09-20T10:39:38Z</time>
      </trkpt>
      <trkpt lat="44.60148" lon="2.43219">
        <ele>521.9</ele>
        <time>2015-09-20T10:39:39Z</time>
      </trkpt>
      <trkpt lat="44.60139" lon="2.4323">
        <ele>521.3</ele>
        <time>2015-09-20T10:39:40Z</time>
      </trkpt>
      <trkpt lat="44.6013" lon="2.43238">
        <ele>520.6</ele>
        <time>2015-09-20T10:39:41Z</time>
      </trkpt>
      <trkpt lat="44.60121" lon="2.43243">
        <ele>519.9</ele>
        <time>2015-09-20T10:39:42Z</time>
      </trkpt>
      <trkpt lat="44.60112" lon="2.43243">
        <ele>519.2</ele>
        <time>2015-09-20T10:39:43Z</time>
      </trkpt>
      <trkpt lat="44.601" lon="2.43228">
        <ele>517.9</ele>
        <time>2015-09-20T10:39:45Z</time>
      </trkpt>
      <trkpt lat="44.60103" lon="2.43204">
        <ele>516.6</ele>
        <time>2015-09-20T10:39:47Z</time>
      </trkpt>
      <trkpt lat="44.60107" lon="2.43192">
        <ele>515.9</ele>
        <time>2015-09-20T10:39:48Z</time>
      </trkpt>
      <trkpt lat="44.60112" lon="2.43181">
        <ele>515.3</ele>
        <time>2015-09-20T10:39:49Z</time>
      </trkpt>
      <trkpt lat="44.60118" lon="2.43169">
        <ele>514.7</ele>
        <time>2015-09-20T10:39:50Z</time>
      </trkpt>
      <trkpt lat="44.60125" lon="2.43158">
        <ele>514.1</ele>
        <time>2015-09-20T10:39:51Z</time>
      </trkpt>
      <trkpt lat="44.6013" lon="2.43145">
        <ele>513.5</ele>
        <time>2015-09-20T10:39:52Z</time>
      </trkpt>
      <trkpt lat="44.60134" lon="2.43132">
        <ele>512.9</ele>
        <time>2015-09-20T10:39:53Z</time>
      </trkpt>
      <trkpt lat="44.60138" lon="2.43118">
        <ele>512.3</ele>
        <time>2015-09-20T10:39:54Z</time>
      </trkpt>
      <trkpt lat="44.60142" lon="2.43105">
        <ele>511.8</ele>
        <time>2015-09-20T10:39:55Z</time>
      </trkpt>
      <trkpt lat="44.60143" lon="2.43089">
        <ele>511.2</ele>
        <time>2015-09-20T10:39:56Z</time>
      </trkpt>
      <trkpt lat="44.60143" lon="2.43075">
        <ele>510.5</ele>
        <time>2015-09-20T10:39:57Z</time>
      </trkpt>
      <trkpt lat="44.60143" lon="2.4306">
        <ele>509.9</ele>
        <time>2015-09-20T10:39:58Z</time>
      </trkpt>
      <trkpt lat="44.60141" lon="2.43045">
        <ele>509.4</ele>
        <time>2015-09-20T10:39:59Z</time>
      </trkpt>
      <trkpt lat="44.60141" lon="2.4303">
        <ele>508.8</ele>
        <time>2015-09-20T10:40:00Z</time>
      </trkpt>
      <trkpt lat="44.6014" lon="2.43014">
        <ele>508.2</ele>
        <time>2015-09-20T10:40:01Z</time>
      </trkpt>
      <trkpt lat="44.60138" lon="2.42999">
        <ele>507.6</ele>
        <time>2015-09-20T10:40:02Z</time>
      </trkpt>
      <trkpt lat="44.60136" lon="2.42983">
        <ele>507</ele>
        <time>2015-09-20T10:40:03Z</time>
      </trkpt>
      <trkpt lat="44.60134" lon="2.42967">
        <ele>506.4</ele>
        <time>2015-09-20T10:40:04Z</time>
      </trkpt>
      <trkpt lat="44.60133" lon="2.42951">
        <ele>505.8</ele>
        <time>2015-09-20T10:40:05Z</time>
      </trkpt>
      <trkpt lat="44.60131" lon="2.42936">
        <ele>505.2</ele>
        <time>2015-09-20T10:40:06Z</time>
      </trkpt>
      <trkpt lat="44.6013" lon="2.42921">
        <ele>504.6</ele>
        <time>2015-09-20T10:40:07Z</time>
      </trkpt>
      <trkpt lat="44.60129" lon="2.42906">
        <ele>503.9</ele>
        <time>2015-09-20T10:40:08Z</time>
      </trkpt>
      <trkpt lat="44.60128" lon="2.42893">
        <ele>503.3</ele>
        <time>2015-09-20T10:40:09Z</time>
      </trkpt>
      <trkpt lat="44.60127" lon="2.42878">
        <ele>502.7</ele>
        <time>2015-09-20T10:40:10Z</time>
      </trkpt>
      <trkpt lat="44.60126" lon="2.42862">
        <ele>502.1</ele>
        <time>2015-09-20T10:40:11Z</time>
      </trkpt>
      <trkpt lat="44.60124" lon="2.42845">
        <ele>501.4</ele>
        <time>2015-09-20T10:40:12Z</time>
      </trkpt>
      <trkpt lat="44.60122" lon="2.42829">
        <ele>500.8</ele>
        <time>2015-09-20T10:40:13Z</time>
      </trkpt>
      <trkpt lat="44.60121" lon="2.42815">
        <ele>500.2</ele>
        <time>2015-09-20T10:40:14Z</time>
      </trkpt>
      <trkpt lat="44.60112" lon="2.42798">
        <ele>498.9</ele>
        <time>2015-09-20T10:40:16Z</time>
      </trkpt>
      <trkpt lat="44.60095" lon="2.42794">
        <ele>497.6</ele>
        <time>2015-09-20T10:40:18Z</time>
      </trkpt>
      <trkpt lat="44.60078" lon="2.42805">
        <ele>496.3</ele>
        <time>2015-09-20T10:40:20Z</time>
      </trkpt>
      <trkpt lat="44.60071" lon="2.42813">
        <ele>495.7</ele>
        <time>2015-09-20T10:40:21Z</time>
      </trkpt>
      <trkpt lat="44.60063" lon="2.42821">
        <ele>495</ele>
        <time>2015-09-20T10:40:22Z</time>
      </trkpt>
      <trkpt lat="44.60053" lon="2.42826">
        <ele>494.4</ele>
        <time>2015-09-20T10:40:23Z</time>
      </trkpt>
      <trkpt lat="44.60044" lon="2.4283">
        <ele>493.8</ele>
        <time>2015-09-20T10:40:24Z</time>
      </trkpt>
      <trkpt lat="44.60033" lon="2.42831">
        <ele>493.1</ele>
        <time>2015-09-20T10:40:25Z</time>
      </trkpt>
      <trkpt lat="44.60023" lon="2.42832">
        <ele>492.5</ele>
        <time>2015-09-20T10:40:26Z</time>
      </trkpt>
      <trkpt lat="44.60012" lon="2.4283">
        <ele>491.9</ele>
        <time>2015-09-20T10:40:27Z</time>
      </trkpt>
      <trkpt lat="44.60002" lon="2.42827">
        <ele>491.2</ele>
        <time>2015-09-20T10:40:28Z</time>
      </trkpt>
      <trkpt lat="44.59991" lon="2.42823">
        <ele>490.7</ele>
        <time>2015-09-20T10:40:29Z</time>
      </trkpt>
      <trkpt lat="44.5998" lon="2.42819">
        <ele>490.1</ele>
        <time>2015-09-20T10:40:30Z</time>
      </trkpt>
      <trkpt lat="44.5997" lon="2.42816">
        <ele>489.4</ele>
        <time>2015-09-20T10:40:31Z</time>
      </trkpt>
      <trkpt lat="44.5996" lon="2.42811">
        <ele>488.9</ele>
        <time>2015-09-20T10:40:32Z</time>
      </trkpt>
      <trkpt lat="44.59951" lon="2.42803">
        <ele>488.3</ele>
        <time>2015-09-20T10:40:33Z</time>
      </trkpt>
      <trkpt lat="44.59945" lon="2.42792">
        <ele>487.7</ele>
        <time>2015-09-20T10:40:34Z</time>
      </trkpt>
      <trkpt lat="44.59943" lon="2.42779">
        <ele>487.1</ele>
        <time>2015-09-20T10:40:35Z</time>
      </trkpt>
      <trkpt lat="44.59944" lon="2.42766">
        <ele>486.5</ele>
        <time>2015-09-20T10:40:36Z</time>
      </trkpt>
      <trkpt lat="44.59947" lon="2.42752">
        <ele>485.9</ele>
        <time>2015-09-20T10:40:37Z</time>
      </trkpt>
      <trkpt lat="44.59952" lon="2.4274">
        <ele>485.3</ele>
        <time>2015-09-20T10:40:38Z</time>
      </trkpt>
      <trkpt lat="44.59958" lon="2.42729">
        <ele>484.7</ele>
        <time>2015-09-20T10:40:39Z</time>
      </trkpt>
      <trkpt lat="44.59964" lon="2.42717">
        <ele>484.1</ele>
        <time>2015-09-20T10:40:40Z</time>
      </trkpt>
      <trkpt lat="44.59969" lon="2.42704">
        <ele>483.6</ele>
        <time>2015-09-20T10:40:41Z</time>
      </trkpt>
      <trkpt lat="44.59974" lon="2.42692">
        <ele>483</ele>
        <time>2015-09-20T10:40:42Z</time>
      </trkpt>
      <trkpt lat="44.59979" lon="2.4268">
        <ele>482.4</ele>
        <time>2015-09-20T10:40:43Z</time>
      </trkpt>
      <trkpt lat="44.59984" lon="2.42667">
        <ele>481.9</ele>
        <time>2015-09-20T10:40:44Z</time>
      </trkpt>
      <trkpt lat="44.59988" lon="2.42655">
        <ele>481.3</ele>
        <time>2015-09-20T10:40:45Z</time>
      </trkpt>
      <trkpt lat="44.59992" lon="2.42641">
        <ele>480.7</ele>
        <time>2015-09-20T10:40:46Z</time>
      </trkpt>
      <trkpt lat="44.59996" lon="2.42628">
        <ele>480.2</ele>
        <time>2015-09-20T10:40:47Z</time>
      </trkpt>
      <trkpt lat="44.6" lon="2.42614">
        <ele>479.5</ele>
        <time>2015-09-20T10:40:48Z</time>
      </trkpt>
      <trkpt lat="44.60001" lon="2.42597">
        <ele>478.9</ele>
        <time>2015-09-20T10:40:49Z</time>
      </trkpt>
      <trkpt lat="44.60004" lon="2.42582">
        <ele>478.4</ele>
        <time>2015-09-20T10:40:50Z</time>
      </trkpt>
      <trkpt lat="44.60007" lon="2.42568">
        <ele>477.8</ele>
        <time>2015-09-20T10:40:51Z</time>
      </trkpt>
      <trkpt lat="44.60001" lon="2.42543">
        <ele>476.6</ele>
        <time>2015-09-20T10:40:53Z</time>
      </trkpt>
      <trkpt lat="44.59993" lon="2.4253">
        <ele>476</ele>
        <time>2015-09-20T10:40:54Z</time>
      </trkpt>
      <trkpt lat="44.59985" lon="2.42521">
        <ele>475.4</ele>
        <time>2015-09-20T10:40:55Z</time>
      </trkpt>
      <trkpt lat="44.59976" lon="2.42515">
        <ele>474.9</ele>
        <time>2015-09-20T10:40:56Z</time>
      </trkpt>
      <trkpt lat="44.59966" lon="2.4251">
        <ele>474.3</ele>
        <time>2015-09-20T10:40:57Z</time>
      </trkpt>
      <trkpt lat="44.59955" lon="2.42503">
        <ele>473.7</ele>
        <time>2015-09-20T10:40:58Z</time>
      </trkpt>
      <trkpt lat="44.59945" lon="2.42499">
        <ele>473.2</ele>
        <time>2015-09-20T10:40:59Z</time>
      </trkpt>
      <trkpt lat="44.59935" lon="2.42494">
        <ele>472.6</ele>
        <time>2015-09-20T10:41:00Z</time>
      </trkpt>
      <trkpt lat="44.59926" lon="2.42488">
        <ele>472</ele>
        <time>2015-09-20T10:41:01Z</time>
      </trkpt>
      <trkpt lat="44.59916" lon="2.42482">
        <ele>471.5</ele>
        <time>2015-09-20T10:41:02Z</time>
      </trkpt>
      <trkpt lat="44.59907" lon="2.42476">
        <ele>470.9</ele>
        <time>2015-09-20T10:41:03Z</time>
      </trkpt>
      <trkpt lat="44.59897" lon="2.42472">
        <ele>470.3</ele>
        <time>2015-09-20T10:41:04Z</time>
      </trkpt>
      <trkpt lat="44.59887" lon="2.42467">
        <ele>469.8</ele>
        <time>2015-09-20T10:41:05Z</time>
      </trkpt>
      <trkpt lat="44.59879" lon="2.42458">
        <ele>469.2</ele>
        <time>2015-09-20T10:41:06Z</time>
      </trkpt>
      <trkpt lat="44.59872" lon="2.42448">
        <ele>468.6</ele>
        <time>2015-09-20T10:41:07Z</time>
      </trkpt>
      <trkpt lat="44.59869" lon="2.42435">
        <ele>468</ele>
        <time>2015-09-20T10:41:08Z</time>
      </trkpt>
      <trkpt lat="44.59868" lon="2.42422">
        <ele>467.4</ele>
        <time>2015-09-20T10:41:09Z</time>
      </trkpt>
      <trkpt lat="44.59869" lon="2.42408">
        <ele>466.9</ele>
        <time>2015-09-20T10:41:10Z</time>
      </trkpt>
      <trkpt lat="44.59871" lon="2.42394">
        <ele>466.3</ele>
        <time>2015-09-20T10:41:11Z</time>
      </trkpt>
      <trkpt lat="44.59872" lon="2.4238">
        <ele>465.7</ele>
        <time>2015-09-20T10:41:12Z</time>
      </trkpt>
      <trkpt lat="44.59875" lon="2.42367">
        <ele>465.1</ele>
        <time>2015-09-20T10:41:13Z</time>
      </trkpt>
      <trkpt lat="44.59878" lon="2.42354">
        <ele>464.5</ele>
        <time>2015-09-20T10:41:14Z</time>
      </trkpt>
      <trkpt lat="44.59882" lon="2.4234">
        <ele>464</ele>
        <time>2015-09-20T10:41:15Z</time>
      </trkpt>
      <trkpt lat="44.59886" lon="2.42328">
        <ele>463.4</ele>
        <time>2015-09-20T10:41:16Z</time>
      </trkpt>
      <trkpt lat="44.5989" lon="2.42315">
        <ele>462.9</ele>
        <time>2015-09-20T10:41:17Z</time>
      </trkpt>
      <trkpt lat="44.59893" lon="2.42301">
        <ele>462.4</ele>
        <time>2015-09-20T10:41:18Z</time>
      </trkpt>
      <trkpt lat="44.59896" lon="2.42288">
        <ele>461.8</ele>
        <time>2015-09-20T10:41:19Z</time>
      </trkpt>
      <trkpt lat="44.59901" lon="2.42276">
        <ele>461.3</ele>
        <time>2015-09-20T10:41:20Z</time>
      </trkpt>
      <trkpt lat="44.59903" lon="2.42263">
        <ele>460.7</ele>
        <time>2015-09-20T10:41:21Z</time>
      </trkpt>
      <trkpt lat="44.59906" lon="2.42249">
        <ele>460.1</ele>
        <time>2015-09-20T10:41:22Z</time>
      </trkpt>
      <trkpt lat="44.59908" lon="2.42234">
        <ele>459.5</ele>
        <time>2015-09-20T10:41:23Z</time>
      </trkpt>
      <trkpt lat="44.5991" lon="2.42218">
        <ele>458.9</ele>
        <time>2015-09-20T10:41:24Z</time>
      </trkpt>
      <trkpt lat="44.59912" lon="2.42202">
        <ele>458.3</ele>
        <time>2015-09-20T10:41:25Z</time>
      </trkpt>
      <trkpt lat="44.59912" lon="2.42187">
        <ele>457.7</ele>
        <time>2015-09-20T10:41:26Z</time>
      </trkpt>
      <trkpt lat="44.5991" lon="2.42168">
        <ele>457.1</ele>
        <time>2015-09-20T10:41:27Z</time>
      </trkpt>
      <trkpt lat="44.5991" lon="2.42152">
        <ele>456.6</ele>
        <time>2015-09-20T10:41:28Z</time>
      </trkpt>
      <trkpt lat="44.5991" lon="2.42125">
        <ele>455.4</ele>
        <time>2015-09-20T10:41:30Z</time>
      </trkpt>
      <trkpt lat="44.59907" lon="2.42109">
        <ele>454.8</ele>
        <time>2015-09-20T10:41:31Z</time>
      </trkpt>
      <trkpt lat="44.599" lon="2.4209">
        <ele>454.2</ele>
        <time>2015-09-20T10:41:32Z</time>
      </trkpt>
      <trkpt lat="44.59897" lon="2.42075">
        <ele>453.6</ele>
        <time>2015-09-20T10:41:33Z</time>
      </trkpt>
      <trkpt lat="44.59892" lon="2.42057">
        <ele>452.9</ele>
        <time>2015-09-20T10:41:34Z</time>
      </trkpt>
      <trkpt lat="44.59888" lon="2.42041">
        <ele>452.3</ele>
        <time>2015-09-20T10:41:35Z</time>
      </trkpt>
      <trkpt lat="44.59884" lon="2.42028">
        <ele>451.8</ele>
        <time>2015-09-20T10:41:36Z</time>
      </trkpt>
      <trkpt lat="44.59876" lon="2.42015">
        <ele>451.2</ele>
        <time>2015-09-20T10:41:37Z</time>
      </trkpt>
      <trkpt lat="44.59869" lon="2.42006">
        <ele>450.5</ele>
        <time>2015-09-20T10:41:38Z</time>
      </trkpt>
      <trkpt lat="44.59861" lon="2.41996">
        <ele>449.8</ele>
        <time>2015-09-20T10:41:39Z</time>
      </trkpt>
      <trkpt lat="44.5985" lon="2.41985">
        <ele>449.1</ele>
        <time>2015-09-20T10:41:40Z</time>
      </trkpt>
      <trkpt lat="44.5984" lon="2.41973">
        <ele>448.5</ele>
        <time>2015-09-20T10:41:41Z</time>
      </trkpt>
      <trkpt lat="44.59832" lon="2.41965">
        <ele>447.9</ele>
        <time>2015-09-20T10:41:42Z</time>
      </trkpt>
      <trkpt lat="44.59823" lon="2.41958">
        <ele>447.3</ele>
        <time>2015-09-20T10:41:43Z</time>
      </trkpt>
      <trkpt lat="44.59812" lon="2.41947">
        <ele>446.6</ele>
        <time>2015-09-20T10:41:44Z</time>
      </trkpt>
      <trkpt lat="44.59802" lon="2.41937">
        <ele>446</ele>
        <time>2015-09-20T10:41:45Z</time>
      </trkpt>
      <trkpt lat="44.59793" lon="2.41928">
        <ele>445.4</ele>
        <time>2015-09-20T10:41:46Z</time>
      </trkpt>
      <trkpt lat="44.59784" lon="2.41914">
        <ele>444.8</ele>
        <time>2015-09-20T10:41:47Z</time>
      </trkpt>
      <trkpt lat="44.59776" lon="2.41902">
        <ele>444.1</ele>
        <time>2015-09-20T10:41:48Z</time>
      </trkpt>
      <trkpt lat="44.59768" lon="2.41892">
        <ele>443.5</ele>
        <time>2015-09-20T10:41:49Z</time>
      </trkpt>
      <trkpt lat="44.59756" lon="2.41882">
        <ele>442.9</ele>
        <time>2015-09-20T10:41:50Z</time>
      </trkpt>
      <trkpt lat="44.59745" lon="2.41878">
        <ele>442.3</ele>
        <time>2015-09-20T10:41:51Z</time>
      </trkpt>
      <trkpt lat="44.59734" lon="2.41875">
        <ele>441.6</ele>
        <time>2015-09-20T10:41:52Z</time>
      </trkpt>
      <trkpt lat="44.59724" lon="2.41876">
        <ele>441</ele>
        <time>2015-09-20T10:41:53Z</time>
      </trkpt>
      <trkpt lat="44.5971" lon="2.41865">
        <ele>439.7</ele>
        <time>2015-09-20T10:41:55Z</time>
      </trkpt>
      <trkpt lat="44.59706" lon="2.41841">
        <ele>438.5</ele>
        <time>2015-09-20T10:41:57Z</time>
      </trkpt>
      <trkpt lat="44.59708" lon="2.41828">
        <ele>437.9</ele>
        <time>2015-09-20T10:41:58Z</time>
      </trkpt>
      <trkpt lat="44.59711" lon="2.41815">
        <ele>437.3</ele>
        <time>2015-09-20T10:41:59Z</time>
      </trkpt>
      <trkpt lat="44.59714" lon="2.41803">
        <ele>436.7</ele>
        <time>2015-09-20T10:42:00Z</time>
      </trkpt>
      <trkpt lat="44.59718" lon="2.41791">
        <ele>436</ele>
        <time>2015-09-20T10:42:01Z</time>
      </trkpt>
      <trkpt lat="44.59722" lon="2.41779">
        <ele>435.4</ele>
        <time>2015-09-20T10:42:02Z</time>
      </trkpt>
      <trkpt lat="44.59727" lon="2.41767">
        <ele>434.8</ele>
        <time>2015-09-20T10:42:03Z</time>
      </trkpt>
      <trkpt lat="44.59732" lon="2.41756">
        <ele>434.2</ele>
        <time>2015-09-20T10:42:04Z</time>
      </trkpt>
      <trkpt lat="44.59737" lon="2.41743">
        <ele>433.6</ele>
        <time>2015-09-20T10:42:05Z</time>
      </trkpt>
      <trkpt lat="44.59742" lon="2.41732">
        <ele>432.9</ele>
        <time>2015-09-20T10:42:06Z</time>
      </trkpt>
      <trkpt lat="44.59748" lon="2.4172">
        <ele>432.3</ele>
        <time>2015-09-20T10:42:07Z</time>
      </trkpt>
      <trkpt lat="44.59753" lon="2.41706">
        <ele>431.7</ele>
        <time>2015-09-20T10:42:08Z</time>
      </trkpt>
      <trkpt lat="44.59756" lon="2.41691">
        <ele>431.1</ele>
        <time>2015-09-20T10:42:09Z</time>
      </trkpt>
      <trkpt lat="44.59761" lon="2.41677">
        <ele>430.5</ele>
        <time>2015-09-20T10:42:10Z</time>
      </trkpt>
      <trkpt lat="44.59766" lon="2.41664">
        <ele>429.8</ele>
        <time>2015-09-20T10:42:11Z</time>
      </trkpt>
      <trkpt lat="44.5977" lon="2.4165">
        <ele>429.2</ele>
        <time>2015-09-20T10:42:12Z</time>
      </trkpt>
      <trkpt lat="44.59773" lon="2.41635">
        <ele>428.6</ele>
        <time>2015-09-20T10:42:13Z</time>
      </trkpt>
      <trkpt lat="44.59776" lon="2.41621">
        <ele>428</ele>
        <time>2015-09-20T10:42:14Z</time>
      </trkpt>
      <trkpt lat="44.59777" lon="2.41606">
        <ele>427.3</ele>
        <time>2015-09-20T10:42:15Z</time>
      </trkpt>
      <trkpt lat="44.59778" lon="2.41591">
        <ele>426.7</ele>
        <time>2015-09-20T10:42:16Z</time>
      </trkpt>
      <trkpt lat="44.59778" lon="2.41576">
        <ele>426.1</ele>
        <time>2015-09-20T10:42:17Z</time>
      </trkpt>
      <trkpt lat="44.59778" lon="2.41562">
        <ele>425.4</ele>
        <time>2015-09-20T10:42:18Z</time>
      </trkpt>
      <trkpt lat="44.59776" lon="2.41548">
        <ele>424.8</ele>
        <time>2015-09-20T10:42:19Z</time>
      </trkpt>
      <trkpt lat="44.59775" lon="2.41534">
        <ele>424.2</ele>
        <time>2015-09-20T10:42:20Z</time>
      </trkpt>
      <trkpt lat="44.59772" lon="2.4152">
        <ele>423.5</ele>
        <time>2015-09-20T10:42:21Z</time>
      </trkpt>
      <trkpt lat="44.5977" lon="2.41506">
        <ele>422.9</ele>
        <time>2015-09-20T10:42:22Z</time>
      </trkpt>
      <trkpt lat="44.59768" lon="2.41491">
        <ele>422.3</ele>
        <time>2015-09-20T10:42:23Z</time>
      </trkpt>
      <trkpt lat="44.59767" lon="2.41477">
        <ele>421.7</ele>
        <time>2015-09-20T10:42:24Z</time>
      </trkpt>
      <trkpt lat="44.59767" lon="2.41464">
        <ele>421.1</ele>
        <time>2015-09-20T10:42:25Z</time>
      </trkpt>
      <trkpt lat="44.59777" lon="2.41445">
        <ele>419.9</ele>
        <time>2015-09-20T10:42:27Z</time>
      </trkpt>
      <trkpt lat="44.59793" lon="2.41436">
        <ele>418.6</ele>
        <time>2015-09-20T10:42:29Z</time>
      </trkpt>
      <trkpt lat="44.59802" lon="2.41432">
        <ele>418</ele>
        <time>2015-09-20T10:42:30Z</time>
      </trkpt>
      <trkpt lat="44.59811" lon="2.41429">
        <ele>417.4</ele>
        <time>2015-09-20T10:42:31Z</time>
      </trkpt>
      <trkpt lat="44.59821" lon="2.41427">
        <ele>416.8</ele>
        <time>2015-09-20T10:42:32Z</time>
      </trkpt>
      <trkpt lat="44.59831" lon="2.41423">
        <ele>416.2</ele>
        <time>2015-09-20T10:42:33Z</time>
      </trkpt>
      <trkpt lat="44.59841" lon="2.41419">
        <ele>415.6</ele>
        <time>2015-09-20T10:42:34Z</time>
      </trkpt>
      <trkpt lat="44.59849" lon="2.41413">
        <ele>414.9</ele>
        <time>2015-09-20T10:42:35Z</time>
      </trkpt>
      <trkpt lat="44.59864" lon="2.41401">
        <ele>413.8</ele>
        <time>2015-09-20T10:42:37Z</time>
      </trkpt>
      <trkpt lat="44.59872" lon="2.41393">
        <ele>413.2</ele>
        <time>2015-09-20T10:42:38Z</time>
      </trkpt>
      <trkpt lat="44.59881" lon="2.4139">
        <ele>412.5</ele>
        <time>2015-09-20T10:42:39Z</time>
      </trkpt>
      <trkpt lat="44.59891" lon="2.41389">
        <ele>412</ele>
        <time>2015-09-20T10:42:40Z</time>
      </trkpt>
      <trkpt lat="44.59901" lon="2.41387">
        <ele>411.4</ele>
        <time>2015-09-20T10:42:41Z</time>
      </trkpt>
      <trkpt lat="44.5991" lon="2.41384">
        <ele>410.8</ele>
        <time>2015-09-20T10:42:42Z</time>
      </trkpt>
      <trkpt lat="44.59921" lon="2.41382">
        <ele>410.2</ele>
        <time>2015-09-20T10:42:43Z</time>
      </trkpt>
      <trkpt lat="44.59931" lon="2.41382">
        <ele>409.6</ele>
        <time>2015-09-20T10:42:44Z</time>
      </trkpt>
      <trkpt lat="44.59941" lon="2.41386">
        <ele>409</ele>
        <time>2015-09-20T10:42:45Z</time>
      </trkpt>
      <trkpt lat="44.5995" lon="2.41392">
        <ele>408.5</ele>
        <time>2015-09-20T10:42:46Z</time>
      </trkpt>
      <trkpt lat="44.59959" lon="2.41399">
        <ele>408</ele>
        <time>2015-09-20T10:42:47Z</time>
      </trkpt>
      <trkpt lat="44.5997" lon="2.41404">
        <ele>407.4</ele>
        <time>2015-09-20T10:42:48Z</time>
      </trkpt>
      <trkpt lat="44.59978" lon="2.41408">
        <ele>406.8</ele>
        <time>2015-09-20T10:42:49Z</time>
      </trkpt>
      <trkpt lat="44.59995" lon="2.41411">
        <ele>405.7</ele>
        <time>2015-09-20T10:42:51Z</time>
      </trkpt>
      <trkpt lat="44.60006" lon="2.41409">
        <ele>405.1</ele>
        <time>2015-09-20T10:42:52Z</time>
      </trkpt>
      <trkpt lat="44.60017" lon="2.41411">
        <ele>404.6</ele>
        <time>2015-09-20T10:42:53Z</time>
      </trkpt>
      <trkpt lat="44.60026" lon="2.41415">
        <ele>404</ele>
        <time>2015-09-20T10:42:54Z</time>
      </trkpt>
      <trkpt lat="44.60033" lon="2.41424">
        <ele>403.5</ele>
        <time>2015-09-20T10:42:55Z</time>
      </trkpt>
      <trkpt lat="44.60037" lon="2.41435">
        <ele>403</ele>
        <time>2015-09-20T10:42:56Z</time>
      </trkpt>
      <trkpt lat="44.60043" lon="2.41457">
        <ele>401.9</ele>
        <time>2015-09-20T10:42:58Z</time>
      </trkpt>
      <trkpt lat="44.60054" lon="2.41467">
        <ele>400.9</ele>
        <time>2015-09-20T10:43:00Z</time>
      </trkpt>
      <trkpt lat="44.60065" lon="2.41453">
        <ele>399.9</ele>
        <time>2015-09-20T10:43:02Z</time>
      </trkpt>
      <trkpt lat="44.60069" lon="2.41433">
        <ele>398.9</ele>
        <time>2015-09-20T10:43:04Z</time>
      </trkpt>
      <trkpt lat="44.60074" lon="2.4141">
        <ele>397.9</ele>
        <time>2015-09-20T10:43:06Z</time>
      </trkpt>
      <trkpt lat="44.60076" lon="2.41397">
        <ele>397.5</ele>
        <time>2015-09-20T10:43:07Z</time>
      </trkpt>
      <trkpt lat="44.60077" lon="2.41385">
        <ele>397</ele>
        <time>2015-09-20T10:43:08Z</time>
      </trkpt>
      <trkpt lat="44.60079" lon="2.41372">
        <ele>396.5</ele>
        <time>2015-09-20T10:43:09Z</time>
      </trkpt>
      <trkpt lat="44.60078" lon="2.41348">
        <ele>395.6</ele>
        <time>2015-09-20T10:43:11Z</time>
      </trkpt>
      <trkpt lat="44.60072" lon="2.41339">
        <ele>395.1</ele>
        <time>2015-09-20T10:43:12Z</time>
      </trkpt>
      <trkpt lat="44.60064" lon="2.41333">
        <ele>394.7</ele>
        <time>2015-09-20T10:43:13Z</time>
      </trkpt>
      <trkpt lat="44.60054" lon="2.41331">
        <ele>394.2</ele>
        <time>2015-09-20T10:43:14Z</time>
      </trkpt>
      <trkpt lat="44.60044" lon="2.41332">
        <ele>393.8</ele>
        <time>2015-09-20T10:43:15Z</time>
      </trkpt>
      <trkpt lat="44.60033" lon="2.41332">
        <ele>393.3</ele>
        <time>2015-09-20T10:43:16Z</time>
      </trkpt>
      <trkpt lat="44.60024" lon="2.41332">
        <ele>392.8</ele>
        <time>2015-09-20T10:43:17Z</time>
      </trkpt>
      <trkpt lat="44.60015" lon="2.41327">
        <ele>392.3</ele>
        <time>2015-09-20T10:43:18Z</time>
      </trkpt>
      <trkpt lat="44.60008" lon="2.41319">
        <ele>391.9</ele>
        <time>2015-09-20T10:43:19Z</time>
      </trkpt>
      <trkpt lat="44.60004" lon="2.41307">
        <ele>391.4</ele>
        <time>2015-09-20T10:43:20Z</time>
      </trkpt>
      <trkpt lat="44.6" lon="2.41295">
        <ele>390.9</ele>
        <time>2015-09-20T10:43:21Z</time>
      </trkpt>
      <trkpt lat="44.59992" lon="2.41274">
        <ele>390</ele>
        <time>2015-09-20T10:43:23Z</time>
      </trkpt>
      <trkpt lat="44.59984" lon="2.41254">
        <ele>389.1</ele>
        <time>2015-09-20T10:43:25Z</time>
      </trkpt>
      <trkpt lat="44.59973" lon="2.41234">
        <ele>388.1</ele>
        <time>2015-09-20T10:43:27Z</time>
      </trkpt>
      <trkpt lat="44.59958" lon="2.41218">
        <ele>387.2</ele>
        <time>2015-09-20T10:43:29Z</time>
      </trkpt>
      <trkpt lat="44.59951" lon="2.41209">
        <ele>386.7</ele>
        <time>2015-09-20T10:43:30Z</time>
      </trkpt>
      <trkpt lat="44.59944" lon="2.41196">
        <ele>386.2</ele>
        <time>2015-09-20T10:43:31Z</time>
      </trkpt>
      <trkpt lat="44.59937" lon="2.41184">
        <ele>385.8</ele>
        <time>2015-09-20T10:43:32Z</time>
      </trkpt>
      <trkpt lat="44.5993" lon="2.41172">
        <ele>385.4</ele>
        <time>2015-09-20T10:43:33Z</time>
      </trkpt>
      <trkpt lat="44.59924" lon="2.41161">
        <ele>384.9</ele>
        <time>2015-09-20T10:43:34Z</time>
      </trkpt>
      <trkpt lat="44.59918" lon="2.41149">
        <ele>384.4</ele>
        <time>2015-09-20T10:43:35Z</time>
      </trkpt>
      <trkpt lat="44.59913" lon="2.41138">
        <ele>383.9</ele>
        <time>2015-09-20T10:43:36Z</time>
      </trkpt>
      <trkpt lat="44.59908" lon="2.41126">
        <ele>383.4</ele>
        <time>2015-09-20T10:43:37Z</time>
      </trkpt>
      <trkpt lat="44.59902" lon="2.41115">
        <ele>382.9</ele>
        <time>2015-09-20T10:43:38Z</time>
      </trkpt>
      <trkpt lat="44.59896" lon="2.41104">
        <ele>382.4</ele>
        <time>2015-09-20T10:43:39Z</time>
      </trkpt>
      <trkpt lat="44.5989" lon="2.41093">
        <ele>381.8</ele>
        <time>2015-09-20T10:43:40Z</time>
      </trkpt>
      <trkpt lat="44.59885" lon="2.41082">
        <ele>381.3</ele>
        <time>2015-09-20T10:43:41Z</time>
      </trkpt>
      <trkpt lat="44.5988" lon="2.41062">
        <ele>380.3</ele>
        <time>2015-09-20T10:43:43Z</time>
      </trkpt>
      <trkpt lat="44.59883" lon="2.4104">
        <ele>379.3</ele>
        <time>2015-09-20T10:43:45Z</time>
      </trkpt>
      <trkpt lat="44.59891" lon="2.41019">
        <ele>378.2</ele>
        <time>2015-09-20T10:43:47Z</time>
      </trkpt>
      <trkpt lat="44.59897" lon="2.41008">
        <ele>377.6</ele>
        <time>2015-09-20T10:43:48Z</time>
      </trkpt>
      <trkpt lat="44.59902" lon="2.40998">
        <ele>377</ele>
        <time>2015-09-20T10:43:49Z</time>
      </trkpt>
      <trkpt lat="44.59908" lon="2.40987">
        <ele>376.4</ele>
        <time>2015-09-20T10:43:50Z</time>
      </trkpt>
      <trkpt lat="44.59914" lon="2.40975">
        <ele>375.8</ele>
        <time>2015-09-20T10:43:51Z</time>
      </trkpt>
      <trkpt lat="44.59918" lon="2.40963">
        <ele>375.2</ele>
        <time>2015-09-20T10:43:52Z</time>
      </trkpt>
      <trkpt lat="44.59921" lon="2.40949">
        <ele>374.5</ele>
        <time>2015-09-20T10:43:53Z</time>
      </trkpt>
      <trkpt lat="44.59922" lon="2.40934">
        <ele>373.9</ele>
        <time>2015-09-20T10:43:54Z</time>
      </trkpt>
      <trkpt lat="44.59923" lon="2.40919">
        <ele>373.2</ele>
        <time>2015-09-20T10:43:55Z</time>
      </trkpt>
      <trkpt lat="44.59924" lon="2.40904">
        <ele>372.6</ele>
        <time>2015-09-20T10:43:56Z</time>
      </trkpt>
      <trkpt lat="44.59925" lon="2.40888">
        <ele>371.9</ele>
        <time>2015-09-20T10:43:57Z</time>
      </trkpt>
      <trkpt lat="44.59926" lon="2.40873">
        <ele>371.2</ele>
        <time>2015-09-20T10:43:58Z</time>
      </trkpt>
      <trkpt lat="44.59927" lon="2.40856">
        <ele>370.5</ele>
        <time>2015-09-20T10:43:59Z</time>
      </trkpt>
      <trkpt lat="44.59931" lon="2.40841">
        <ele>369.8</ele>
        <time>2015-09-20T10:44:00Z</time>
      </trkpt>
      <trkpt lat="44.59936" lon="2.40827">
        <ele>369.1</ele>
        <time>2015-09-20T10:44:01Z</time>
      </trkpt>
      <trkpt lat="44.5994" lon="2.40812">
        <ele>368.5</ele>
        <time>2015-09-20T10:44:02Z</time>
      </trkpt>
      <trkpt lat="44.59941" lon="2.40796">
        <ele>367.7</ele>
        <time>2015-09-20T10:44:03Z</time>
      </trkpt>
      <trkpt lat="44.59939" lon="2.40782">
        <ele>367.1</ele>
        <time>2015-09-20T10:44:04Z</time>
      </trkpt>
      <trkpt lat="44.59932" lon="2.4077">
        <ele>366.3</ele>
        <time>2015-09-20T10:44:05Z</time>
      </trkpt>
      <trkpt lat="44.59924" lon="2.40762">
        <ele>365.6</ele>
        <time>2015-09-20T10:44:06Z</time>
      </trkpt>
      <trkpt lat="44.59914" lon="2.40754">
        <ele>364.9</ele>
        <time>2015-09-20T10:44:07Z</time>
      </trkpt>
      <trkpt lat="44.59905" lon="2.40745">
        <ele>364.2</ele>
        <time>2015-09-20T10:44:08Z</time>
      </trkpt>
      <trkpt lat="44.59897" lon="2.40734">
        <ele>363.5</ele>
        <time>2015-09-20T10:44:09Z</time>
      </trkpt>
      <trkpt lat="44.5989" lon="2.40722">
        <ele>362.8</ele>
        <time>2015-09-20T10:44:10Z</time>
      </trkpt>
      <trkpt lat="44.59884" lon="2.40708">
        <ele>362.1</ele>
        <time>2015-09-20T10:44:11Z</time>
      </trkpt>
      <trkpt lat="44.59882" lon="2.40693">
        <ele>361.4</ele>
        <time>2015-09-20T10:44:12Z</time>
      </trkpt>
      <trkpt lat="44.59883" lon="2.40678">
        <ele>360.6</ele>
        <time>2015-09-20T10:44:13Z</time>
      </trkpt>
      <trkpt lat="44.59886" lon="2.40663">
        <ele>359.9</ele>
        <time>2015-09-20T10:44:14Z</time>
      </trkpt>
      <trkpt lat="44.5989" lon="2.40649">
        <ele>359.2</ele>
        <time>2015-09-20T10:44:15Z</time>
      </trkpt>
      <trkpt lat="44.59895" lon="2.40636">
        <ele>358.5</ele>
        <time>2015-09-20T10:44:16Z</time>
      </trkpt>
      <trkpt lat="44.599" lon="2.40622">
        <ele>357.7</ele>
        <time>2015-09-20T10:44:17Z</time>
      </trkpt>
      <trkpt lat="44.59906" lon="2.40608">
        <ele>357</ele>
        <time>2015-09-20T10:44:18Z</time>
      </trkpt>
      <trkpt lat="44.59911" lon="2.40595">
        <ele>356.3</ele>
        <time>2015-09-20T10:44:19Z</time>
      </trkpt>
      <trkpt lat="44.59917" lon="2.40582">
        <ele>355.6</ele>
        <time>2015-09-20T10:44:20Z</time>
      </trkpt>
      <trkpt lat="44.59924" lon="2.4057">
        <ele>354.8</ele>
        <time>2015-09-20T10:44:21Z</time>
      </trkpt>
      <trkpt lat="44.59931" lon="2.4056">
        <ele>354.1</ele>
        <time>2015-09-20T10:44:22Z</time>
      </trkpt>
      <trkpt lat="44.59939" lon="2.4055">
        <ele>353.3</ele>
        <time>2015-09-20T10:44:23Z</time>
      </trkpt>
      <trkpt lat="44.59945" lon="2.40539">
        <ele>352.6</ele>
        <time>2015-09-20T10:44:24Z</time>
      </trkpt>
      <trkpt lat="44.5995" lon="2.40515">
        <ele>351.2</ele>
        <time>2015-09-20T10:44:26Z</time>
      </trkpt>
      <trkpt lat="44.59957" lon="2.40496">
        <ele>349.7</ele>
        <time>2015-09-20T10:44:28Z</time>
      </trkpt>
      <trkpt lat="44.59949" lon="2.40473">
        <ele>348.3</ele>
        <time>2015-09-20T10:44:30Z</time>
      </trkpt>
      <trkpt lat="44.59939" lon="2.4046">
        <ele>347.5</ele>
        <time>2015-09-20T10:44:31Z</time>
      </trkpt>
      <trkpt lat="44.59929" lon="2.40452">
        <ele>346.8</ele>
        <time>2015-09-20T10:44:32Z</time>
      </trkpt>
      <trkpt lat="44.59921" lon="2.40445">
        <ele>346.1</ele>
        <time>2015-09-20T10:44:33Z</time>
      </trkpt>
      <trkpt lat="44.59906" lon="2.40428">
        <ele>344.8</ele>
        <time>2015-09-20T10:44:35Z</time>
      </trkpt>
      <trkpt lat="44.59893" lon="2.4041">
        <ele>343.5</ele>
        <time>2015-09-20T10:44:37Z</time>
      </trkpt>
      <trkpt lat="44.5989" lon="2.40398">
        <ele>342.8</ele>
        <time>2015-09-20T10:44:38Z</time>
      </trkpt>
      <trkpt lat="44.59889" lon="2.40384">
        <ele>342.1</ele>
        <time>2015-09-20T10:44:39Z</time>
      </trkpt>
      <trkpt lat="44.5989" lon="2.4037">
        <ele>341.4</ele>
        <time>2015-09-20T10:44:40Z</time>
      </trkpt>
      <trkpt lat="44.59894" lon="2.40358">
        <ele>340.7</ele>
        <time>2015-09-20T10:44:41Z</time>
      </trkpt>
      <trkpt lat="44.59901" lon="2.40348">
        <ele>340</ele>
        <time>2015-09-20T10:44:42Z</time>
      </trkpt>
      <trkpt lat="44.59908" lon="2.40338">
        <ele>339.2</ele>
        <time>2015-09-20T10:44:43Z</time>
      </trkpt>
      <trkpt lat="44.59914" lon="2.40327">
        <ele>338.5</ele>
        <time>2015-09-20T10:44:44Z</time>
      </trkpt>
      <trkpt lat="44.5992" lon="2.40315">
        <ele>337.8</ele>
        <time>2015-09-20T10:44:45Z</time>
      </trkpt>
      <trkpt lat="44.59925" lon="2.40304">
        <ele>337.1</ele>
        <time>2015-09-20T10:44:46Z</time>
      </trkpt>
      <trkpt lat="44.59928" lon="2.4029">
        <ele>336.3</ele>
        <time>2015-09-20T10:44:47Z</time>
      </trkpt>
      <trkpt lat="44.59929" lon="2.40274">
        <ele>335.6</ele>
        <time>2015-09-20T10:44:48Z</time>
      </trkpt>
      <trkpt lat="44.59929" lon="2.40259">
        <ele>334.9</ele>
        <time>2015-09-20T10:44:49Z</time>
      </trkpt>
      <trkpt lat="44.5993" lon="2.40245">
        <ele>334.2</ele>
        <time>2015-09-20T10:44:50Z</time>
      </trkpt>
      <trkpt lat="44.59931" lon="2.40231">
        <ele>333.5</ele>
        <time>2015-09-20T10:44:51Z</time>
      </trkpt>
      <trkpt lat="44.59931" lon="2.40218">
        <ele>332.9</ele>
        <time>2015-09-20T10:44:52Z</time>
      </trkpt>
      <trkpt lat="44.5993" lon="2.402">
        <ele>331.6</ele>
        <time>2015-09-20T10:44:54Z</time>
      </trkpt>
      <trkpt lat="44.59927" lon="2.40188">
        <ele>329.9</ele>
        <time>2015-09-20T10:44:57Z</time>
      </trkpt>
      <trkpt lat="44.59918" lon="2.40179">
        <ele>327.6</ele>
        <time>2015-09-20T10:45:02Z</time>
      </trkpt>
      <trkpt lat="44.59911" lon="2.40187">
        <ele>320.7</ele>
        <time>2015-09-20T10:46:28Z</time>
      </trkpt>
      <trkpt lat="44.59918" lon="2.40179">
        <ele>320.5</ele>
        <time>2015-09-20T10:48:59Z</time>
      </trkpt>
      <trkpt lat="44.59927" lon="2.40173">
        <ele>320.5</ele>
        <time>2015-09-20T10:49:09Z</time>
      </trkpt>
      <trkpt lat="44.59929" lon="2.40187">
        <ele>320.5</ele>
        <time>2015-09-20T10:49:22Z</time>
      </trkpt>
      <trkpt lat="44.59931" lon="2.40201">
        <ele>320.5</ele>
        <time>2015-09-20T10:49:28Z</time>
      </trkpt>
      <trkpt lat="44.59931" lon="2.40215">
        <ele>320.5</ele>
        <time>2015-09-20T10:49:35Z</time>
      </trkpt>
      <trkpt lat="44.5993" lon="2.4023">
        <ele>320.9</ele>
        <time>2015-09-20T10:49:42Z</time>
      </trkpt>
      <trkpt lat="44.5993" lon="2.40243">
        <ele>321.1</ele>
        <time>2015-09-20T10:49:48Z</time>
      </trkpt>
      <trkpt lat="44.59929" lon="2.40256">
        <ele>321.4</ele>
        <time>2015-09-20T10:49:54Z</time>
      </trkpt>
      <trkpt lat="44.59929" lon="2.40269">
        <ele>321.7</ele>
        <time>2015-09-20T10:50:00Z</time>
      </trkpt>
      <trkpt lat="44.59929" lon="2.40282">
        <ele>322.2</ele>
        <time>2015-09-20T10:50:07Z</time>
      </trkpt>
      <trkpt lat="44.59926" lon="2.40295">
        <ele>322.5</ele>
        <time>2015-09-20T10:50:13Z</time>
      </trkpt>
      <trkpt lat="44.59922" lon="2.40309">
        <ele>323.1</ele>
        <time>2015-09-20T10:50:20Z</time>
      </trkpt>
      <trkpt lat="44.59916" lon="2.40318">
        <ele>323.7</ele>
        <time>2015-09-20T10:50:27Z</time>
      </trkpt>
      <trkpt lat="44.59908" lon="2.40328">
        <ele>324.2</ele>
        <time>2015-09-20T10:50:34Z</time>
      </trkpt>
      <trkpt lat="44.599" lon="2.40336">
        <ele>324.9</ele>
        <time>2015-09-20T10:50:41Z</time>
      </trkpt>
      <trkpt lat="44.59892" lon="2.40346">
        <ele>325.6</ele>
        <time>2015-09-20T10:50:47Z</time>
      </trkpt>
      <trkpt lat="44.59885" lon="2.40356">
        <ele>326.5</ele>
        <time>2015-09-20T10:50:54Z</time>
      </trkpt>
      <trkpt lat="44.59883" lon="2.4037">
        <ele>327.3</ele>
        <time>2015-09-20T10:51:00Z</time>
      </trkpt>
      <trkpt lat="44.59882" lon="2.40384">
        <ele>328.1</ele>
        <time>2015-09-20T10:51:07Z</time>
      </trkpt>
      <trkpt lat="44.59884" lon="2.40398">
        <ele>328.8</ele>
        <time>2015-09-20T10:51:14Z</time>
      </trkpt>
      <trkpt lat="44.5989" lon="2.40409">
        <ele>329.6</ele>
        <time>2015-09-20T10:51:21Z</time>
      </trkpt>
      <trkpt lat="44.599" lon="2.4041">
        <ele>330.3</ele>
        <time>2015-09-20T10:51:28Z</time>
      </trkpt>
      <trkpt lat="44.59907" lon="2.40401">
        <ele>331.1</ele>
        <time>2015-09-20T10:51:36Z</time>
      </trkpt>
      <trkpt lat="44.59909" lon="2.40388">
        <ele>331.9</ele>
        <time>2015-09-20T10:51:43Z</time>
      </trkpt>
      <trkpt lat="44.59911" lon="2.40375">
        <ele>332.6</ele>
        <time>2015-09-20T10:51:50Z</time>
      </trkpt>
      <trkpt lat="44.59915" lon="2.40363">
        <ele>333.3</ele>
        <time>2015-09-20T10:51:57Z</time>
      </trkpt>
      <trkpt lat="44.59921" lon="2.40353">
        <ele>334.2</ele>
        <time>2015-09-20T10:52:04Z</time>
      </trkpt>
      <trkpt lat="44.59929" lon="2.40346">
        <ele>335.1</ele>
        <time>2015-09-20T10:52:11Z</time>
      </trkpt>
      <trkpt lat="44.59937" lon="2.40339">
        <ele>336</ele>
        <time>2015-09-20T10:52:18Z</time>
      </trkpt>
      <trkpt lat="44.59945" lon="2.40332">
        <ele>336.9</ele>
        <time>2015-09-20T10:52:25Z</time>
      </trkpt>
      <trkpt lat="44.59952" lon="2.40322">
        <ele>337.9</ele>
        <time>2015-09-20T10:52:32Z</time>
      </trkpt>
      <trkpt lat="44.59956" lon="2.40309">
        <ele>338.8</ele>
        <time>2015-09-20T10:52:39Z</time>
      </trkpt>
      <trkpt lat="44.59961" lon="2.40297">
        <ele>339.8</ele>
        <time>2015-09-20T10:52:47Z</time>
      </trkpt>
      <trkpt lat="44.59964" lon="2.40285">
        <ele>341</ele>
        <time>2015-09-20T10:52:58Z</time>
      </trkpt>
      <trkpt lat="44.5997" lon="2.40275">
        <ele>342.7</ele>
        <time>2015-09-20T10:53:33Z</time>
      </trkpt>
      <trkpt lat="44.59972" lon="2.40261">
        <ele>343.3</ele>
        <time>2015-09-20T10:53:41Z</time>
      </trkpt>
      <trkpt lat="44.59975" lon="2.40249">
        <ele>343.9</ele>
        <time>2015-09-20T10:53:50Z</time>
      </trkpt>
      <trkpt lat="44.59977" lon="2.40236">
        <ele>344.5</ele>
        <time>2015-09-20T10:53:58Z</time>
      </trkpt>
      <trkpt lat="44.59981" lon="2.40224">
        <ele>345.5</ele>
        <time>2015-09-20T10:54:06Z</time>
      </trkpt>
      <trkpt lat="44.59984" lon="2.40212">
        <ele>346.1</ele>
        <time>2015-09-20T10:54:13Z</time>
      </trkpt>
      <trkpt lat="44.59987" lon="2.40199">
        <ele>346.8</ele>
        <time>2015-09-20T10:54:20Z</time>
      </trkpt>
      <trkpt lat="44.59989" lon="2.40187">
        <ele>347.6</ele>
        <time>2015-09-20T10:54:26Z</time>
      </trkpt>
      <trkpt lat="44.59992" lon="2.40173">
        <ele>348.3</ele>
        <time>2015-09-20T10:54:33Z</time>
      </trkpt>
      <trkpt lat="44.59996" lon="2.40161">
        <ele>349.2</ele>
        <time>2015-09-20T10:54:40Z</time>
      </trkpt>
      <trkpt lat="44.59998" lon="2.40147">
        <ele>350</ele>
        <time>2015-09-20T10:54:47Z</time>
      </trkpt>
      <trkpt lat="44.6" lon="2.40134">
        <ele>350.6</ele>
        <time>2015-09-20T10:54:53Z</time>
      </trkpt>
      <trkpt lat="44.60002" lon="2.4012">
        <ele>351.3</ele>
        <time>2015-09-20T10:55:00Z</time>
      </trkpt>
      <trkpt lat="44.60005" lon="2.40108">
        <ele>352.1</ele>
        <time>2015-09-20T10:55:07Z</time>
      </trkpt>
      <trkpt lat="44.60005" lon="2.40093">
        <ele>353</ele>
        <time>2015-09-20T10:55:14Z</time>
      </trkpt>
      <trkpt lat="44.60007" lon="2.40081">
        <ele>354</ele>
        <time>2015-09-20T10:55:21Z</time>
      </trkpt>
      <trkpt lat="44.60008" lon="2.40068">
        <ele>355</ele>
        <time>2015-09-20T10:55:28Z</time>
      </trkpt>
      <trkpt lat="44.6001" lon="2.40055">
        <ele>356.1</ele>
        <time>2015-09-20T10:55:35Z</time>
      </trkpt>
      <trkpt lat="44.6001" lon="2.40041">
        <ele>357.1</ele>
        <time>2015-09-20T10:55:42Z</time>
      </trkpt>
      <trkpt lat="44.60007" lon="2.40025">
        <ele>357.9</ele>
        <time>2015-09-20T10:55:48Z</time>
      </trkpt>
      <trkpt lat="44.60009" lon="2.40012">
        <ele>358.9</ele>
        <time>2015-09-20T10:55:55Z</time>
      </trkpt>
      <trkpt lat="44.60011" lon="2.39999">
        <ele>359.8</ele>
        <time>2015-09-20T10:56:02Z</time>
      </trkpt>
      <trkpt lat="44.60015" lon="2.39987">
        <ele>360.6</ele>
        <time>2015-09-20T10:56:10Z</time>
      </trkpt>
      <trkpt lat="44.60019" lon="2.39974">
        <ele>361.3</ele>
        <time>2015-09-20T10:56:17Z</time>
      </trkpt>
      <trkpt lat="44.6002" lon="2.39961">
        <ele>361.8</ele>
        <time>2015-09-20T10:56:24Z</time>
      </trkpt>
      <trkpt lat="44.60022" lon="2.39949">
        <ele>362.3</ele>
        <time>2015-09-20T10:56:32Z</time>
      </trkpt>
      <trkpt lat="44.60024" lon="2.39934">
        <ele>362.3</ele>
        <time>2015-09-20T10:56:41Z</time>
      </trkpt>
      <trkpt lat="44.60032" lon="2.39917">
        <ele>362</ele>
        <time>2015-09-20T10:56:44Z</time>
      </trkpt>
      <trkpt lat="44.60042" lon="2.39904">
        <ele>361.5</ele>
        <time>2015-09-20T10:56:46Z</time>
      </trkpt>
      <trkpt lat="44.60052" lon="2.39884">
        <ele>360.8</ele>
        <time>2015-09-20T10:56:48Z</time>
      </trkpt>
      <trkpt lat="44.60061" lon="2.39869">
        <ele>359.9</ele>
        <time>2015-09-20T10:56:50Z</time>
      </trkpt>
      <trkpt lat="44.60065" lon="2.39856">
        <ele>359.1</ele>
        <time>2015-09-20T10:56:52Z</time>
      </trkpt>
      <trkpt lat="44.60061" lon="2.39843">
        <ele>358.2</ele>
        <time>2015-09-20T10:56:54Z</time>
      </trkpt>
      <trkpt lat="44.60054" lon="2.39829">
        <ele>356.6</ele>
        <time>2015-09-20T10:56:57Z</time>
      </trkpt>
      <trkpt lat="44.60049" lon="2.39814">
        <ele>355</ele>
        <time>2015-09-20T10:57:00Z</time>
      </trkpt>
      <trkpt lat="44.60045" lon="2.39801">
        <ele>353.9</ele>
        <time>2015-09-20T10:57:02Z</time>
      </trkpt>
      <trkpt lat="44.6004" lon="2.3979">
        <ele>352.7</ele>
        <time>2015-09-20T10:57:04Z</time>
      </trkpt>
      <trkpt lat="44.60032" lon="2.39782">
        <ele>350.4</ele>
        <time>2015-09-20T10:57:08Z</time>
      </trkpt>
      <trkpt lat="44.60031" lon="2.39767">
        <ele>347.3</ele>
        <time>2015-09-20T10:57:15Z</time>
      </trkpt>
      <trkpt lat="44.60034" lon="2.39753">
        <ele>346.4</ele>
        <time>2015-09-20T10:57:18Z</time>
      </trkpt>
      <trkpt lat="44.60037" lon="2.39737">
        <ele>345.5</ele>
        <time>2015-09-20T10:57:21Z</time>
      </trkpt>
      <trkpt lat="44.60038" lon="2.39722">
        <ele>344.9</ele>
        <time>2015-09-20T10:57:23Z</time>
      </trkpt>
      <trkpt lat="44.60034" lon="2.39702">
        <ele>344.1</ele>
        <time>2015-09-20T10:57:25Z</time>
      </trkpt>
      <trkpt lat="44.60029" lon="2.3969">
        <ele>343.6</ele>
        <time>2015-09-20T10:57:26Z</time>
      </trkpt>
      <trkpt lat="44.60017" lon="2.39668">
        <ele>342.3</ele>
        <time>2015-09-20T10:57:28Z</time>
      </trkpt>
      <trkpt lat="44.60011" lon="2.39658">
        <ele>341.6</ele>
        <time>2015-09-20T10:57:29Z</time>
      </trkpt>
      <trkpt lat="44.60004" lon="2.39649">
        <ele>340.8</ele>
        <time>2015-09-20T10:57:30Z</time>
      </trkpt>
      <trkpt lat="44.59994" lon="2.39636">
        <ele>339.1</ele>
        <time>2015-09-20T10:57:32Z</time>
      </trkpt>
      <trkpt lat="44.59985" lon="2.39623">
        <ele>337.4</ele>
        <time>2015-09-20T10:57:34Z</time>
      </trkpt>
      <trkpt lat="44.59976" lon="2.39618">
        <ele>334.9</ele>
        <time>2015-09-20T10:57:37Z</time>
      </trkpt>
      <trkpt lat="44.59973" lon="2.39632">
        <ele>331.3</ele>
        <time>2015-09-20T10:57:42Z</time>
      </trkpt>
      <trkpt lat="44.59978" lon="2.39645">
        <ele>328.4</ele>
        <time>2015-09-20T10:57:46Z</time>
      </trkpt>
      <trkpt lat="44.59978" lon="2.3966">
        <ele>326</ele>
        <time>2015-09-20T10:57:49Z</time>
      </trkpt>
      <trkpt lat="44.59974" lon="2.39672">
        <ele>323</ele>
        <time>2015-09-20T10:57:53Z</time>
      </trkpt>
      <trkpt lat="44.59963" lon="2.39676">
        <ele>321</ele>
        <time>2015-09-20T10:57:57Z</time>
      </trkpt>
      <trkpt lat="44.59956" lon="2.39689">
        <ele>319.1</ele>
        <time>2015-09-20T10:58:01Z</time>
      </trkpt>
      <trkpt lat="44.59953" lon="2.39701">
        <ele>317.3</ele>
        <time>2015-09-20T10:58:04Z</time>
      </trkpt>
      <trkpt lat="44.59953" lon="2.39715">
        <ele>314.6</ele>
        <time>2015-09-20T10:58:09Z</time>
      </trkpt>
      <trkpt lat="44.59948" lon="2.39728">
        <ele>311</ele>
        <time>2015-09-20T10:58:15Z</time>
      </trkpt>
      <trkpt lat="44.59947" lon="2.39746">
        <ele>309.4</ele>
        <time>2015-09-20T10:58:19Z</time>
      </trkpt>
      <trkpt lat="44.59948" lon="2.39767">
        <ele>306.9</ele>
        <time>2015-09-20T10:58:24Z</time>
      </trkpt>
      <trkpt lat="44.59948" lon="2.39783">
        <ele>304.8</ele>
        <time>2015-09-20T10:58:31Z</time>
      </trkpt>
      <trkpt lat="44.59951" lon="2.39796">
        <ele>304.1</ele>
        <time>2015-09-20T10:58:37Z</time>
      </trkpt>
      <trkpt lat="44.59951" lon="2.3981">
        <ele>303.9</ele>
        <time>2015-09-20T10:58:43Z</time>
      </trkpt>
      <trkpt lat="44.5995" lon="2.39824">
        <ele>304.2</ele>
        <time>2015-09-20T10:58:51Z</time>
      </trkpt>
      <trkpt lat="44.59951" lon="2.39837">
        <ele>304.8</ele>
        <time>2015-09-20T10:58:59Z</time>
      </trkpt>
      <trkpt lat="44.59948" lon="2.3985">
        <ele>306</ele>
        <time>2015-09-20T10:59:08Z</time>
      </trkpt>
      <trkpt lat="44.59956" lon="2.39855">
        <ele>309.6</ele>
        <time>2015-09-20T11:00:15Z</time>
      </trkpt>
      <trkpt lat="44.59947" lon="2.39862">
        <ele>309.8</ele>
        <time>2015-09-20T11:02:42Z</time>
      </trkpt>
      <trkpt lat="44.59947" lon="2.39846">
        <ele>309.8</ele>
        <time>2015-09-20T11:02:47Z</time>
      </trkpt>
      <trkpt lat="44.59951" lon="2.39832">
        <ele>309.8</ele>
        <time>2015-09-20T11:02:49Z</time>
      </trkpt>
      <trkpt lat="44.59952" lon="2.39814">
        <ele>309.5</ele>
        <time>2015-09-20T11:02:51Z</time>
      </trkpt>
      <trkpt lat="44.59951" lon="2.39796">
        <ele>309</ele>
        <time>2015-09-20T11:02:53Z</time>
      </trkpt>
      <trkpt lat="44.59949" lon="2.3978">
        <ele>308.4</ele>
        <time>2015-09-20T11:02:55Z</time>
      </trkpt>
      <trkpt lat="44.59943" lon="2.39763">
        <ele>307.8</ele>
        <time>2015-09-20T11:02:57Z</time>
      </trkpt>
      <trkpt lat="44.59945" lon="2.39751">
        <ele>307.1</ele>
        <time>2015-09-20T11:02:59Z</time>
      </trkpt>
      <trkpt lat="44.59937" lon="2.39742">
        <ele>305.9</ele>
        <time>2015-09-20T11:03:02Z</time>
      </trkpt>
      <trkpt lat="44.59929" lon="2.39733">
        <ele>304</ele>
        <time>2015-09-20T11:03:08Z</time>
      </trkpt>
      <trkpt lat="44.59923" lon="2.39723">
        <ele>302.7</ele>
        <time>2015-09-20T11:03:13Z</time>
      </trkpt>
      <trkpt lat="44.59917" lon="2.39713">
        <ele>301.2</ele>
        <time>2015-09-20T11:03:20Z</time>
      </trkpt>
      <trkpt lat="44.5992" lon="2.39728">
        <ele>300.1</ele>
        <time>2015-09-20T11:03:26Z</time>
      </trkpt>
      <trkpt lat="44.59923" lon="2.39741">
        <ele>299.2</ele>
        <time>2015-09-20T11:03:31Z</time>
      </trkpt>
      <trkpt lat="44.59929" lon="2.3975">
        <ele>298.3</ele>
        <time>2015-09-20T11:03:37Z</time>
      </trkpt>
      <trkpt lat="44.59928" lon="2.39765">
        <ele>297.5</ele>
        <time>2015-09-20T11:03:44Z</time>
      </trkpt>
      <trkpt lat="44.59922" lon="2.39774">
        <ele>296.3</ele>
        <time>2015-09-20T11:04:36Z</time>
      </trkpt>
      <trkpt lat="44.59921" lon="2.39759">
        <ele>296.2</ele>
        <time>2015-09-20T11:05:07Z</time>
      </trkpt>
      <trkpt lat="44.59921" lon="2.39745">
        <ele>296.2</ele>
        <time>2015-09-20T11:05:12Z</time>
      </trkpt>
      <trkpt lat="44.59921" lon="2.39731">
        <ele>296.2</ele>
        <time>2015-09-20T11:05:20Z</time>
      </trkpt>
      <trkpt lat="44.59918" lon="2.39718">
        <ele>296.4</ele>
        <time>2015-09-20T11:05:27Z</time>
      </trkpt>
      <trkpt lat="44.59912" lon="2.39728">
        <ele>298.4</ele>
        <time>2015-09-20T11:08:34Z</time>
      </trkpt>
      <trkpt lat="44.59912" lon="2.39739">
        <ele>298</ele>
        <time>2015-09-20T11:09:24Z</time>
      </trkpt>
      <trkpt lat="44.59919" lon="2.39751">
        <ele>298.9</ele>
        <time>2015-09-20T11:09:42Z</time>
      </trkpt>
    </trkseg>
  </trk>
</gpx>